<?xml version='1.0' encoding='UTF-8'?><gpx version="1.1" creator="JPX - https://github.com/jenetics/jpx" xmlns="http://www.topografix.com/GPX/1/1"><trk><trkseg><trkpt lat="43.409215217883656" lon="10.41266116895068"><ele>72.0</ele><time>2026-05-02T07:22:43.737Z</time></trkpt><trkpt lat="43.40922246459583" lon="10.41256878889639"><ele>72.0</ele><time>2026-05-02T07:22:46.982Z</time></trkpt><trkpt lat="43.40920677021667" lon="10.412437121006763"><ele>72.0</ele><time>2026-05-02T07:23:00.993Z</time></trkpt><trkpt lat="43.409175080462404" lon="10.412318766369761"><ele>72.0</ele><time>2026-05-02T07:23:15.998Z</time></trkpt><trkpt lat="43.409147192563374" lon="10.41221869413618"><ele>72.0</ele><time>2026-05-02T07:23:18.998Z</time></trkpt><trkpt lat="43.409116463875215" lon="10.412127469871518"><ele>72.0</ele><time>2026-05-02T07:23:20.999Z</time></trkpt><trkpt lat="43.40907936502492" lon="10.412000390345368"><ele>71.0</ele><time>2026-05-02T07:23:22.999Z</time></trkpt><trkpt lat="43.40903648341543" lon="10.411886491987197"><ele>70.0</ele><time>2026-05-02T07:23:24.999Z</time></trkpt><trkpt lat="43.4090017472122" lon="10.411749587085147"><ele>69.0</ele><time>2026-05-02T07:23:26.999Z</time></trkpt><trkpt lat="43.409003198412556" lon="10.411656396414582"><ele>68.0</ele><time>2026-05-02T07:23:27.999Z</time></trkpt><trkpt lat="43.408984975453265" lon="10.41150260235453"><ele>67.0</ele><time>2026-05-02T07:23:30Z</time></trkpt><trkpt lat="43.40896904164756" lon="10.411412368853066"><ele>66.0</ele><time>2026-05-02T07:23:31Z</time></trkpt><trkpt lat="43.40893273331974" lon="10.411323270389936"><ele>64.83333333333333</ele><time>2026-05-02T07:23:32Z</time></trkpt><trkpt lat="43.40886381987603" lon="10.411272629486746"><ele>63.66666666666667</ele><time>2026-05-02T07:23:33Z</time></trkpt><trkpt lat="43.408796950913434" lon="10.41125945166964"><ele>62.5</ele><time>2026-05-02T07:23:34Z</time></trkpt><trkpt lat="43.40873190413223" lon="10.41128435567618"><ele>61.333333333333336</ele><time>2026-05-02T07:23:35Z</time></trkpt><trkpt lat="43.40867825910423" lon="10.411370303833879"><ele>60.16666666666667</ele><time>2026-05-02T07:23:36Z</time></trkpt><trkpt lat="43.408653798298225" lon="10.41147144673553"><ele>59.0</ele><time>2026-05-02T07:23:37Z</time></trkpt><trkpt lat="43.408638499775016" lon="10.411583997157038"><ele>59.00000000000001</ele><time>2026-05-02T07:23:38Z</time></trkpt><trkpt lat="43.40863112993579" lon="10.411699790377021"><ele>59.0</ele><time>2026-05-02T07:23:39Z</time></trkpt><trkpt lat="43.40862272819632" lon="10.411809719253025"><ele>59.0</ele><time>2026-05-02T07:23:40Z</time></trkpt><trkpt lat="43.408609169144796" lon="10.411904817880536"><ele>59.0</ele><time>2026-05-02T07:23:41Z</time></trkpt><trkpt lat="43.40851142937952" lon="10.412020850281758"><ele>59.00000000000001</ele><time>2026-05-02T07:23:43Z</time></trkpt><trkpt lat="43.408441025773186" lon="10.412029848107583"><ele>59.0</ele><time>2026-05-02T07:23:44Z</time></trkpt><trkpt lat="43.408356583760266" lon="10.41201668132572"><ele>59.00000000000001</ele><time>2026-05-02T07:23:45Z</time></trkpt><trkpt lat="43.40828521042204" lon="10.41195825324477"><ele>59.0</ele><time>2026-05-02T07:23:46Z</time></trkpt><trkpt lat="43.40822766594483" lon="10.411868840501107"><ele>59.0</ele><time>2026-05-02T07:23:47Z</time></trkpt><trkpt lat="43.4081738340447" lon="10.411785462208561"><ele>59.0</ele><time>2026-05-02T07:23:48Z</time></trkpt><trkpt lat="43.40810712740467" lon="10.411693081411512"><ele>59.00000000000001</ele><time>2026-05-02T07:23:49Z</time></trkpt><trkpt lat="43.40803593673151" lon="10.411615377731948"><ele>59.0</ele><time>2026-05-02T07:23:50.001Z</time></trkpt><trkpt lat="43.40795202871299" lon="10.411555303466214"><ele>58.2</ele><time>2026-05-02T07:23:51.001Z</time></trkpt><trkpt lat="43.40785241946891" lon="10.411526775991105"><ele>57.400000000000006</ele><time>2026-05-02T07:23:52.001Z</time></trkpt><trkpt lat="43.40775248318843" lon="10.411501769950569"><ele>56.6</ele><time>2026-05-02T07:23:53.001Z</time></trkpt><trkpt lat="43.407652704246104" lon="10.411471773360644"><ele>55.8</ele><time>2026-05-02T07:23:54.001Z</time></trkpt><trkpt lat="43.4075380480412" lon="10.411447537953594"><ele>55.0</ele><time>2026-05-02T07:23:55.001Z</time></trkpt><trkpt lat="43.40743538428046" lon="10.411404707157418"><ele>55.0</ele><time>2026-05-02T07:23:56.001Z</time></trkpt><trkpt lat="43.40732956562227" lon="10.41138153379669"><ele>55.0</ele><time>2026-05-02T07:23:57.001Z</time></trkpt><trkpt lat="43.40722611418001" lon="10.411353419851233"><ele>55.0</ele><time>2026-05-02T07:23:58.001Z</time></trkpt><trkpt lat="43.40712680051725" lon="10.411351763807431"><ele>55.0</ele><time>2026-05-02T07:23:59.001Z</time></trkpt><trkpt lat="43.40704299633411" lon="10.411357054559753"><ele>55.0</ele><time>2026-05-02T07:24:00.001Z</time></trkpt><trkpt lat="43.4069583231462" lon="10.41135388539894"><ele>53.666666666666664</ele><time>2026-05-02T07:24:01.001Z</time></trkpt><trkpt lat="43.40688388290774" lon="10.411349674929978"><ele>52.33333333333333</ele><time>2026-05-02T07:24:02.001Z</time></trkpt><trkpt lat="43.40682072683239" lon="10.411321513740242"><ele>51.0</ele><time>2026-05-02T07:24:03.001Z</time></trkpt><trkpt lat="43.406777025850715" lon="10.411240524616804"><ele>49.666666666666664</ele><time>2026-05-02T07:24:04.001Z</time></trkpt><trkpt lat="43.40677032364271" lon="10.411126158751749"><ele>48.33333333333333</ele><time>2026-05-02T07:24:05.001Z</time></trkpt><trkpt lat="43.40674110767448" lon="10.411020508211447"><ele>47.0</ele><time>2026-05-02T07:24:06.001Z</time></trkpt><trkpt lat="43.4067418565438" lon="10.410909916262066"><ele>46.166666666666664</ele><time>2026-05-02T07:24:07.001Z</time></trkpt><trkpt lat="43.40675420097742" lon="10.410817214122783"><ele>45.33333333333333</ele><time>2026-05-02T07:24:08.001Z</time></trkpt><trkpt lat="43.40680561530258" lon="10.410729354715084"><ele>44.5</ele><time>2026-05-02T07:24:09.001Z</time></trkpt><trkpt lat="43.406868841135875" lon="10.410662858104322"><ele>43.666666666666664</ele><time>2026-05-02T07:24:10.001Z</time></trkpt><trkpt lat="43.40692807188166" lon="10.410587684063419"><ele>42.833333333333336</ele><time>2026-05-02T07:24:11.001Z</time></trkpt><trkpt lat="43.40698377017416" lon="10.410505502837001"><ele>42.0</ele><time>2026-05-02T07:24:12.001Z</time></trkpt><trkpt lat="43.40704056145512" lon="10.410417741167329"><ele>41.5</ele><time>2026-05-02T07:24:13.001Z</time></trkpt><trkpt lat="43.40712212366412" lon="10.410328798589319"><ele>41.0</ele><time>2026-05-02T07:24:14.001Z</time></trkpt><trkpt lat="43.407166909173284" lon="10.410235774807118"><ele>40.5</ele><time>2026-05-02T07:24:15.001Z</time></trkpt><trkpt lat="43.40723511744591" lon="10.410156306816498"><ele>40.0</ele><time>2026-05-02T07:24:16.001Z</time></trkpt><trkpt lat="43.407298564094575" lon="10.4100738021078"><ele>39.5</ele><time>2026-05-02T07:24:17.001Z</time></trkpt><trkpt lat="43.40734554181021" lon="10.409987382872078"><ele>39.0</ele><time>2026-05-02T07:24:18.001Z</time></trkpt><trkpt lat="43.40743050282389" lon="10.409873062886877"><ele>39.0</ele><time>2026-05-02T07:24:20.001Z</time></trkpt><trkpt lat="43.407476023839074" lon="10.409807784774733"><ele>39.0</ele><time>2026-05-02T07:24:21.001Z</time></trkpt><trkpt lat="43.407559573639084" lon="10.409679565124678"><ele>39.0</ele><time>2026-05-02T07:24:23.001Z</time></trkpt><trkpt lat="43.407602403458036" lon="10.409608711878391"><ele>39.0</ele><time>2026-05-02T07:24:24.001Z</time></trkpt><trkpt lat="43.407651406354354" lon="10.40954232497323"><ele>39.0</ele><time>2026-05-02T07:24:25.001Z</time></trkpt><trkpt lat="43.407702594514475" lon="10.409474516965204"><ele>39.0</ele><time>2026-05-02T07:24:26.001Z</time></trkpt><trkpt lat="43.40775208312521" lon="10.40940946323188"><ele>38.57142857142858</ele><time>2026-05-02T07:24:27.001Z</time></trkpt><trkpt lat="43.40780564594557" lon="10.409352729895165"><ele>38.14285714285714</ele><time>2026-05-02T07:24:28.001Z</time></trkpt><trkpt lat="43.40785808480139" lon="10.409278247168244"><ele>37.714285714285715</ele><time>2026-05-02T07:24:29.001Z</time></trkpt><trkpt lat="43.40791421277788" lon="10.40921353156105"><ele>37.28571428571429</ele><time>2026-05-02T07:24:30.001Z</time></trkpt><trkpt lat="43.40797327735554" lon="10.409138603915867"><ele>36.85714285714286</ele><time>2026-05-02T07:24:31.001Z</time></trkpt><trkpt lat="43.40803032973455" lon="10.409068008822278"><ele>36.42857142857143</ele><time>2026-05-02T07:24:32.001Z</time></trkpt><trkpt lat="43.40807939817602" lon="10.408999199120991"><ele>36.0</ele><time>2026-05-02T07:24:33.001Z</time></trkpt><trkpt lat="43.40814205724787" lon="10.408880151570823"><ele>34.166666666666664</ele><time>2026-05-02T07:24:35.001Z</time></trkpt><trkpt lat="43.40809687601527" lon="10.408699676679111"><ele>32.333333333333336</ele><time>2026-05-02T07:24:37.001Z</time></trkpt><trkpt lat="43.40808129810783" lon="10.408598999614453"><ele>30.5</ele><time>2026-05-02T07:24:38.001Z</time></trkpt><trkpt lat="43.40806119551828" lon="10.408486372960459"><ele>28.666666666666668</ele><time>2026-05-02T07:24:39.001Z</time></trkpt><trkpt lat="43.40805017738945" lon="10.408391314263154"><ele>26.833333333333336</ele><time>2026-05-02T07:24:40.001Z</time></trkpt><trkpt lat="43.408029481558884" lon="10.40829893494772"><ele>25.0</ele><time>2026-05-02T07:24:41.001Z</time></trkpt><trkpt lat="43.40800482064613" lon="10.408146406495375"><ele>25.000000000000004</ele><time>2026-05-02T07:24:43.001Z</time></trkpt><trkpt lat="43.40799681832256" lon="10.408060093935946"><ele>25.0</ele><time>2026-05-02T07:24:47.001Z</time></trkpt><trkpt lat="43.40808348899833" lon="10.408022534580558"><ele>25.0</ele><time>2026-05-02T07:24:48.001Z</time></trkpt><trkpt lat="43.40815792338564" lon="10.408004446335593"><ele>25.0</ele><time>2026-05-02T07:24:50.001Z</time></trkpt><trkpt lat="43.40824115715215" lon="10.407976744424605"><ele>25.000000000000004</ele><time>2026-05-02T07:24:52.001Z</time></trkpt><trkpt lat="43.40832672385438" lon="10.407937084591278"><ele>25.0</ele><time>2026-05-02T07:24:54.001Z</time></trkpt><trkpt lat="43.408421299489454" lon="10.407895256164698"><ele>23.2</ele><time>2026-05-02T07:24:56.001Z</time></trkpt><trkpt lat="43.408514699622266" lon="10.407861445827896"><ele>21.4</ele><time>2026-05-02T07:24:58.001Z</time></trkpt><trkpt lat="43.408607771020854" lon="10.407829234870055"><ele>19.6</ele><time>2026-05-02T07:25:00.001Z</time></trkpt><trkpt lat="43.408707215452985" lon="10.407796802242006"><ele>17.8</ele><time>2026-05-02T07:25:02.001Z</time></trkpt><trkpt lat="43.408809151528786" lon="10.40776464120239"><ele>16.0</ele><time>2026-05-02T07:25:04.001Z</time></trkpt><trkpt lat="43.40891796987717" lon="10.407734696483036"><ele>16.0</ele><time>2026-05-02T07:25:06.001Z</time></trkpt><trkpt lat="43.4090282355015" lon="10.407694848402944"><ele>16.0</ele><time>2026-05-02T07:25:08Z</time></trkpt><trkpt lat="43.40914881143008" lon="10.407655940253424"><ele>16.0</ele><time>2026-05-02T07:25:10Z</time></trkpt><trkpt lat="43.40927355014387" lon="10.407612234097531"><ele>16.0</ele><time>2026-05-02T07:25:12Z</time></trkpt><trkpt lat="43.40933912511259" lon="10.407600827140033"><ele>16.0</ele><time>2026-05-02T07:25:13Z</time></trkpt><trkpt lat="43.409404502244016" lon="10.407583965354982"><ele>15.999999999999998</ele><time>2026-05-02T07:25:14Z</time></trkpt><trkpt lat="43.40947132124219" lon="10.407584787868377"><ele>16.0</ele><time>2026-05-02T07:25:15Z</time></trkpt><trkpt lat="43.40953793602186" lon="10.407610871032398"><ele>16.0</ele><time>2026-05-02T07:25:16Z</time></trkpt><trkpt lat="43.40960530029605" lon="10.407625911028026"><ele>16.0</ele><time>2026-05-02T07:25:17Z</time></trkpt><trkpt lat="43.40973735768265" lon="10.407639199444318"><ele>15.999999999999998</ele><time>2026-05-02T07:25:19Z</time></trkpt><trkpt lat="43.40980429846845" lon="10.407645468409951"><ele>16.0</ele><time>2026-05-02T07:25:20Z</time></trkpt><trkpt lat="43.409872880876065" lon="10.407644901241833"><ele>16.285714285714285</ele><time>2026-05-02T07:25:21Z</time></trkpt><trkpt lat="43.409941714240965" lon="10.407645724516735"><ele>16.57142857142857</ele><time>2026-05-02T07:25:22Z</time></trkpt><trkpt lat="43.41000917606828" lon="10.407649361838264"><ele>16.857142857142858</ele><time>2026-05-02T07:25:23Z</time></trkpt><trkpt lat="43.410076381750116" lon="10.407642011363816"><ele>17.142857142857142</ele><time>2026-05-02T07:25:24Z</time></trkpt><trkpt lat="43.41014085868132" lon="10.407617127914655"><ele>17.42857142857143</ele><time>2026-05-02T07:25:25Z</time></trkpt><trkpt lat="43.41019700441905" lon="10.40756793739329"><ele>17.714285714285715</ele><time>2026-05-02T07:25:26Z</time></trkpt><trkpt lat="43.41024126992401" lon="10.40749807344833"><ele>18.0</ele><time>2026-05-02T07:25:27Z</time></trkpt><trkpt lat="43.410272181562306" lon="10.407418679973048"><ele>18.0</ele><time>2026-05-02T07:25:28Z</time></trkpt><trkpt lat="43.41028680272037" lon="10.40733156374769"><ele>18.0</ele><time>2026-05-02T07:25:29Z</time></trkpt><trkpt lat="43.41028646289184" lon="10.407239025908039"><ele>18.0</ele><time>2026-05-02T07:25:30Z</time></trkpt><trkpt lat="43.41024629618793" lon="10.40706959242866"><ele>18.0</ele><time>2026-05-02T07:25:32Z</time></trkpt><trkpt lat="43.41022441858065" lon="10.406984975016366"><ele>18.0</ele><time>2026-05-02T07:25:33Z</time></trkpt><trkpt lat="43.4101944749153" lon="10.406907752595641"><ele>18.0</ele><time>2026-05-02T07:25:34Z</time></trkpt><trkpt lat="43.41018229418982" lon="10.406741903490405"><ele>18.0</ele><time>2026-05-02T07:25:36Z</time></trkpt><trkpt lat="43.410156254600544" lon="10.406603487063826"><ele>18.0</ele><time>2026-05-02T07:25:38Z</time></trkpt><trkpt lat="43.41013697357216" lon="10.40646875232013"><ele>18.0</ele><time>2026-05-02T07:25:40Z</time></trkpt><trkpt lat="43.41012270413066" lon="10.40634037201481"><ele>18.0</ele><time>2026-05-02T07:25:42Z</time></trkpt><trkpt lat="43.41010519449734" lon="10.406207902508905"><ele>18.0</ele><time>2026-05-02T07:25:44Z</time></trkpt><trkpt lat="43.41009621522498" lon="10.406085960259936"><ele>18.0</ele><time>2026-05-02T07:25:46Z</time></trkpt><trkpt lat="43.41010626733372" lon="10.405949203945646"><ele>18.0</ele><time>2026-05-02T07:25:48Z</time></trkpt><trkpt lat="43.41010572010151" lon="10.40582055064797"><ele>18.0</ele><time>2026-05-02T07:25:50Z</time></trkpt><trkpt lat="43.41011489025463" lon="10.40568567295583"><ele>18.0</ele><time>2026-05-02T07:25:52Z</time></trkpt><trkpt lat="43.41010784387934" lon="10.405555550945182"><ele>18.0</ele><time>2026-05-02T07:25:54Z</time></trkpt><trkpt lat="43.41012300528005" lon="10.405420692298353"><ele>17.4</ele><time>2026-05-02T07:25:56Z</time></trkpt><trkpt lat="43.41014377077145" lon="10.405282046547715"><ele>16.8</ele><time>2026-05-02T07:25:58Z</time></trkpt><trkpt lat="43.41016623249917" lon="10.405153961860567"><ele>16.2</ele><time>2026-05-02T07:26:00Z</time></trkpt><trkpt lat="43.41019047981079" lon="10.405022788326596"><ele>15.6</ele><time>2026-05-02T07:26:02Z</time></trkpt><trkpt lat="43.41021926195302" lon="10.404891292374964"><ele>15.0</ele><time>2026-05-02T07:26:04Z</time></trkpt><trkpt lat="43.410248164995934" lon="10.404766491206217"><ele>13.2</ele><time>2026-05-02T07:26:06Z</time></trkpt><trkpt lat="43.410280077320685" lon="10.404643326761413"><ele>11.4</ele><time>2026-05-02T07:26:08Z</time></trkpt><trkpt lat="43.4103192308701" lon="10.404524114038303"><ele>9.6</ele><time>2026-05-02T07:26:10Z</time></trkpt><trkpt lat="43.410369366509244" lon="10.404419175968043"><ele>7.8</ele><time>2026-05-02T07:26:12Z</time></trkpt><trkpt lat="43.41042580400175" lon="10.404314085847604"><ele>6.0</ele><time>2026-05-02T07:26:14Z</time></trkpt><trkpt lat="43.41049723104575" lon="10.404224382541495"><ele>9.333333333333332</ele><time>2026-05-02T07:26:16Z</time></trkpt><trkpt lat="43.410568383908675" lon="10.404146671268041"><ele>12.666666666666666</ele><time>2026-05-02T07:26:18Z</time></trkpt><trkpt lat="43.410644248074625" lon="10.404076627470877"><ele>16.0</ele><time>2026-05-02T07:26:20Z</time></trkpt><trkpt lat="43.41072286590516" lon="10.404022762634382"><ele>19.333333333333332</ele><time>2026-05-02T07:26:22Z</time></trkpt><trkpt lat="43.410805472325926" lon="10.40398419071957"><ele>22.666666666666664</ele><time>2026-05-02T07:26:24Z</time></trkpt><trkpt lat="43.410889555772705" lon="10.403946653069703"><ele>26.0</ele><time>2026-05-02T07:26:26Z</time></trkpt><trkpt lat="43.410974812285644" lon="10.403908715705901"><ele>25.999999999999996</ele><time>2026-05-02T07:26:28Z</time></trkpt><trkpt lat="43.41106131273186" lon="10.403890365274515"><ele>26.0</ele><time>2026-05-02T07:26:30Z</time></trkpt><trkpt lat="43.41115005505562" lon="10.403883322489571"><ele>26.0</ele><time>2026-05-02T07:26:32Z</time></trkpt><trkpt lat="43.411235225525346" lon="10.403904368723792"><ele>26.0</ele><time>2026-05-02T07:26:34Z</time></trkpt><trkpt lat="43.411318473093516" lon="10.403930323959226"><ele>25.999999999999996</ele><time>2026-05-02T07:26:36Z</time></trkpt><trkpt lat="43.411401905623826" lon="10.403955926788104"><ele>26.0</ele><time>2026-05-02T07:26:38Z</time></trkpt><trkpt lat="43.411484393403136" lon="10.403988210540609"><ele>26.166666666666664</ele><time>2026-05-02T07:26:40Z</time></trkpt><trkpt lat="43.41156257058106" lon="10.40400641367702"><ele>26.333333333333332</ele><time>2026-05-02T07:26:42Z</time></trkpt><trkpt lat="43.411643857250894" lon="10.404047806055008"><ele>26.5</ele><time>2026-05-02T07:26:44Z</time></trkpt><trkpt lat="43.4117195945397" lon="10.404075476948822"><ele>26.666666666666664</ele><time>2026-05-02T07:26:46Z</time></trkpt><trkpt lat="43.4117956160092" lon="10.404095134400238"><ele>26.833333333333332</ele><time>2026-05-02T07:26:48Z</time></trkpt><trkpt lat="43.4118732008484" lon="10.40412564584676"><ele>27.0</ele><time>2026-05-02T07:26:50Z</time></trkpt><trkpt lat="43.41194754095808" lon="10.404142086110538"><ele>27.0</ele><time>2026-05-02T07:26:52Z</time></trkpt><trkpt lat="43.412022303565855" lon="10.404156496464644"><ele>27.0</ele><time>2026-05-02T07:26:54Z</time></trkpt><trkpt lat="43.41209631830688" lon="10.404158217503587"><ele>27.0</ele><time>2026-05-02T07:26:56Z</time></trkpt><trkpt lat="43.412168534597704" lon="10.404150298428068"><ele>27.0</ele><time>2026-05-02T07:26:58Z</time></trkpt><trkpt lat="43.41223569058032" lon="10.40413971989607"><ele>27.0</ele><time>2026-05-02T07:27:00Z</time></trkpt><trkpt lat="43.41230839363704" lon="10.404113965605454"><ele>27.0</ele><time>2026-05-02T07:27:02Z</time></trkpt><trkpt lat="43.4123774739212" lon="10.404089167131492"><ele>27.0</ele><time>2026-05-02T07:27:04Z</time></trkpt><trkpt lat="43.412441116166626" lon="10.404034903019044"><ele>28.0</ele><time>2026-05-02T07:27:06Z</time></trkpt><trkpt lat="43.412506828209516" lon="10.403990334375944"><ele>29.0</ele><time>2026-05-02T07:27:08Z</time></trkpt><trkpt lat="43.41256674553272" lon="10.403940214360267"><ele>30.0</ele><time>2026-05-02T07:27:10Z</time></trkpt><trkpt lat="43.41262434165754" lon="10.403886478580949"><ele>31.0</ele><time>2026-05-02T07:27:12Z</time></trkpt><trkpt lat="43.4126833523404" lon="10.403827125956381"><ele>32.0</ele><time>2026-05-02T07:27:14Z</time></trkpt><trkpt lat="43.41274417546491" lon="10.403757414355349"><ele>33.0</ele><time>2026-05-02T07:27:16Z</time></trkpt><trkpt lat="43.41280462690554" lon="10.403675778108544"><ele>33.6</ele><time>2026-05-02T07:27:18Z</time></trkpt><trkpt lat="43.412862977050146" lon="10.403585401422388"><ele>34.199999999999996</ele><time>2026-05-02T07:27:20Z</time></trkpt><trkpt lat="43.41292545041856" lon="10.403493497771963"><ele>34.8</ele><time>2026-05-02T07:27:22Z</time></trkpt><trkpt lat="43.41298724085596" lon="10.403390040828011"><ele>35.4</ele><time>2026-05-02T07:27:24Z</time></trkpt><trkpt lat="43.41305095626201" lon="10.403282825274045"><ele>36.0</ele><time>2026-05-02T07:27:26Z</time></trkpt><trkpt lat="43.41311340178587" lon="10.403174621212484"><ele>36.0</ele><time>2026-05-02T07:27:28Z</time></trkpt><trkpt lat="43.41317888866956" lon="10.403066343878097"><ele>36.0</ele><time>2026-05-02T07:27:30Z</time></trkpt><trkpt lat="43.413245014042715" lon="10.402962283778919"><ele>36.0</ele><time>2026-05-02T07:27:32Z</time></trkpt><trkpt lat="43.41331213006293" lon="10.402867651877832"><ele>36.0</ele><time>2026-05-02T07:27:34Z</time></trkpt><trkpt lat="43.41336168083945" lon="10.402784041064852"><ele>36.0</ele><time>2026-05-02T07:27:35Z</time></trkpt><trkpt lat="43.413427226193306" lon="10.402740900228673"><ele>33.2</ele><time>2026-05-02T07:27:37Z</time></trkpt><trkpt lat="43.41351855919407" lon="10.402702109105634"><ele>30.400000000000002</ele><time>2026-05-02T07:27:39Z</time></trkpt><trkpt lat="43.41360895560976" lon="10.40267051191663"><ele>27.6</ele><time>2026-05-02T07:27:41Z</time></trkpt><trkpt lat="43.41370410137712" lon="10.402675540420919"><ele>24.8</ele><time>2026-05-02T07:27:43Z</time></trkpt><trkpt lat="43.41379638733275" lon="10.402697108517495"><ele>22.0</ele><time>2026-05-02T07:27:45Z</time></trkpt><trkpt lat="43.413892700644176" lon="10.402727715493272"><ele>22.0</ele><time>2026-05-02T07:27:47Z</time></trkpt><trkpt lat="43.413982383382304" lon="10.402752361315592"><ele>22.0</ele><time>2026-05-02T07:27:49Z</time></trkpt><trkpt lat="43.414076219117085" lon="10.402749390109001"><ele>22.0</ele><time>2026-05-02T07:27:51Z</time></trkpt><trkpt lat="43.41416861272807" lon="10.402720129779683"><ele>22.0</ele><time>2026-05-02T07:27:53Z</time></trkpt><trkpt lat="43.41425932040562" lon="10.40267727689157"><ele>22.0</ele><time>2026-05-02T07:27:55Z</time></trkpt><trkpt lat="43.41435715107817" lon="10.402628577888413"><ele>22.0</ele><time>2026-05-02T07:27:57Z</time></trkpt><trkpt lat="43.41445696716705" lon="10.402568439431057"><ele>22.0</ele><time>2026-05-02T07:27:59Z</time></trkpt><trkpt lat="43.41456112972167" lon="10.402495926500933"><ele>22.0</ele><time>2026-05-02T07:28:01Z</time></trkpt><trkpt lat="43.414667030040576" lon="10.402406740623778"><ele>22.0</ele><time>2026-05-02T07:28:03Z</time></trkpt><trkpt lat="43.4147205412432" lon="10.402358497722151"><ele>22.0</ele><time>2026-05-02T07:28:04Z</time></trkpt><trkpt lat="43.41477437554793" lon="10.402301205729229"><ele>23.285714285714285</ele><time>2026-05-02T07:28:05Z</time></trkpt><trkpt lat="43.41483229057639" lon="10.40225466176953"><ele>24.57142857142857</ele><time>2026-05-02T07:28:06Z</time></trkpt><trkpt lat="43.4148932970054" lon="10.402206867875375"><ele>25.857142857142858</ele><time>2026-05-02T07:28:07Z</time></trkpt><trkpt lat="43.41496482648927" lon="10.402177431039059"><ele>27.142857142857146</ele><time>2026-05-02T07:28:08Z</time></trkpt><trkpt lat="43.415033403716244" lon="10.402150575478572"><ele>28.42857142857143</ele><time>2026-05-02T07:28:09Z</time></trkpt><trkpt lat="43.415103197175384" lon="10.402129392968806"><ele>29.714285714285715</ele><time>2026-05-02T07:28:10Z</time></trkpt><trkpt lat="43.415177456424956" lon="10.402115148489148"><ele>31.0</ele><time>2026-05-02T07:28:11Z</time></trkpt><trkpt lat="43.41524580148428" lon="10.40210318607919"><ele>29.833333333333336</ele><time>2026-05-02T07:28:12Z</time></trkpt><trkpt lat="43.41532442306897" lon="10.40208559722229"><ele>28.666666666666668</ele><time>2026-05-02T07:28:13Z</time></trkpt><trkpt lat="43.415394829394465" lon="10.402045996973744"><ele>27.5</ele><time>2026-05-02T07:28:14Z</time></trkpt><trkpt lat="43.41545955291069" lon="10.401980941722693"><ele>26.333333333333336</ele><time>2026-05-02T07:28:15Z</time></trkpt><trkpt lat="43.41551973662819" lon="10.401900131887514"><ele>25.166666666666668</ele><time>2026-05-02T07:28:16Z</time></trkpt><trkpt lat="43.41557987995924" lon="10.401819170043437"><ele>24.0</ele><time>2026-05-02T07:28:17Z</time></trkpt><trkpt lat="43.415642491354696" lon="10.40173077000065"><ele>24.0</ele><time>2026-05-02T07:28:18Z</time></trkpt><trkpt lat="43.415701861264694" lon="10.401637289771797"><ele>24.0</ele><time>2026-05-02T07:28:19Z</time></trkpt><trkpt lat="43.415763474858835" lon="10.401546352309127"><ele>24.0</ele><time>2026-05-02T07:28:20Z</time></trkpt><trkpt lat="43.415835109395324" lon="10.40145725529502"><ele>24.0</ele><time>2026-05-02T07:28:21Z</time></trkpt><trkpt lat="43.415919808768955" lon="10.40138642204618"><ele>24.0</ele><time>2026-05-02T07:28:22Z</time></trkpt><trkpt lat="43.416021728045116" lon="10.401351706516156"><ele>24.0</ele><time>2026-05-02T07:28:23Z</time></trkpt><trkpt lat="43.41612512765279" lon="10.401340018778239"><ele>24.0</ele><time>2026-05-02T07:28:24Z</time></trkpt><trkpt lat="43.416227709186536" lon="10.40132858061562"><ele>24.0</ele><time>2026-05-02T07:28:25Z</time></trkpt><trkpt lat="43.41633200002486" lon="10.401333959110483"><ele>24.0</ele><time>2026-05-02T07:28:26Z</time></trkpt><trkpt lat="43.41643663613326" lon="10.40135377524869"><ele>24.0</ele><time>2026-05-02T07:28:27Z</time></trkpt><trkpt lat="43.416541307877445" lon="10.401379251332196"><ele>24.4</ele><time>2026-05-02T07:28:28Z</time></trkpt><trkpt lat="43.41664590821542" lon="10.401399459277435"><ele>24.799999999999997</ele><time>2026-05-02T07:28:29Z</time></trkpt><trkpt lat="43.41675162616366" lon="10.401423939247904"><ele>25.200000000000003</ele><time>2026-05-02T07:28:30Z</time></trkpt><trkpt lat="43.41685768017715" lon="10.401447797258461"><ele>25.6</ele><time>2026-05-02T07:28:31Z</time></trkpt><trkpt lat="43.41695698265399" lon="10.4014689277702"><ele>26.0</ele><time>2026-05-02T07:28:32Z</time></trkpt><trkpt lat="43.41705804052234" lon="10.401492101158436"><ele>24.8</ele><time>2026-05-02T07:28:33Z</time></trkpt><trkpt lat="43.41716251013104" lon="10.401507096762096"><ele>23.6</ele><time>2026-05-02T07:28:34Z</time></trkpt><trkpt lat="43.41725685462149" lon="10.401527161332213"><ele>22.4</ele><time>2026-05-02T07:28:35Z</time></trkpt><trkpt lat="43.41735569119022" lon="10.401540613168988"><ele>21.2</ele><time>2026-05-02T07:28:36Z</time></trkpt><trkpt lat="43.417452913320034" lon="10.401565177464041"><ele>20.0</ele><time>2026-05-02T07:28:37Z</time></trkpt><trkpt lat="43.41754809110521" lon="10.40158320746199"><ele>20.0</ele><time>2026-05-02T07:28:38Z</time></trkpt><trkpt lat="43.417639639792526" lon="10.401604110190725"><ele>20.0</ele><time>2026-05-02T07:28:39Z</time></trkpt><trkpt lat="43.41773308461711" lon="10.401626615599223"><ele>20.0</ele><time>2026-05-02T07:28:40Z</time></trkpt><trkpt lat="43.41782455835787" lon="10.401641908801958"><ele>20.0</ele><time>2026-05-02T07:28:41Z</time></trkpt><trkpt lat="43.41791557922574" lon="10.401657833532147"><ele>20.0</ele><time>2026-05-02T07:28:42Z</time></trkpt><trkpt lat="43.41800489267482" lon="10.401682056489316"><ele>19.333333333333336</ele><time>2026-05-02T07:28:43Z</time></trkpt><trkpt lat="43.41809100633106" lon="10.401701079814849"><ele>18.666666666666668</ele><time>2026-05-02T07:28:44Z</time></trkpt><trkpt lat="43.41817738945533" lon="10.401720129661364"><ele>18.0</ele><time>2026-05-02T07:28:45Z</time></trkpt><trkpt lat="43.41826219354983" lon="10.40173456148818"><ele>17.333333333333332</ele><time>2026-05-02T07:28:46Z</time></trkpt><trkpt lat="43.418347789144484" lon="10.401753472489128"><ele>16.666666666666664</ele><time>2026-05-02T07:28:47Z</time></trkpt><trkpt lat="43.418431336363604" lon="10.401769556396204"><ele>16.0</ele><time>2026-05-02T07:28:48Z</time></trkpt><trkpt lat="43.41851500372854" lon="10.40178586630592"><ele>15.999999999999998</ele><time>2026-05-02T07:28:49Z</time></trkpt><trkpt lat="43.41859502278004" lon="10.40180312018156"><ele>16.0</ele><time>2026-05-02T07:28:50Z</time></trkpt><trkpt lat="43.418676191498605" lon="10.401818924673965"><ele>16.0</ele><time>2026-05-02T07:28:51Z</time></trkpt><trkpt lat="43.41875565192199" lon="10.401833375473318"><ele>16.0</ele><time>2026-05-02T07:28:52Z</time></trkpt><trkpt lat="43.418838265022494" lon="10.401843474528174"><ele>15.999999999999998</ele><time>2026-05-02T07:28:53Z</time></trkpt><trkpt lat="43.418914145789294" lon="10.401853131229792"><ele>16.0</ele><time>2026-05-02T07:28:54Z</time></trkpt><trkpt lat="43.41899538020852" lon="10.401853443377544"><ele>15.714285714285714</ele><time>2026-05-02T07:28:55Z</time></trkpt><trkpt lat="43.41906972929633" lon="10.401861239366184"><ele>15.428571428571427</ele><time>2026-05-02T07:28:56Z</time></trkpt><trkpt lat="43.4191420860885" lon="10.401868049467843"><ele>15.142857142857142</ele><time>2026-05-02T07:28:57Z</time></trkpt><trkpt lat="43.41921717844155" lon="10.401869314584127"><ele>14.857142857142858</ele><time>2026-05-02T07:28:58Z</time></trkpt><trkpt lat="43.4192811823103" lon="10.40187084315343"><ele>14.571428571428571</ele><time>2026-05-02T07:28:59Z</time></trkpt><trkpt lat="43.419362383538314" lon="10.401882661553326"><ele>14.285714285714285</ele><time>2026-05-02T07:29:01Z</time></trkpt><trkpt lat="43.41942802404832" lon="10.401882164300028"><ele>14.0</ele><time>2026-05-02T07:29:12Z</time></trkpt><trkpt lat="43.41949979903128" lon="10.401883583252165"><ele>14.0</ele><time>2026-05-02T07:29:15Z</time></trkpt><trkpt lat="43.41959996098377" lon="10.401891821034967"><ele>13.999999999999998</ele><time>2026-05-02T07:29:18Z</time></trkpt><trkpt lat="43.419684483167885" lon="10.401885722365712"><ele>13.999999999999998</ele><time>2026-05-02T07:29:20Z</time></trkpt><trkpt lat="43.419776514607165" lon="10.401881675453811"><ele>14.0</ele><time>2026-05-02T07:29:22Z</time></trkpt><trkpt lat="43.41987364130052" lon="10.401883770554347"><ele>14.0</ele><time>2026-05-02T07:29:24Z</time></trkpt><trkpt lat="43.4199714704774" lon="10.40188875177771"><ele>14.799999999999999</ele><time>2026-05-02T07:29:26Z</time></trkpt><trkpt lat="43.4200764478185" lon="10.40187086651649"><ele>15.599999999999998</ele><time>2026-05-02T07:29:28Z</time></trkpt><trkpt lat="43.42018458844308" lon="10.401847393021717"><ele>16.4</ele><time>2026-05-02T07:29:30Z</time></trkpt><trkpt lat="43.420289727680455" lon="10.401809262316736"><ele>17.2</ele><time>2026-05-02T07:29:32Z</time></trkpt><trkpt lat="43.42039119474186" lon="10.401744821328977"><ele>18.0</ele><time>2026-05-02T07:29:34Z</time></trkpt><trkpt lat="43.42048733171296" lon="10.401660888920425"><ele>18.0</ele><time>2026-05-02T07:29:36Z</time></trkpt><trkpt lat="43.420585950476344" lon="10.401578797108105"><ele>18.0</ele><time>2026-05-02T07:29:38Z</time></trkpt><trkpt lat="43.42068692945859" lon="10.401503336907204"><ele>18.0</ele><time>2026-05-02T07:29:40Z</time></trkpt><trkpt lat="43.42078572228507" lon="10.401418061278497"><ele>18.0</ele><time>2026-05-02T07:29:42Z</time></trkpt><trkpt lat="43.420881687596676" lon="10.401331540669386"><ele>15.0</ele><time>2026-05-02T07:29:44Z</time></trkpt><trkpt lat="43.42098129409085" lon="10.40125812252595"><ele>12.0</ele><time>2026-05-02T07:29:46Z</time></trkpt><trkpt lat="43.42108787752784" lon="10.401193814802948"><ele>9.0</ele><time>2026-05-02T07:29:48Z</time></trkpt><trkpt lat="43.421200616906816" lon="10.401178811015614"><ele>6.0</ele><time>2026-05-02T07:29:50Z</time></trkpt><trkpt lat="43.42131211908393" lon="10.401184569454802"><ele>7.0</ele><time>2026-05-02T07:29:52Z</time></trkpt><trkpt lat="43.421418448508106" lon="10.401208221921149"><ele>8.0</ele><time>2026-05-02T07:29:54Z</time></trkpt><trkpt lat="43.42152824968461" lon="10.40124304571231"><ele>9.0</ele><time>2026-05-02T07:29:56Z</time></trkpt><trkpt lat="43.42164131935997" lon="10.401267633106253"><ele>10.0</ele><time>2026-05-02T07:29:58Z</time></trkpt><trkpt lat="43.42175898700275" lon="10.401294163347984"><ele>10.0</ele><time>2026-05-02T07:30:00Z</time></trkpt><trkpt lat="43.42182542782886" lon="10.401311683204565"><ele>10.0</ele><time>2026-05-02T07:30:01Z</time></trkpt><trkpt lat="43.4218940227368" lon="10.401329771085742"><ele>10.0</ele><time>2026-05-02T07:30:02Z</time></trkpt><trkpt lat="43.421960042036886" lon="10.401347179787132"><ele>10.0</ele><time>2026-05-02T07:30:03Z</time></trkpt><trkpt lat="43.422040005512955" lon="10.40136396922716"><ele>10.0</ele><time>2026-05-02T07:30:05Z</time></trkpt><trkpt lat="43.42215377518156" lon="10.401395676080051"><ele>10.0</ele><time>2026-05-02T07:30:07Z</time></trkpt><trkpt lat="43.42226257227983" lon="10.401424685412998"><ele>12.2</ele><time>2026-05-02T07:30:09Z</time></trkpt><trkpt lat="43.42237009104875" lon="10.401455789646834"><ele>14.4</ele><time>2026-05-02T07:30:11Z</time></trkpt><trkpt lat="43.422475766847185" lon="10.401484113735181"><ele>16.6</ele><time>2026-05-02T07:30:13Z</time></trkpt><trkpt lat="43.42258592876828" lon="10.401513579904767"><ele>18.8</ele><time>2026-05-02T07:30:15Z</time></trkpt><trkpt lat="43.422696471206386" lon="10.401534361889421"><ele>21.0</ele><time>2026-05-02T07:30:17Z</time></trkpt><trkpt lat="43.422803894602865" lon="10.401563986885744"><ele>21.0</ele><time>2026-05-02T07:30:19Z</time></trkpt><trkpt lat="43.422916127907484" lon="10.401588327660548"><ele>21.0</ele><time>2026-05-02T07:30:21Z</time></trkpt><trkpt lat="43.423023072287165" lon="10.40161428968058"><ele>21.0</ele><time>2026-05-02T07:30:23Z</time></trkpt><trkpt lat="43.42313811249191" lon="10.401622075572762"><ele>21.0</ele><time>2026-05-02T07:30:25Z</time></trkpt><trkpt lat="43.4232496808713" lon="10.401601451112176"><ele>21.0</ele><time>2026-05-02T07:30:27Z</time></trkpt><trkpt lat="43.42336206830012" lon="10.401550760929421"><ele>21.0</ele><time>2026-05-02T07:30:29Z</time></trkpt><trkpt lat="43.423472106227976" lon="10.40150020624216"><ele>21.0</ele><time>2026-05-02T07:30:31Z</time></trkpt><trkpt lat="43.423583665111416" lon="10.401463065311864"><ele>21.0</ele><time>2026-05-02T07:30:33Z</time></trkpt><trkpt lat="43.423698130484034" lon="10.401433667400541"><ele>21.0</ele><time>2026-05-02T07:30:35Z</time></trkpt><trkpt lat="43.42380761189296" lon="10.401399491098353"><ele>21.0</ele><time>2026-05-02T07:30:37Z</time></trkpt><trkpt lat="43.42391678396296" lon="10.401369604750105"><ele>21.0</ele><time>2026-05-02T07:30:39Z</time></trkpt><trkpt lat="43.424028389113985" lon="10.40134164916421"><ele>21.0</ele><time>2026-05-02T07:30:41Z</time></trkpt><trkpt lat="43.42414320627417" lon="10.401325444614947"><ele>17.25</ele><time>2026-05-02T07:30:43Z</time></trkpt><trkpt lat="43.42425708154864" lon="10.401302149439003"><ele>13.5</ele><time>2026-05-02T07:30:45Z</time></trkpt><trkpt lat="43.42436926846811" lon="10.401291523901289"><ele>9.75</ele><time>2026-05-02T07:30:47Z</time></trkpt><trkpt lat="43.42448278332905" lon="10.401279095851175"><ele>6.0</ele><time>2026-05-02T07:30:49Z</time></trkpt><trkpt lat="43.42459478479108" lon="10.401263091395382"><ele>7.0</ele><time>2026-05-02T07:30:51Z</time></trkpt><trkpt lat="43.42470790017603" lon="10.40124278326156"><ele>8.0</ele><time>2026-05-02T07:30:53Z</time></trkpt><trkpt lat="43.42481794326203" lon="10.401201369075077"><ele>9.0</ele><time>2026-05-02T07:30:55Z</time></trkpt><trkpt lat="43.42494159516495" lon="10.401154128691426"><ele>10.0</ele><time>2026-05-02T07:30:57Z</time></trkpt><trkpt lat="43.425052721871296" lon="10.401106487776353"><ele>10.0</ele><time>2026-05-02T07:30:59Z</time></trkpt><trkpt lat="43.425112886029105" lon="10.401080282238365"><ele>10.0</ele><time>2026-05-02T07:31:00Z</time></trkpt><trkpt lat="43.42523144753304" lon="10.40103318705087"><ele>10.0</ele><time>2026-05-02T07:31:02Z</time></trkpt><trkpt lat="43.42535126994168" lon="10.40098469301152"><ele>10.0</ele><time>2026-05-02T07:31:04Z</time></trkpt><trkpt lat="43.42547026745806" lon="10.400933035269482"><ele>10.0</ele><time>2026-05-02T07:31:06Z</time></trkpt><trkpt lat="43.42558533910701" lon="10.400891882982805"><ele>9.0</ele><time>2026-05-02T07:31:08Z</time></trkpt><trkpt lat="43.42569558022125" lon="10.400834765098992"><ele>8.0</ele><time>2026-05-02T07:31:10Z</time></trkpt><trkpt lat="43.42579272765075" lon="10.40073171176018"><ele>7.0</ele><time>2026-05-02T07:31:12Z</time></trkpt><trkpt lat="43.425863751637124" lon="10.400603394122545"><ele>6.0</ele><time>2026-05-02T07:31:14Z</time></trkpt><trkpt lat="43.425932221117314" lon="10.400460689969337"><ele>5.999999999999999</ele><time>2026-05-02T07:31:16Z</time></trkpt><trkpt lat="43.425967333075064" lon="10.400386506556575"><ele>6.0</ele><time>2026-05-02T07:31:17Z</time></trkpt><trkpt lat="43.42599939348549" lon="10.400307583639998"><ele>6.0</ele><time>2026-05-02T07:31:18Z</time></trkpt><trkpt lat="43.426039593410856" lon="10.400237841436814"><ele>6.0</ele><time>2026-05-02T07:31:19Z</time></trkpt><trkpt lat="43.42608025215667" lon="10.400169340226347"><ele>6.0</ele><time>2026-05-02T07:31:20Z</time></trkpt><trkpt lat="43.42612708967815" lon="10.400105743710464"><ele>5.999999999999999</ele><time>2026-05-02T07:31:21Z</time></trkpt><trkpt lat="43.4261821624112" lon="10.400053980750835"><ele>6.0</ele><time>2026-05-02T07:31:22Z</time></trkpt><trkpt lat="43.42624797929387" lon="10.400015848637485"><ele>6.0</ele><time>2026-05-02T07:31:23Z</time></trkpt><trkpt lat="43.426310464491976" lon="10.399989695459851"><ele>6.0</ele><time>2026-05-02T07:31:24Z</time></trkpt><trkpt lat="43.426373417824216" lon="10.399966458755955"><ele>6.0</ele><time>2026-05-02T07:31:25Z</time></trkpt><trkpt lat="43.42643840117612" lon="10.399943689542257"><ele>6.0</ele><time>2026-05-02T07:31:26Z</time></trkpt><trkpt lat="43.42650559140656" lon="10.399931700011535"><ele>6.0</ele><time>2026-05-02T07:31:27Z</time></trkpt><trkpt lat="43.426615640773896" lon="10.39987641970697"><ele>6.0</ele><time>2026-05-02T07:31:29Z</time></trkpt><trkpt lat="43.42671013966453" lon="10.399789664145846"><ele>6.4</ele><time>2026-05-02T07:31:31Z</time></trkpt><trkpt lat="43.42678806405524" lon="10.399676882690972"><ele>6.8</ele><time>2026-05-02T07:31:33Z</time></trkpt><trkpt lat="43.426841244012216" lon="10.399533594471912"><ele>7.200000000000001</ele><time>2026-05-02T07:31:35Z</time></trkpt><trkpt lat="43.426864823076556" lon="10.39945278506484"><ele>7.6000000000000005</ele><time>2026-05-02T07:31:36Z</time></trkpt><trkpt lat="43.4269049254105" lon="10.399299166865102"><ele>8.0</ele><time>2026-05-02T07:31:38Z</time></trkpt><trkpt lat="43.42695649660684" lon="10.399142915788635"><ele>8.0</ele><time>2026-05-02T07:31:40Z</time></trkpt><trkpt lat="43.426993152658824" lon="10.399072040512646"><ele>8.0</ele><time>2026-05-02T07:31:41Z</time></trkpt><trkpt lat="43.42709237053139" lon="10.398966507597223"><ele>8.0</ele><time>2026-05-02T07:31:43Z</time></trkpt><trkpt lat="43.427206633929764" lon="10.398902468836367"><ele>8.0</ele><time>2026-05-02T07:31:45Z</time></trkpt><trkpt lat="43.427323516015264" lon="10.398881935810492"><ele>8.0</ele><time>2026-05-02T07:31:47Z</time></trkpt><trkpt lat="43.42738671024025" lon="10.398873342344032"><ele>8.25</ele><time>2026-05-02T07:31:48Z</time></trkpt><trkpt lat="43.427502867546494" lon="10.398849315525048"><ele>8.5</ele><time>2026-05-02T07:31:50Z</time></trkpt><trkpt lat="43.427626945600565" lon="10.39883664465193"><ele>8.75</ele><time>2026-05-02T07:31:52Z</time></trkpt><trkpt lat="43.427741658278165" lon="10.398821458635004"><ele>9.0</ele><time>2026-05-02T07:31:54Z</time></trkpt><trkpt lat="43.42784837102241" lon="10.398751575965166"><ele>9.0</ele><time>2026-05-02T07:31:56Z</time></trkpt><trkpt lat="43.427944077609965" lon="10.398653715567185"><ele>9.0</ele><time>2026-05-02T07:31:58Z</time></trkpt><trkpt lat="43.427992613539885" lon="10.398591134052351"><ele>9.0</ele><time>2026-05-02T07:31:59Z</time></trkpt><trkpt lat="43.428078408024305" lon="10.398467076064911"><ele>9.0</ele><time>2026-05-02T07:32:01Z</time></trkpt><trkpt lat="43.42816331518058" lon="10.398348654209604"><ele>9.0</ele><time>2026-05-02T07:32:03Z</time></trkpt><trkpt lat="43.42824259086626" lon="10.3982339712468"><ele>10.4</ele><time>2026-05-02T07:32:05Z</time></trkpt><trkpt lat="43.42831096500014" lon="10.39811960355005"><ele>11.8</ele><time>2026-05-02T07:32:07Z</time></trkpt><trkpt lat="43.428375247494515" lon="10.398007548819008"><ele>13.200000000000001</ele><time>2026-05-02T07:32:09Z</time></trkpt><trkpt lat="43.42842236070095" lon="10.39789732686389"><ele>14.600000000000001</ele><time>2026-05-02T07:32:11Z</time></trkpt><trkpt lat="43.4284615906031" lon="10.397779128066851"><ele>16.0</ele><time>2026-05-02T07:32:13Z</time></trkpt><trkpt lat="43.42848034944758" lon="10.39766587815178"><ele>16.166666666666664</ele><time>2026-05-02T07:32:15Z</time></trkpt><trkpt lat="43.42850286489371" lon="10.397545499582172"><ele>16.333333333333332</ele><time>2026-05-02T07:32:17Z</time></trkpt><trkpt lat="43.428529360995554" lon="10.397432916715598"><ele>16.5</ele><time>2026-05-02T07:32:19Z</time></trkpt><trkpt lat="43.42855446694961" lon="10.3973212871637"><ele>16.666666666666668</ele><time>2026-05-02T07:32:21Z</time></trkpt><trkpt lat="43.428574625184105" lon="10.397204874546976"><ele>16.833333333333336</ele><time>2026-05-02T07:32:23Z</time></trkpt><trkpt lat="43.428597062340984" lon="10.397094101144429"><ele>17.0</ele><time>2026-05-02T07:32:25Z</time></trkpt><trkpt lat="43.428620448647045" lon="10.396981869028115"><ele>16.666666666666668</ele><time>2026-05-02T07:32:27Z</time></trkpt><trkpt lat="43.428654827375475" lon="10.396873042467348"><ele>16.333333333333336</ele><time>2026-05-02T07:32:29Z</time></trkpt><trkpt lat="43.42869568417551" lon="10.396767019834453"><ele>16.0</ele><time>2026-05-02T07:32:31Z</time></trkpt><trkpt lat="43.428748467900455" lon="10.396663773771783"><ele>15.666666666666668</ele><time>2026-05-02T07:32:33Z</time></trkpt><trkpt lat="43.42880416271102" lon="10.396563682913117"><ele>15.333333333333334</ele><time>2026-05-02T07:32:35Z</time></trkpt><trkpt lat="43.42886911003919" lon="10.396477754440872"><ele>15.0</ele><time>2026-05-02T07:32:37Z</time></trkpt><trkpt lat="43.42895129830482" lon="10.396407695941251"><ele>16.2</ele><time>2026-05-02T07:32:39Z</time></trkpt><trkpt lat="43.42903946807397" lon="10.396345154923706"><ele>17.4</ele><time>2026-05-02T07:32:41Z</time></trkpt><trkpt lat="43.4291281613424" lon="10.396271472506308"><ele>18.6</ele><time>2026-05-02T07:32:43Z</time></trkpt><trkpt lat="43.429218340035824" lon="10.396200472379375"><ele>19.8</ele><time>2026-05-02T07:32:45Z</time></trkpt><trkpt lat="43.42931049362547" lon="10.39613055838001"><ele>21.0</ele><time>2026-05-02T07:32:47Z</time></trkpt><trkpt lat="43.42939551869584" lon="10.396037715580247"><ele>21.0</ele><time>2026-05-02T07:32:49Z</time></trkpt><trkpt lat="43.42945369593093" lon="10.395917442924839"><ele>21.0</ele><time>2026-05-02T07:32:51Z</time></trkpt><trkpt lat="43.4295053788534" lon="10.395798367460722"><ele>21.0</ele><time>2026-05-02T07:32:53Z</time></trkpt><trkpt lat="43.429557044377795" lon="10.395671113309191"><ele>21.0</ele><time>2026-05-02T07:32:55Z</time></trkpt><trkpt lat="43.429612470923445" lon="10.39556391588232"><ele>21.0</ele><time>2026-05-02T07:32:57Z</time></trkpt><trkpt lat="43.429639736373396" lon="10.395435602953766"><ele>21.8</ele><time>2026-05-02T07:32:59Z</time></trkpt><trkpt lat="43.42969883579892" lon="10.395351592177567"><ele>22.6</ele><time>2026-05-02T07:33:01Z</time></trkpt><trkpt lat="43.42974391081369" lon="10.395246795967942"><ele>23.4</ele><time>2026-05-02T07:33:03Z</time></trkpt><trkpt lat="43.42979326271821" lon="10.395145645344677"><ele>24.2</ele><time>2026-05-02T07:33:05Z</time></trkpt><trkpt lat="43.429859262381584" lon="10.395047921655468"><ele>25.0</ele><time>2026-05-02T07:33:07Z</time></trkpt><trkpt lat="43.42994357704806" lon="10.394969440354293"><ele>25.0</ele><time>2026-05-02T07:33:09Z</time></trkpt><trkpt lat="43.43004082052892" lon="10.394893137480734"><ele>25.0</ele><time>2026-05-02T07:33:11Z</time></trkpt><trkpt lat="43.43013172952926" lon="10.39480336966141"><ele>25.0</ele><time>2026-05-02T07:33:13Z</time></trkpt><trkpt lat="43.43021953024438" lon="10.394683165426725"><ele>25.0</ele><time>2026-05-02T07:33:15Z</time></trkpt><trkpt lat="43.43025945389459" lon="10.394608328884695"><ele>25.0</ele><time>2026-05-02T07:33:16Z</time></trkpt><trkpt lat="43.430305771315574" lon="10.394539855491416"><ele>24.333333333333336</ele><time>2026-05-02T07:33:17Z</time></trkpt><trkpt lat="43.430349464756" lon="10.394453116959417"><ele>23.666666666666668</ele><time>2026-05-02T07:33:18Z</time></trkpt><trkpt lat="43.43039553696399" lon="10.394364803088118"><ele>23.0</ele><time>2026-05-02T07:33:19Z</time></trkpt><trkpt lat="43.43043934714367" lon="10.39427139768755"><ele>22.333333333333336</ele><time>2026-05-02T07:33:20Z</time></trkpt><trkpt lat="43.4304872454974" lon="10.394180133006703"><ele>21.666666666666668</ele><time>2026-05-02T07:33:21Z</time></trkpt><trkpt lat="43.43053457600363" lon="10.39408507644807"><ele>21.0</ele><time>2026-05-02T07:33:22Z</time></trkpt><trkpt lat="43.43058308891824" lon="10.393983628389796"><ele>21.0</ele><time>2026-05-02T07:33:23Z</time></trkpt><trkpt lat="43.43063068992353" lon="10.393883676827524"><ele>21.0</ele><time>2026-05-02T07:33:24Z</time></trkpt><trkpt lat="43.43068107327994" lon="10.393785492943962"><ele>21.0</ele><time>2026-05-02T07:33:25Z</time></trkpt><trkpt lat="43.43073527633601" lon="10.393688883716042"><ele>21.0</ele><time>2026-05-02T07:33:26Z</time></trkpt><trkpt lat="43.43078908020032" lon="10.393583676275085"><ele>21.0</ele><time>2026-05-02T07:33:27Z</time></trkpt><trkpt lat="43.430840977457564" lon="10.393477305129347"><ele>21.0</ele><time>2026-05-02T07:33:28Z</time></trkpt><trkpt lat="43.430890686321376" lon="10.393375374599678"><ele>20.333333333333332</ele><time>2026-05-02T07:33:29Z</time></trkpt><trkpt lat="43.430935645566535" lon="10.393271849594553"><ele>19.666666666666668</ele><time>2026-05-02T07:33:30Z</time></trkpt><trkpt lat="43.43097831306917" lon="10.393168614644912"><ele>19.0</ele><time>2026-05-02T07:33:31Z</time></trkpt><trkpt lat="43.43101639968705" lon="10.39306744609995"><ele>18.333333333333336</ele><time>2026-05-02T07:33:32Z</time></trkpt><trkpt lat="43.43104169167356" lon="10.39296251379524"><ele>17.666666666666668</ele><time>2026-05-02T07:33:33Z</time></trkpt><trkpt lat="43.43105850696717" lon="10.39285668390691"><ele>17.0</ele><time>2026-05-02T07:33:34Z</time></trkpt><trkpt lat="43.43106448398939" lon="10.392752314048964"><ele>16.333333333333336</ele><time>2026-05-02T07:33:35Z</time></trkpt><trkpt lat="43.43106352234226" lon="10.392654314514116"><ele>15.666666666666668</ele><time>2026-05-02T07:33:36Z</time></trkpt><trkpt lat="43.431059665564554" lon="10.392558587105247"><ele>15.0</ele><time>2026-05-02T07:33:37Z</time></trkpt><trkpt lat="43.43105529726469" lon="10.392469188407386"><ele>14.333333333333332</ele><time>2026-05-02T07:33:38Z</time></trkpt><trkpt lat="43.431056124104366" lon="10.392379545687662"><ele>13.666666666666666</ele><time>2026-05-02T07:33:39Z</time></trkpt><trkpt lat="43.431077645944036" lon="10.392213570873624"><ele>13.0</ele><time>2026-05-02T07:33:41Z</time></trkpt><trkpt lat="43.43110759112326" lon="10.392066041753804"><ele>12.200000000000001</ele><time>2026-05-02T07:33:43Z</time></trkpt><trkpt lat="43.43114041245456" lon="10.391916115180951"><ele>11.4</ele><time>2026-05-02T07:33:45Z</time></trkpt><trkpt lat="43.4311999874661" lon="10.39178516101945"><ele>10.600000000000001</ele><time>2026-05-02T07:33:47Z</time></trkpt><trkpt lat="43.43126850875626" lon="10.39166418193636"><ele>9.8</ele><time>2026-05-02T07:33:49Z</time></trkpt><trkpt lat="43.43134939704267" lon="10.39155728650216"><ele>9.0</ele><time>2026-05-02T07:33:51Z</time></trkpt><trkpt lat="43.431440802003344" lon="10.391463499501821"><ele>10.4</ele><time>2026-05-02T07:33:53Z</time></trkpt><trkpt lat="43.43152634104999" lon="10.391371712557113"><ele>11.8</ele><time>2026-05-02T07:33:55Z</time></trkpt><trkpt lat="43.4316173452892" lon="10.39129130892567"><ele>13.200000000000001</ele><time>2026-05-02T07:33:57Z</time></trkpt><trkpt lat="43.43171524056527" lon="10.391218406337508"><ele>14.600000000000001</ele><time>2026-05-02T07:33:59Z</time></trkpt><trkpt lat="43.43181022024643" lon="10.391143442300118"><ele>16.0</ele><time>2026-05-02T07:34:01Z</time></trkpt><trkpt lat="43.43191915340645" lon="10.391076145712947"><ele>16.0</ele><time>2026-05-02T07:34:03Z</time></trkpt><trkpt lat="43.43201923945954" lon="10.391015910050436"><ele>16.0</ele><time>2026-05-02T07:34:05Z</time></trkpt><trkpt lat="43.43213468932512" lon="10.390955658752091"><ele>16.0</ele><time>2026-05-02T07:34:07Z</time></trkpt><trkpt lat="43.43222179785856" lon="10.390879471153744"><ele>16.0</ele><time>2026-05-02T07:34:09Z</time></trkpt><trkpt lat="43.43233137285331" lon="10.390832328141666"><ele>15.8</ele><time>2026-05-02T07:34:11Z</time></trkpt><trkpt lat="43.432408785449546" lon="10.390731259212705"><ele>15.600000000000001</ele><time>2026-05-02T07:34:13Z</time></trkpt><trkpt lat="43.43249663048134" lon="10.39065630271661"><ele>15.4</ele><time>2026-05-02T07:34:15Z</time></trkpt><trkpt lat="43.43258298071918" lon="10.390600477253237"><ele>15.2</ele><time>2026-05-02T07:34:17Z</time></trkpt><trkpt lat="43.432697054122684" lon="10.390511981675319"><ele>15.0</ele><time>2026-05-02T07:34:19Z</time></trkpt><trkpt lat="43.43279151246747" lon="10.390441578224953"><ele>15.0</ele><time>2026-05-02T07:34:21Z</time></trkpt><trkpt lat="43.43289733134478" lon="10.390368416418392"><ele>15.0</ele><time>2026-05-02T07:34:23Z</time></trkpt><trkpt lat="43.43300047176693" lon="10.390298522965857"><ele>15.0</ele><time>2026-05-02T07:34:25Z</time></trkpt><trkpt lat="43.43308449829778" lon="10.390236758144276"><ele>15.0</ele><time>2026-05-02T07:34:27Z</time></trkpt><trkpt lat="43.43317722496702" lon="10.390173150556809"><ele>15.0</ele><time>2026-05-02T07:34:29Z</time></trkpt><trkpt lat="43.43326556631828" lon="10.390110384239303"><ele>16.0</ele><time>2026-05-02T07:34:31Z</time></trkpt><trkpt lat="43.43335330769614" lon="10.390034695141965"><ele>17.0</ele><time>2026-05-02T07:34:33Z</time></trkpt><trkpt lat="43.43344721227461" lon="10.389945441980363"><ele>18.0</ele><time>2026-05-02T07:34:35Z</time></trkpt><trkpt lat="43.43350522640387" lon="10.389910116435455"><ele>19.0</ele><time>2026-05-02T07:34:36Z</time></trkpt><trkpt lat="43.43360952387648" lon="10.389842863665294"><ele>20.0</ele><time>2026-05-02T07:34:38Z</time></trkpt><trkpt lat="43.43371212392686" lon="10.389779918549543"><ele>19.4</ele><time>2026-05-02T07:34:40Z</time></trkpt><trkpt lat="43.43380905721214" lon="10.389706294037051"><ele>18.8</ele><time>2026-05-02T07:34:42Z</time></trkpt><trkpt lat="43.43389760143453" lon="10.389634953000554"><ele>18.2</ele><time>2026-05-02T07:34:44Z</time></trkpt><trkpt lat="43.433985634577034" lon="10.389570685655881"><ele>17.6</ele><time>2026-05-02T07:34:46Z</time></trkpt><trkpt lat="43.43408954492107" lon="10.389494173514116"><ele>17.0</ele><time>2026-05-02T07:34:48Z</time></trkpt><trkpt lat="43.43418871848126" lon="10.389425491305724"><ele>17.0</ele><time>2026-05-02T07:34:50Z</time></trkpt><trkpt lat="43.434284063370534" lon="10.389356606230532"><ele>17.0</ele><time>2026-05-02T07:34:52Z</time></trkpt><trkpt lat="43.434375810332035" lon="10.389290688000523"><ele>17.0</ele><time>2026-05-02T07:34:54Z</time></trkpt><trkpt lat="43.43446834791154" lon="10.389221115064865"><ele>17.0</ele><time>2026-05-02T07:34:56Z</time></trkpt><trkpt lat="43.43456564436031" lon="10.389156872769862"><ele>17.0</ele><time>2026-05-02T07:34:58Z</time></trkpt><trkpt lat="43.43466232170836" lon="10.38908425682987"><ele>17.2</ele><time>2026-05-02T07:35:00Z</time></trkpt><trkpt lat="43.43475470258448" lon="10.389014800686283"><ele>17.4</ele><time>2026-05-02T07:35:02Z</time></trkpt><trkpt lat="43.434851171612564" lon="10.3889533385068"><ele>17.6</ele><time>2026-05-02T07:35:04Z</time></trkpt><trkpt lat="43.434946532904824" lon="10.388886322663"><ele>17.8</ele><time>2026-05-02T07:35:06Z</time></trkpt><trkpt lat="43.43504217807526" lon="10.388823517275211"><ele>18.0</ele><time>2026-05-02T07:35:08Z</time></trkpt><trkpt lat="43.43513908713392" lon="10.388752900584432"><ele>18.0</ele><time>2026-05-02T07:35:10Z</time></trkpt><trkpt lat="43.43524104593154" lon="10.388687983049616"><ele>18.0</ele><time>2026-05-02T07:35:12Z</time></trkpt><trkpt lat="43.43534545055605" lon="10.388622451442076"><ele>18.0</ele><time>2026-05-02T07:35:14Z</time></trkpt><trkpt lat="43.43540201655393" lon="10.388574031263044"><ele>18.0</ele><time>2026-05-02T07:35:15Z</time></trkpt><trkpt lat="43.43546296154593" lon="10.388528282318592"><ele>18.0</ele><time>2026-05-02T07:35:16Z</time></trkpt><trkpt lat="43.435521345951116" lon="10.388486351455809"><ele>18.0</ele><time>2026-05-02T07:35:17Z</time></trkpt><trkpt lat="43.43558281640455" lon="10.388445501873628"><ele>18.28571428571429</ele><time>2026-05-02T07:35:18Z</time></trkpt><trkpt lat="43.4356478210987" lon="10.388410319523224"><ele>18.571428571428573</ele><time>2026-05-02T07:35:19Z</time></trkpt><trkpt lat="43.435713404125984" lon="10.388377346880615"><ele>18.857142857142858</ele><time>2026-05-02T07:35:20Z</time></trkpt><trkpt lat="43.435774364914806" lon="10.388348542038369"><ele>19.142857142857146</ele><time>2026-05-02T07:35:21Z</time></trkpt><trkpt lat="43.435840117333875" lon="10.38831374532701"><ele>19.42857142857143</ele><time>2026-05-02T07:35:22Z</time></trkpt><trkpt lat="43.43590692375467" lon="10.388276473297624"><ele>19.714285714285715</ele><time>2026-05-02T07:35:23Z</time></trkpt><trkpt lat="43.435973288831626" lon="10.388234161577909"><ele>20.0</ele><time>2026-05-02T07:35:24Z</time></trkpt><trkpt lat="43.43603804469405" lon="10.388191566804453"><ele>20.0</ele><time>2026-05-02T07:35:25Z</time></trkpt><trkpt lat="43.43616291703549" lon="10.388136673095559"><ele>20.0</ele><time>2026-05-02T07:35:27Z</time></trkpt><trkpt lat="43.43623156564849" lon="10.388106287681984"><ele>20.0</ele><time>2026-05-02T07:35:28Z</time></trkpt><trkpt lat="43.43630020897933" lon="10.388068559402988"><ele>20.0</ele><time>2026-05-02T07:35:29Z</time></trkpt><trkpt lat="43.43636718491755" lon="10.388026941336765"><ele>20.0</ele><time>2026-05-02T07:35:30Z</time></trkpt><trkpt lat="43.43643642684812" lon="10.387993312219088"><ele>20.0</ele><time>2026-05-02T07:35:31Z</time></trkpt><trkpt lat="43.436503799813984" lon="10.38796006143405"><ele>19.142857142857142</ele><time>2026-05-02T07:35:32Z</time></trkpt><trkpt lat="43.436573885645466" lon="10.387927201619778"><ele>18.285714285714285</ele><time>2026-05-02T07:35:33Z</time></trkpt><trkpt lat="43.43664224119885" lon="10.387891692123278"><ele>17.42857142857143</ele><time>2026-05-02T07:35:34Z</time></trkpt><trkpt lat="43.43671084332169" lon="10.38785781371022"><ele>16.57142857142857</ele><time>2026-05-02T07:35:35Z</time></trkpt><trkpt lat="43.43677929668209" lon="10.387825327201305"><ele>15.714285714285715</ele><time>2026-05-02T07:35:36Z</time></trkpt><trkpt lat="43.43684620766321" lon="10.387783098962922"><ele>14.857142857142858</ele><time>2026-05-02T07:35:37Z</time></trkpt><trkpt lat="43.43691289163767" lon="10.387746622964894"><ele>14.0</ele><time>2026-05-02T07:35:38Z</time></trkpt><trkpt lat="43.43698243644208" lon="10.387716898837217"><ele>14.0</ele><time>2026-05-02T07:35:39Z</time></trkpt><trkpt lat="43.43704865909617" lon="10.387680694974344"><ele>14.0</ele><time>2026-05-02T07:35:40Z</time></trkpt><trkpt lat="43.437112493128964" lon="10.38763959530931"><ele>14.0</ele><time>2026-05-02T07:35:41Z</time></trkpt><trkpt lat="43.437176174868185" lon="10.38760607025562"><ele>14.0</ele><time>2026-05-02T07:35:42Z</time></trkpt><trkpt lat="43.437238712166945" lon="10.387573709195692"><ele>14.0</ele><time>2026-05-02T07:35:43Z</time></trkpt><trkpt lat="43.43729724219496" lon="10.38754076093208"><ele>14.0</ele><time>2026-05-02T07:35:44Z</time></trkpt><trkpt lat="43.43736099009028" lon="10.387514618384243"><ele>14.0</ele><time>2026-05-02T07:35:45Z</time></trkpt><trkpt lat="43.43747750318694" lon="10.38745550970246"><ele>14.6</ele><time>2026-05-02T07:35:47Z</time></trkpt><trkpt lat="43.43759154791487" lon="10.387390725731624"><ele>15.2</ele><time>2026-05-02T07:35:49Z</time></trkpt><trkpt lat="43.43770906697874" lon="10.387332082761613"><ele>15.799999999999999</ele><time>2026-05-02T07:35:51Z</time></trkpt><trkpt lat="43.437768947137855" lon="10.387300752814907"><ele>16.4</ele><time>2026-05-02T07:35:52Z</time></trkpt><trkpt lat="43.43782903607199" lon="10.387269835797369"><ele>17.0</ele><time>2026-05-02T07:35:53Z</time></trkpt><trkpt lat="43.43794017039892" lon="10.387205066463073"><ele>16.0</ele><time>2026-05-02T07:35:55Z</time></trkpt><trkpt lat="43.43805453097871" lon="10.387145830836923"><ele>15.0</ele><time>2026-05-02T07:35:57Z</time></trkpt><trkpt lat="43.4381741296524" lon="10.38708244392006"><ele>14.0</ele><time>2026-05-02T07:35:59Z</time></trkpt><trkpt lat="43.438235268063025" lon="10.387053945364555"><ele>13.0</ele><time>2026-05-02T07:36:00Z</time></trkpt><trkpt lat="43.438350351622304" lon="10.386993519132057"><ele>12.0</ele><time>2026-05-02T07:36:02Z</time></trkpt><trkpt lat="43.43846130782064" lon="10.386937140938235"><ele>12.0</ele><time>2026-05-02T07:36:04Z</time></trkpt><trkpt lat="43.438575420430226" lon="10.386877189333552"><ele>12.0</ele><time>2026-05-02T07:36:06Z</time></trkpt><trkpt lat="43.438687642108185" lon="10.38681785173426"><ele>12.0</ele><time>2026-05-02T07:36:08Z</time></trkpt><trkpt lat="43.43880173952435" lon="10.386755677790946"><ele>12.0</ele><time>2026-05-02T07:36:10Z</time></trkpt><trkpt lat="43.43891438926216" lon="10.386698303682357"><ele>13.25</ele><time>2026-05-02T07:36:12Z</time></trkpt><trkpt lat="43.43902637445666" lon="10.386646097299385"><ele>14.5</ele><time>2026-05-02T07:36:14Z</time></trkpt><trkpt lat="43.439138310844996" lon="10.386588100544293"><ele>15.75</ele><time>2026-05-02T07:36:16Z</time></trkpt><trkpt lat="43.43924873933892" lon="10.386534698030054"><ele>17.0</ele><time>2026-05-02T07:36:18Z</time></trkpt><trkpt lat="43.43936128709962" lon="10.386475717627697"><ele>17.0</ele><time>2026-05-02T07:36:20Z</time></trkpt><trkpt lat="43.43947096267289" lon="10.386412718271217"><ele>17.0</ele><time>2026-05-02T07:36:22Z</time></trkpt><trkpt lat="43.43958323914053" lon="10.38635609580991"><ele>17.0</ele><time>2026-05-02T07:36:24Z</time></trkpt><trkpt lat="43.439696672638256" lon="10.386303462543218"><ele>17.0</ele><time>2026-05-02T07:36:26Z</time></trkpt><trkpt lat="43.43980654966941" lon="10.386262444172422"><ele>17.0</ele><time>2026-05-02T07:36:28Z</time></trkpt><trkpt lat="43.4398631911505" lon="10.386214987596011"><ele>17.0</ele><time>2026-05-02T07:36:29Z</time></trkpt><trkpt lat="43.439967293147674" lon="10.386152977024553"><ele>17.0</ele><time>2026-05-02T07:36:31Z</time></trkpt><trkpt lat="43.44007863685545" lon="10.386099907601505"><ele>17.0</ele><time>2026-05-02T07:36:33Z</time></trkpt><trkpt lat="43.440180777490674" lon="10.386035643643957"><ele>17.0</ele><time>2026-05-02T07:36:35Z</time></trkpt><trkpt lat="43.440290674991786" lon="10.385970473071119"><ele>17.0</ele><time>2026-05-02T07:36:37Z</time></trkpt><trkpt lat="43.440399343163314" lon="10.385904618162545"><ele>17.0</ele><time>2026-05-02T07:36:39Z</time></trkpt><trkpt lat="43.44049865237297" lon="10.38581378066555"><ele>17.0</ele><time>2026-05-02T07:36:41Z</time></trkpt><trkpt lat="43.440603876130844" lon="10.385741501347551"><ele>17.0</ele><time>2026-05-02T07:36:43Z</time></trkpt><trkpt lat="43.44070789262337" lon="10.385663974050908"><ele>17.0</ele><time>2026-05-02T07:36:45Z</time></trkpt><trkpt lat="43.44081038733704" lon="10.385592753574302"><ele>17.0</ele><time>2026-05-02T07:36:47Z</time></trkpt><trkpt lat="43.440865124085924" lon="10.38554866889815"><ele>17.0</ele><time>2026-05-02T07:36:48Z</time></trkpt><trkpt lat="43.44096578676061" lon="10.38548012582188"><ele>17.0</ele><time>2026-05-02T07:36:50Z</time></trkpt><trkpt lat="43.44106623117648" lon="10.385404456776065"><ele>17.0</ele><time>2026-05-02T07:36:52Z</time></trkpt><trkpt lat="43.44116655943875" lon="10.385336381866866"><ele>16.6</ele><time>2026-05-02T07:36:54Z</time></trkpt><trkpt lat="43.441266434723396" lon="10.385270238862406"><ele>16.2</ele><time>2026-05-02T07:36:56Z</time></trkpt><trkpt lat="43.441367080841744" lon="10.38520335775208"><ele>15.8</ele><time>2026-05-02T07:36:58Z</time></trkpt><trkpt lat="43.44146568723823" lon="10.385130309611595"><ele>15.4</ele><time>2026-05-02T07:37:00Z</time></trkpt><trkpt lat="43.44156729171893" lon="10.385065730632803"><ele>15.0</ele><time>2026-05-02T07:37:02Z</time></trkpt><trkpt lat="43.44166820672546" lon="10.384995829292125"><ele>14.8</ele><time>2026-05-02T07:37:04Z</time></trkpt><trkpt lat="43.441776759933774" lon="10.384923352528862"><ele>14.6</ele><time>2026-05-02T07:37:06Z</time></trkpt><trkpt lat="43.44186312309763" lon="10.384855303392072"><ele>14.399999999999999</ele><time>2026-05-02T07:37:08Z</time></trkpt><trkpt lat="43.44196158519929" lon="10.384793478454718"><ele>14.2</ele><time>2026-05-02T07:37:10Z</time></trkpt><trkpt lat="43.44205569214945" lon="10.384729046810705"><ele>14.0</ele><time>2026-05-02T07:37:12Z</time></trkpt><trkpt lat="43.44214597664727" lon="10.384648898459387"><ele>14.0</ele><time>2026-05-02T07:37:14Z</time></trkpt><trkpt lat="43.44224704251985" lon="10.384597192664332"><ele>13.999999999999998</ele><time>2026-05-02T07:37:16Z</time></trkpt><trkpt lat="43.442302072131206" lon="10.384554274428956"><ele>13.999999999999998</ele><time>2026-05-02T07:37:17Z</time></trkpt><trkpt lat="43.44239856062395" lon="10.384483424470941"><ele>14.0</ele><time>2026-05-02T07:37:19Z</time></trkpt><trkpt lat="43.44250109545293" lon="10.384404602300297"><ele>14.0</ele><time>2026-05-02T07:37:20.999Z</time></trkpt><trkpt lat="43.44260227750149" lon="10.384332542485737"><ele>14.0</ele><time>2026-05-02T07:37:22.999Z</time></trkpt><trkpt lat="43.442707334746416" lon="10.38425666899421"><ele>14.0</ele><time>2026-05-02T07:37:24.999Z</time></trkpt><trkpt lat="43.44281243573949" lon="10.384180953708402"><ele>14.0</ele><time>2026-05-02T07:37:27Z</time></trkpt><trkpt lat="43.44291807768227" lon="10.384102829185013"><ele>14.0</ele><time>2026-05-02T07:37:29Z</time></trkpt><trkpt lat="43.4430239241385" lon="10.384033606761587"><ele>13.75</ele><time>2026-05-02T07:37:31Z</time></trkpt><trkpt lat="43.443127809196895" lon="10.383954186733904"><ele>13.5</ele><time>2026-05-02T07:37:33Z</time></trkpt><trkpt lat="43.443229049695" lon="10.383879239002054"><ele>13.25</ele><time>2026-05-02T07:37:35Z</time></trkpt><trkpt lat="43.443327234926365" lon="10.383805095675191"><ele>13.0</ele><time>2026-05-02T07:37:37Z</time></trkpt><trkpt lat="43.44342752526098" lon="10.38373100590585"><ele>13.0</ele><time>2026-05-02T07:37:39Z</time></trkpt><trkpt lat="43.44352452198574" lon="10.383661192021602"><ele>13.0</ele><time>2026-05-02T07:37:41Z</time></trkpt><trkpt lat="43.443622373407514" lon="10.383579325488606"><ele>13.0</ele><time>2026-05-02T07:37:43Z</time></trkpt><trkpt lat="43.44372157938504" lon="10.383516208180609"><ele>13.0</ele><time>2026-05-02T07:37:45Z</time></trkpt><trkpt lat="43.44381947584073" lon="10.383452764556782"><ele>13.0</ele><time>2026-05-02T07:37:47Z</time></trkpt><trkpt lat="43.44391282227707" lon="10.383382436620558"><ele>14.2</ele><time>2026-05-02T07:37:49Z</time></trkpt><trkpt lat="43.444009537640305" lon="10.383330696167155"><ele>15.4</ele><time>2026-05-02T07:37:51Z</time></trkpt><trkpt lat="43.44410453293752" lon="10.383282185958842"><ele>16.599999999999998</ele><time>2026-05-02T07:37:53Z</time></trkpt><trkpt lat="43.44419830779086" lon="10.38323767939224"><ele>17.8</ele><time>2026-05-02T07:37:55Z</time></trkpt><trkpt lat="43.44428904188946" lon="10.383197420158094"><ele>19.0</ele><time>2026-05-02T07:37:57Z</time></trkpt><trkpt lat="43.444376695384406" lon="10.383167028100752"><ele>19.0</ele><time>2026-05-02T07:37:59Z</time></trkpt><trkpt lat="43.44446239461221" lon="10.383134384508935"><ele>19.0</ele><time>2026-05-02T07:38:01Z</time></trkpt><trkpt lat="43.44454435062282" lon="10.383109063642667"><ele>19.0</ele><time>2026-05-02T07:38:03Z</time></trkpt><trkpt lat="43.444624345457306" lon="10.383085754097936"><ele>19.0</ele><time>2026-05-02T07:38:05Z</time></trkpt><trkpt lat="43.44470415507193" lon="10.383060043173188"><ele>19.0</ele><time>2026-05-02T07:38:07Z</time></trkpt><trkpt lat="43.44478614553427" lon="10.383035362567309"><ele>19.0</ele><time>2026-05-02T07:38:09Z</time></trkpt><trkpt lat="43.444862587499884" lon="10.383007286764407"><ele>17.666666666666664</ele><time>2026-05-02T07:38:11Z</time></trkpt><trkpt lat="43.4449458129598" lon="10.382986627639681"><ele>16.333333333333332</ele><time>2026-05-02T07:38:13Z</time></trkpt><trkpt lat="43.44502847754012" lon="10.38296601769288"><ele>15.0</ele><time>2026-05-02T07:38:15Z</time></trkpt><trkpt lat="43.44511218924627" lon="10.382940096884653"><ele>13.666666666666666</ele><time>2026-05-02T07:38:17Z</time></trkpt><trkpt lat="43.44519937127206" lon="10.382921816226341"><ele>12.333333333333332</ele><time>2026-05-02T07:38:19Z</time></trkpt><trkpt lat="43.44528785336489" lon="10.382929012612191"><ele>11.0</ele><time>2026-05-02T07:38:21Z</time></trkpt><trkpt lat="43.44537123576022" lon="10.382940262046803"><ele>11.0</ele><time>2026-05-02T07:38:23Z</time></trkpt><trkpt lat="43.44545879302724" lon="10.382947272780413"><ele>11.0</ele><time>2026-05-02T07:38:25Z</time></trkpt><trkpt lat="43.44554791081651" lon="10.382964174330905"><ele>11.0</ele><time>2026-05-02T07:38:27Z</time></trkpt><trkpt lat="43.44563950449592" lon="10.38296194594866"><ele>11.0</ele><time>2026-05-02T07:38:29Z</time></trkpt><trkpt lat="43.445725557544236" lon="10.38294077203063"><ele>11.0</ele><time>2026-05-02T07:38:31Z</time></trkpt><trkpt lat="43.44581670944949" lon="10.382900269561514"><ele>11.5</ele><time>2026-05-02T07:38:33Z</time></trkpt><trkpt lat="43.445910223074655" lon="10.382840713827227"><ele>12.0</ele><time>2026-05-02T07:38:35Z</time></trkpt><trkpt lat="43.44600961885169" lon="10.382768661855497"><ele>12.5</ele><time>2026-05-02T07:38:37Z</time></trkpt><trkpt lat="43.44610010878637" lon="10.382674725277504"><ele>13.0</ele><time>2026-05-02T07:38:39Z</time></trkpt><trkpt lat="43.44621273629092" lon="10.382612463671093"><ele>16.25</ele><time>2026-05-02T07:38:41Z</time></trkpt><trkpt lat="43.4463171152775" lon="10.382535963545077"><ele>19.5</ele><time>2026-05-02T07:38:43Z</time></trkpt><trkpt lat="43.446421227783674" lon="10.382444209639996"><ele>22.75</ele><time>2026-05-02T07:38:45Z</time></trkpt><trkpt lat="43.44652824161706" lon="10.382348474520514"><ele>26.0</ele><time>2026-05-02T07:38:47Z</time></trkpt><trkpt lat="43.446637641546985" lon="10.382253719909365"><ele>26.0</ele><time>2026-05-02T07:38:49Z</time></trkpt><trkpt lat="43.44669259462947" lon="10.38220154174999"><ele>26.0</ele><time>2026-05-02T07:38:50Z</time></trkpt><trkpt lat="43.4467500549353" lon="10.382148241814793"><ele>26.0</ele><time>2026-05-02T07:38:51Z</time></trkpt><trkpt lat="43.446806572804135" lon="10.38209638662899"><ele>26.0</ele><time>2026-05-02T07:38:52Z</time></trkpt><trkpt lat="43.44686342832025" lon="10.382043883497966"><ele>26.0</ele><time>2026-05-02T07:38:53Z</time></trkpt><trkpt lat="43.44692052221326" lon="10.381988780977087"><ele>26.0</ele><time>2026-05-02T07:38:54Z</time></trkpt><trkpt lat="43.44697560578548" lon="10.38193459728856"><ele>26.0</ele><time>2026-05-02T07:38:55Z</time></trkpt><trkpt lat="43.44703035363181" lon="10.38187807870272"><ele>25.428571428571427</ele><time>2026-05-02T07:38:56Z</time></trkpt><trkpt lat="43.44708754064215" lon="10.38182152443495"><ele>24.857142857142858</ele><time>2026-05-02T07:38:57Z</time></trkpt><trkpt lat="43.447147112837534" lon="10.381767618120236"><ele>24.285714285714285</ele><time>2026-05-02T07:38:58Z</time></trkpt><trkpt lat="43.44720600439675" lon="10.3817152315055"><ele>23.714285714285715</ele><time>2026-05-02T07:38:59Z</time></trkpt><trkpt lat="43.44727134717042" lon="10.381655726503135"><ele>23.142857142857142</ele><time>2026-05-02T07:39:00Z</time></trkpt><trkpt lat="43.44733600902603" lon="10.381594426826673"><ele>22.571428571428573</ele><time>2026-05-02T07:39:01Z</time></trkpt><trkpt lat="43.44739906799953" lon="10.381536773350048"><ele>22.0</ele><time>2026-05-02T07:39:02Z</time></trkpt><trkpt lat="43.44746584139938" lon="10.381474017176819"><ele>22.0</ele><time>2026-05-02T07:39:03Z</time></trkpt><trkpt lat="43.447533191905514" lon="10.381412128620891"><ele>22.0</ele><time>2026-05-02T07:39:04Z</time></trkpt><trkpt lat="43.44759841372295" lon="10.381341305498244"><ele>22.0</ele><time>2026-05-02T07:39:05Z</time></trkpt><trkpt lat="43.447669726797294" lon="10.381276808233952"><ele>22.0</ele><time>2026-05-02T07:39:06Z</time></trkpt><trkpt lat="43.447738985598306" lon="10.381210672266137"><ele>22.0</ele><time>2026-05-02T07:39:07Z</time></trkpt><trkpt lat="43.4478071143519" lon="10.381139844699549"><ele>22.0</ele><time>2026-05-02T07:39:08Z</time></trkpt><trkpt lat="43.447878313436895" lon="10.38107265715768"><ele>20.400000000000002</ele><time>2026-05-02T07:39:08.999Z</time></trkpt><trkpt lat="43.447950050388656" lon="10.381000616273942"><ele>18.8</ele><time>2026-05-02T07:39:09.999Z</time></trkpt><trkpt lat="43.44802643890687" lon="10.380929823453743"><ele>17.2</ele><time>2026-05-02T07:39:10.999Z</time></trkpt><trkpt lat="43.44810397119283" lon="10.380860440919157"><ele>15.6</ele><time>2026-05-02T07:39:11.999Z</time></trkpt><trkpt lat="43.44817822293589" lon="10.380792182533856"><ele>14.0</ele><time>2026-05-02T07:39:12.999Z</time></trkpt><trkpt lat="43.44824994717727" lon="10.380717007955782"><ele>14.0</ele><time>2026-05-02T07:39:13.999Z</time></trkpt><trkpt lat="43.44832481492707" lon="10.380640012005506"><ele>13.999999999999998</ele><time>2026-05-02T07:39:14.999Z</time></trkpt><trkpt lat="43.448406008222896" lon="10.380569650613763"><ele>13.999999999999998</ele><time>2026-05-02T07:39:15.999Z</time></trkpt><trkpt lat="43.448492046596904" lon="10.380513352442456"><ele>14.0</ele><time>2026-05-02T07:39:16.999Z</time></trkpt><trkpt lat="43.44857599261351" lon="10.380445546896715"><ele>14.0</ele><time>2026-05-02T07:39:17.999Z</time></trkpt><trkpt lat="43.44865359060637" lon="10.380367971086208"><ele>13.399999999999999</ele><time>2026-05-02T07:39:18.999Z</time></trkpt><trkpt lat="43.44873290372872" lon="10.380290914103703"><ele>12.799999999999999</ele><time>2026-05-02T07:39:19.999Z</time></trkpt><trkpt lat="43.448811109346615" lon="10.380208253663739"><ele>12.2</ele><time>2026-05-02T07:39:20.999Z</time></trkpt><trkpt lat="43.44889248601102" lon="10.380142901229595"><ele>11.600000000000001</ele><time>2026-05-02T07:39:21.999Z</time></trkpt><trkpt lat="43.44896975367942" lon="10.380067559376549"><ele>11.0</ele><time>2026-05-02T07:39:22.999Z</time></trkpt><trkpt lat="43.44904256611751" lon="10.379988956199952"><ele>11.0</ele><time>2026-05-02T07:39:23.999Z</time></trkpt><trkpt lat="43.4491175939135" lon="10.379908855577936"><ele>11.0</ele><time>2026-05-02T07:39:24.999Z</time></trkpt><trkpt lat="43.44918868143276" lon="10.379827812894296"><ele>11.0</ele><time>2026-05-02T07:39:25.999Z</time></trkpt><trkpt lat="43.44925868369982" lon="10.379749248707979"><ele>11.0</ele><time>2026-05-02T07:39:26.999Z</time></trkpt><trkpt lat="43.44932702981116" lon="10.379681382747252"><ele>11.0</ele><time>2026-05-02T07:39:27.999Z</time></trkpt><trkpt lat="43.44939560804681" lon="10.379613746808529"><ele>11.0</ele><time>2026-05-02T07:39:28.999Z</time></trkpt><trkpt lat="43.4494606849524" lon="10.379550062366286"><ele>11.285714285714286</ele><time>2026-05-02T07:39:29.999Z</time></trkpt><trkpt lat="43.44952529622803" lon="10.379486454484713"><ele>11.571428571428571</ele><time>2026-05-02T07:39:30.999Z</time></trkpt><trkpt lat="43.4495867589789" lon="10.37942324141675"><ele>11.857142857142858</ele><time>2026-05-02T07:39:31.999Z</time></trkpt><trkpt lat="43.449646313465514" lon="10.379362107952831"><ele>12.142857142857142</ele><time>2026-05-02T07:39:33Z</time></trkpt><trkpt lat="43.44970724399186" lon="10.379304635735936"><ele>12.428571428571429</ele><time>2026-05-02T07:39:34Z</time></trkpt><trkpt lat="43.44976673098118" lon="10.379254340027902"><ele>12.714285714285714</ele><time>2026-05-02T07:39:35Z</time></trkpt><trkpt lat="43.449823000922244" lon="10.379209599709215"><ele>13.0</ele><time>2026-05-02T07:39:36Z</time></trkpt><trkpt lat="43.4499301169303" lon="10.379182881234902"><ele>13.0</ele><time>2026-05-02T07:39:38Z</time></trkpt><trkpt lat="43.45000596544807" lon="10.37912699405538"><ele>13.0</ele><time>2026-05-02T07:39:40Z</time></trkpt><trkpt lat="43.45000877357365" lon="10.378992821381445"><ele>13.0</ele><time>2026-05-02T07:39:42Z</time></trkpt><trkpt lat="43.449988318951974" lon="10.378870710465593"><ele>13.0</ele><time>2026-05-02T07:39:44Z</time></trkpt><trkpt lat="43.44995645301808" lon="10.37874133915833"><ele>13.0</ele><time>2026-05-02T07:39:46Z</time></trkpt><trkpt lat="43.449933211249764" lon="10.378613931309747"><ele>13.4</ele><time>2026-05-02T07:39:48Z</time></trkpt><trkpt lat="43.44993535861318" lon="10.378484172360977"><ele>13.8</ele><time>2026-05-02T07:39:50Z</time></trkpt><trkpt lat="43.44991518586127" lon="10.378351627441463"><ele>14.2</ele><time>2026-05-02T07:39:52Z</time></trkpt><trkpt lat="43.4498885929961" lon="10.378213487849942"><ele>14.6</ele><time>2026-05-02T07:39:54Z</time></trkpt><trkpt lat="43.449883028826505" lon="10.378087459035221"><ele>15.0</ele><time>2026-05-02T07:39:56Z</time></trkpt><trkpt lat="43.44986375243397" lon="10.377953620114264"><ele>15.4</ele><time>2026-05-02T07:39:58Z</time></trkpt><trkpt lat="43.449853980617604" lon="10.377830080244028"><ele>15.8</ele><time>2026-05-02T07:40:00Z</time></trkpt><trkpt lat="43.44984872021612" lon="10.377712437464297"><ele>16.2</ele><time>2026-05-02T07:40:02Z</time></trkpt><trkpt lat="43.449852850076574" lon="10.377575036008043"><ele>16.6</ele><time>2026-05-02T07:40:04Z</time></trkpt><trkpt lat="43.44986301993413" lon="10.377422174525627"><ele>17.0</ele><time>2026-05-02T07:40:06Z</time></trkpt><trkpt lat="43.44987392866693" lon="10.377328907692943"><ele>17.0</ele><time>2026-05-02T07:40:08Z</time></trkpt><trkpt lat="43.44990170126088" lon="10.377201153095857"><ele>17.0</ele><time>2026-05-02T07:40:10Z</time></trkpt><trkpt lat="43.44993503822569" lon="10.377084453306841"><ele>17.0</ele><time>2026-05-02T07:40:12Z</time></trkpt><trkpt lat="43.449971088863975" lon="10.376972220803356"><ele>17.0</ele><time>2026-05-02T07:40:14Z</time></trkpt><trkpt lat="43.450013691470296" lon="10.376858106490138"><ele>17.0</ele><time>2026-05-02T07:40:16Z</time></trkpt><trkpt lat="43.45005498395985" lon="10.376738879622938"><ele>16.6</ele><time>2026-05-02T07:40:18Z</time></trkpt><trkpt lat="43.45009623314922" lon="10.376619073817745"><ele>16.2</ele><time>2026-05-02T07:40:20Z</time></trkpt><trkpt lat="43.450167515139555" lon="10.376511393205826"><ele>15.8</ele><time>2026-05-02T07:40:22Z</time></trkpt><trkpt lat="43.45025095234251" lon="10.376421943880633"><ele>15.4</ele><time>2026-05-02T07:40:24Z</time></trkpt><trkpt lat="43.45033721800626" lon="10.376339069163366"><ele>15.0</ele><time>2026-05-02T07:40:26Z</time></trkpt><trkpt lat="43.45044016637354" lon="10.376292968803568"><ele>14.2</ele><time>2026-05-02T07:40:28Z</time></trkpt><trkpt lat="43.450542367230696" lon="10.376275077245099"><ele>13.4</ele><time>2026-05-02T07:40:30Z</time></trkpt><trkpt lat="43.45063690740882" lon="10.37624927751505"><ele>12.600000000000001</ele><time>2026-05-02T07:40:32Z</time></trkpt><trkpt lat="43.45071768352531" lon="10.37619777652639"><ele>11.8</ele><time>2026-05-02T07:40:34Z</time></trkpt><trkpt lat="43.450796421442845" lon="10.376125667714499"><ele>11.0</ele><time>2026-05-02T07:40:36Z</time></trkpt><trkpt lat="43.450857030896586" lon="10.376042962195324"><ele>11.0</ele><time>2026-05-02T07:40:38Z</time></trkpt><trkpt lat="43.45091506091489" lon="10.375961127496408"><ele>11.0</ele><time>2026-05-02T07:40:40Z</time></trkpt><trkpt lat="43.45096765834812" lon="10.375877744295364"><ele>11.0</ele><time>2026-05-02T07:40:42Z</time></trkpt><trkpt lat="43.451022716943704" lon="10.375800778466685"><ele>11.0</ele><time>2026-05-02T07:40:44Z</time></trkpt><trkpt lat="43.45107701323931" lon="10.375734559681907"><ele>11.0</ele><time>2026-05-02T07:40:46Z</time></trkpt><trkpt lat="43.45113745615191" lon="10.375659964812519"><ele>11.0</ele><time>2026-05-02T07:40:48Z</time></trkpt><trkpt lat="43.45120469366564" lon="10.37558747923257"><ele>12.200000000000001</ele><time>2026-05-02T07:40:50Z</time></trkpt><trkpt lat="43.45126771285716" lon="10.375509155285288"><ele>13.4</ele><time>2026-05-02T07:40:52Z</time></trkpt><trkpt lat="43.451335405803896" lon="10.375425911967026"><ele>14.6</ele><time>2026-05-02T07:40:54Z</time></trkpt><trkpt lat="43.45140568715309" lon="10.375357386217079"><ele>15.8</ele><time>2026-05-02T07:40:56Z</time></trkpt><trkpt lat="43.45148222127043" lon="10.375269235806895"><ele>17.0</ele><time>2026-05-02T07:40:58Z</time></trkpt><trkpt lat="43.45155394549756" lon="10.375188050447345"><ele>17.0</ele><time>2026-05-02T07:41:00Z</time></trkpt><trkpt lat="43.45162712865175" lon="10.375098328730635"><ele>17.0</ele><time>2026-05-02T07:41:02Z</time></trkpt><trkpt lat="43.45169804462477" lon="10.375010986138962"><ele>17.0</ele><time>2026-05-02T07:41:04Z</time></trkpt><trkpt lat="43.451771677771085" lon="10.374923600996958"><ele>17.0</ele><time>2026-05-02T07:41:06Z</time></trkpt><trkpt lat="43.4518340389812" lon="10.374818447259836"><ele>17.0</ele><time>2026-05-02T07:41:08Z</time></trkpt><trkpt lat="43.45190571875594" lon="10.37473759537697"><ele>16.6</ele><time>2026-05-02T07:41:09.999Z</time></trkpt><trkpt lat="43.45197742468776" lon="10.37464837114776"><ele>16.2</ele><time>2026-05-02T07:41:11.999Z</time></trkpt><trkpt lat="43.452049362084985" lon="10.374556006649204"><ele>15.8</ele><time>2026-05-02T07:41:13.999Z</time></trkpt><trkpt lat="43.452129716843345" lon="10.374482721480614"><ele>15.4</ele><time>2026-05-02T07:41:15.999Z</time></trkpt><trkpt lat="43.45220897523769" lon="10.374403267441068"><ele>15.0</ele><time>2026-05-02T07:41:17.999Z</time></trkpt><trkpt lat="43.45229402926042" lon="10.374338803754885"><ele>15.0</ele><time>2026-05-02T07:41:19.999Z</time></trkpt><trkpt lat="43.45237681080302" lon="10.374264803326387"><ele>15.0</ele><time>2026-05-02T07:41:21.999Z</time></trkpt><trkpt lat="43.452460623265615" lon="10.374199302245072"><ele>15.0</ele><time>2026-05-02T07:41:23.999Z</time></trkpt><trkpt lat="43.45254509363071" lon="10.374136176279515"><ele>15.0</ele><time>2026-05-02T07:41:25.999Z</time></trkpt><trkpt lat="43.45262801572851" lon="10.374080617295688"><ele>15.0</ele><time>2026-05-02T07:41:27.999Z</time></trkpt><trkpt lat="43.4527153033854" lon="10.37401455950212"><ele>15.0</ele><time>2026-05-02T07:41:29.999Z</time></trkpt><trkpt lat="43.45280323325967" lon="10.373958758679846"><ele>15.0</ele><time>2026-05-02T07:41:31.999Z</time></trkpt><trkpt lat="43.45288716219883" lon="10.373908375469853"><ele>15.0</ele><time>2026-05-02T07:41:33.999Z</time></trkpt><trkpt lat="43.45297513951149" lon="10.373850782291946"><ele>15.0</ele><time>2026-05-02T07:41:35.999Z</time></trkpt><trkpt lat="43.453061134393394" lon="10.373798681059837"><ele>15.0</ele><time>2026-05-02T07:41:37.999Z</time></trkpt><trkpt lat="43.45314597874376" lon="10.373743200129473"><ele>14.0</ele><time>2026-05-02T07:41:40Z</time></trkpt><trkpt lat="43.45323265472039" lon="10.373695394220613"><ele>13.0</ele><time>2026-05-02T07:41:42Z</time></trkpt><trkpt lat="43.45331545853031" lon="10.373641647047739"><ele>12.0</ele><time>2026-05-02T07:41:44Z</time></trkpt><trkpt lat="43.45339966141009" lon="10.373587867137799"><ele>11.0</ele><time>2026-05-02T07:41:46Z</time></trkpt><trkpt lat="43.453482569940796" lon="10.373529212823327"><ele>10.0</ele><time>2026-05-02T07:41:48Z</time></trkpt><trkpt lat="43.45356231980891" lon="10.373470532022594"><ele>10.0</ele><time>2026-05-02T07:41:50Z</time></trkpt><trkpt lat="43.45364524211657" lon="10.373417145615523"><ele>10.0</ele><time>2026-05-02T07:41:52Z</time></trkpt><trkpt lat="43.45372353749998" lon="10.373347669472938"><ele>10.0</ele><time>2026-05-02T07:41:54Z</time></trkpt><trkpt lat="43.45380792204514" lon="10.373291044214058"><ele>10.0</ele><time>2026-05-02T07:41:56Z</time></trkpt><trkpt lat="43.45388417880313" lon="10.373217534147082"><ele>10.0</ele><time>2026-05-02T07:41:58Z</time></trkpt><trkpt lat="43.45395648941488" lon="10.373134865876834"><ele>11.6</ele><time>2026-05-02T07:42:00Z</time></trkpt><trkpt lat="43.45402737443911" lon="10.37305526532751"><ele>13.2</ele><time>2026-05-02T07:42:02Z</time></trkpt><trkpt lat="43.45409617110406" lon="10.372969556242596"><ele>14.8</ele><time>2026-05-02T07:42:04Z</time></trkpt><trkpt lat="43.45417202041418" lon="10.372885179159203"><ele>16.4</ele><time>2026-05-02T07:42:06Z</time></trkpt><trkpt lat="43.45423661858439" lon="10.372806967297588"><ele>18.0</ele><time>2026-05-02T07:42:08Z</time></trkpt><trkpt lat="43.45431530471351" lon="10.372729563872703"><ele>18.0</ele><time>2026-05-02T07:42:10Z</time></trkpt><trkpt lat="43.454389279886364" lon="10.372646345223092"><ele>18.0</ele><time>2026-05-02T07:42:12Z</time></trkpt><trkpt lat="43.45446615585197" lon="10.372554745078158"><ele>18.0</ele><time>2026-05-02T07:42:14Z</time></trkpt><trkpt lat="43.45455145744394" lon="10.372463517961577"><ele>18.0</ele><time>2026-05-02T07:42:16Z</time></trkpt><trkpt lat="43.45463604286153" lon="10.372385622725611"><ele>18.0</ele><time>2026-05-02T07:42:18Z</time></trkpt><trkpt lat="43.45472705872857" lon="10.372300853800681"><ele>18.4</ele><time>2026-05-02T07:42:20Z</time></trkpt><trkpt lat="43.454826231050724" lon="10.372239333142167"><ele>18.8</ele><time>2026-05-02T07:42:22Z</time></trkpt><trkpt lat="43.454922939857276" lon="10.37216704692139"><ele>19.2</ele><time>2026-05-02T07:42:24Z</time></trkpt><trkpt lat="43.45501775019555" lon="10.37209190343742"><ele>19.6</ele><time>2026-05-02T07:42:26Z</time></trkpt><trkpt lat="43.455115319332805" lon="10.372013022351378"><ele>20.0</ele><time>2026-05-02T07:42:28Z</time></trkpt><trkpt lat="43.45520792063217" lon="10.371935334541643"><ele>20.0</ele><time>2026-05-02T07:42:30Z</time></trkpt><trkpt lat="43.455305181387985" lon="10.371868175435944"><ele>20.0</ele><time>2026-05-02T07:42:32Z</time></trkpt><trkpt lat="43.45540827181621" lon="10.371793010033002"><ele>20.0</ele><time>2026-05-02T07:42:34Z</time></trkpt><trkpt lat="43.45549837404833" lon="10.371733388077873"><ele>20.0</ele><time>2026-05-02T07:42:36Z</time></trkpt><trkpt lat="43.45560321889301" lon="10.371683628458516"><ele>20.0</ele><time>2026-05-02T07:42:38Z</time></trkpt><trkpt lat="43.4556888902123" lon="10.371612250228708"><ele>20.0</ele><time>2026-05-02T07:42:40Z</time></trkpt><trkpt lat="43.45577898905435" lon="10.371545074818247"><ele>20.0</ele><time>2026-05-02T07:42:42Z</time></trkpt><trkpt lat="43.45587735628344" lon="10.371485886629966"><ele>20.0</ele><time>2026-05-02T07:42:44Z</time></trkpt><trkpt lat="43.45598049384157" lon="10.371425906319166"><ele>20.0</ele><time>2026-05-02T07:42:46Z</time></trkpt><trkpt lat="43.456074062228055" lon="10.371373377005751"><ele>20.0</ele><time>2026-05-02T07:42:48Z</time></trkpt><trkpt lat="43.456160695580394" lon="10.371320976235038"><ele>20.0</ele><time>2026-05-02T07:42:50Z</time></trkpt><trkpt lat="43.45625511587592" lon="10.371246948960023"><ele>20.0</ele><time>2026-05-02T07:42:52Z</time></trkpt><trkpt lat="43.45634795674348" lon="10.371183464231489"><ele>20.0</ele><time>2026-05-02T07:42:54Z</time></trkpt><trkpt lat="43.45644530422674" lon="10.371102871129676"><ele>20.0</ele><time>2026-05-02T07:42:56Z</time></trkpt><trkpt lat="43.45652863695981" lon="10.371004975977229"><ele>20.0</ele><time>2026-05-02T07:42:58Z</time></trkpt><trkpt lat="43.45660008121431" lon="10.37089927835943"><ele>19.6</ele><time>2026-05-02T07:43:00Z</time></trkpt><trkpt lat="43.456664876646066" lon="10.370784189215614"><ele>19.2</ele><time>2026-05-02T07:43:02Z</time></trkpt><trkpt lat="43.45672872864466" lon="10.37067116449061"><ele>18.8</ele><time>2026-05-02T07:43:04Z</time></trkpt><trkpt lat="43.45679026965616" lon="10.370565137930612"><ele>18.4</ele><time>2026-05-02T07:43:06Z</time></trkpt><trkpt lat="43.45685543922195" lon="10.370458623057901"><ele>18.0</ele><time>2026-05-02T07:43:08Z</time></trkpt><trkpt lat="43.45691680707117" lon="10.370338368687575"><ele>18.0</ele><time>2026-05-02T07:43:10Z</time></trkpt><trkpt lat="43.45698221461878" lon="10.370220609330831"><ele>18.0</ele><time>2026-05-02T07:43:12Z</time></trkpt><trkpt lat="43.457049696739475" lon="10.370105515305351"><ele>18.0</ele><time>2026-05-02T07:43:14Z</time></trkpt><trkpt lat="43.45711913762022" lon="10.369984271445494"><ele>18.0</ele><time>2026-05-02T07:43:16Z</time></trkpt><trkpt lat="43.45719344118343" lon="10.369863783143538"><ele>18.0</ele><time>2026-05-02T07:43:17.999Z</time></trkpt><trkpt lat="43.45727833502179" lon="10.369753435953067"><ele>18.0</ele><time>2026-05-02T07:43:19.999Z</time></trkpt><trkpt lat="43.457371323254" lon="10.369678842956171"><ele>18.0</ele><time>2026-05-02T07:43:21.999Z</time></trkpt><trkpt lat="43.457456592778804" lon="10.369593837428804"><ele>18.0</ele><time>2026-05-02T07:43:23.999Z</time></trkpt><trkpt lat="43.45753625275419" lon="10.369516160891168"><ele>18.0</ele><time>2026-05-02T07:43:25.999Z</time></trkpt><trkpt lat="43.457610441486" lon="10.369429136453395"><ele>18.0</ele><time>2026-05-02T07:43:27.999Z</time></trkpt><trkpt lat="43.45768809578115" lon="10.3693412783582"><ele>18.0</ele><time>2026-05-02T07:43:29.999Z</time></trkpt><trkpt lat="43.45777284999765" lon="10.369265525641465"><ele>18.0</ele><time>2026-05-02T07:43:31.999Z</time></trkpt><trkpt lat="43.45784952221366" lon="10.369191495923882"><ele>18.0</ele><time>2026-05-02T07:43:33.999Z</time></trkpt><trkpt lat="43.45792005582705" lon="10.369118600115934"><ele>18.0</ele><time>2026-05-02T07:43:35.999Z</time></trkpt><trkpt lat="43.45788295295486" lon="10.368931101756157"><ele>18.0</ele><time>2026-05-02T07:43:39.999Z</time></trkpt><trkpt lat="43.4578283170805" lon="10.368834891167506"><ele>18.2</ele><time>2026-05-02T07:43:41.999Z</time></trkpt><trkpt lat="43.45790994283852" lon="10.368664123466388"><ele>18.4</ele><time>2026-05-02T07:43:47Z</time></trkpt><trkpt lat="43.45797179213362" lon="10.368616720898915"><ele>18.599999999999998</ele><time>2026-05-02T07:43:51Z</time></trkpt><trkpt lat="43.45801961435978" lon="10.368555895176154"><ele>18.8</ele><time>2026-05-02T07:43:55Z</time></trkpt><trkpt lat="43.45808214047755" lon="10.368482936275212"><ele>19.0</ele><time>2026-05-02T07:43:59Z</time></trkpt><trkpt lat="43.458140532958076" lon="10.3683988643407"><ele>19.166666666666664</ele><time>2026-05-02T07:44:02Z</time></trkpt><trkpt lat="43.45817871105452" lon="10.368314617466785"><ele>19.333333333333332</ele><time>2026-05-02T07:44:09Z</time></trkpt><trkpt lat="43.4582236579369" lon="10.368213817335583"><ele>19.5</ele><time>2026-05-02T07:44:12Z</time></trkpt><trkpt lat="43.45825750984029" lon="10.368138404144762"><ele>19.666666666666668</ele><time>2026-05-02T07:44:14Z</time></trkpt><trkpt lat="43.458296488542" lon="10.36805082204577"><ele>19.833333333333336</ele><time>2026-05-02T07:44:16Z</time></trkpt><trkpt lat="43.458345839197094" lon="10.367966285232086"><ele>20.0</ele><time>2026-05-02T07:44:18Z</time></trkpt><trkpt lat="43.45838289766638" lon="10.36787489899681"><ele>20.0</ele><time>2026-05-02T07:44:20Z</time></trkpt><trkpt lat="43.45842384021663" lon="10.367779967607888"><ele>20.0</ele><time>2026-05-02T07:44:24Z</time></trkpt><trkpt lat="43.4584515668934" lon="10.367702051128726"><ele>20.0</ele><time>2026-05-02T07:44:26Z</time></trkpt><trkpt lat="43.458503161437584" lon="10.367601638683134"><ele>20.0</ele><time>2026-05-02T07:44:29Z</time></trkpt><trkpt lat="43.458546172170834" lon="10.367512192715793"><ele>20.0</ele><time>2026-05-02T07:44:32Z</time></trkpt><trkpt lat="43.45857780176491" lon="10.367415092281588"><ele>20.0</ele><time>2026-05-02T07:44:35Z</time></trkpt><trkpt lat="43.45861820806785" lon="10.367306406833606"><ele>19.8</ele><time>2026-05-02T07:44:38Z</time></trkpt><trkpt lat="43.458683437523874" lon="10.367191833892763"><ele>19.6</ele><time>2026-05-02T07:44:41Z</time></trkpt><trkpt lat="43.45872952661074" lon="10.36709464470495"><ele>19.4</ele><time>2026-05-02T07:44:43Z</time></trkpt><trkpt lat="43.45877080222854" lon="10.366994297238422"><ele>19.2</ele><time>2026-05-02T07:44:45Z</time></trkpt><trkpt lat="43.45881544805991" lon="10.366884427391922"><ele>19.0</ele><time>2026-05-02T07:44:47Z</time></trkpt><trkpt lat="43.45886975110065" lon="10.366788863010342"><ele>19.0</ele><time>2026-05-02T07:44:49Z</time></trkpt><trkpt lat="43.45892208192768" lon="10.366686202234987"><ele>19.0</ele><time>2026-05-02T07:44:51Z</time></trkpt><trkpt lat="43.45896752717795" lon="10.366598664960112"><ele>19.0</ele><time>2026-05-02T07:44:53Z</time></trkpt><trkpt lat="43.45900590403652" lon="10.366497877291694"><ele>19.0</ele><time>2026-05-02T07:44:55Z</time></trkpt><trkpt lat="43.45904403746521" lon="10.366407530761858"><ele>19.0</ele><time>2026-05-02T07:44:57Z</time></trkpt><trkpt lat="43.45909205951461" lon="10.366320061569006"><ele>19.0</ele><time>2026-05-02T07:44:59Z</time></trkpt><trkpt lat="43.45913998191966" lon="10.366233180434993"><ele>17.599999999999998</ele><time>2026-05-02T07:45:01Z</time></trkpt><trkpt lat="43.45916711618138" lon="10.3661185952708"><ele>16.2</ele><time>2026-05-02T07:45:03Z</time></trkpt><trkpt lat="43.45913204213973" lon="10.365996372298493"><ele>14.799999999999999</ele><time>2026-05-02T07:45:05Z</time></trkpt><trkpt lat="43.45909864172033" lon="10.365860867194879"><ele>13.399999999999999</ele><time>2026-05-02T07:45:07Z</time></trkpt><trkpt lat="43.4590309527223" lon="10.365729748050077"><ele>12.0</ele><time>2026-05-02T07:45:09Z</time></trkpt><trkpt lat="43.458960558201085" lon="10.365585138170763"><ele>10.833333333333334</ele><time>2026-05-02T07:45:11Z</time></trkpt><trkpt lat="43.45892232392133" lon="10.36551186446966"><ele>9.666666666666666</ele><time>2026-05-02T07:45:12Z</time></trkpt><trkpt lat="43.45888500775314" lon="10.36543956576912"><ele>8.5</ele><time>2026-05-02T07:45:13Z</time></trkpt><trkpt lat="43.458816289429215" lon="10.365308485353625"><ele>7.333333333333334</ele><time>2026-05-02T07:45:15Z</time></trkpt><trkpt lat="43.458753947446475" lon="10.36519298481618"><ele>6.166666666666667</ele><time>2026-05-02T07:45:17Z</time></trkpt><trkpt lat="43.45871321332582" lon="10.365071804915567"><ele>5.0</ele><time>2026-05-02T07:45:19Z</time></trkpt><trkpt lat="43.4587014464686" lon="10.364943675437836"><ele>5.0</ele><time>2026-05-02T07:45:21Z</time></trkpt><trkpt lat="43.458746569749" lon="10.364837109776113"><ele>5.0</ele><time>2026-05-02T07:45:23Z</time></trkpt><trkpt lat="43.45879161381266" lon="10.364731244872242"><ele>5.0</ele><time>2026-05-02T07:45:25Z</time></trkpt><trkpt lat="43.45883553141148" lon="10.364622593713879"><ele>5.0</ele><time>2026-05-02T07:45:27Z</time></trkpt><trkpt lat="43.458880452295126" lon="10.364520363011666"><ele>5.0</ele><time>2026-05-02T07:45:29Z</time></trkpt><trkpt lat="43.45892026122412" lon="10.364422167343902"><ele>5.0</ele><time>2026-05-02T07:45:31Z</time></trkpt><trkpt lat="43.458997720584364" lon="10.364467043024327"><ele>5.0</ele><time>2026-05-02T07:45:34Z</time></trkpt><trkpt lat="43.45906573961902" lon="10.36452485907"><ele>5.0</ele><time>2026-05-02T07:45:45.999Z</time></trkpt><trkpt lat="43.459126894031684" lon="10.364571659274043"><ele>5.0</ele><time>2026-05-02T07:45:47.999Z</time></trkpt><trkpt lat="43.459206298772166" lon="10.364625107008756"><ele>5.0</ele><time>2026-05-02T07:45:49.999Z</time></trkpt><trkpt lat="43.45928853780902" lon="10.364677799070561"><ele>5.0</ele><time>2026-05-02T07:45:52Z</time></trkpt><trkpt lat="43.45936769203177" lon="10.36472967104806"><ele>5.0</ele><time>2026-05-02T07:45:54Z</time></trkpt><trkpt lat="43.459447322284596" lon="10.364788517937528"><ele>5.0</ele><time>2026-05-02T07:45:56Z</time></trkpt><trkpt lat="43.45952908441383" lon="10.364849169215795"><ele>5.0</ele><time>2026-05-02T07:45:58Z</time></trkpt><trkpt lat="43.4596073480346" lon="10.364908591121111"><ele>5.0</ele><time>2026-05-02T07:46:00Z</time></trkpt><trkpt lat="43.45967821311322" lon="10.36497536631286"><ele>5.0</ele><time>2026-05-02T07:46:02Z</time></trkpt><trkpt lat="43.45975123182794" lon="10.365030076750454"><ele>5.0</ele><time>2026-05-02T07:46:04Z</time></trkpt><trkpt lat="43.459823180008165" lon="10.365092471954405"><ele>5.0</ele><time>2026-05-02T07:46:06Z</time></trkpt><trkpt lat="43.459892355345275" lon="10.365150165675512"><ele>6.666666666666667</ele><time>2026-05-02T07:46:08Z</time></trkpt><trkpt lat="43.459966635760196" lon="10.36519357355583"><ele>8.333333333333334</ele><time>2026-05-02T07:46:10.025Z</time></trkpt><trkpt lat="43.46002122849344" lon="10.365251291546924"><ele>10.0</ele><time>2026-05-02T07:46:12Z</time></trkpt><trkpt lat="43.45999400243622" lon="10.365417701462436"><ele>11.666666666666666</ele><time>2026-05-02T07:46:15Z</time></trkpt><trkpt lat="43.45994854272671" lon="10.365520637409857"><ele>13.333333333333334</ele><time>2026-05-02T07:46:18Z</time></trkpt><trkpt lat="43.459905579078494" lon="10.365607200085702"><ele>15.0</ele><time>2026-05-02T07:46:21Z</time></trkpt><trkpt lat="43.45986699432965" lon="10.365685864689683"><ele>15.333333333333334</ele><time>2026-05-02T07:46:23Z</time></trkpt><trkpt lat="43.45985082767979" lon="10.365781447566206"><ele>15.666666666666668</ele><time>2026-05-02T07:46:25Z</time></trkpt><trkpt lat="43.45987536073755" lon="10.365898876951604"><ele>16.0</ele><time>2026-05-02T07:46:27Z</time></trkpt><trkpt lat="43.459929553513255" lon="10.365980014880694"><ele>16.333333333333336</ele><time>2026-05-02T07:46:29Z</time></trkpt><trkpt lat="43.46001101383119" lon="10.366014858589368"><ele>16.666666666666668</ele><time>2026-05-02T07:46:31Z</time></trkpt><trkpt lat="43.460091589525966" lon="10.365995910291046"><ele>17.0</ele><time>2026-05-02T07:46:33Z</time></trkpt><trkpt lat="43.46016171639636" lon="10.365980927265479"><ele>17.0</ele><time>2026-05-02T07:46:35Z</time></trkpt><trkpt lat="43.460239790991864" lon="10.365979903995935"><ele>17.0</ele><time>2026-05-02T07:46:37Z</time></trkpt><trkpt lat="43.46031676820699" lon="10.365971069784251"><ele>17.0</ele><time>2026-05-02T07:46:39Z</time></trkpt><trkpt lat="43.46039461634627" lon="10.365962529909819"><ele>17.0</ele><time>2026-05-02T07:46:41Z</time></trkpt><trkpt lat="43.46046997060685" lon="10.36596072612491"><ele>17.0</ele><time>2026-05-02T07:46:43Z</time></trkpt><trkpt lat="43.46054516721452" lon="10.365959983489248"><ele>17.0</ele><time>2026-05-02T07:46:45Z</time></trkpt><trkpt lat="43.46061940714744" lon="10.365960089584828"><ele>17.5</ele><time>2026-05-02T07:46:47Z</time></trkpt><trkpt lat="43.46068973771237" lon="10.365959099094756"><ele>18.0</ele><time>2026-05-02T07:46:49Z</time></trkpt><trkpt lat="43.46076200714659" lon="10.365948985650009"><ele>18.5</ele><time>2026-05-02T07:46:51Z</time></trkpt><trkpt lat="43.460835820096065" lon="10.365937134332285"><ele>19.0</ele><time>2026-05-02T07:46:53Z</time></trkpt><trkpt lat="43.46091190148627" lon="10.365934647382296"><ele>19.5</ele><time>2026-05-02T07:46:55Z</time></trkpt><trkpt lat="43.460996392427255" lon="10.3659752090612"><ele>20.0</ele><time>2026-05-02T07:46:59Z</time></trkpt><trkpt lat="43.46106705519173" lon="10.36600770720285"><ele>20.0</ele><time>2026-05-02T07:47:00Z</time></trkpt><trkpt lat="43.46116860769114" lon="10.366042521279908"><ele>20.0</ele><time>2026-05-02T07:47:03Z</time></trkpt><trkpt lat="43.46120420482186" lon="10.365969516995658"><ele>20.0</ele><time>2026-05-02T07:47:04Z</time></trkpt><trkpt lat="43.461163508503006" lon="10.365865337975668"><ele>20.0</ele><time>2026-05-02T07:47:06Z</time></trkpt><trkpt lat="43.46113715996947" lon="10.365784459897835"><ele>20.0</ele><time>2026-05-02T07:47:08Z</time></trkpt><trkpt lat="43.46112089324005" lon="10.365693266994176"><ele>20.0</ele><time>2026-05-02T07:47:10Z</time></trkpt><trkpt lat="43.46110705584164" lon="10.365604031755007"><ele>20.428571428571427</ele><time>2026-05-02T07:47:12Z</time></trkpt><trkpt lat="43.461118234330606" lon="10.365503833278156"><ele>20.857142857142858</ele><time>2026-05-02T07:47:14Z</time></trkpt><trkpt lat="43.461146556254825" lon="10.365416223145198"><ele>21.285714285714285</ele><time>2026-05-02T07:47:16Z</time></trkpt><trkpt lat="43.461196515736766" lon="10.365345294700242"><ele>21.714285714285715</ele><time>2026-05-02T07:47:18Z</time></trkpt><trkpt lat="43.46125233748392" lon="10.365279380518066"><ele>22.142857142857142</ele><time>2026-05-02T07:47:20Z</time></trkpt><trkpt lat="43.46130823427022" lon="10.365207728510546"><ele>22.571428571428573</ele><time>2026-05-02T07:47:22Z</time></trkpt><trkpt lat="43.461356302862164" lon="10.365135245555463"><ele>23.0</ele><time>2026-05-02T07:47:24Z</time></trkpt><trkpt lat="43.46141151881171" lon="10.365067427372516"><ele>23.571428571428573</ele><time>2026-05-02T07:47:26Z</time></trkpt><trkpt lat="43.46146333358023" lon="10.36499666961421"><ele>24.142857142857142</ele><time>2026-05-02T07:47:28Z</time></trkpt><trkpt lat="43.46151559137235" lon="10.36493316509539"><ele>24.714285714285715</ele><time>2026-05-02T07:47:30Z</time></trkpt><trkpt lat="43.46156923834039" lon="10.364864524921268"><ele>25.285714285714285</ele><time>2026-05-02T07:47:32Z</time></trkpt><trkpt lat="43.461621554320224" lon="10.364797046729153"><ele>25.857142857142854</ele><time>2026-05-02T07:47:34Z</time></trkpt><trkpt lat="43.4616656253966" lon="10.364722268742282"><ele>26.428571428571427</ele><time>2026-05-02T07:47:36Z</time></trkpt><trkpt lat="43.46170570325249" lon="10.364654094553014"><ele>27.0</ele><time>2026-05-02T07:47:38Z</time></trkpt><trkpt lat="43.461760086832435" lon="10.364579676718364"><ele>27.166666666666668</ele><time>2026-05-02T07:47:40Z</time></trkpt><trkpt lat="43.46178626717317" lon="10.364481829216794"><ele>27.333333333333336</ele><time>2026-05-02T07:47:42Z</time></trkpt><trkpt lat="43.461829425720154" lon="10.364357784536773"><ele>27.5</ele><time>2026-05-02T07:47:45Z</time></trkpt><trkpt lat="43.46185459570013" lon="10.364263787604678"><ele>27.666666666666668</ele><time>2026-05-02T07:47:47Z</time></trkpt><trkpt lat="43.461874196077744" lon="10.364177579995788"><ele>27.833333333333336</ele><time>2026-05-02T07:47:48.999Z</time></trkpt><trkpt lat="43.46189888000072" lon="10.364082860920135"><ele>28.0</ele><time>2026-05-02T07:47:50.999Z</time></trkpt><trkpt lat="43.46191435452652" lon="10.363988657840045"><ele>28.0</ele><time>2026-05-02T07:47:52.999Z</time></trkpt><trkpt lat="43.46194470972652" lon="10.363897083305222"><ele>28.0</ele><time>2026-05-02T07:47:54.999Z</time></trkpt><trkpt lat="43.46196786798178" lon="10.363801512869301"><ele>28.0</ele><time>2026-05-02T07:47:57Z</time></trkpt><trkpt lat="43.461986838130414" lon="10.363715632531656"><ele>28.0</ele><time>2026-05-02T07:47:59Z</time></trkpt><trkpt lat="43.462001059883626" lon="10.363624374306573"><ele>28.0</ele><time>2026-05-02T07:48:01Z</time></trkpt><trkpt lat="43.4620266810466" lon="10.363534869895469"><ele>28.0</ele><time>2026-05-02T07:48:03Z</time></trkpt><trkpt lat="43.46204607847594" lon="10.363439841538858"><ele>28.0</ele><time>2026-05-02T07:48:05Z</time></trkpt><trkpt lat="43.46207997150313" lon="10.363351890475348"><ele>28.666666666666668</ele><time>2026-05-02T07:48:07Z</time></trkpt><trkpt lat="43.462107919667865" lon="10.363263675377187"><ele>29.333333333333336</ele><time>2026-05-02T07:48:09Z</time></trkpt><trkpt lat="43.46216280531206" lon="10.363152420760487"><ele>30.0</ele><time>2026-05-02T07:48:12Z</time></trkpt><trkpt lat="43.462213359039566" lon="10.363059826007053"><ele>30.666666666666664</ele><time>2026-05-02T07:48:15Z</time></trkpt><trkpt lat="43.462264440291825" lon="10.362962286423251"><ele>31.333333333333332</ele><time>2026-05-02T07:48:18Z</time></trkpt><trkpt lat="43.46231779053846" lon="10.362883483265492"><ele>32.0</ele><time>2026-05-02T07:48:20Z</time></trkpt><trkpt lat="43.46238126326715" lon="10.362809669789883"><ele>33.857142857142854</ele><time>2026-05-02T07:48:22Z</time></trkpt><trkpt lat="43.46243914036494" lon="10.362763265625505"><ele>35.71428571428571</ele><time>2026-05-02T07:48:24Z</time></trkpt><trkpt lat="43.462511276432814" lon="10.362712328931687"><ele>37.57142857142857</ele><time>2026-05-02T07:48:26Z</time></trkpt><trkpt lat="43.46257713314521" lon="10.362671710534029"><ele>39.42857142857143</ele><time>2026-05-02T07:48:28Z</time></trkpt><trkpt lat="43.462645558281295" lon="10.36263639111706"><ele>41.28571428571429</ele><time>2026-05-02T07:48:30Z</time></trkpt><trkpt lat="43.46271565003336" lon="10.362603745459213"><ele>43.14285714285714</ele><time>2026-05-02T07:48:32Z</time></trkpt><trkpt lat="43.46278899357789" lon="10.36258369565237"><ele>45.0</ele><time>2026-05-02T07:48:34Z</time></trkpt><trkpt lat="43.46286167194477" lon="10.362563695024917"><ele>45.0</ele><time>2026-05-02T07:48:36Z</time></trkpt><trkpt lat="43.46292952547617" lon="10.362533778344748"><ele>45.0</ele><time>2026-05-02T07:48:38Z</time></trkpt><trkpt lat="43.46299850801709" lon="10.36251372712228"><ele>45.0</ele><time>2026-05-02T07:48:40Z</time></trkpt><trkpt lat="43.46306735169883" lon="10.362488367932569"><ele>45.0</ele><time>2026-05-02T07:48:42Z</time></trkpt><trkpt lat="43.463136287849" lon="10.362458701863087"><ele>45.0</ele><time>2026-05-02T07:48:44Z</time></trkpt><trkpt lat="43.46319729038465" lon="10.362412232432716"><ele>45.0</ele><time>2026-05-02T07:48:46Z</time></trkpt><trkpt lat="43.46324939729487" lon="10.36233416197682"><ele>45.0</ele><time>2026-05-02T07:48:48Z</time></trkpt><trkpt lat="43.46327934852244" lon="10.362252626402524"><ele>47.833333333333336</ele><time>2026-05-02T07:48:50Z</time></trkpt><trkpt lat="43.46329382778256" lon="10.362150934992604"><ele>50.66666666666667</ele><time>2026-05-02T07:48:52Z</time></trkpt><trkpt lat="43.46329063236266" lon="10.362041623345892"><ele>53.5</ele><time>2026-05-02T07:48:54Z</time></trkpt><trkpt lat="43.46326609934207" lon="10.361943173747266"><ele>56.333333333333336</ele><time>2026-05-02T07:48:56Z</time></trkpt><trkpt lat="43.46322077408568" lon="10.361864191202281"><ele>59.16666666666667</ele><time>2026-05-02T07:48:58Z</time></trkpt><trkpt lat="43.463150512820526" lon="10.361816879179854"><ele>62.0</ele><time>2026-05-02T07:49:00Z</time></trkpt><trkpt lat="43.46307240137101" lon="10.361795337021666"><ele>62.00000000000001</ele><time>2026-05-02T07:49:02Z</time></trkpt><trkpt lat="43.462996469538254" lon="10.361788447221775"><ele>62.0</ele><time>2026-05-02T07:49:04Z</time></trkpt><trkpt lat="43.46292215201888" lon="10.361797041744842"><ele>62.0</ele><time>2026-05-02T07:49:06Z</time></trkpt><trkpt lat="43.462843777869736" lon="10.361780777724206"><ele>62.0</ele><time>2026-05-02T07:49:08Z</time></trkpt><trkpt lat="43.462766922025224" lon="10.361784100545472"><ele>62.00000000000001</ele><time>2026-05-02T07:49:10Z</time></trkpt><trkpt lat="43.462690495264575" lon="10.361773622052818"><ele>62.0</ele><time>2026-05-02T07:49:12Z</time></trkpt><trkpt lat="43.462616216119464" lon="10.361752250225878"><ele>62.0</ele><time>2026-05-02T07:49:14Z</time></trkpt><trkpt lat="43.46254994550972" lon="10.361735871017082"><ele>62.00000000000001</ele><time>2026-05-02T07:49:16Z</time></trkpt><trkpt lat="43.46248000463737" lon="10.361678951334195"><ele>62.0</ele><time>2026-05-02T07:49:18Z</time></trkpt><trkpt lat="43.462421913014076" lon="10.361606168069862"><ele>62.0</ele><time>2026-05-02T07:49:20Z</time></trkpt><trkpt lat="43.46239724379844" lon="10.361504209541065"><ele>62.00000000000001</ele><time>2026-05-02T07:49:22Z</time></trkpt><trkpt lat="43.462369499097" lon="10.361417495496918"><ele>62.0</ele><time>2026-05-02T07:49:24Z</time></trkpt><trkpt lat="43.46237159903045" lon="10.361317039135578"><ele>62.0</ele><time>2026-05-02T07:49:26Z</time></trkpt><trkpt lat="43.462368945479305" lon="10.361219346175865"><ele>62.0</ele><time>2026-05-02T07:49:28Z</time></trkpt><trkpt lat="43.462359701991176" lon="10.361127793194072"><ele>62.00000000000001</ele><time>2026-05-02T07:49:30Z</time></trkpt><trkpt lat="43.46235642114603" lon="10.361035896842138"><ele>62.0</ele><time>2026-05-02T07:49:32Z</time></trkpt><trkpt lat="43.46234398450047" lon="10.360944816405064"><ele>62.0</ele><time>2026-05-02T07:49:34Z</time></trkpt><trkpt lat="43.4623487725253" lon="10.360848720340051"><ele>62.00000000000001</ele><time>2026-05-02T07:49:36Z</time></trkpt><trkpt lat="43.46234256824341" lon="10.360758693382785"><ele>62.0</ele><time>2026-05-02T07:49:38Z</time></trkpt><trkpt lat="43.462334639727295" lon="10.360670394360419"><ele>62.0</ele><time>2026-05-02T07:49:40Z</time></trkpt><trkpt lat="43.462327887417395" lon="10.36057930640015"><ele>61.42857142857143</ele><time>2026-05-02T07:49:42Z</time></trkpt><trkpt lat="43.46232439150498" lon="10.360492000071112"><ele>60.85714285714286</ele><time>2026-05-02T07:49:44Z</time></trkpt><trkpt lat="43.46234950434164" lon="10.360397746808056"><ele>60.28571428571429</ele><time>2026-05-02T07:49:46Z</time></trkpt><trkpt lat="43.462376537159024" lon="10.36031312670781"><ele>59.71428571428572</ele><time>2026-05-02T07:49:48Z</time></trkpt><trkpt lat="43.46240374280535" lon="10.360223778256294"><ele>59.142857142857146</ele><time>2026-05-02T07:49:50Z</time></trkpt><trkpt lat="43.46243071015781" lon="10.360136957233982"><ele>58.571428571428584</ele><time>2026-05-02T07:49:52Z</time></trkpt><trkpt lat="43.4624648606927" lon="10.360049556684176"><ele>58.00000000000001</ele><time>2026-05-02T07:49:54Z</time></trkpt><trkpt lat="43.46249912410245" lon="10.359966811904863"><ele>58.00000000000001</ele><time>2026-05-02T07:49:56Z</time></trkpt><trkpt lat="43.462527618642106" lon="10.359886935694801"><ele>58.0</ele><time>2026-05-02T07:49:57.999Z</time></trkpt><trkpt lat="43.46255785205696" lon="10.3598073645893"><ele>58.00000000000001</ele><time>2026-05-02T07:49:59.999Z</time></trkpt><trkpt lat="43.462596403647616" lon="10.359731760367909"><ele>58.00000000000001</ele><time>2026-05-02T07:50:01.999Z</time></trkpt><trkpt lat="43.462643300424155" lon="10.359663773134594"><ele>58.0</ele><time>2026-05-02T07:50:04Z</time></trkpt><trkpt lat="43.46269641481918" lon="10.359601393947832"><ele>58.00000000000001</ele><time>2026-05-02T07:50:06Z</time></trkpt><trkpt lat="43.46275375251331" lon="10.359548996845756"><ele>58.00000000000001</ele><time>2026-05-02T07:50:08Z</time></trkpt><trkpt lat="43.462812168283754" lon="10.359502261596392"><ele>56.14285714285715</ele><time>2026-05-02T07:50:10Z</time></trkpt><trkpt lat="43.46286739536105" lon="10.35945642014157"><ele>54.28571428571429</ele><time>2026-05-02T07:50:12Z</time></trkpt><trkpt lat="43.462923302342496" lon="10.359407437480739"><ele>52.42857142857143</ele><time>2026-05-02T07:50:14Z</time></trkpt><trkpt lat="43.46298128877981" lon="10.359361225902454"><ele>50.57142857142858</ele><time>2026-05-02T07:50:16Z</time></trkpt><trkpt lat="43.4630368808336" lon="10.359317977829265"><ele>48.71428571428572</ele><time>2026-05-02T07:50:18Z</time></trkpt><trkpt lat="43.46309409986583" lon="10.359270885014723"><ele>46.857142857142854</ele><time>2026-05-02T07:50:20Z</time></trkpt><trkpt lat="43.46315072087457" lon="10.359227773135732"><ele>45.0</ele><time>2026-05-02T07:50:22Z</time></trkpt><trkpt lat="43.46320730441411" lon="10.359186089749839"><ele>47.57142857142857</ele><time>2026-05-02T07:50:24Z</time></trkpt><trkpt lat="43.46326150467472" lon="10.359129888934342"><ele>50.142857142857146</ele><time>2026-05-02T07:50:26Z</time></trkpt><trkpt lat="43.46331712882918" lon="10.359089038797315"><ele>52.714285714285715</ele><time>2026-05-02T07:50:28Z</time></trkpt><trkpt lat="43.46337602169704" lon="10.359045190462648"><ele>55.285714285714285</ele><time>2026-05-02T07:50:30Z</time></trkpt><trkpt lat="43.46342866802681" lon="10.358987216089032"><ele>57.85714285714286</ele><time>2026-05-02T07:50:32Z</time></trkpt><trkpt lat="43.46351044508689" lon="10.358929720572752"><ele>60.42857142857143</ele><time>2026-05-02T07:50:35Z</time></trkpt><trkpt lat="43.463562950281954" lon="10.35888102184427"><ele>63.0</ele><time>2026-05-02T07:50:37Z</time></trkpt><trkpt lat="43.46362735922124" lon="10.358788237429264"><ele>63.0</ele><time>2026-05-02T07:50:40Z</time></trkpt><trkpt lat="43.46367800035144" lon="10.35868196199852"><ele>63.0</ele><time>2026-05-02T07:50:43Z</time></trkpt><trkpt lat="43.46370255090846" lon="10.358600520281298"><ele>63.0</ele><time>2026-05-02T07:50:45Z</time></trkpt><trkpt lat="43.463720460717845" lon="10.358512591267152"><ele>63.0</ele><time>2026-05-02T07:50:47Z</time></trkpt><trkpt lat="43.46374613853286" lon="10.35839039733284"><ele>63.0</ele><time>2026-05-02T07:50:50Z</time></trkpt><trkpt lat="43.46376328351382" lon="10.358304680040256"><ele>63.0</ele><time>2026-05-02T07:50:52Z</time></trkpt><trkpt lat="43.46377458031416" lon="10.358216638406546"><ele>63.0</ele><time>2026-05-02T07:50:54Z</time></trkpt><trkpt lat="43.46378907270037" lon="10.35809515718907"><ele>67.0</ele><time>2026-05-02T07:50:57Z</time></trkpt><trkpt lat="43.46383514955602" lon="10.357994481572078"><ele>71.0</ele><time>2026-05-02T07:51:00Z</time></trkpt><trkpt lat="43.46387178748207" lon="10.358075567726774"><ele>75.0</ele><time>2026-05-02T07:51:02Z</time></trkpt><trkpt lat="43.46385070547338" lon="10.358172794965714"><ele>79.0</ele><time>2026-05-02T07:51:04Z</time></trkpt><trkpt lat="43.46382965857649" lon="10.35827784954585"><ele>83.0</ele><time>2026-05-02T07:51:07Z</time></trkpt><trkpt lat="43.463800988435054" lon="10.358394392718239"><ele>87.0</ele><time>2026-05-02T07:51:10Z</time></trkpt><trkpt lat="43.46378758463291" lon="10.358503277952696"><ele>84.5</ele><time>2026-05-02T07:51:13Z</time></trkpt><trkpt lat="43.463768986083345" lon="10.358609672023086"><ele>82.0</ele><time>2026-05-02T07:51:16Z</time></trkpt><trkpt lat="43.46375190689976" lon="10.358717645765827"><ele>79.5</ele><time>2026-05-02T07:51:19Z</time></trkpt><trkpt lat="43.46373546609116" lon="10.358827451710681"><ele>77.0</ele><time>2026-05-02T07:51:22Z</time></trkpt><trkpt lat="43.46372112728031" lon="10.358934079610771"><ele>74.5</ele><time>2026-05-02T07:51:25Z</time></trkpt><trkpt lat="43.46370650288977" lon="10.359043550366232"><ele>72.0</ele><time>2026-05-02T07:51:28Z</time></trkpt><trkpt lat="43.463690429170256" lon="10.359151417205476"><ele>72.0</ele><time>2026-05-02T07:51:31Z</time></trkpt><trkpt lat="43.46367952811526" lon="10.359261593975054"><ele>72.0</ele><time>2026-05-02T07:51:34Z</time></trkpt><trkpt lat="43.463661359716966" lon="10.359370087128932"><ele>72.0</ele><time>2026-05-02T07:51:37Z</time></trkpt><trkpt lat="43.46363097196933" lon="10.35946584186848"><ele>72.0</ele><time>2026-05-02T07:51:40Z</time></trkpt><trkpt lat="43.463582818357715" lon="10.359565973320274"><ele>72.0</ele><time>2026-05-02T07:51:43Z</time></trkpt><trkpt lat="43.46353037217799" lon="10.35964264817192"><ele>72.0</ele><time>2026-05-02T07:51:46Z</time></trkpt><trkpt lat="43.46347226530535" lon="10.359716076967262"><ele>74.0</ele><time>2026-05-02T07:51:49Z</time></trkpt><trkpt lat="43.46342537073624" lon="10.359797060529646"><ele>76.0</ele><time>2026-05-02T07:51:52Z</time></trkpt><trkpt lat="43.46336612580514" lon="10.359880583792894"><ele>78.0</ele><time>2026-05-02T07:51:55Z</time></trkpt><trkpt lat="43.46331569317409" lon="10.359973075534302"><ele>80.0</ele><time>2026-05-02T07:51:58Z</time></trkpt><trkpt lat="43.463268797356676" lon="10.360053554465994"><ele>82.0</ele><time>2026-05-02T07:52:01Z</time></trkpt><trkpt lat="43.46324078883281" lon="10.360131353112916"><ele>84.0</ele><time>2026-05-02T07:52:03Z</time></trkpt><trkpt lat="43.46323117803742" lon="10.36024864711453"><ele>84.0</ele><time>2026-05-02T07:52:06Z</time></trkpt><trkpt lat="43.46325952455038" lon="10.360354655061391"><ele>84.0</ele><time>2026-05-02T07:52:09Z</time></trkpt><trkpt lat="43.463307561850094" lon="10.360449632109344"><ele>84.0</ele><time>2026-05-02T07:52:12Z</time></trkpt><trkpt lat="43.463378350182275" lon="10.360510911946415"><ele>84.0</ele><time>2026-05-02T07:52:15Z</time></trkpt><trkpt lat="43.463465200569736" lon="10.36053787119055"><ele>84.0</ele><time>2026-05-02T07:52:18Z</time></trkpt><trkpt lat="43.46354875822148" lon="10.360500309464307"><ele>84.0</ele><time>2026-05-02T07:52:21Z</time></trkpt><trkpt lat="43.46360761020733" lon="10.36041615629695"><ele>84.0</ele><time>2026-05-02T07:52:24Z</time></trkpt><trkpt lat="43.463638337633284" lon="10.360312093734006"><ele>84.0</ele><time>2026-05-02T07:52:27Z</time></trkpt><trkpt lat="43.46365684461306" lon="10.360223478610207"><ele>84.0</ele><time>2026-05-02T07:52:29Z</time></trkpt><trkpt lat="43.4636793509287" lon="10.360098943421981"><ele>84.0</ele><time>2026-05-02T07:52:32Z</time></trkpt><trkpt lat="43.46372260374836" lon="10.359986218347679"><ele>84.0</ele><time>2026-05-02T07:52:35Z</time></trkpt><trkpt lat="43.46377736431838" lon="10.359892703802059"><ele>84.0</ele><time>2026-05-02T07:52:38Z</time></trkpt><trkpt lat="43.46382791047463" lon="10.359788188393438"><ele>86.80000000000001</ele><time>2026-05-02T07:52:41Z</time></trkpt><trkpt lat="43.463885712003616" lon="10.35970514119259"><ele>89.60000000000001</ele><time>2026-05-02T07:52:44Z</time></trkpt><trkpt lat="43.463943571915436" lon="10.359601479045105"><ele>92.4</ele><time>2026-05-02T07:52:47Z</time></trkpt><trkpt lat="43.46399430799365" lon="10.359492589269648"><ele>95.2</ele><time>2026-05-02T07:52:50Z</time></trkpt><trkpt lat="43.46402846382406" lon="10.359376640939177"><ele>98.0</ele><time>2026-05-02T07:52:53Z</time></trkpt><trkpt lat="43.46406765605506" lon="10.35925834147345"><ele>97.99999999999999</ele><time>2026-05-02T07:52:56Z</time></trkpt><trkpt lat="43.464106091402385" lon="10.359149774595515"><ele>98.0</ele><time>2026-05-02T07:52:59Z</time></trkpt><trkpt lat="43.4641344174294" lon="10.359037574876423"><ele>98.0</ele><time>2026-05-02T07:53:02Z</time></trkpt><trkpt lat="43.46415938549263" lon="10.358923024012743"><ele>98.0</ele><time>2026-05-02T07:53:05Z</time></trkpt><trkpt lat="43.46419004835343" lon="10.35880648982463"><ele>97.99999999999999</ele><time>2026-05-02T07:53:08Z</time></trkpt><trkpt lat="43.464207862037654" lon="10.358687040540813"><ele>98.0</ele><time>2026-05-02T07:53:11Z</time></trkpt><trkpt lat="43.4642375545754" lon="10.358571812904795"><ele>96.49999999999999</ele><time>2026-05-02T07:53:14Z</time></trkpt><trkpt lat="43.464279598187375" lon="10.358463339218357"><ele>95.0</ele><time>2026-05-02T07:53:17Z</time></trkpt><trkpt lat="43.464329442238736" lon="10.358358063887957"><ele>93.5</ele><time>2026-05-02T07:53:20Z</time></trkpt><trkpt lat="43.464359399905014" lon="10.358273627224312"><ele>92.0</ele><time>2026-05-02T07:53:22Z</time></trkpt><trkpt lat="43.46438955321987" lon="10.35819551188031"><ele>90.5</ele><time>2026-05-02T07:53:24Z</time></trkpt><trkpt lat="43.46443531932634" lon="10.358084126335202"><ele>89.0</ele><time>2026-05-02T07:53:27Z</time></trkpt><trkpt lat="43.46447005164216" lon="10.358006567097473"><ele>88.66666666666667</ele><time>2026-05-02T07:53:29Z</time></trkpt><trkpt lat="43.46450878271677" lon="10.35789234270892"><ele>88.33333333333334</ele><time>2026-05-02T07:53:32Z</time></trkpt><trkpt lat="43.464552509176144" lon="10.357780772175955"><ele>88.0</ele><time>2026-05-02T07:53:35Z</time></trkpt><trkpt lat="43.464620885463724" lon="10.357694470849472"><ele>87.66666666666667</ele><time>2026-05-02T07:53:38Z</time></trkpt><trkpt lat="43.46469690914188" lon="10.357640935282939"><ele>87.33333333333333</ele><time>2026-05-02T07:53:41Z</time></trkpt><trkpt lat="43.464778543863346" lon="10.35765223717783"><ele>87.0</ele><time>2026-05-02T07:53:44Z</time></trkpt><trkpt lat="43.46484421837348" lon="10.357705736388693"><ele>90.16666666666667</ele><time>2026-05-02T07:53:47Z</time></trkpt><trkpt lat="43.46489003139284" lon="10.357795856034338"><ele>93.33333333333334</ele><time>2026-05-02T07:53:50Z</time></trkpt><trkpt lat="43.46486267784276" lon="10.357903105769887"><ele>96.5</ele><time>2026-05-02T07:53:53Z</time></trkpt><trkpt lat="43.46483362231321" lon="10.357990311628402"><ele>99.66666666666667</ele><time>2026-05-02T07:53:56Z</time></trkpt><trkpt lat="43.464770143339386" lon="10.35807816275693"><ele>102.83333333333334</ele><time>2026-05-02T07:53:59Z</time></trkpt><trkpt lat="43.46471024232556" lon="10.358160884313893"><ele>106.0</ele><time>2026-05-02T07:54:01.999Z</time></trkpt><trkpt lat="43.46464435686042" lon="10.358231738723429"><ele>107.85714285714286</ele><time>2026-05-02T07:54:04.999Z</time></trkpt><trkpt lat="43.46461798654574" lon="10.358311305550705"><ele>109.71428571428571</ele><time>2026-05-02T07:55:04Z</time></trkpt><trkpt lat="43.464597228059695" lon="10.358426105319879"><ele>111.57142857142857</ele><time>2026-05-02T07:55:08Z</time></trkpt><trkpt lat="43.46456651004236" lon="10.358503326335656"><ele>113.42857142857143</ele><time>2026-05-02T07:55:10Z</time></trkpt><trkpt lat="43.46454576879956" lon="10.358585944103083"><ele>115.28571428571428</ele><time>2026-05-02T07:55:12Z</time></trkpt><trkpt lat="43.46453335903347" lon="10.358678458791218"><ele>117.14285714285714</ele><time>2026-05-02T07:55:14Z</time></trkpt><trkpt lat="43.46451950839483" lon="10.358768068800556"><ele>119.0</ele><time>2026-05-02T07:55:16Z</time></trkpt><trkpt lat="43.46451846208792" lon="10.35885883772882"><ele>116.0</ele><time>2026-05-02T07:55:18Z</time></trkpt><trkpt lat="43.46451137768553" lon="10.358950302079203"><ele>113.0</ele><time>2026-05-02T07:55:20Z</time></trkpt><trkpt lat="43.464509681035516" lon="10.359042117615987"><ele>110.0</ele><time>2026-05-02T07:55:22Z</time></trkpt><trkpt lat="43.464504900816614" lon="10.359135390866571"><ele>107.0</ele><time>2026-05-02T07:55:24Z</time></trkpt><trkpt lat="43.46449943707668" lon="10.359224159446558"><ele>104.0</ele><time>2026-05-02T07:55:26Z</time></trkpt><trkpt lat="43.46450541476096" lon="10.359314010995762"><ele>101.0</ele><time>2026-05-02T07:55:28Z</time></trkpt><trkpt lat="43.464513458471295" lon="10.359410804783224"><ele>98.0</ele><time>2026-05-02T07:55:30Z</time></trkpt><trkpt lat="43.464517565784526" lon="10.359498146582832"><ele>98.0</ele><time>2026-05-02T07:55:32Z</time></trkpt><trkpt lat="43.46452292168461" lon="10.359586647521825"><ele>98.0</ele><time>2026-05-02T07:55:34Z</time></trkpt><trkpt lat="43.464545088533754" lon="10.359679104830008"><ele>98.0</ele><time>2026-05-02T07:55:36Z</time></trkpt><trkpt lat="43.46458170194439" lon="10.359757745821208"><ele>98.0</ele><time>2026-05-02T07:55:38Z</time></trkpt><trkpt lat="43.46462869606085" lon="10.359821453305717"><ele>98.0</ele><time>2026-05-02T07:55:40Z</time></trkpt><trkpt lat="43.46468322279984" lon="10.35987498461427"><ele>98.0</ele><time>2026-05-02T07:55:42Z</time></trkpt><trkpt lat="43.46474011131127" lon="10.35992970557713"><ele>98.0</ele><time>2026-05-02T07:55:44Z</time></trkpt><trkpt lat="43.46483170398644" lon="10.359983069138007"><ele>101.66666666666666</ele><time>2026-05-02T07:55:47Z</time></trkpt><trkpt lat="43.46489103628132" lon="10.360013054091366"><ele>105.33333333333333</ele><time>2026-05-02T07:55:49Z</time></trkpt><trkpt lat="43.46496006354785" lon="10.360025862702463"><ele>109.0</ele><time>2026-05-02T07:55:51Z</time></trkpt><trkpt lat="43.465053099631305" lon="10.360037054192485"><ele>112.66666666666666</ele><time>2026-05-02T07:55:54Z</time></trkpt><trkpt lat="43.465148299547884" lon="10.360035108514488"><ele>116.33333333333333</ele><time>2026-05-02T07:55:57Z</time></trkpt><trkpt lat="43.46524184702802" lon="10.360008911473406"><ele>120.0</ele><time>2026-05-02T07:56:00Z</time></trkpt><trkpt lat="43.46530778301693" lon="10.359983715722304"><ele>120.0</ele><time>2026-05-02T07:56:02Z</time></trkpt><trkpt lat="43.46538944050991" lon="10.359928793493768"><ele>120.0</ele><time>2026-05-02T07:56:05Z</time></trkpt><trkpt lat="43.46545168146916" lon="10.35988822874151"><ele>120.0</ele><time>2026-05-02T07:56:07Z</time></trkpt><trkpt lat="43.4655051770872" lon="10.359838046879077"><ele>120.0</ele><time>2026-05-02T07:56:09Z</time></trkpt><trkpt lat="43.46555622682374" lon="10.359783307973911"><ele>120.0</ele><time>2026-05-02T07:56:11Z</time></trkpt><trkpt lat="43.46561818463876" lon="10.359746139920327"><ele>120.0</ele><time>2026-05-02T07:56:12.999Z</time></trkpt><trkpt lat="43.46567323217365" lon="10.359697550226281"><ele>120.0</ele><time>2026-05-02T07:56:14.999Z</time></trkpt><trkpt lat="43.46573632247368" lon="10.359675744910833"><ele>122.0</ele><time>2026-05-02T07:56:16.999Z</time></trkpt><trkpt lat="43.4657958270979" lon="10.35964085179107"><ele>124.0</ele><time>2026-05-02T07:56:18.999Z</time></trkpt><trkpt lat="43.465866265084266" lon="10.359627789881655"><ele>126.0</ele><time>2026-05-02T07:56:21Z</time></trkpt><trkpt lat="43.4659380018462" lon="10.35960144627669"><ele>128.0</ele><time>2026-05-02T07:56:23Z</time></trkpt><trkpt lat="43.466009892188005" lon="10.359577378606364"><ele>130.0</ele><time>2026-05-02T07:56:26Z</time></trkpt><trkpt lat="43.46606655832952" lon="10.359534593724456"><ele>132.0</ele><time>2026-05-02T07:56:28Z</time></trkpt><trkpt lat="43.46611842221275" lon="10.359476368418084"><ele>134.0</ele><time>2026-05-02T07:56:30Z</time></trkpt><trkpt lat="43.46618598659797" lon="10.359384026237274"><ele>134.0</ele><time>2026-05-02T07:56:33Z</time></trkpt><trkpt lat="43.46625270170079" lon="10.359291572810223"><ele>134.0</ele><time>2026-05-02T07:56:36Z</time></trkpt><trkpt lat="43.46629370462129" lon="10.359219886420714"><ele>134.0</ele><time>2026-05-02T07:56:38Z</time></trkpt><trkpt lat="43.466334556394536" lon="10.359150019099157"><ele>134.0</ele><time>2026-05-02T07:56:40Z</time></trkpt><trkpt lat="43.46638193386638" lon="10.359090156671053"><ele>134.0</ele><time>2026-05-02T07:56:42Z</time></trkpt><trkpt lat="43.466432547843226" lon="10.359034626057143"><ele>134.0</ele><time>2026-05-02T07:56:44Z</time></trkpt><trkpt lat="43.466489968152885" lon="10.358988225740982"><ele>134.0</ele><time>2026-05-02T07:56:46Z</time></trkpt><trkpt lat="43.46655308976037" lon="10.358953119027786"><ele>134.0</ele><time>2026-05-02T07:56:48Z</time></trkpt><trkpt lat="43.466616138897" lon="10.35894958991159"><ele>134.0</ele><time>2026-05-02T07:56:50Z</time></trkpt><trkpt lat="43.46671046417473" lon="10.358962759968001"><ele>134.0</ele><time>2026-05-02T07:56:53Z</time></trkpt><trkpt lat="43.46679709029569" lon="10.358993096954165"><ele>134.0</ele><time>2026-05-02T07:56:56Z</time></trkpt><trkpt lat="43.46688734668184" lon="10.359029309338434"><ele>134.0</ele><time>2026-05-02T07:56:59Z</time></trkpt><trkpt lat="43.46694991910884" lon="10.359053770217855"><ele>134.0</ele><time>2026-05-02T07:57:01Z</time></trkpt><trkpt lat="43.46703786401144" lon="10.359086610146695"><ele>134.0</ele><time>2026-05-02T07:57:04Z</time></trkpt><trkpt lat="43.46710056543545" lon="10.359110143349517"><ele>134.0</ele><time>2026-05-02T07:57:06Z</time></trkpt><trkpt lat="43.467180241539424" lon="10.359137363967477"><ele>134.0</ele><time>2026-05-02T07:57:09Z</time></trkpt><trkpt lat="43.46724935354138" lon="10.359125849365723"><ele>134.0</ele><time>2026-05-02T07:57:11Z</time></trkpt><trkpt lat="43.4673312996746" lon="10.359078940889187"><ele>134.0</ele><time>2026-05-02T07:57:14Z</time></trkpt><trkpt lat="43.46738559922843" lon="10.359025545053676"><ele>134.0</ele><time>2026-05-02T07:57:16Z</time></trkpt><trkpt lat="43.46746130847164" lon="10.358952251594495"><ele>135.33333333333331</ele><time>2026-05-02T07:57:19Z</time></trkpt><trkpt lat="43.467515437084664" lon="10.358896287022379"><ele>136.66666666666666</ele><time>2026-05-02T07:57:21Z</time></trkpt><trkpt lat="43.46759666257695" lon="10.35884623920081"><ele>138.0</ele><time>2026-05-02T07:57:24Z</time></trkpt><trkpt lat="43.46766387812359" lon="10.358807419960423"><ele>139.33333333333334</ele><time>2026-05-02T07:57:26Z</time></trkpt><trkpt lat="43.4677494300541" lon="10.358817407293726"><ele>140.66666666666669</ele><time>2026-05-02T07:57:29Z</time></trkpt><trkpt lat="43.467848933813485" lon="10.358824640654822"><ele>142.0</ele><time>2026-05-02T07:57:32Z</time></trkpt><trkpt lat="43.46794050362691" lon="10.358843229063972"><ele>141.83333333333334</ele><time>2026-05-02T07:57:35Z</time></trkpt><trkpt lat="43.468010962233045" lon="10.358853510549197"><ele>141.66666666666669</ele><time>2026-05-02T07:57:37Z</time></trkpt><trkpt lat="43.46809981854626" lon="10.358874143600412"><ele>141.5</ele><time>2026-05-02T07:57:40Z</time></trkpt><trkpt lat="43.46816755292035" lon="10.358878739771386"><ele>141.33333333333334</ele><time>2026-05-02T07:57:42Z</time></trkpt><trkpt lat="43.46823041603482" lon="10.358891168337747"><ele>141.16666666666666</ele><time>2026-05-02T07:57:44Z</time></trkpt><trkpt lat="43.468295942488" lon="10.35889091126589"><ele>141.0</ele><time>2026-05-02T07:57:46Z</time></trkpt><trkpt lat="43.46839095926877" lon="10.358888554706038"><ele>142.66666666666666</ele><time>2026-05-02T07:57:49Z</time></trkpt><trkpt lat="43.46845263112517" lon="10.358859048049393"><ele>144.33333333333334</ele><time>2026-05-02T07:57:51Z</time></trkpt><trkpt lat="43.46855778079361" lon="10.35878909844508"><ele>146.0</ele><time>2026-05-02T07:57:54Z</time></trkpt><trkpt lat="43.468612565325756" lon="10.358714415157142"><ele>147.66666666666669</ele><time>2026-05-02T07:57:57Z</time></trkpt><trkpt lat="43.46868119070285" lon="10.358637451978948"><ele>149.33333333333334</ele><time>2026-05-02T07:58:00Z</time></trkpt><trkpt lat="43.46872760557328" lon="10.358577298864768"><ele>151.0</ele><time>2026-05-02T07:58:02Z</time></trkpt><trkpt lat="43.46879737469778" lon="10.358496813585688"><ele>151.0</ele><time>2026-05-02T07:58:05Z</time></trkpt><trkpt lat="43.46884244206503" lon="10.358432755004308"><ele>151.0</ele><time>2026-05-02T07:58:07Z</time></trkpt><trkpt lat="43.46891217561019" lon="10.358346842872152"><ele>151.0</ele><time>2026-05-02T07:58:10Z</time></trkpt><trkpt lat="43.468956491848175" lon="10.358283889772759"><ele>151.0</ele><time>2026-05-02T07:58:11.999Z</time></trkpt><trkpt lat="43.46901371333483" lon="10.35818684797651"><ele>151.0</ele><time>2026-05-02T07:58:14.999Z</time></trkpt><trkpt lat="43.46909083139433" lon="10.358068041827542"><ele>151.0</ele><time>2026-05-02T07:58:17.999Z</time></trkpt><trkpt lat="43.469130203146456" lon="10.357976415874786"><ele>153.33333333333334</ele><time>2026-05-02T07:58:20.999Z</time></trkpt><trkpt lat="43.46919189116093" lon="10.357881065400239"><ele>155.66666666666669</ele><time>2026-05-02T07:58:23.999Z</time></trkpt><trkpt lat="43.4692501831806" lon="10.357781305923755"><ele>158.0</ele><time>2026-05-02T07:58:27Z</time></trkpt><trkpt lat="43.469299565120174" lon="10.35772379781821"><ele>160.33333333333334</ele><time>2026-05-02T07:58:29Z</time></trkpt><trkpt lat="43.46938459569577" lon="10.35765293806615"><ele>162.66666666666666</ele><time>2026-05-02T07:58:32Z</time></trkpt><trkpt lat="43.46947700214732" lon="10.35761585030557"><ele>165.0</ele><time>2026-05-02T07:58:35Z</time></trkpt><trkpt lat="43.469539990030235" lon="10.357587712074215"><ele>165.00000000000003</ele><time>2026-05-02T07:58:37Z</time></trkpt><trkpt lat="43.469607444804986" lon="10.357564540286075"><ele>165.0</ele><time>2026-05-02T07:58:39Z</time></trkpt><trkpt lat="43.46967486457973" lon="10.357540292913974"><ele>165.0</ele><time>2026-05-02T07:58:41Z</time></trkpt><trkpt lat="43.46974254210512" lon="10.357519802304461"><ele>165.0</ele><time>2026-05-02T07:58:43Z</time></trkpt><trkpt lat="43.469806378328094" lon="10.357502860527156"><ele>165.0</ele><time>2026-05-02T07:58:45Z</time></trkpt><trkpt lat="43.46987800317483" lon="10.357488300665421"><ele>165.00000000000003</ele><time>2026-05-02T07:58:47Z</time></trkpt><trkpt lat="43.469940613849644" lon="10.357475477353757"><ele>165.0</ele><time>2026-05-02T07:58:49Z</time></trkpt><trkpt lat="43.47001716845104" lon="10.357454172937382"><ele>164.57142857142858</ele><time>2026-05-02T07:58:51Z</time></trkpt><trkpt lat="43.47008407726653" lon="10.357443680083199"><ele>164.14285714285714</ele><time>2026-05-02T07:58:53Z</time></trkpt><trkpt lat="43.47015307916162" lon="10.357428551114847"><ele>163.71428571428572</ele><time>2026-05-02T07:58:55Z</time></trkpt><trkpt lat="43.47025177504646" lon="10.357419935849055"><ele>163.28571428571428</ele><time>2026-05-02T07:58:58Z</time></trkpt><trkpt lat="43.470321847891725" lon="10.357427681588778"><ele>162.85714285714286</ele><time>2026-05-02T07:59:00Z</time></trkpt><trkpt lat="43.47039175954967" lon="10.357433925062592"><ele>162.42857142857144</ele><time>2026-05-02T07:59:02Z</time></trkpt><trkpt lat="43.470458800827615" lon="10.357447813751222"><ele>162.0</ele><time>2026-05-02T07:59:04Z</time></trkpt><trkpt lat="43.47052384091037" lon="10.35746130644269"><ele>162.0</ele><time>2026-05-02T07:59:06Z</time></trkpt><trkpt lat="43.47058812570065" lon="10.35748336579964"><ele>162.0</ele><time>2026-05-02T07:59:08Z</time></trkpt><trkpt lat="43.470656001316605" lon="10.357500082003831"><ele>162.0</ele><time>2026-05-02T07:59:10Z</time></trkpt><trkpt lat="43.47073080040446" lon="10.357517911509648"><ele>162.0</ele><time>2026-05-02T07:59:12Z</time></trkpt><trkpt lat="43.470801147033505" lon="10.357550126791262"><ele>162.0</ele><time>2026-05-02T07:59:14Z</time></trkpt><trkpt lat="43.470868337676706" lon="10.357575188596691"><ele>162.0</ele><time>2026-05-02T07:59:16Z</time></trkpt><trkpt lat="43.470929722681525" lon="10.357618982244768"><ele>162.0</ele><time>2026-05-02T07:59:18Z</time></trkpt><trkpt lat="43.47099675478814" lon="10.357660566511816"><ele>162.0</ele><time>2026-05-02T07:59:20Z</time></trkpt><trkpt lat="43.47106250884121" lon="10.357707786617716"><ele>162.0</ele><time>2026-05-02T07:59:22Z</time></trkpt><trkpt lat="43.47112935506372" lon="10.357759121200065"><ele>162.0</ele><time>2026-05-02T07:59:24Z</time></trkpt><trkpt lat="43.47119086457277" lon="10.357794741768322"><ele>162.0</ele><time>2026-05-02T07:59:26Z</time></trkpt><trkpt lat="43.47125679018464" lon="10.357835703091803"><ele>162.0</ele><time>2026-05-02T07:59:28Z</time></trkpt><trkpt lat="43.47132423674101" lon="10.357870953695215"><ele>162.0</ele><time>2026-05-02T07:59:30Z</time></trkpt><trkpt lat="43.471385450702854" lon="10.357926902183582"><ele>162.0</ele><time>2026-05-02T07:59:32Z</time></trkpt><trkpt lat="43.471447426820234" lon="10.357969710902644"><ele>161.85714285714286</ele><time>2026-05-02T07:59:34Z</time></trkpt><trkpt lat="43.47151356489672" lon="10.358006184435192"><ele>161.71428571428572</ele><time>2026-05-02T07:59:36Z</time></trkpt><trkpt lat="43.47158076093385" lon="10.358028050983666"><ele>161.57142857142856</ele><time>2026-05-02T07:59:38Z</time></trkpt><trkpt lat="43.471653947825644" lon="10.358046680510999"><ele>161.42857142857144</ele><time>2026-05-02T07:59:40Z</time></trkpt><trkpt lat="43.47171774158489" lon="10.358057289926094"><ele>161.28571428571428</ele><time>2026-05-02T07:59:42Z</time></trkpt><trkpt lat="43.471796487435796" lon="10.358050824427027"><ele>161.14285714285714</ele><time>2026-05-02T07:59:44Z</time></trkpt><trkpt lat="43.47186688763558" lon="10.35804850615034"><ele>161.0</ele><time>2026-05-02T07:59:46Z</time></trkpt><trkpt lat="43.47193459477261" lon="10.358051205380326"><ele>163.0</ele><time>2026-05-02T07:59:48Z</time></trkpt><trkpt lat="43.472001297023695" lon="10.358072677088957"><ele>165.0</ele><time>2026-05-02T07:59:50Z</time></trkpt><trkpt lat="43.47208889065545" lon="10.358146244372442"><ele>167.0</ele><time>2026-05-02T07:59:53Z</time></trkpt><trkpt lat="43.4721332591791" lon="10.358236265264889"><ele>169.0</ele><time>2026-05-02T07:59:55Z</time></trkpt><trkpt lat="43.47216809453193" lon="10.358327592007246"><ele>171.0</ele><time>2026-05-02T07:59:57Z</time></trkpt><trkpt lat="43.47219265559835" lon="10.358408360666166"><ele>173.0</ele><time>2026-05-02T07:59:59Z</time></trkpt><trkpt lat="43.4722166550454" lon="10.358494849153704"><ele>173.0</ele><time>2026-05-02T08:00:01Z</time></trkpt><trkpt lat="43.4722499258408" lon="10.35857699542776"><ele>173.0</ele><time>2026-05-02T08:00:03Z</time></trkpt><trkpt lat="43.47228580472864" lon="10.358655022994608"><ele>173.0</ele><time>2026-05-02T08:00:05Z</time></trkpt><trkpt lat="43.47233506149023" lon="10.358716666344575"><ele>173.0</ele><time>2026-05-02T08:00:07Z</time></trkpt><trkpt lat="43.47238870170737" lon="10.35876371134274"><ele>173.0</ele><time>2026-05-02T08:00:09Z</time></trkpt><trkpt lat="43.47244596665555" lon="10.358823426021248"><ele>173.0</ele><time>2026-05-02T08:00:11Z</time></trkpt><trkpt lat="43.472516873877886" lon="10.358847446064534"><ele>173.0</ele><time>2026-05-02T08:00:13Z</time></trkpt><trkpt lat="43.4725889143134" lon="10.35885472584162"><ele>173.0</ele><time>2026-05-02T08:00:15Z</time></trkpt><trkpt lat="43.47265675993608" lon="10.358835799407288"><ele>173.0</ele><time>2026-05-02T08:00:17Z</time></trkpt><trkpt lat="43.47273757683086" lon="10.358791384370651"><ele>173.0</ele><time>2026-05-02T08:00:20Z</time></trkpt><trkpt lat="43.4728268475387" lon="10.358775615664868"><ele>173.0</ele><time>2026-05-02T08:00:22Z</time></trkpt><trkpt lat="43.472892751149125" lon="10.358748216436302"><ele>173.0</ele><time>2026-05-02T08:00:24Z</time></trkpt><trkpt lat="43.47296439636138" lon="10.35873901169987"><ele>173.0</ele><time>2026-05-02T08:00:26Z</time></trkpt><trkpt lat="43.473038910137696" lon="10.358745557626337"><ele>172.57142857142856</ele><time>2026-05-02T08:00:28Z</time></trkpt><trkpt lat="43.4731076810186" lon="10.358760895373079"><ele>172.14285714285717</ele><time>2026-05-02T08:00:30Z</time></trkpt><trkpt lat="43.47317955435432" lon="10.35877581243278"><ele>171.71428571428572</ele><time>2026-05-02T08:00:32Z</time></trkpt><trkpt lat="43.473251450302755" lon="10.358796986689732"><ele>171.28571428571428</ele><time>2026-05-02T08:00:34Z</time></trkpt><trkpt lat="43.47332604759708" lon="10.358811878670489"><ele>170.85714285714283</ele><time>2026-05-02T08:00:36Z</time></trkpt><trkpt lat="43.47339954131826" lon="10.35881888546435"><ele>170.42857142857144</ele><time>2026-05-02T08:00:38Z</time></trkpt><trkpt lat="43.47346861005639" lon="10.35881201747374"><ele>170.0</ele><time>2026-05-02T08:00:40Z</time></trkpt><trkpt lat="43.47353838105217" lon="10.358806757212319"><ele>170.0</ele><time>2026-05-02T08:00:42Z</time></trkpt><trkpt lat="43.47361188533875" lon="10.358791082783103"><ele>170.0</ele><time>2026-05-02T08:00:44Z</time></trkpt><trkpt lat="43.47368704753915" lon="10.3587590190399"><ele>170.0</ele><time>2026-05-02T08:00:46Z</time></trkpt><trkpt lat="43.47376344699505" lon="10.358721001040024"><ele>170.0</ele><time>2026-05-02T08:00:48Z</time></trkpt><trkpt lat="43.47384027316662" lon="10.3586710448929"><ele>170.0</ele><time>2026-05-02T08:00:50Z</time></trkpt><trkpt lat="43.47391393201277" lon="10.358605696974857"><ele>170.0</ele><time>2026-05-02T08:00:52Z</time></trkpt><trkpt lat="43.47399130601567" lon="10.358548509162013"><ele>170.66666666666666</ele><time>2026-05-02T08:00:54Z</time></trkpt><trkpt lat="43.47407637871757" lon="10.35851271429538"><ele>171.33333333333331</ele><time>2026-05-02T08:00:56Z</time></trkpt><trkpt lat="43.47415737925894" lon="10.358490159097444"><ele>172.0</ele><time>2026-05-02T08:00:58Z</time></trkpt><trkpt lat="43.47423726622579" lon="10.35847468224988"><ele>172.66666666666666</ele><time>2026-05-02T08:01:00Z</time></trkpt><trkpt lat="43.47432049988303" lon="10.358461206677228"><ele>173.33333333333334</ele><time>2026-05-02T08:01:02Z</time></trkpt><trkpt lat="43.4744052020199" lon="10.358445204177595"><ele>174.0</ele><time>2026-05-02T08:01:04Z</time></trkpt><trkpt lat="43.47448659246808" lon="10.35842755804895"><ele>174.0</ele><time>2026-05-02T08:01:06Z</time></trkpt><trkpt lat="43.47456839372815" lon="10.358426345451113"><ele>174.0</ele><time>2026-05-02T08:01:08Z</time></trkpt><trkpt lat="43.474650274400446" lon="10.358431954190053"><ele>174.0</ele><time>2026-05-02T08:01:10Z</time></trkpt><trkpt lat="43.47472939786741" lon="10.358455399609825"><ele>174.0</ele><time>2026-05-02T08:01:12Z</time></trkpt><trkpt lat="43.47479682641022" lon="10.358498653997803"><ele>174.0</ele><time>2026-05-02T08:01:14Z</time></trkpt><trkpt lat="43.47484855962909" lon="10.358572935601057"><ele>174.0</ele><time>2026-05-02T08:01:16Z</time></trkpt><trkpt lat="43.474899616416266" lon="10.358661275595164"><ele>173.83333333333334</ele><time>2026-05-02T08:01:18Z</time></trkpt><trkpt lat="43.474942545585336" lon="10.35876345848112"><ele>173.66666666666666</ele><time>2026-05-02T08:01:20Z</time></trkpt><trkpt lat="43.47499198172854" lon="10.35885530081167"><ele>173.5</ele><time>2026-05-02T08:01:22Z</time></trkpt><trkpt lat="43.47502414006412" lon="10.358950457719057"><ele>173.33333333333331</ele><time>2026-05-02T08:01:24Z</time></trkpt><trkpt lat="43.47506831210355" lon="10.359042595964018"><ele>173.16666666666666</ele><time>2026-05-02T08:01:26Z</time></trkpt><trkpt lat="43.475118920523805" lon="10.35912956355365"><ele>173.0</ele><time>2026-05-02T08:01:28Z</time></trkpt><trkpt lat="43.4751565587978" lon="10.359233817050784"><ele>175.66666666666666</ele><time>2026-05-02T08:01:30Z</time></trkpt><trkpt lat="43.475195274944156" lon="10.359321189283504"><ele>178.33333333333331</ele><time>2026-05-02T08:01:32Z</time></trkpt><trkpt lat="43.47523521993261" lon="10.359421410515976"><ele>181.0</ele><time>2026-05-02T08:01:34Z</time></trkpt><trkpt lat="43.47527453317322" lon="10.359520010419002"><ele>183.66666666666666</ele><time>2026-05-02T08:01:36Z</time></trkpt><trkpt lat="43.475309598948655" lon="10.359612674989204"><ele>186.33333333333334</ele><time>2026-05-02T08:01:38Z</time></trkpt><trkpt lat="43.475347433609635" lon="10.35970312399733"><ele>189.0</ele><time>2026-05-02T08:01:40Z</time></trkpt><trkpt lat="43.47539037854613" lon="10.35979114983079"><ele>189.33333333333334</ele><time>2026-05-02T08:01:42Z</time></trkpt><trkpt lat="43.47542067292954" lon="10.359868086019137"><ele>189.66666666666666</ele><time>2026-05-02T08:01:44Z</time></trkpt><trkpt lat="43.475479176413195" lon="10.35996501973592"><ele>190.0</ele><time>2026-05-02T08:01:46Z</time></trkpt><trkpt lat="43.47553909014339" lon="10.360004203862623"><ele>190.33333333333331</ele><time>2026-05-02T08:01:48Z</time></trkpt><trkpt lat="43.47561787392937" lon="10.360062844545757"><ele>190.66666666666666</ele><time>2026-05-02T08:01:50Z</time></trkpt><trkpt lat="43.4756943923355" lon="10.360097202263479"><ele>191.0</ele><time>2026-05-02T08:01:52Z</time></trkpt><trkpt lat="43.475762063838644" lon="10.360130262636998"><ele>191.0</ele><time>2026-05-02T08:01:54Z</time></trkpt><trkpt lat="43.4758237113159" lon="10.360175998197999"><ele>191.0</ele><time>2026-05-02T08:01:56Z</time></trkpt><trkpt lat="43.47587753645674" lon="10.3602353859902"><ele>191.0</ele><time>2026-05-02T08:01:58Z</time></trkpt><trkpt lat="43.47593014631396" lon="10.360337551824239"><ele>191.0</ele><time>2026-05-02T08:02:00Z</time></trkpt><trkpt lat="43.47597306423279" lon="10.360441151119"><ele>191.0</ele><time>2026-05-02T08:02:02Z</time></trkpt><trkpt lat="43.47602234432968" lon="10.360529438157794"><ele>191.0</ele><time>2026-05-02T08:02:04Z</time></trkpt><trkpt lat="43.47606516674425" lon="10.36062062955466"><ele>190.66666666666666</ele><time>2026-05-02T08:02:06Z</time></trkpt><trkpt lat="43.47611556055341" lon="10.36069533790829"><ele>190.33333333333331</ele><time>2026-05-02T08:02:08Z</time></trkpt><trkpt lat="43.476166433475846" lon="10.360782245988364"><ele>190.0</ele><time>2026-05-02T08:02:10Z</time></trkpt><trkpt lat="43.47622309768407" lon="10.3608535640104"><ele>189.66666666666666</ele><time>2026-05-02T08:02:12Z</time></trkpt><trkpt lat="43.47629323559355" lon="10.36092593629217"><ele>189.33333333333334</ele><time>2026-05-02T08:02:14Z</time></trkpt><trkpt lat="43.47634344682625" lon="10.361007948630181"><ele>189.0</ele><time>2026-05-02T08:02:16Z</time></trkpt><trkpt lat="43.47637202984949" lon="10.361106305451134"><ele>189.0</ele><time>2026-05-02T08:02:18Z</time></trkpt><trkpt lat="43.47641521815379" lon="10.361202533171564"><ele>189.0</ele><time>2026-05-02T08:02:20Z</time></trkpt><trkpt lat="43.476453325852084" lon="10.361294626635733"><ele>189.0</ele><time>2026-05-02T08:02:22Z</time></trkpt><trkpt lat="43.47648582720793" lon="10.361381833131986"><ele>189.0</ele><time>2026-05-02T08:02:24Z</time></trkpt><trkpt lat="43.476530261595684" lon="10.361470270833621"><ele>189.0</ele><time>2026-05-02T08:02:26Z</time></trkpt><trkpt lat="43.47653120444191" lon="10.361586997329255"><ele>189.0</ele><time>2026-05-02T08:02:28Z</time></trkpt><trkpt lat="43.47654312632994" lon="10.361690467988137"><ele>190.0</ele><time>2026-05-02T08:02:30Z</time></trkpt><trkpt lat="43.4765773691157" lon="10.361781668443697"><ele>191.0</ele><time>2026-05-02T08:02:32Z</time></trkpt><trkpt lat="43.47659222828726" lon="10.36187952308838"><ele>192.0</ele><time>2026-05-02T08:02:34Z</time></trkpt><trkpt lat="43.476611015383426" lon="10.361988722674225"><ele>193.0</ele><time>2026-05-02T08:02:36Z</time></trkpt><trkpt lat="43.47663969508913" lon="10.362095979718998"><ele>194.0</ele><time>2026-05-02T08:02:38Z</time></trkpt><trkpt lat="43.47664918689938" lon="10.362203099416348"><ele>195.0</ele><time>2026-05-02T08:02:40Z</time></trkpt><trkpt lat="43.47667362173598" lon="10.362306536317377"><ele>195.0</ele><time>2026-05-02T08:02:42Z</time></trkpt><trkpt lat="43.47673203706452" lon="10.362397749162417"><ele>195.0</ele><time>2026-05-02T08:02:44Z</time></trkpt><trkpt lat="43.47679547388852" lon="10.362464973720362"><ele>195.0</ele><time>2026-05-02T08:02:46Z</time></trkpt><trkpt lat="43.47684934056505" lon="10.362554096639668"><ele>195.0</ele><time>2026-05-02T08:02:48Z</time></trkpt><trkpt lat="43.47689636206119" lon="10.362637359049483"><ele>195.0</ele><time>2026-05-02T08:02:50Z</time></trkpt><trkpt lat="43.476949713259714" lon="10.362712443101177"><ele>195.0</ele><time>2026-05-02T08:02:52Z</time></trkpt><trkpt lat="43.47700931918729" lon="10.362789042608338"><ele>195.0</ele><time>2026-05-02T08:02:54Z</time></trkpt><trkpt lat="43.47705980235284" lon="10.362864287355938"><ele>195.0</ele><time>2026-05-02T08:02:56Z</time></trkpt><trkpt lat="43.47711556394769" lon="10.362942896312875"><ele>195.0</ele><time>2026-05-02T08:02:58Z</time></trkpt><trkpt lat="43.477171644995686" lon="10.363014181843958"><ele>195.0</ele><time>2026-05-02T08:03:00Z</time></trkpt><trkpt lat="43.47721869417399" lon="10.36309846815673"><ele>195.0</ele><time>2026-05-02T08:03:02Z</time></trkpt><trkpt lat="43.477274787012995" lon="10.36317693528574"><ele>195.0</ele><time>2026-05-02T08:03:04Z</time></trkpt><trkpt lat="43.47733512178894" lon="10.363247073963622"><ele>195.42857142857142</ele><time>2026-05-02T08:03:06Z</time></trkpt><trkpt lat="43.47738783764718" lon="10.363326939100858"><ele>195.85714285714283</ele><time>2026-05-02T08:03:08Z</time></trkpt><trkpt lat="43.47744362909212" lon="10.363395484442073"><ele>196.28571428571428</ele><time>2026-05-02T08:03:10Z</time></trkpt><trkpt lat="43.47749809024866" lon="10.363473684837016"><ele>196.71428571428572</ele><time>2026-05-02T08:03:12Z</time></trkpt><trkpt lat="43.477561449500804" lon="10.363529425678559"><ele>197.14285714285714</ele><time>2026-05-02T08:03:14Z</time></trkpt><trkpt lat="43.47761740699255" lon="10.363588258709669"><ele>197.57142857142858</ele><time>2026-05-02T08:03:16Z</time></trkpt><trkpt lat="43.47767434721927" lon="10.363642220283058"><ele>198.0</ele><time>2026-05-02T08:03:18Z</time></trkpt><trkpt lat="43.477731557832534" lon="10.363692922284113"><ele>198.0</ele><time>2026-05-02T08:03:20Z</time></trkpt><trkpt lat="43.47779216773241" lon="10.36373778840447"><ele>198.0</ele><time>2026-05-02T08:03:22Z</time></trkpt><trkpt lat="43.47785627948108" lon="10.363779371476337"><ele>198.0</ele><time>2026-05-02T08:03:24Z</time></trkpt><trkpt lat="43.4779262160674" lon="10.363819898670476"><ele>198.0</ele><time>2026-05-02T08:03:26Z</time></trkpt><trkpt lat="43.47800432984008" lon="10.363880019828917"><ele>198.0</ele><time>2026-05-02T08:03:29Z</time></trkpt><trkpt lat="43.478071838387976" lon="10.363929799108133"><ele>198.0</ele><time>2026-05-02T08:03:31Z</time></trkpt><trkpt lat="43.4781600075043" lon="10.363981854066894"><ele>199.57142857142858</ele><time>2026-05-02T08:03:34Z</time></trkpt><trkpt lat="43.47822583027435" lon="10.364017159256393"><ele>201.14285714285714</ele><time>2026-05-02T08:03:36Z</time></trkpt><trkpt lat="43.4782931139976" lon="10.364058211715582"><ele>202.71428571428572</ele><time>2026-05-02T08:03:38Z</time></trkpt><trkpt lat="43.47834990301921" lon="10.364102608710377"><ele>204.28571428571428</ele><time>2026-05-02T08:03:40Z</time></trkpt><trkpt lat="43.478430201321785" lon="10.364163476437668"><ele>205.85714285714283</ele><time>2026-05-02T08:03:43Z</time></trkpt><trkpt lat="43.478486627579464" lon="10.364208219754238"><ele>207.42857142857142</ele><time>2026-05-02T08:03:45Z</time></trkpt><trkpt lat="43.47854583399102" lon="10.364243588342845"><ele>209.0</ele><time>2026-05-02T08:03:47Z</time></trkpt><trkpt lat="43.47861251980844" lon="10.364274269322008"><ele>209.0</ele><time>2026-05-02T08:03:49Z</time></trkpt><trkpt lat="43.478679701353904" lon="10.364317203613222"><ele>209.0</ele><time>2026-05-02T08:03:51Z</time></trkpt><trkpt lat="43.47875122879863" lon="10.364346635393037"><ele>209.0</ele><time>2026-05-02T08:03:53Z</time></trkpt><trkpt lat="43.47880276585043" lon="10.364405122058454"><ele>209.0</ele><time>2026-05-02T08:03:55Z</time></trkpt><trkpt lat="43.47886667942354" lon="10.364439520812205"><ele>209.0</ele><time>2026-05-02T08:03:57Z</time></trkpt><trkpt lat="43.47893026237324" lon="10.364492805259223"><ele>209.0</ele><time>2026-05-02T08:03:59Z</time></trkpt><trkpt lat="43.478959240214444" lon="10.364588797994557"><ele>209.0</ele><time>2026-05-02T08:04:01Z</time></trkpt><trkpt lat="43.478976123832894" lon="10.364674760415314"><ele>210.28571428571428</ele><time>2026-05-02T08:04:03Z</time></trkpt><trkpt lat="43.4789857467784" lon="10.364776911701513"><ele>211.57142857142856</ele><time>2026-05-02T08:04:05Z</time></trkpt><trkpt lat="43.478993225960856" lon="10.364870119350376"><ele>212.85714285714286</ele><time>2026-05-02T08:04:07Z</time></trkpt><trkpt lat="43.478977692802175" lon="10.364964246543156"><ele>214.14285714285714</ele><time>2026-05-02T08:04:09Z</time></trkpt><trkpt lat="43.47897913647729" lon="10.365055730838925"><ele>215.42857142857144</ele><time>2026-05-02T08:04:11Z</time></trkpt><trkpt lat="43.47898105313125" lon="10.365151200929137"><ele>216.71428571428572</ele><time>2026-05-02T08:04:13Z</time></trkpt><trkpt lat="43.47900671197729" lon="10.365242532669203"><ele>218.0</ele><time>2026-05-02T08:04:15Z</time></trkpt><trkpt lat="43.47903955704513" lon="10.365324101846268"><ele>218.0</ele><time>2026-05-02T08:04:17Z</time></trkpt><trkpt lat="43.47908429689282" lon="10.365403541854807"><ele>218.0</ele><time>2026-05-02T08:04:19Z</time></trkpt><trkpt lat="43.47912636479474" lon="10.365475783198757"><ele>218.0</ele><time>2026-05-02T08:04:21Z</time></trkpt><trkpt lat="43.479161627369265" lon="10.365553554024565"><ele>218.0</ele><time>2026-05-02T08:04:23Z</time></trkpt><trkpt lat="43.479208405407846" lon="10.365632254587599"><ele>218.0</ele><time>2026-05-02T08:04:25Z</time></trkpt><trkpt lat="43.47924883905393" lon="10.36570561760447"><ele>218.0</ele><time>2026-05-02T08:04:27Z</time></trkpt><trkpt lat="43.47928663890874" lon="10.365776561078533"><ele>218.0</ele><time>2026-05-02T08:04:29Z</time></trkpt><trkpt lat="43.47932708058579" lon="10.365850219110955"><ele>217.42857142857144</ele><time>2026-05-02T08:04:30.999Z</time></trkpt><trkpt lat="43.479370109632406" lon="10.365922603189974"><ele>216.85714285714286</ele><time>2026-05-02T08:04:32.999Z</time></trkpt><trkpt lat="43.47941734872225" lon="10.365993238285782"><ele>216.28571428571428</ele><time>2026-05-02T08:04:34.999Z</time></trkpt><trkpt lat="43.47946148664455" lon="10.36606593307485"><ele>215.71428571428572</ele><time>2026-05-02T08:04:36.999Z</time></trkpt><trkpt lat="43.47951614690416" lon="10.366140564612872"><ele>215.14285714285714</ele><time>2026-05-02T08:04:38.999Z</time></trkpt><trkpt lat="43.47957037531566" lon="10.366196711679622"><ele>214.57142857142858</ele><time>2026-05-02T08:04:40.999Z</time></trkpt><trkpt lat="43.47963240692637" lon="10.36624883333213"><ele>214.0</ele><time>2026-05-02T08:04:43Z</time></trkpt><trkpt lat="43.47968844842348" lon="10.366294595045082"><ele>215.42857142857144</ele><time>2026-05-02T08:04:45Z</time></trkpt><trkpt lat="43.47974612773473" lon="10.366352518143666"><ele>216.85714285714286</ele><time>2026-05-02T08:04:47Z</time></trkpt><trkpt lat="43.479794879416126" lon="10.366416755473004"><ele>218.28571428571428</ele><time>2026-05-02T08:04:49Z</time></trkpt><trkpt lat="43.47984268656297" lon="10.366479922364876"><ele>219.71428571428572</ele><time>2026-05-02T08:04:51Z</time></trkpt><trkpt lat="43.4798855493112" lon="10.366549741856382"><ele>221.14285714285714</ele><time>2026-05-02T08:04:53Z</time></trkpt><trkpt lat="43.479917294483904" lon="10.366626516448722"><ele>222.57142857142858</ele><time>2026-05-02T08:04:55Z</time></trkpt><trkpt lat="43.47994895054698" lon="10.366709723936983"><ele>224.0</ele><time>2026-05-02T08:04:57Z</time></trkpt><trkpt lat="43.4799773898546" lon="10.36680163757342"><ele>224.0</ele><time>2026-05-02T08:04:59Z</time></trkpt><trkpt lat="43.48000483158967" lon="10.366884414268807"><ele>224.0</ele><time>2026-05-02T08:05:01Z</time></trkpt><trkpt lat="43.480015460931014" lon="10.366971378077709"><ele>224.0</ele><time>2026-05-02T08:05:03Z</time></trkpt><trkpt lat="43.48002044773397" lon="10.367067894229551"><ele>224.0</ele><time>2026-05-02T08:05:05Z</time></trkpt><trkpt lat="43.480019867268716" lon="10.367170684161758"><ele>224.0</ele><time>2026-05-02T08:05:07Z</time></trkpt><trkpt lat="43.48001430980095" lon="10.367264328987158"><ele>224.0</ele><time>2026-05-02T08:05:09Z</time></trkpt><trkpt lat="43.480012315853884" lon="10.367362035550924"><ele>224.0</ele><time>2026-05-02T08:05:11Z</time></trkpt><trkpt lat="43.48000496831247" lon="10.367458219161598"><ele>224.28571428571428</ele><time>2026-05-02T08:05:13Z</time></trkpt><trkpt lat="43.47999561507411" lon="10.367548912004919"><ele>224.57142857142856</ele><time>2026-05-02T08:05:15Z</time></trkpt><trkpt lat="43.47998665055769" lon="10.367644423572797"><ele>224.85714285714286</ele><time>2026-05-02T08:05:17Z</time></trkpt><trkpt lat="43.479981043402276" lon="10.367734555389184"><ele>225.14285714285714</ele><time>2026-05-02T08:05:19Z</time></trkpt><trkpt lat="43.47997003511505" lon="10.367829800445906"><ele>225.42857142857142</ele><time>2026-05-02T08:05:21Z</time></trkpt><trkpt lat="43.479959552912625" lon="10.367920317462238"><ele>225.71428571428572</ele><time>2026-05-02T08:05:23Z</time></trkpt><trkpt lat="43.47995295280549" lon="10.368010276965068"><ele>226.0</ele><time>2026-05-02T08:05:25Z</time></trkpt><trkpt lat="43.479941528417626" lon="10.36810452229367"><ele>226.71428571428572</ele><time>2026-05-02T08:05:27Z</time></trkpt><trkpt lat="43.479937655580684" lon="10.368195455437366"><ele>227.42857142857142</ele><time>2026-05-02T08:05:29Z</time></trkpt><trkpt lat="43.4799307549866" lon="10.368286575507446"><ele>228.14285714285714</ele><time>2026-05-02T08:05:31Z</time></trkpt><trkpt lat="43.47991486638955" lon="10.368381033321965"><ele>228.85714285714286</ele><time>2026-05-02T08:05:33Z</time></trkpt><trkpt lat="43.47989471122316" lon="10.3684693758882"><ele>229.57142857142856</ele><time>2026-05-02T08:05:35Z</time></trkpt><trkpt lat="43.479897409738804" lon="10.36856325342643"><ele>230.28571428571428</ele><time>2026-05-02T08:05:37Z</time></trkpt><trkpt lat="43.479887348516975" lon="10.368651757587672"><ele>231.0</ele><time>2026-05-02T08:05:39Z</time></trkpt><trkpt lat="43.4798743415168" lon="10.368738913633484"><ele>231.0</ele><time>2026-05-02T08:05:41Z</time></trkpt><trkpt lat="43.47986832449378" lon="10.368830962347195"><ele>231.0</ele><time>2026-05-02T08:05:43Z</time></trkpt><trkpt lat="43.47984969883224" lon="10.368914852993491"><ele>231.0</ele><time>2026-05-02T08:05:45Z</time></trkpt><trkpt lat="43.47984725858813" lon="10.3690126751687"><ele>231.0</ele><time>2026-05-02T08:05:47Z</time></trkpt><trkpt lat="43.47984394047772" lon="10.369107110436449"><ele>231.0</ele><time>2026-05-02T08:05:49Z</time></trkpt><trkpt lat="43.479855475728094" lon="10.369210941330815"><ele>231.0</ele><time>2026-05-02T08:05:51Z</time></trkpt><trkpt lat="43.47988205634246" lon="10.369298520619457"><ele>231.0</ele><time>2026-05-02T08:05:53Z</time></trkpt><trkpt lat="43.479987030477574" lon="10.369314165806827"><ele>231.66666666666666</ele><time>2026-05-02T08:05:56Z</time></trkpt><trkpt lat="43.48004988444176" lon="10.369257533369538"><ele>232.33333333333331</ele><time>2026-05-02T08:05:58Z</time></trkpt><trkpt lat="43.48009978459001" lon="10.369169558599358"><ele>233.0</ele><time>2026-05-02T08:06:00Z</time></trkpt><trkpt lat="43.48015065890919" lon="10.369104486583975"><ele>233.66666666666666</ele><time>2026-05-02T08:06:02Z</time></trkpt><trkpt lat="43.48020279081013" lon="10.369034373418595"><ele>234.33333333333331</ele><time>2026-05-02T08:06:04Z</time></trkpt><trkpt lat="43.48026256397821" lon="10.368967806874624"><ele>235.0</ele><time>2026-05-02T08:06:06Z</time></trkpt><trkpt lat="43.4803201638575" lon="10.368884438228056"><ele>234.33333333333331</ele><time>2026-05-02T08:06:08Z</time></trkpt><trkpt lat="43.48037482883207" lon="10.368811436915042"><ele>233.66666666666666</ele><time>2026-05-02T08:06:10Z</time></trkpt><trkpt lat="43.48043901642872" lon="10.36874336936009"><ele>233.0</ele><time>2026-05-02T08:06:12Z</time></trkpt><trkpt lat="43.48049528579998" lon="10.368655682274724"><ele>232.33333333333331</ele><time>2026-05-02T08:06:14Z</time></trkpt><trkpt lat="43.4805573219264" lon="10.368578342340973"><ele>231.66666666666666</ele><time>2026-05-02T08:06:16Z</time></trkpt><trkpt lat="43.48060866883654" lon="10.368497673391301"><ele>231.0</ele><time>2026-05-02T08:06:18Z</time></trkpt><trkpt lat="43.48065653512891" lon="10.368437179376244"><ele>232.14285714285714</ele><time>2026-05-02T08:06:20Z</time></trkpt><trkpt lat="43.480712395355454" lon="10.368373337941378"><ele>233.28571428571428</ele><time>2026-05-02T08:06:22Z</time></trkpt><trkpt lat="43.48076790246484" lon="10.368317988837843"><ele>234.42857142857144</ele><time>2026-05-02T08:06:24Z</time></trkpt><trkpt lat="43.480851285861235" lon="10.368249579413172"><ele>235.57142857142858</ele><time>2026-05-02T08:06:27Z</time></trkpt><trkpt lat="43.480913878151625" lon="10.368203699770199"><ele>236.71428571428572</ele><time>2026-05-02T08:06:29Z</time></trkpt><trkpt lat="43.480979974133405" lon="10.368165644029677"><ele>237.8571428571429</ele><time>2026-05-02T08:06:31Z</time></trkpt><trkpt lat="43.48104213792685" lon="10.368130249557868"><ele>239.00000000000003</ele><time>2026-05-02T08:06:33Z</time></trkpt><trkpt lat="43.48110676054826" lon="10.36809349248413"><ele>239.00000000000003</ele><time>2026-05-02T08:06:35Z</time></trkpt><trkpt lat="43.48117099782333" lon="10.368060363560632"><ele>239.0</ele><time>2026-05-02T08:06:37Z</time></trkpt><trkpt lat="43.48126045210449" lon="10.368009348268954"><ele>239.0</ele><time>2026-05-02T08:06:40Z</time></trkpt><trkpt lat="43.48134241496555" lon="10.367950259391378"><ele>239.0</ele><time>2026-05-02T08:06:43Z</time></trkpt><trkpt lat="43.48141528405813" lon="10.367875553937337"><ele>239.00000000000003</ele><time>2026-05-02T08:06:46Z</time></trkpt><trkpt lat="43.481477267779276" lon="10.367774473199411"><ele>239.0</ele><time>2026-05-02T08:06:49Z</time></trkpt><trkpt lat="43.481499296277015" lon="10.367688833857564"><ele>240.83333333333334</ele><time>2026-05-02T08:06:51Z</time></trkpt><trkpt lat="43.48151451988576" lon="10.367570738711628"><ele>242.66666666666669</ele><time>2026-05-02T08:06:54Z</time></trkpt><trkpt lat="43.48153490451396" lon="10.367455316780838"><ele>244.5</ele><time>2026-05-02T08:06:57Z</time></trkpt><trkpt lat="43.481532726492006" lon="10.36732600664831"><ele>246.33333333333331</ele><time>2026-05-02T08:07:00Z</time></trkpt><trkpt lat="43.48153864255515" lon="10.367238435641957"><ele>248.16666666666666</ele><time>2026-05-02T08:07:02Z</time></trkpt><trkpt lat="43.48154264928153" lon="10.367121438566441"><ele>250.0</ele><time>2026-05-02T08:07:05Z</time></trkpt><trkpt lat="43.48154779371799" lon="10.36703381266205"><ele>250.66666666666666</ele><time>2026-05-02T08:07:07Z</time></trkpt><trkpt lat="43.481564927706735" lon="10.366906859964411"><ele>251.33333333333331</ele><time>2026-05-02T08:07:10Z</time></trkpt><trkpt lat="43.48156861941531" lon="10.366782324291723"><ele>252.0</ele><time>2026-05-02T08:07:13Z</time></trkpt><trkpt lat="43.48157668249295" lon="10.36669447216883"><ele>252.66666666666669</ele><time>2026-05-02T08:07:15Z</time></trkpt><trkpt lat="43.48158828645786" lon="10.36657884819725"><ele>253.33333333333334</ele><time>2026-05-02T08:07:18Z</time></trkpt><trkpt lat="43.48160300119057" lon="10.366457259773485"><ele>254.0</ele><time>2026-05-02T08:07:21Z</time></trkpt><trkpt lat="43.48161685794682" lon="10.366332518985889"><ele>254.33333333333334</ele><time>2026-05-02T08:07:24Z</time></trkpt><trkpt lat="43.48163240639194" lon="10.366213729206672"><ele>254.66666666666669</ele><time>2026-05-02T08:07:27Z</time></trkpt><trkpt lat="43.48163420592587" lon="10.36608877462149"><ele>255.0</ele><time>2026-05-02T08:07:30Z</time></trkpt><trkpt lat="43.48164191006612" lon="10.36595872933689"><ele>255.33333333333331</ele><time>2026-05-02T08:07:33Z</time></trkpt><trkpt lat="43.48165552139531" lon="10.365841895135986"><ele>255.66666666666666</ele><time>2026-05-02T08:07:36Z</time></trkpt><trkpt lat="43.48168389079834" lon="10.36573107491888"><ele>256.0</ele><time>2026-05-02T08:07:39Z</time></trkpt><trkpt lat="43.4817141864532" lon="10.365610247395802"><ele>256.8333333333333</ele><time>2026-05-02T08:07:42Z</time></trkpt><trkpt lat="43.481746433406165" lon="10.365494830452038"><ele>257.66666666666663</ele><time>2026-05-02T08:07:45Z</time></trkpt><trkpt lat="43.481789233958324" lon="10.365387553918108"><ele>258.5</ele><time>2026-05-02T08:07:48Z</time></trkpt><trkpt lat="43.48183897993346" lon="10.365297620248844"><ele>259.3333333333333</ele><time>2026-05-02T08:07:51Z</time></trkpt><trkpt lat="43.48188030319445" lon="10.36520189609277"><ele>260.1666666666667</ele><time>2026-05-02T08:07:54Z</time></trkpt><trkpt lat="43.48195215205111" lon="10.365118773796345"><ele>261.0</ele><time>2026-05-02T08:07:57Z</time></trkpt><trkpt lat="43.48202012151504" lon="10.365049278519736"><ele>262.1666666666667</ele><time>2026-05-02T08:08:00Z</time></trkpt><trkpt lat="43.4821003651792" lon="10.364985086829233"><ele>263.3333333333333</ele><time>2026-05-02T08:08:03Z</time></trkpt><trkpt lat="43.482177792982675" lon="10.364929418890062"><ele>264.5</ele><time>2026-05-02T08:08:06Z</time></trkpt><trkpt lat="43.48225912297971" lon="10.36487156486692"><ele>265.66666666666663</ele><time>2026-05-02T08:08:09Z</time></trkpt><trkpt lat="43.48233612398577" lon="10.364824006387755"><ele>266.8333333333333</ele><time>2026-05-02T08:08:12Z</time></trkpt><trkpt lat="43.48242404856428" lon="10.364788998052736"><ele>268.0</ele><time>2026-05-02T08:08:15Z</time></trkpt><trkpt lat="43.482508944819386" lon="10.364751235562393"><ele>268.0</ele><time>2026-05-02T08:08:18Z</time></trkpt><trkpt lat="43.48259126600115" lon="10.364702777259758"><ele>268.0</ele><time>2026-05-02T08:08:21Z</time></trkpt><trkpt lat="43.48266668229931" lon="10.364630282679274"><ele>268.0</ele><time>2026-05-02T08:08:24Z</time></trkpt><trkpt lat="43.48271521797757" lon="10.364571559414737"><ele>268.0</ele><time>2026-05-02T08:08:26Z</time></trkpt><trkpt lat="43.482755017082376" lon="10.364490088157675"><ele>268.0</ele><time>2026-05-02T08:08:28Z</time></trkpt><trkpt lat="43.48279998404639" lon="10.364401174525382"><ele>268.0</ele><time>2026-05-02T08:08:30Z</time></trkpt><trkpt lat="43.48286103634717" lon="10.36430357550081"><ele>268.3333333333333</ele><time>2026-05-02T08:08:32Z</time></trkpt><trkpt lat="43.4829324014904" lon="10.364228073514262"><ele>268.66666666666663</ele><time>2026-05-02T08:08:34Z</time></trkpt><trkpt lat="43.483002531684015" lon="10.36416273966626"><ele>269.0</ele><time>2026-05-02T08:08:36Z</time></trkpt><trkpt lat="43.48307098221425" lon="10.36410477325211"><ele>269.3333333333333</ele><time>2026-05-02T08:08:38Z</time></trkpt><trkpt lat="43.48313784753585" lon="10.364050085176547"><ele>269.6666666666667</ele><time>2026-05-02T08:08:40Z</time></trkpt><trkpt lat="43.48321533619315" lon="10.36400960266997"><ele>270.0</ele><time>2026-05-02T08:08:42Z</time></trkpt><trkpt lat="43.483288449182645" lon="10.363967307375226"><ele>270.0</ele><time>2026-05-02T08:08:44Z</time></trkpt><trkpt lat="43.483362756854376" lon="10.36392876546705"><ele>270.0</ele><time>2026-05-02T08:08:46Z</time></trkpt><trkpt lat="43.483432357926915" lon="10.363890569444248"><ele>270.0</ele><time>2026-05-02T08:08:48Z</time></trkpt><trkpt lat="43.48350241404143" lon="10.363854457082157"><ele>270.0</ele><time>2026-05-02T08:08:50Z</time></trkpt><trkpt lat="43.48357326074164" lon="10.36382023555392"><ele>270.0</ele><time>2026-05-02T08:08:52Z</time></trkpt><trkpt lat="43.483642976685296" lon="10.363783679479912"><ele>270.0</ele><time>2026-05-02T08:08:54Z</time></trkpt><trkpt lat="43.483706504562235" lon="10.36373649416662"><ele>271.5</ele><time>2026-05-02T08:08:56Z</time></trkpt><trkpt lat="43.483766701119706" lon="10.36367591750724"><ele>273.0</ele><time>2026-05-02T08:08:58Z</time></trkpt><trkpt lat="43.48383194990906" lon="10.363617557075944"><ele>274.5</ele><time>2026-05-02T08:09:00Z</time></trkpt><trkpt lat="43.483899228835234" lon="10.363575365625422"><ele>276.0</ele><time>2026-05-02T08:09:02Z</time></trkpt><trkpt lat="43.483959691068435" lon="10.363514996908135"><ele>277.5</ele><time>2026-05-02T08:09:04Z</time></trkpt><trkpt lat="43.48402557534582" lon="10.363459409027742"><ele>279.0</ele><time>2026-05-02T08:09:06Z</time></trkpt><trkpt lat="43.48409309211162" lon="10.363408055500207"><ele>278.99999999999994</ele><time>2026-05-02T08:09:08Z</time></trkpt><trkpt lat="43.48415906828532" lon="10.36336399544313"><ele>279.0</ele><time>2026-05-02T08:09:10Z</time></trkpt><trkpt lat="43.48422279835531" lon="10.363323160399709"><ele>279.0</ele><time>2026-05-02T08:09:12Z</time></trkpt><trkpt lat="43.48429270916416" lon="10.363291432927193"><ele>279.0</ele><time>2026-05-02T08:09:14Z</time></trkpt><trkpt lat="43.484362286689205" lon="10.363260484644801"><ele>279.0</ele><time>2026-05-02T08:09:16Z</time></trkpt><trkpt lat="43.48443117493724" lon="10.363224553342363"><ele>278.99999999999994</ele><time>2026-05-02T08:09:18Z</time></trkpt><trkpt lat="43.48451390056621" lon="10.363201060151827"><ele>279.0</ele><time>2026-05-02T08:09:20Z</time></trkpt><trkpt lat="43.48458253391161" lon="10.363183857272904"><ele>278.8333333333333</ele><time>2026-05-02T08:09:22Z</time></trkpt><trkpt lat="43.48464659713794" lon="10.36318885500529"><ele>278.6666666666667</ele><time>2026-05-02T08:09:24Z</time></trkpt><trkpt lat="43.48473326182589" lon="10.363188909658753"><ele>278.5</ele><time>2026-05-02T08:09:27Z</time></trkpt><trkpt lat="43.4848009819475" lon="10.363206837864881"><ele>278.33333333333337</ele><time>2026-05-02T08:09:29Z</time></trkpt><trkpt lat="43.48487290874835" lon="10.363224934975396"><ele>278.1666666666667</ele><time>2026-05-02T08:09:31Z</time></trkpt><trkpt lat="43.48495171456875" lon="10.363231073895216"><ele>278.0</ele><time>2026-05-02T08:09:33Z</time></trkpt><trkpt lat="43.48505010211352" lon="10.363233868836344"><ele>278.0</ele><time>2026-05-02T08:09:35Z</time></trkpt><trkpt lat="43.48515541744225" lon="10.363197581305789"><ele>278.0</ele><time>2026-05-02T08:09:37Z</time></trkpt><trkpt lat="43.4852667612899" lon="10.36315299681936"><ele>278.0</ele><time>2026-05-02T08:09:39Z</time></trkpt><trkpt lat="43.48538348837767" lon="10.3630994858775"><ele>278.0</ele><time>2026-05-02T08:09:41Z</time></trkpt><trkpt lat="43.48549508301664" lon="10.363048159986866"><ele>277.6</ele><time>2026-05-02T08:09:43Z</time></trkpt><trkpt lat="43.48559725632664" lon="10.362993422918898"><ele>277.20000000000005</ele><time>2026-05-02T08:09:45Z</time></trkpt><trkpt lat="43.48570471918288" lon="10.362942562091657"><ele>276.8</ele><time>2026-05-02T08:09:47Z</time></trkpt><trkpt lat="43.48581039841282" lon="10.362918517350378"><ele>276.40000000000003</ele><time>2026-05-02T08:09:49Z</time></trkpt><trkpt lat="43.48591499820289" lon="10.362900339857719"><ele>276.0</ele><time>2026-05-02T08:09:51Z</time></trkpt><trkpt lat="43.4860102117168" lon="10.362910854751716"><ele>276.0</ele><time>2026-05-02T08:09:53Z</time></trkpt><trkpt lat="43.4860955327502" lon="10.362938146501868"><ele>276.0</ele><time>2026-05-02T08:09:55Z</time></trkpt><trkpt lat="43.48617633465561" lon="10.362956440535477"><ele>276.0</ele><time>2026-05-02T08:09:57Z</time></trkpt><trkpt lat="43.486256520650485" lon="10.362981352021864"><ele>276.0</ele><time>2026-05-02T08:09:59Z</time></trkpt><trkpt lat="43.486339003292564" lon="10.363003798473503"><ele>276.0</ele><time>2026-05-02T08:10:01Z</time></trkpt><trkpt lat="43.486421164075765" lon="10.36302602937933"><ele>276.0</ele><time>2026-05-02T08:10:03Z</time></trkpt><trkpt lat="43.48650491742504" lon="10.363039502732029"><ele>277.0</ele><time>2026-05-02T08:10:05Z</time></trkpt><trkpt lat="43.48658325190177" lon="10.36306571663381"><ele>278.0</ele><time>2026-05-02T08:10:07Z</time></trkpt><trkpt lat="43.48666324097976" lon="10.36309053387346"><ele>279.0</ele><time>2026-05-02T08:10:09Z</time></trkpt><trkpt lat="43.48674495181419" lon="10.363111914169643"><ele>280.0</ele><time>2026-05-02T08:10:11Z</time></trkpt><trkpt lat="43.486822632882294" lon="10.363137293735091"><ele>281.0</ele><time>2026-05-02T08:10:13Z</time></trkpt><trkpt lat="43.48688825795444" lon="10.363154516369944"><ele>282.0</ele><time>2026-05-02T08:10:15Z</time></trkpt><trkpt lat="43.486971409045665" lon="10.363171695147244"><ele>282.0</ele><time>2026-05-02T08:10:17Z</time></trkpt><trkpt lat="43.48704486252929" lon="10.363202681305973"><ele>282.0</ele><time>2026-05-02T08:10:19Z</time></trkpt><trkpt lat="43.4871197458768" lon="10.363241501635395"><ele>282.0</ele><time>2026-05-02T08:10:21Z</time></trkpt><trkpt lat="43.487203301277354" lon="10.363271848282135"><ele>282.0</ele><time>2026-05-02T08:10:23Z</time></trkpt><trkpt lat="43.48729585303503" lon="10.36329768835768"><ele>282.0</ele><time>2026-05-02T08:10:25Z</time></trkpt><trkpt lat="43.48740002616238" lon="10.363334443562064"><ele>282.0</ele><time>2026-05-02T08:10:27Z</time></trkpt><trkpt lat="43.48751914484312" lon="10.363363582067878"><ele>282.0</ele><time>2026-05-02T08:10:29Z</time></trkpt><trkpt lat="43.48758618542942" lon="10.36337216577905"><ele>282.0</ele><time>2026-05-02T08:10:30Z</time></trkpt><trkpt lat="43.48765602670613" lon="10.363373223306809"><ele>282.0</ele><time>2026-05-02T08:10:31Z</time></trkpt><trkpt lat="43.48772671974782" lon="10.363383551228866"><ele>282.0</ele><time>2026-05-02T08:10:32Z</time></trkpt><trkpt lat="43.48779736228585" lon="10.363390088350233"><ele>282.0</ele><time>2026-05-02T08:10:33Z</time></trkpt><trkpt lat="43.48787003158079" lon="10.363394288838764"><ele>282.0</ele><time>2026-05-02T08:10:34Z</time></trkpt><trkpt lat="43.48794281198278" lon="10.36339321427539"><ele>282.0</ele><time>2026-05-02T08:10:35Z</time></trkpt><trkpt lat="43.48801682479936" lon="10.363387018582053"><ele>282.1666666666667</ele><time>2026-05-02T08:10:36Z</time></trkpt><trkpt lat="43.488088328891855" lon="10.363382738866294"><ele>282.3333333333333</ele><time>2026-05-02T08:10:37Z</time></trkpt><trkpt lat="43.488156636086046" lon="10.363372194830955"><ele>282.5</ele><time>2026-05-02T08:10:38Z</time></trkpt><trkpt lat="43.48822292246941" lon="10.363360873648842"><ele>282.66666666666663</ele><time>2026-05-02T08:10:39Z</time></trkpt><trkpt lat="43.488287034005836" lon="10.36335050859569"><ele>282.8333333333333</ele><time>2026-05-02T08:10:40Z</time></trkpt><trkpt lat="43.4883461821035" lon="10.363313732005327"><ele>283.0</ele><time>2026-05-02T08:10:41Z</time></trkpt><trkpt lat="43.48844196103778" lon="10.363229643000006"><ele>283.0</ele><time>2026-05-02T08:10:43Z</time></trkpt><trkpt lat="43.48851570904246" lon="10.363135342744295"><ele>283.0</ele><time>2026-05-02T08:10:45Z</time></trkpt><trkpt lat="43.488582516117766" lon="10.363036456523636"><ele>283.0</ele><time>2026-05-02T08:10:47Z</time></trkpt><trkpt lat="43.48863584859344" lon="10.362924524395451"><ele>283.0</ele><time>2026-05-02T08:10:49Z</time></trkpt><trkpt lat="43.488694959676224" lon="10.362810672336204"><ele>283.0</ele><time>2026-05-02T08:10:51Z</time></trkpt><trkpt lat="43.48874758883167" lon="10.362702033089871"><ele>283.66666666666663</ele><time>2026-05-02T08:10:53Z</time></trkpt><trkpt lat="43.48880189362535" lon="10.362598765979154"><ele>284.3333333333333</ele><time>2026-05-02T08:10:55Z</time></trkpt><trkpt lat="43.488859849386095" lon="10.362503793929509"><ele>285.0</ele><time>2026-05-02T08:10:57Z</time></trkpt><trkpt lat="43.488925355742715" lon="10.36242501148426"><ele>285.6666666666667</ele><time>2026-05-02T08:10:58.999Z</time></trkpt><trkpt lat="43.48899970957358" lon="10.362355715676442"><ele>286.33333333333337</ele><time>2026-05-02T08:11:01Z</time></trkpt><trkpt lat="43.489072733281375" lon="10.362296195844792"><ele>287.0</ele><time>2026-05-02T08:11:03Z</time></trkpt><trkpt lat="43.48914987323745" lon="10.362253971308615"><ele>287.0</ele><time>2026-05-02T08:11:05Z</time></trkpt><trkpt lat="43.48923429308257" lon="10.362222406365907"><ele>287.0</ele><time>2026-05-02T08:11:07Z</time></trkpt><trkpt lat="43.489321142428395" lon="10.362205297435509"><ele>287.0</ele><time>2026-05-02T08:11:09Z</time></trkpt><trkpt lat="43.48941088878617" lon="10.362181617878077"><ele>287.0</ele><time>2026-05-02T08:11:11Z</time></trkpt><trkpt lat="43.489507054834405" lon="10.36216337341038"><ele>287.0</ele><time>2026-05-02T08:11:13Z</time></trkpt><trkpt lat="43.48959990896095" lon="10.362125152569142"><ele>287.2</ele><time>2026-05-02T08:11:15Z</time></trkpt><trkpt lat="43.48969397507885" lon="10.362062911692172"><ele>287.4</ele><time>2026-05-02T08:11:17Z</time></trkpt><trkpt lat="43.48976275463663" lon="10.361973451038567"><ele>287.6</ele><time>2026-05-02T08:11:19Z</time></trkpt><trkpt lat="43.48981748181892" lon="10.361871662452161"><ele>287.8</ele><time>2026-05-02T08:11:21Z</time></trkpt><trkpt lat="43.48986369569773" lon="10.361771518421502"><ele>288.0</ele><time>2026-05-02T08:11:23Z</time></trkpt><trkpt lat="43.48989402971665" lon="10.361660019049006"><ele>288.0</ele><time>2026-05-02T08:11:25Z</time></trkpt><trkpt lat="43.48990266701931" lon="10.361532273614957"><ele>288.0</ele><time>2026-05-02T08:11:27Z</time></trkpt><trkpt lat="43.489895075936204" lon="10.361404090398661"><ele>288.0</ele><time>2026-05-02T08:11:29Z</time></trkpt><trkpt lat="43.489872096121694" lon="10.36127970637234"><ele>288.0</ele><time>2026-05-02T08:11:31Z</time></trkpt><trkpt lat="43.4898510855156" lon="10.361155782112398"><ele>288.0</ele><time>2026-05-02T08:11:33Z</time></trkpt><trkpt lat="43.48982069803006" lon="10.361031630071357"><ele>288.8</ele><time>2026-05-02T08:11:35Z</time></trkpt><trkpt lat="43.48979399276592" lon="10.360901477704425"><ele>289.6</ele><time>2026-05-02T08:11:37Z</time></trkpt><trkpt lat="43.489762181394994" lon="10.3607750667294"><ele>290.4</ele><time>2026-05-02T08:11:39Z</time></trkpt><trkpt lat="43.48973036738691" lon="10.360647258051713"><ele>291.2</ele><time>2026-05-02T08:11:41Z</time></trkpt><trkpt lat="43.48969947280843" lon="10.360515738463006"><ele>292.0</ele><time>2026-05-02T08:11:43Z</time></trkpt><trkpt lat="43.48967651258011" lon="10.360386345636064"><ele>292.5</ele><time>2026-05-02T08:11:45Z</time></trkpt><trkpt lat="43.489656099503236" lon="10.36025732177238"><ele>293.0</ele><time>2026-05-02T08:11:47Z</time></trkpt><trkpt lat="43.48965284203627" lon="10.360133509064909"><ele>293.5</ele><time>2026-05-02T08:11:49Z</time></trkpt><trkpt lat="43.48965422996924" lon="10.36001335933177"><ele>294.0</ele><time>2026-05-02T08:11:51Z</time></trkpt><trkpt lat="43.489654397656835" lon="10.359896082760375"><ele>294.5</ele><time>2026-05-02T08:11:53Z</time></trkpt><trkpt lat="43.48966650566997" lon="10.359777056512334"><ele>295.0</ele><time>2026-05-02T08:11:55Z</time></trkpt><trkpt lat="43.48968252748572" lon="10.359657021454288"><ele>293.6</ele><time>2026-05-02T08:11:57Z</time></trkpt><trkpt lat="43.489717954174104" lon="10.359549248820985"><ele>292.2</ele><time>2026-05-02T08:11:59Z</time></trkpt><trkpt lat="43.48977589858292" lon="10.35944831554913"><ele>290.8</ele><time>2026-05-02T08:12:01Z</time></trkpt><trkpt lat="43.4898389826204" lon="10.359352883327237"><ele>289.4</ele><time>2026-05-02T08:12:03Z</time></trkpt><trkpt lat="43.48990209947813" lon="10.359260516101832"><ele>288.0</ele><time>2026-05-02T08:12:05Z</time></trkpt><trkpt lat="43.48997298133445" lon="10.359169694953987"><ele>288.0</ele><time>2026-05-02T08:12:07Z</time></trkpt><trkpt lat="43.490026482123824" lon="10.359074642531747"><ele>288.0</ele><time>2026-05-02T08:12:09Z</time></trkpt><trkpt lat="43.49009202612389" lon="10.358990915791793"><ele>288.0</ele><time>2026-05-02T08:12:11Z</time></trkpt><trkpt lat="43.490151687683976" lon="10.358897456582492"><ele>288.0</ele><time>2026-05-02T08:12:13Z</time></trkpt><trkpt lat="43.490214125052994" lon="10.358813783820022"><ele>288.0</ele><time>2026-05-02T08:12:15Z</time></trkpt><trkpt lat="43.49028245176252" lon="10.358738823860826"><ele>288.0</ele><time>2026-05-02T08:12:17Z</time></trkpt><trkpt lat="43.49034814421253" lon="10.358659418575808"><ele>288.0</ele><time>2026-05-02T08:12:19Z</time></trkpt><trkpt lat="43.49042291501035" lon="10.358578726804414"><ele>288.0</ele><time>2026-05-02T08:12:21Z</time></trkpt><trkpt lat="43.49052659329332" lon="10.358526304519133"><ele>288.0</ele><time>2026-05-02T08:12:23Z</time></trkpt><trkpt lat="43.49064311980145" lon="10.35846449272408"><ele>288.0</ele><time>2026-05-02T08:12:25Z</time></trkpt><trkpt lat="43.490760052241704" lon="10.35840294766517"><ele>288.0</ele><time>2026-05-02T08:12:27Z</time></trkpt><trkpt lat="43.490872793055225" lon="10.358346543129977"><ele>288.0</ele><time>2026-05-02T08:12:29Z</time></trkpt><trkpt lat="43.49098735214819" lon="10.358436653641315"><ele>288.0</ele><time>2026-05-02T08:12:31Z</time></trkpt><trkpt lat="43.49102986646619" lon="10.358524916600572"><ele>288.0</ele><time>2026-05-02T08:12:32Z</time></trkpt><trkpt lat="43.49106597773124" lon="10.35861725305273"><ele>288.0</ele><time>2026-05-02T08:12:33Z</time></trkpt><trkpt lat="43.4910971238943" lon="10.35871648965834"><ele>287.8</ele><time>2026-05-02T08:12:34Z</time></trkpt><trkpt lat="43.49118433459779" lon="10.358892286497284"><ele>287.6</ele><time>2026-05-02T08:12:36Z</time></trkpt><trkpt lat="43.49123437838226" lon="10.358972320181934"><ele>287.4</ele><time>2026-05-02T08:12:37Z</time></trkpt><trkpt lat="43.491294252404536" lon="10.359044638462297"><ele>287.2</ele><time>2026-05-02T08:12:38Z</time></trkpt><trkpt lat="43.49137549741656" lon="10.359071430949639"><ele>287.0</ele><time>2026-05-02T08:12:39Z</time></trkpt><trkpt lat="43.491457467936236" lon="10.359088719749193"><ele>286.0</ele><time>2026-05-02T08:12:40Z</time></trkpt><trkpt lat="43.4915404637521" lon="10.359094880604017"><ele>285.0</ele><time>2026-05-02T08:12:41Z</time></trkpt><trkpt lat="43.49162745106478" lon="10.35908313006769"><ele>284.0</ele><time>2026-05-02T08:12:42Z</time></trkpt><trkpt lat="43.49171310017754" lon="10.359067399007545"><ele>283.0</ele><time>2026-05-02T08:12:43Z</time></trkpt><trkpt lat="43.49180537144924" lon="10.359062784837528"><ele>282.0</ele><time>2026-05-02T08:12:44Z</time></trkpt><trkpt lat="43.491904554354264" lon="10.359058227118203"><ele>281.0</ele><time>2026-05-02T08:12:45Z</time></trkpt><trkpt lat="43.491993414253464" lon="10.35903669426594"><ele>281.0</ele><time>2026-05-02T08:12:46Z</time></trkpt><trkpt lat="43.49207608262706" lon="10.358998488676056"><ele>281.0</ele><time>2026-05-02T08:12:47Z</time></trkpt><trkpt lat="43.49214850676276" lon="10.358962351015698"><ele>281.0</ele><time>2026-05-02T08:12:48Z</time></trkpt><trkpt lat="43.49221380535253" lon="10.35893430258201"><ele>281.0</ele><time>2026-05-02T08:12:49Z</time></trkpt><trkpt lat="43.492286821806324" lon="10.358890415048462"><ele>281.0</ele><time>2026-05-02T08:12:50Z</time></trkpt><trkpt lat="43.4923638929684" lon="10.35885966463891"><ele>281.0</ele><time>2026-05-02T08:12:51Z</time></trkpt><trkpt lat="43.49244047643399" lon="10.358822317760845"><ele>277.6</ele><time>2026-05-02T08:12:52Z</time></trkpt><trkpt lat="43.49252357889767" lon="10.358788785307707"><ele>274.20000000000005</ele><time>2026-05-02T08:12:53Z</time></trkpt><trkpt lat="43.4926040337801" lon="10.358744042819056"><ele>270.79999999999995</ele><time>2026-05-02T08:12:54Z</time></trkpt><trkpt lat="43.49268739868586" lon="10.358685130574138"><ele>267.4</ele><time>2026-05-02T08:12:55Z</time></trkpt><trkpt lat="43.4927752860269" lon="10.358649088303721"><ele>264.0</ele><time>2026-05-02T08:12:56Z</time></trkpt><trkpt lat="43.49286988051358" lon="10.358606073464086"><ele>262.2</ele><time>2026-05-02T08:12:57Z</time></trkpt><trkpt lat="43.49296239638812" lon="10.358547174423713"><ele>260.4</ele><time>2026-05-02T08:12:58Z</time></trkpt><trkpt lat="43.49306320906765" lon="10.358510347767126"><ele>258.6</ele><time>2026-05-02T08:12:59Z</time></trkpt><trkpt lat="43.493166074145314" lon="10.358529041363795"><ele>256.8</ele><time>2026-05-02T08:12:59.999Z</time></trkpt><trkpt lat="43.49326281819745" lon="10.358604613315972"><ele>255.0</ele><time>2026-05-02T08:13:00.999Z</time></trkpt><trkpt lat="43.493339697841925" lon="10.358712429967698"><ele>255.0</ele><time>2026-05-02T08:13:01.999Z</time></trkpt><trkpt lat="43.493408040973456" lon="10.358821544737705"><ele>255.0</ele><time>2026-05-02T08:13:02.999Z</time></trkpt><trkpt lat="43.493478001948866" lon="10.358933359539547"><ele>255.0</ele><time>2026-05-02T08:13:03.999Z</time></trkpt><trkpt lat="43.49354819081495" lon="10.359051767693082"><ele>255.0</ele><time>2026-05-02T08:13:04.999Z</time></trkpt><trkpt lat="43.49361401195635" lon="10.359175080288827"><ele>255.0</ele><time>2026-05-02T08:13:05.999Z</time></trkpt><trkpt lat="43.49366528255683" lon="10.359311847321779"><ele>253.0</ele><time>2026-05-02T08:13:07Z</time></trkpt><trkpt lat="43.49370562000358" lon="10.359467581756173"><ele>251.0</ele><time>2026-05-02T08:13:08Z</time></trkpt><trkpt lat="43.4937334795243" lon="10.359621134163206"><ele>249.0</ele><time>2026-05-02T08:13:09Z</time></trkpt><trkpt lat="43.493756798305746" lon="10.359781400721037"><ele>247.0</ele><time>2026-05-02T08:13:10Z</time></trkpt><trkpt lat="43.49378317154816" lon="10.359942703847354"><ele>247.0</ele><time>2026-05-02T08:13:11Z</time></trkpt><trkpt lat="43.493804322600454" lon="10.360107067714594"><ele>247.0</ele><time>2026-05-02T08:13:12Z</time></trkpt><trkpt lat="43.493825624675395" lon="10.360272257633838"><ele>247.0</ele><time>2026-05-02T08:13:13Z</time></trkpt><trkpt lat="43.493844217453585" lon="10.360439886558142"><ele>247.0</ele><time>2026-05-02T08:13:14Z</time></trkpt><trkpt lat="43.49390318730757" lon="10.360596231468165"><ele>248.0</ele><time>2026-05-02T08:13:15Z</time></trkpt><trkpt lat="43.49396792492563" lon="10.360748332643446"><ele>249.0</ele><time>2026-05-02T08:13:16Z</time></trkpt><trkpt lat="43.49404286170878" lon="10.360891930512246"><ele>250.0</ele><time>2026-05-02T08:13:17Z</time></trkpt><trkpt lat="43.49412678485984" lon="10.361025217061155"><ele>251.0</ele><time>2026-05-02T08:13:18Z</time></trkpt><trkpt lat="43.494200110105766" lon="10.36113932104677"><ele>251.0</ele><time>2026-05-02T08:13:19Z</time></trkpt><trkpt lat="43.494275097539" lon="10.361228484999998"><ele>251.00000000000003</ele><time>2026-05-02T08:13:20Z</time></trkpt><trkpt lat="43.49438008050697" lon="10.361283250066613"><ele>251.00000000000003</ele><time>2026-05-02T08:13:21Z</time></trkpt><trkpt lat="43.494489057904836" lon="10.361291787659107"><ele>251.0</ele><time>2026-05-02T08:13:22Z</time></trkpt><trkpt lat="43.494598915036924" lon="10.361246398225502"><ele>251.0</ele><time>2026-05-02T08:13:23Z</time></trkpt><trkpt lat="43.49468779834046" lon="10.36115583820997"><ele>249.20000000000002</ele><time>2026-05-02T08:13:24Z</time></trkpt><trkpt lat="43.49474820927441" lon="10.361026147910616"><ele>247.40000000000003</ele><time>2026-05-02T08:13:25Z</time></trkpt><trkpt lat="43.494775630114376" lon="10.36088104725278"><ele>245.6</ele><time>2026-05-02T08:13:26Z</time></trkpt><trkpt lat="43.49476431854258" lon="10.360730793607638"><ele>243.8</ele><time>2026-05-02T08:13:27Z</time></trkpt><trkpt lat="43.494737430788334" lon="10.360585211873161"><ele>242.0</ele><time>2026-05-02T08:13:28Z</time></trkpt><trkpt lat="43.494711305257454" lon="10.360440150080914"><ele>241.0</ele><time>2026-05-02T08:13:29Z</time></trkpt><trkpt lat="43.49469132708343" lon="10.360292116265255"><ele>240.0</ele><time>2026-05-02T08:13:30Z</time></trkpt><trkpt lat="43.49470920014279" lon="10.360137935706772"><ele>239.0</ele><time>2026-05-02T08:13:31Z</time></trkpt><trkpt lat="43.49477351108724" lon="10.359997562112529"><ele>238.0</ele><time>2026-05-02T08:13:32Z</time></trkpt><trkpt lat="43.49486361337865" lon="10.359897629356322"><ele>238.0</ele><time>2026-05-02T08:13:33Z</time></trkpt><trkpt lat="43.494962842090345" lon="10.359821783868444"><ele>238.0</ele><time>2026-05-02T08:13:34Z</time></trkpt><trkpt lat="43.495062535866694" lon="10.359753467641431"><ele>238.0</ele><time>2026-05-02T08:13:35Z</time></trkpt><trkpt lat="43.49515781711201" lon="10.359682295082843"><ele>238.0</ele><time>2026-05-02T08:13:36Z</time></trkpt><trkpt lat="43.49525007311453" lon="10.359614648508309"><ele>238.0</ele><time>2026-05-02T08:13:37Z</time></trkpt><trkpt lat="43.495344673286354" lon="10.359545850990818"><ele>237.0</ele><time>2026-05-02T08:13:38Z</time></trkpt><trkpt lat="43.49543943964436" lon="10.35947072624023"><ele>236.0</ele><time>2026-05-02T08:13:39Z</time></trkpt><trkpt lat="43.49553411648476" lon="10.359396060271596"><ele>235.0</ele><time>2026-05-02T08:13:40Z</time></trkpt><trkpt lat="43.495628016246684" lon="10.359319862033816"><ele>234.0</ele><time>2026-05-02T08:13:41Z</time></trkpt><trkpt lat="43.495721523596636" lon="10.359248731269078"><ele>233.0</ele><time>2026-05-02T08:13:42Z</time></trkpt><trkpt lat="43.49581585345289" lon="10.359184501231159"><ele>233.0</ele><time>2026-05-02T08:13:43Z</time></trkpt><trkpt lat="43.49591030370524" lon="10.359116130180146"><ele>233.0</ele><time>2026-05-02T08:13:44Z</time></trkpt><trkpt lat="43.49600184431189" lon="10.35904693661271"><ele>233.0</ele><time>2026-05-02T08:13:45Z</time></trkpt><trkpt lat="43.49609310638028" lon="10.358979617813144"><ele>233.0</ele><time>2026-05-02T08:13:46Z</time></trkpt><trkpt lat="43.49618462124974" lon="10.358909015350841"><ele>233.0</ele><time>2026-05-02T08:13:47Z</time></trkpt><trkpt lat="43.49627509607226" lon="10.35884030971071"><ele>232.0</ele><time>2026-05-02T08:13:48Z</time></trkpt><trkpt lat="43.496360762676595" lon="10.35876692540634"><ele>231.0</ele><time>2026-05-02T08:13:49Z</time></trkpt><trkpt lat="43.496448691963316" lon="10.358698334400497"><ele>230.0</ele><time>2026-05-02T08:13:50Z</time></trkpt><trkpt lat="43.49652438010779" lon="10.358604053109868"><ele>229.0</ele><time>2026-05-02T08:13:51Z</time></trkpt><trkpt lat="43.49657441542368" lon="10.358480966628195"><ele>228.0</ele><time>2026-05-02T08:13:52Z</time></trkpt><trkpt lat="43.496604638561756" lon="10.35834396351097"><ele>228.0</ele><time>2026-05-02T08:13:53Z</time></trkpt><trkpt lat="43.49660520847057" lon="10.358199719257712"><ele>228.0</ele><time>2026-05-02T08:13:54Z</time></trkpt><trkpt lat="43.496615640052624" lon="10.358058816231617"><ele>228.0</ele><time>2026-05-02T08:13:55Z</time></trkpt><trkpt lat="43.49661987345163" lon="10.357921282918092"><ele>228.0</ele><time>2026-05-02T08:13:56Z</time></trkpt><trkpt lat="43.49660354909377" lon="10.35778858109572"><ele>228.0</ele><time>2026-05-02T08:13:57Z</time></trkpt><trkpt lat="43.496564328546384" lon="10.357665244134903"><ele>227.8</ele><time>2026-05-02T08:13:58Z</time></trkpt><trkpt lat="43.496520892403645" lon="10.35754215456125"><ele>227.60000000000002</ele><time>2026-05-02T08:13:59Z</time></trkpt><trkpt lat="43.4964244854794" lon="10.357480197905552"><ele>227.39999999999998</ele><time>2026-05-02T08:14:00Z</time></trkpt><trkpt lat="43.496337439899854" lon="10.3574244298227"><ele>227.2</ele><time>2026-05-02T08:14:01Z</time></trkpt><trkpt lat="43.496246069163874" lon="10.357411596328806"><ele>227.0</ele><time>2026-05-02T08:14:02Z</time></trkpt><trkpt lat="43.49615431630736" lon="10.35744058903783"><ele>226.2</ele><time>2026-05-02T08:14:03Z</time></trkpt><trkpt lat="43.49606111466622" lon="10.357496897990512"><ele>225.39999999999998</ele><time>2026-05-02T08:14:04Z</time></trkpt><trkpt lat="43.49597991660205" lon="10.35756990409964"><ele>224.60000000000002</ele><time>2026-05-02T08:14:05Z</time></trkpt><trkpt lat="43.49590651446683" lon="10.357663599010879"><ele>223.8</ele><time>2026-05-02T08:14:06Z</time></trkpt><trkpt lat="43.49584316585068" lon="10.357772023901063"><ele>223.0</ele><time>2026-05-02T08:14:07Z</time></trkpt><trkpt lat="43.49577589644544" lon="10.357876272555359"><ele>223.0</ele><time>2026-05-02T08:14:08Z</time></trkpt><trkpt lat="43.49570342508694" lon="10.35798012985403"><ele>223.0</ele><time>2026-05-02T08:14:09Z</time></trkpt><trkpt lat="43.49563165144858" lon="10.35806638342706"><ele>223.0</ele><time>2026-05-02T08:14:10Z</time></trkpt><trkpt lat="43.49557415818617" lon="10.358125918491055"><ele>223.0</ele><time>2026-05-02T08:14:11Z</time></trkpt><trkpt lat="43.49546822814327" lon="10.358120013039391"><ele>223.0</ele><time>2026-05-02T08:14:13Z</time></trkpt><trkpt lat="43.49542954573085" lon="10.358026180817989"><ele>222.99999999999997</ele><time>2026-05-02T08:14:14Z</time></trkpt><trkpt lat="43.49544754405537" lon="10.357914465306667"><ele>223.0</ele><time>2026-05-02T08:14:15Z</time></trkpt><trkpt lat="43.49550207822106" lon="10.357827475320649"><ele>223.0</ele><time>2026-05-02T08:14:16Z</time></trkpt><trkpt lat="43.49554144438277" lon="10.357736973286242"><ele>223.0</ele><time>2026-05-02T08:14:17Z</time></trkpt><trkpt lat="43.49557847737393" lon="10.35763821445942"><ele>222.99999999999997</ele><time>2026-05-02T08:14:18Z</time></trkpt><trkpt lat="43.49560990025259" lon="10.357528648501331"><ele>223.0</ele><time>2026-05-02T08:14:19Z</time></trkpt><trkpt lat="43.495635599398476" lon="10.357414592431935"><ele>223.0</ele><time>2026-05-02T08:14:20Z</time></trkpt><trkpt lat="43.495660860072604" lon="10.357294452345437"><ele>223.0</ele><time>2026-05-02T08:14:21Z</time></trkpt><trkpt lat="43.49568253920399" lon="10.357169096786407"><ele>223.0</ele><time>2026-05-02T08:14:22Z</time></trkpt><trkpt lat="43.49570712632493" lon="10.357042948885214"><ele>223.0</ele><time>2026-05-02T08:14:23Z</time></trkpt><trkpt lat="43.49575832714893" lon="10.356921519884848"><ele>223.0</ele><time>2026-05-02T08:14:24Z</time></trkpt><trkpt lat="43.49583403665882" lon="10.35682137144532"><ele>221.60000000000002</ele><time>2026-05-02T08:14:25Z</time></trkpt><trkpt lat="43.49592954015416" lon="10.356752158068698"><ele>220.20000000000002</ele><time>2026-05-02T08:14:26Z</time></trkpt><trkpt lat="43.49603695747672" lon="10.35671966085283"><ele>218.8</ele><time>2026-05-02T08:14:27Z</time></trkpt><trkpt lat="43.49614281091421" lon="10.356670486068042"><ele>217.4</ele><time>2026-05-02T08:14:28Z</time></trkpt><trkpt lat="43.49623549588381" lon="10.356569843994219"><ele>216.0</ele><time>2026-05-02T08:14:29Z</time></trkpt><trkpt lat="43.49630373959619" lon="10.356443944422345"><ele>212.5</ele><time>2026-05-02T08:14:30Z</time></trkpt><trkpt lat="43.49635544236537" lon="10.356314396289019"><ele>209.0</ele><time>2026-05-02T08:14:31Z</time></trkpt><trkpt lat="43.49642240832599" lon="10.356169218096854"><ele>205.5</ele><time>2026-05-02T08:14:32Z</time></trkpt><trkpt lat="43.49647877625525" lon="10.356024545681846"><ele>202.0</ele><time>2026-05-02T08:14:33Z</time></trkpt><trkpt lat="43.49654241398368" lon="10.355898500448713"><ele>202.0</ele><time>2026-05-02T08:14:34Z</time></trkpt><trkpt lat="43.49661005660531" lon="10.355799653055849"><ele>202.0</ele><time>2026-05-02T08:14:35Z</time></trkpt><trkpt lat="43.49668974246172" lon="10.355735804835762"><ele>202.0</ele><time>2026-05-02T08:14:36Z</time></trkpt><trkpt lat="43.49677766707462" lon="10.355693356395026"><ele>202.0</ele><time>2026-05-02T08:14:37Z</time></trkpt><trkpt lat="43.496873059969694" lon="10.355662837043132"><ele>202.0</ele><time>2026-05-02T08:14:38Z</time></trkpt><trkpt lat="43.496944539948906" lon="10.35566329718608"><ele>202.0</ele><time>2026-05-02T08:14:39Z</time></trkpt><trkpt lat="43.49706789301414" lon="10.355621322695496"><ele>202.0</ele><time>2026-05-02T08:14:40Z</time></trkpt><trkpt lat="43.49717192028207" lon="10.355588349924982"><ele>202.0</ele><time>2026-05-02T08:14:41Z</time></trkpt><trkpt lat="43.497270200149906" lon="10.355535806889666"><ele>202.0</ele><time>2026-05-02T08:14:42Z</time></trkpt><trkpt lat="43.497368387415364" lon="10.355473280659199"><ele>202.0</ele><time>2026-05-02T08:14:43Z</time></trkpt><trkpt lat="43.49747098422328" lon="10.35541148367535"><ele>199.8</ele><time>2026-05-02T08:14:44Z</time></trkpt><trkpt lat="43.497561641803955" lon="10.355364413480862"><ele>197.6</ele><time>2026-05-02T08:14:45Z</time></trkpt><trkpt lat="43.49766276637132" lon="10.355327179714541"><ele>195.4</ele><time>2026-05-02T08:14:46Z</time></trkpt><trkpt lat="43.497769031255224" lon="10.355280826976195"><ele>193.20000000000002</ele><time>2026-05-02T08:14:47Z</time></trkpt><trkpt lat="43.49788657124327" lon="10.355280079207853"><ele>191.0</ele><time>2026-05-02T08:14:48Z</time></trkpt><trkpt lat="43.49800358332671" lon="10.355270760707075"><ele>190.4</ele><time>2026-05-02T08:14:49Z</time></trkpt><trkpt lat="43.49812168713538" lon="10.355258260150885"><ele>189.8</ele><time>2026-05-02T08:14:50Z</time></trkpt><trkpt lat="43.49822671180793" lon="10.355232129723204"><ele>189.20000000000002</ele><time>2026-05-02T08:14:51Z</time></trkpt><trkpt lat="43.49832275238575" lon="10.355204277575016"><ele>188.60000000000002</ele><time>2026-05-02T08:14:52Z</time></trkpt><trkpt lat="43.49842772035185" lon="10.355134601475255"><ele>188.0</ele><time>2026-05-02T08:14:53Z</time></trkpt><trkpt lat="43.498521098383684" lon="10.355039018410706"><ele>188.0</ele><time>2026-05-02T08:14:54Z</time></trkpt><trkpt lat="43.49861115892751" lon="10.354926997097703"><ele>188.0</ele><time>2026-05-02T08:14:55Z</time></trkpt><trkpt lat="43.498691820925096" lon="10.354827030972961"><ele>188.0</ele><time>2026-05-02T08:14:56Z</time></trkpt><trkpt lat="43.49877005166122" lon="10.354749715259638"><ele>188.0</ele><time>2026-05-02T08:14:57Z</time></trkpt><trkpt lat="43.498829939190784" lon="10.354714782808884"><ele>188.0</ele><time>2026-05-02T08:14:57.999Z</time></trkpt><trkpt lat="43.49892752260355" lon="10.354825076685257"><ele>186.16666666666666</ele><time>2026-05-02T08:14:59.999Z</time></trkpt><trkpt lat="43.498946932166035" lon="10.354933130328263"><ele>184.33333333333331</ele><time>2026-05-02T08:15:00.999Z</time></trkpt><trkpt lat="43.49892724289816" lon="10.355037042696296"><ele>182.5</ele><time>2026-05-02T08:15:01.999Z</time></trkpt><trkpt lat="43.49891386107086" lon="10.355140808408207"><ele>180.66666666666666</ele><time>2026-05-02T08:15:02.999Z</time></trkpt><trkpt lat="43.49896944127593" lon="10.355280800323746"><ele>178.83333333333334</ele><time>2026-05-02T08:15:04.999Z</time></trkpt><trkpt lat="43.49905721003764" lon="10.355297306956999"><ele>177.0</ele><time>2026-05-02T08:15:05.999Z</time></trkpt><trkpt lat="43.499118197345766" lon="10.355242735225058"><ele>177.0</ele><time>2026-05-02T08:15:06.999Z</time></trkpt><trkpt lat="43.49914386912738" lon="10.355149250303423"><ele>177.0</ele><time>2026-05-02T08:15:07.999Z</time></trkpt><trkpt lat="43.499139225044196" lon="10.355042436948006"><ele>177.0</ele><time>2026-05-02T08:15:08.999Z</time></trkpt><trkpt lat="43.499127810929046" lon="10.35493222691869"><ele>177.0</ele><time>2026-05-02T08:15:09.999Z</time></trkpt><trkpt lat="43.49912732895959" lon="10.354825964908056"><ele>177.0</ele><time>2026-05-02T08:15:10.999Z</time></trkpt><trkpt lat="43.49911839780641" lon="10.354721253876308"><ele>177.0</ele><time>2026-05-02T08:15:11.999Z</time></trkpt><trkpt lat="43.499110878399485" lon="10.354605538332077"><ele>176.0</ele><time>2026-05-02T08:15:13Z</time></trkpt><trkpt lat="43.499099009815154" lon="10.35449249751843"><ele>175.0</ele><time>2026-05-02T08:15:14Z</time></trkpt><trkpt lat="43.49908665069427" lon="10.354364871552738"><ele>174.0</ele><time>2026-05-02T08:15:15Z</time></trkpt><trkpt lat="43.49908755869732" lon="10.35423508396682"><ele>173.0</ele><time>2026-05-02T08:15:17Z</time></trkpt><trkpt lat="43.49910920225061" lon="10.354122680954758"><ele>172.0</ele><time>2026-05-02T08:15:20Z</time></trkpt><trkpt lat="43.49917294166756" lon="10.354055122369562"><ele>171.0</ele><time>2026-05-02T08:15:22Z</time></trkpt><trkpt lat="43.499256141124576" lon="10.354137020408293"><ele>171.0</ele><time>2026-05-02T08:15:24Z</time></trkpt><trkpt lat="43.49927788427703" lon="10.354220777248779"><ele>171.0</ele><time>2026-05-02T08:15:25Z</time></trkpt><trkpt lat="43.49930939042613" lon="10.354376798535927"><ele>171.0</ele><time>2026-05-02T08:15:27Z</time></trkpt><trkpt lat="43.499320855373405" lon="10.354467853808194"><ele>171.0</ele><time>2026-05-02T08:15:28Z</time></trkpt><trkpt lat="43.499323433720285" lon="10.354618691207147"><ele>171.0</ele><time>2026-05-02T08:15:30Z</time></trkpt><trkpt lat="43.49932572614529" lon="10.354779428961072"><ele>172.20000000000002</ele><time>2026-05-02T08:15:32Z</time></trkpt><trkpt lat="43.49931873918305" lon="10.354945371400325"><ele>173.4</ele><time>2026-05-02T08:15:34Z</time></trkpt><trkpt lat="43.499321922784034" lon="10.355105601445409"><ele>174.6</ele><time>2026-05-02T08:15:36Z</time></trkpt><trkpt lat="43.499316146969306" lon="10.355273580251321"><ele>175.8</ele><time>2026-05-02T08:15:38Z</time></trkpt><trkpt lat="43.49931424284383" lon="10.35536210653334"><ele>177.0</ele><time>2026-05-02T08:15:39Z</time></trkpt><trkpt lat="43.4993025959672" lon="10.355460772421948"><ele>177.0</ele><time>2026-05-02T08:15:40Z</time></trkpt><trkpt lat="43.499326506701394" lon="10.355544730671314"><ele>177.0</ele><time>2026-05-02T08:15:41Z</time></trkpt><trkpt lat="43.49941846919776" lon="10.355621816367677"><ele>177.0</ele><time>2026-05-02T08:15:43Z</time></trkpt><trkpt lat="43.499477517285776" lon="10.355590817926837"><ele>177.0</ele><time>2026-05-02T08:15:44Z</time></trkpt><trkpt lat="43.49952095191514" lon="10.355522972157495"><ele>177.0</ele><time>2026-05-02T08:15:45Z</time></trkpt><trkpt lat="43.49953486543267" lon="10.355431507785957"><ele>177.0</ele><time>2026-05-02T08:15:46Z</time></trkpt><trkpt lat="43.499538848141526" lon="10.355337934500676"><ele>177.0</ele><time>2026-05-02T08:15:47Z</time></trkpt><trkpt lat="43.499557898474805" lon="10.355166762816744"><ele>177.0</ele><time>2026-05-02T08:15:49Z</time></trkpt><trkpt lat="43.499562359279196" lon="10.355074724855008"><ele>177.0</ele><time>2026-05-02T08:15:50Z</time></trkpt><trkpt lat="43.49956724871153" lon="10.354981831406995"><ele>177.0</ele><time>2026-05-02T08:15:51Z</time></trkpt><trkpt lat="43.499565876029855" lon="10.354887581847454"><ele>177.0</ele><time>2026-05-02T08:15:52Z</time></trkpt><trkpt lat="43.499570267808316" lon="10.354792119525083"><ele>177.0</ele><time>2026-05-02T08:15:53Z</time></trkpt><trkpt lat="43.49957411283989" lon="10.354693367259943"><ele>177.0</ele><time>2026-05-02T08:15:54Z</time></trkpt><trkpt lat="43.49958357603206" lon="10.354592420614907"><ele>177.0</ele><time>2026-05-02T08:15:55Z</time></trkpt><trkpt lat="43.49959315911982" lon="10.35448705457304"><ele>173.16666666666666</ele><time>2026-05-02T08:15:56Z</time></trkpt><trkpt lat="43.499600241395044" lon="10.354376571083755"><ele>169.33333333333334</ele><time>2026-05-02T08:15:57Z</time></trkpt><trkpt lat="43.49962083408958" lon="10.354264336441958"><ele>165.5</ele><time>2026-05-02T08:15:58Z</time></trkpt><trkpt lat="43.49964441646307" lon="10.354160772017696"><ele>161.66666666666669</ele><time>2026-05-02T08:15:59Z</time></trkpt><trkpt lat="43.499679673938566" lon="10.354059075204026"><ele>157.83333333333334</ele><time>2026-05-02T08:16:00Z</time></trkpt><trkpt lat="43.499730398112625" lon="10.353960066249218"><ele>154.0</ele><time>2026-05-02T08:16:01Z</time></trkpt><trkpt lat="43.499781164189" lon="10.353858401692214"><ele>152.83333333333334</ele><time>2026-05-02T08:16:02Z</time></trkpt><trkpt lat="43.499833119904196" lon="10.353773400494521"><ele>151.66666666666669</ele><time>2026-05-02T08:16:03Z</time></trkpt><trkpt lat="43.49988033192956" lon="10.353699813689586"><ele>150.5</ele><time>2026-05-02T08:16:04Z</time></trkpt><trkpt lat="43.499897225697275" lon="10.353542533677684"><ele>149.33333333333334</ele><time>2026-05-02T08:16:06Z</time></trkpt><trkpt lat="43.49985687142009" lon="10.353475073134076"><ele>148.16666666666666</ele><time>2026-05-02T08:16:07Z</time></trkpt><trkpt lat="43.49979298434548" lon="10.353431835379842"><ele>147.0</ele><time>2026-05-02T08:16:08Z</time></trkpt><trkpt lat="43.49972051247963" lon="10.35341563472836"><ele>147.0</ele><time>2026-05-02T08:16:09Z</time></trkpt><trkpt lat="43.49965421434667" lon="10.353366639826625"><ele>147.0</ele><time>2026-05-02T08:16:10Z</time></trkpt><trkpt lat="43.49958142960732" lon="10.353335938081406"><ele>147.0</ele><time>2026-05-02T08:16:11Z</time></trkpt><trkpt lat="43.49950656595396" lon="10.35330435947683"><ele>147.0</ele><time>2026-05-02T08:16:12Z</time></trkpt><trkpt lat="43.49943083807794" lon="10.353272416296948"><ele>147.0</ele><time>2026-05-02T08:16:13Z</time></trkpt><trkpt lat="43.4993501124072" lon="10.353238364993947"><ele>147.0</ele><time>2026-05-02T08:16:14Z</time></trkpt><trkpt lat="43.49927029818235" lon="10.353206699070766"><ele>148.16666666666666</ele><time>2026-05-02T08:16:15Z</time></trkpt><trkpt lat="43.49918975319677" lon="10.35317935328488"><ele>149.33333333333334</ele><time>2026-05-02T08:16:16Z</time></trkpt><trkpt lat="43.49910328948306" lon="10.353170227388006"><ele>150.5</ele><time>2026-05-02T08:16:17Z</time></trkpt><trkpt lat="43.49901552893747" lon="10.353177835544303"><ele>151.66666666666669</ele><time>2026-05-02T08:16:18Z</time></trkpt><trkpt lat="43.498924973038385" lon="10.353199220625884"><ele>152.83333333333334</ele><time>2026-05-02T08:16:19Z</time></trkpt><trkpt lat="43.4988384445582" lon="10.353231911235504"><ele>154.0</ele><time>2026-05-02T08:16:20Z</time></trkpt><trkpt lat="43.49875118716856" lon="10.353284863723385"><ele>153.83333333333334</ele><time>2026-05-02T08:16:21Z</time></trkpt><trkpt lat="43.49866838939136" lon="10.353329562159315"><ele>153.66666666666669</ele><time>2026-05-02T08:16:22Z</time></trkpt><trkpt lat="43.49859269781992" lon="10.353364964232773"><ele>153.5</ele><time>2026-05-02T08:16:23Z</time></trkpt><trkpt lat="43.49852192359165" lon="10.353392704586875"><ele>153.33333333333334</ele><time>2026-05-02T08:16:24Z</time></trkpt><trkpt lat="43.49841596395282" lon="10.353389218159666"><ele>153.16666666666666</ele><time>2026-05-02T08:16:26Z</time></trkpt><trkpt lat="43.49835918414435" lon="10.353333044128853"><ele>153.0</ele><time>2026-05-02T08:16:27Z</time></trkpt><trkpt lat="43.49831973562386" lon="10.353240038564547"><ele>153.0</ele><time>2026-05-02T08:16:28Z</time></trkpt><trkpt lat="43.498274214976796" lon="10.35315475220158"><ele>153.0</ele><time>2026-05-02T08:16:29Z</time></trkpt><trkpt lat="43.49822960515173" lon="10.3530707077887"><ele>153.0</ele><time>2026-05-02T08:16:30Z</time></trkpt><trkpt lat="43.498188900756865" lon="10.352994779818578"><ele>153.0</ele><time>2026-05-02T08:16:31Z</time></trkpt><trkpt lat="43.49814848599029" lon="10.352914540980041"><ele>153.0</ele><time>2026-05-02T08:16:32Z</time></trkpt><trkpt lat="43.49811222285509" lon="10.352837169423413"><ele>153.0</ele><time>2026-05-02T08:16:33Z</time></trkpt><trkpt lat="43.49807065936316" lon="10.352756107864234"><ele>153.0</ele><time>2026-05-02T08:16:34Z</time></trkpt><trkpt lat="43.49799106868936" lon="10.352650413535624"><ele>151.66666666666666</ele><time>2026-05-02T08:16:36Z</time></trkpt><trkpt lat="43.49791466424554" lon="10.352640036774286"><ele>150.33333333333334</ele><time>2026-05-02T08:16:37Z</time></trkpt><trkpt lat="43.49783845258058" lon="10.352629473634575"><ele>149.0</ele><time>2026-05-02T08:16:38Z</time></trkpt><trkpt lat="43.49775682193984" lon="10.35263176764846"><ele>147.66666666666669</ele><time>2026-05-02T08:16:39Z</time></trkpt><trkpt lat="43.497672383000385" lon="10.352598890860886"><ele>146.33333333333334</ele><time>2026-05-02T08:16:40Z</time></trkpt><trkpt lat="43.49759566939866" lon="10.352543009093008"><ele>145.0</ele><time>2026-05-02T08:16:41Z</time></trkpt><trkpt lat="43.497535667172016" lon="10.352454981969412"><ele>145.0</ele><time>2026-05-02T08:16:42Z</time></trkpt><trkpt lat="43.49749579022928" lon="10.352346391820584"><ele>145.0</ele><time>2026-05-02T08:16:43Z</time></trkpt><trkpt lat="43.49752656344345" lon="10.352207830849878"><ele>145.0</ele><time>2026-05-02T08:16:44Z</time></trkpt><trkpt lat="43.49757516341588" lon="10.35209260377683"><ele>145.0</ele><time>2026-05-02T08:16:45Z</time></trkpt><trkpt lat="43.49760514389936" lon="10.35198017472374"><ele>145.0</ele><time>2026-05-02T08:16:46Z</time></trkpt><trkpt lat="43.49761909376866" lon="10.35187044759799"><ele>145.0</ele><time>2026-05-02T08:16:47Z</time></trkpt><trkpt lat="43.49763411179599" lon="10.351765368576464"><ele>145.0</ele><time>2026-05-02T08:16:48Z</time></trkpt><trkpt lat="43.4976487774344" lon="10.351662884521062"><ele>145.0</ele><time>2026-05-02T08:16:49Z</time></trkpt><trkpt lat="43.497670563624155" lon="10.351570023084365"><ele>145.0</ele><time>2026-05-02T08:16:50Z</time></trkpt><trkpt lat="43.49768805136714" lon="10.351481536892623"><ele>145.0</ele><time>2026-05-02T08:16:51Z</time></trkpt><trkpt lat="43.497700449179185" lon="10.35138599470641"><ele>145.0</ele><time>2026-05-02T08:16:52Z</time></trkpt><trkpt lat="43.497712689918615" lon="10.35129704139759"><ele>145.0</ele><time>2026-05-02T08:16:53Z</time></trkpt><trkpt lat="43.497740380377294" lon="10.351139021674054"><ele>144.2</ele><time>2026-05-02T08:16:55Z</time></trkpt><trkpt lat="43.497748552029165" lon="10.351051225515324"><ele>143.4</ele><time>2026-05-02T08:16:56Z</time></trkpt><trkpt lat="43.49777238104311" lon="10.350891953024382"><ele>142.6</ele><time>2026-05-02T08:16:58Z</time></trkpt><trkpt lat="43.497785210667196" lon="10.350806918780973"><ele>141.8</ele><time>2026-05-02T08:16:59Z</time></trkpt><trkpt lat="43.49780964165217" lon="10.3506468012099"><ele>141.0</ele><time>2026-05-02T08:17:01Z</time></trkpt><trkpt lat="43.49783419317665" lon="10.350487937096085"><ele>139.6</ele><time>2026-05-02T08:17:03Z</time></trkpt><trkpt lat="43.49785464194846" lon="10.350323097847326"><ele>138.2</ele><time>2026-05-02T08:17:05Z</time></trkpt><trkpt lat="43.49788255935976" lon="10.35015435540782"><ele>136.8</ele><time>2026-05-02T08:17:07Z</time></trkpt><trkpt lat="43.497896574158894" lon="10.35006034069009"><ele>135.4</ele><time>2026-05-02T08:17:08Z</time></trkpt><trkpt lat="43.49791716024685" lon="10.349972942175008"><ele>134.0</ele><time>2026-05-02T08:17:09Z</time></trkpt><trkpt lat="43.4979456170073" lon="10.34988297557972"><ele>133.0</ele><time>2026-05-02T08:17:10Z</time></trkpt><trkpt lat="43.497980431703375" lon="10.349788647267594"><ele>132.0</ele><time>2026-05-02T08:17:11Z</time></trkpt><trkpt lat="43.498033514110276" lon="10.34970524593717"><ele>131.0</ele><time>2026-05-02T08:17:12Z</time></trkpt><trkpt lat="43.49809557168671" lon="10.349627826122354"><ele>130.0</ele><time>2026-05-02T08:17:13Z</time></trkpt><trkpt lat="43.49816232351201" lon="10.349545678938807"><ele>129.0</ele><time>2026-05-02T08:17:14Z</time></trkpt><trkpt lat="43.4982325478497" lon="10.349463644640355"><ele>128.0</ele><time>2026-05-02T08:17:15Z</time></trkpt><trkpt lat="43.498307020356634" lon="10.349378909277963"><ele>127.99999999999999</ele><time>2026-05-02T08:17:16Z</time></trkpt><trkpt lat="43.49838086865298" lon="10.349283208122083"><ele>128.0</ele><time>2026-05-02T08:17:17Z</time></trkpt><trkpt lat="43.498448778256574" lon="10.349199053172965"><ele>128.0</ele><time>2026-05-02T08:17:18Z</time></trkpt><trkpt lat="43.498509717033976" lon="10.34912122219954"><ele>128.0</ele><time>2026-05-02T08:17:19Z</time></trkpt><trkpt lat="43.49856791556358" lon="10.349041125398017"><ele>127.99999999999999</ele><time>2026-05-02T08:17:20Z</time></trkpt><trkpt lat="43.498624107121884" lon="10.348965685835692"><ele>128.0</ele><time>2026-05-02T08:17:21Z</time></trkpt><trkpt lat="43.498675107453266" lon="10.348877660507213"><ele>126.83333333333333</ele><time>2026-05-02T08:17:22Z</time></trkpt><trkpt lat="43.498732747250465" lon="10.34879535101681"><ele>125.66666666666666</ele><time>2026-05-02T08:17:23Z</time></trkpt><trkpt lat="43.49878305410617" lon="10.348709339601104"><ele>124.5</ele><time>2026-05-02T08:17:24Z</time></trkpt><trkpt lat="43.4988402892811" lon="10.348613616454342"><ele>123.33333333333334</ele><time>2026-05-02T08:17:25Z</time></trkpt><trkpt lat="43.49889828826496" lon="10.34851519182141"><ele>122.16666666666667</ele><time>2026-05-02T08:17:26Z</time></trkpt><trkpt lat="43.49895637991656" lon="10.348426157480166"><ele>121.0</ele><time>2026-05-02T08:17:27Z</time></trkpt><trkpt lat="43.499005216025466" lon="10.348336415399936"><ele>121.00000000000001</ele><time>2026-05-02T08:17:28Z</time></trkpt><trkpt lat="43.49904417126872" lon="10.34824750412147"><ele>121.0</ele><time>2026-05-02T08:17:29Z</time></trkpt><trkpt lat="43.49907783844799" lon="10.348136678594091"><ele>121.0</ele><time>2026-05-02T08:17:30Z</time></trkpt><trkpt lat="43.499117675507755" lon="10.348029459657111"><ele>121.0</ele><time>2026-05-02T08:17:31Z</time></trkpt><trkpt lat="43.49915404229576" lon="10.347923976761953"><ele>121.00000000000001</ele><time>2026-05-02T08:17:32Z</time></trkpt><trkpt lat="43.49917663682024" lon="10.34781467380992"><ele>121.0</ele><time>2026-05-02T08:17:33Z</time></trkpt><trkpt lat="43.499187916613614" lon="10.34769741787164"><ele>119.50000000000001</ele><time>2026-05-02T08:17:34Z</time></trkpt><trkpt lat="43.499190454140006" lon="10.347570825043714"><ele>118.0</ele><time>2026-05-02T08:17:35Z</time></trkpt><trkpt lat="43.49918761332496" lon="10.347459443510434"><ele>116.5</ele><time>2026-05-02T08:17:36Z</time></trkpt><trkpt lat="43.49919095486418" lon="10.347348735292174"><ele>115.0</ele><time>2026-05-02T08:17:37Z</time></trkpt><trkpt lat="43.49919806631347" lon="10.347225001342323"><ele>113.50000000000001</ele><time>2026-05-02T08:17:38Z</time></trkpt><trkpt lat="43.49920074416168" lon="10.347096595751838"><ele>112.0</ele><time>2026-05-02T08:17:39Z</time></trkpt><trkpt lat="43.49921132051585" lon="10.346962850811243"><ele>111.16666666666667</ele><time>2026-05-02T08:17:40Z</time></trkpt><trkpt lat="43.49920843936557" lon="10.346838686319037"><ele>110.33333333333334</ele><time>2026-05-02T08:17:41Z</time></trkpt><trkpt lat="43.499197859651375" lon="10.346719122844828"><ele>109.5</ele><time>2026-05-02T08:17:42Z</time></trkpt><trkpt lat="43.499158454283226" lon="10.34660716635988"><ele>108.66666666666666</ele><time>2026-05-02T08:17:43Z</time></trkpt><trkpt lat="43.499099933381444" lon="10.34652033423014"><ele>107.83333333333333</ele><time>2026-05-02T08:17:44Z</time></trkpt><trkpt lat="43.499025795856646" lon="10.346454713549756"><ele>107.0</ele><time>2026-05-02T08:17:45Z</time></trkpt><trkpt lat="43.49894118337435" lon="10.346397418723363"><ele>105.99999999999999</ele><time>2026-05-02T08:17:46Z</time></trkpt><trkpt lat="43.49885346613235" lon="10.346345366820486"><ele>105.0</ele><time>2026-05-02T08:17:47Z</time></trkpt><trkpt lat="43.498761868360404" lon="10.346301780525925"><ele>104.0</ele><time>2026-05-02T08:17:48Z</time></trkpt><trkpt lat="43.49867003458698" lon="10.3462919549593"><ele>103.0</ele><time>2026-05-02T08:17:49Z</time></trkpt><trkpt lat="43.498594223265144" lon="10.346323803705102"><ele>101.99999999999999</ele><time>2026-05-02T08:17:50Z</time></trkpt><trkpt lat="43.498533878769365" lon="10.346399138990062"><ele>101.0</ele><time>2026-05-02T08:17:51Z</time></trkpt><trkpt lat="43.49847761609311" lon="10.34648910254417"><ele>100.99999999999999</ele><time>2026-05-02T08:17:52Z</time></trkpt><trkpt lat="43.498437250055105" lon="10.346570384138664"><ele>101.0</ele><time>2026-05-02T08:17:53Z</time></trkpt><trkpt lat="43.49833344599224" lon="10.346671895850722"><ele>101.0</ele><time>2026-05-02T08:17:55Z</time></trkpt><trkpt lat="43.49826566182413" lon="10.34667423233106"><ele>101.0</ele><time>2026-05-02T08:17:56Z</time></trkpt><trkpt lat="43.49820940001987" lon="10.346619052157656"><ele>100.99999999999999</ele><time>2026-05-02T08:17:57Z</time></trkpt><trkpt lat="43.49816252672837" lon="10.346510210351688"><ele>101.0</ele><time>2026-05-02T08:17:58Z</time></trkpt><trkpt lat="43.49820759434479" lon="10.346408119693686"><ele>99.49999999999999</ele><time>2026-05-02T08:17:59Z</time></trkpt><trkpt lat="43.498254627722645" lon="10.346338895768247"><ele>98.0</ele><time>2026-05-02T08:18:00Z</time></trkpt><trkpt lat="43.49830208281543" lon="10.346235460436585"><ele>96.5</ele><time>2026-05-02T08:18:01Z</time></trkpt><trkpt lat="43.49834368138642" lon="10.346148751195795"><ele>95.0</ele><time>2026-05-02T08:18:02Z</time></trkpt><trkpt lat="43.49838213684027" lon="10.346054427064622"><ele>93.5</ele><time>2026-05-02T08:18:03Z</time></trkpt><trkpt lat="43.49841798105196" lon="10.345954012715527"><ele>92.0</ele><time>2026-05-02T08:18:04Z</time></trkpt><trkpt lat="43.498451151326485" lon="10.345843412973316"><ele>92.0</ele><time>2026-05-02T08:18:05Z</time></trkpt><trkpt lat="43.4984519057676" lon="10.34571342398412"><ele>92.0</ele><time>2026-05-02T08:18:06Z</time></trkpt><trkpt lat="43.49847743437711" lon="10.345580808476031"><ele>92.0</ele><time>2026-05-02T08:18:07Z</time></trkpt><trkpt lat="43.498508240861526" lon="10.345447043469084"><ele>92.0</ele><time>2026-05-02T08:18:08Z</time></trkpt><trkpt lat="43.498556327975095" lon="10.34532368191588"><ele>92.0</ele><time>2026-05-02T08:18:09Z</time></trkpt><trkpt lat="43.498603327661094" lon="10.345188037373738"><ele>90.19999999999999</ele><time>2026-05-02T08:18:10Z</time></trkpt><trkpt lat="43.49864841317213" lon="10.345051095285223"><ele>88.4</ele><time>2026-05-02T08:18:11Z</time></trkpt><trkpt lat="43.49869608330237" lon="10.34491300346132"><ele>86.6</ele><time>2026-05-02T08:18:12Z</time></trkpt><trkpt lat="43.49874262236521" lon="10.344792090894446"><ele>84.80000000000001</ele><time>2026-05-02T08:18:13Z</time></trkpt><trkpt lat="43.498789200566776" lon="10.344674277054487"><ele>83.0</ele><time>2026-05-02T08:18:14Z</time></trkpt><trkpt lat="43.498823664215095" lon="10.344532609883831"><ele>82.25</ele><time>2026-05-02T08:18:15Z</time></trkpt><trkpt lat="43.498868301301" lon="10.344386288987371"><ele>81.5</ele><time>2026-05-02T08:18:16Z</time></trkpt><trkpt lat="43.49890274640089" lon="10.344254145405163"><ele>80.75</ele><time>2026-05-02T08:18:17Z</time></trkpt><trkpt lat="43.49895815537056" lon="10.344099938030967"><ele>80.0</ele><time>2026-05-02T08:18:18Z</time></trkpt><trkpt lat="43.49901312186703" lon="10.343956444092749"><ele>78.75</ele><time>2026-05-02T08:18:19Z</time></trkpt><trkpt lat="43.49906434444199" lon="10.343810846751236"><ele>77.5</ele><time>2026-05-02T08:18:20Z</time></trkpt><trkpt lat="43.49911218025808" lon="10.343655124518778"><ele>76.25</ele><time>2026-05-02T08:18:21Z</time></trkpt><trkpt lat="43.49916477792356" lon="10.343500376940561"><ele>75.0</ele><time>2026-05-02T08:18:22Z</time></trkpt><trkpt lat="43.499216360041686" lon="10.343362535910625"><ele>75.0</ele><time>2026-05-02T08:18:23Z</time></trkpt><trkpt lat="43.49928061919436" lon="10.343230456343532"><ele>75.0</ele><time>2026-05-02T08:18:24Z</time></trkpt><trkpt lat="43.49936175791121" lon="10.343109473958691"><ele>75.0</ele><time>2026-05-02T08:18:25Z</time></trkpt><trkpt lat="43.499456504591194" lon="10.343004568586828"><ele>75.0</ele><time>2026-05-02T08:18:26Z</time></trkpt><trkpt lat="43.49955060750701" lon="10.342899901212139"><ele>73.75</ele><time>2026-05-02T08:18:27Z</time></trkpt><trkpt lat="43.4996468548441" lon="10.342789549484355"><ele>72.5</ele><time>2026-05-02T08:18:28Z</time></trkpt><trkpt lat="43.49973809400579" lon="10.34267305607814"><ele>71.25</ele><time>2026-05-02T08:18:29Z</time></trkpt><trkpt lat="43.4998288027885" lon="10.342571044601403"><ele>70.0</ele><time>2026-05-02T08:18:30Z</time></trkpt><trkpt lat="43.49992715590199" lon="10.342475509622691"><ele>70.0</ele><time>2026-05-02T08:18:31Z</time></trkpt><trkpt lat="43.500012918634525" lon="10.342388989244986"><ele>70.0</ele><time>2026-05-02T08:18:32Z</time></trkpt><trkpt lat="43.50008480820229" lon="10.342305660145342"><ele>70.0</ele><time>2026-05-02T08:18:33Z</time></trkpt><trkpt lat="43.50015977512514" lon="10.342225545649317"><ele>70.0</ele><time>2026-05-02T08:18:34Z</time></trkpt><trkpt lat="43.50023656681059" lon="10.342151288231115"><ele>70.0</ele><time>2026-05-02T08:18:35Z</time></trkpt><trkpt lat="43.50032112112864" lon="10.342087406687027"><ele>69.6</ele><time>2026-05-02T08:18:36Z</time></trkpt><trkpt lat="43.50040944470303" lon="10.342032823292623"><ele>69.2</ele><time>2026-05-02T08:18:37Z</time></trkpt><trkpt lat="43.500498434758065" lon="10.341986668630655"><ele>68.8</ele><time>2026-05-02T08:18:38Z</time></trkpt><trkpt lat="43.500584913071485" lon="10.341951443389519"><ele>68.4</ele><time>2026-05-02T08:18:39Z</time></trkpt><trkpt lat="43.50067524898422" lon="10.341924482988915"><ele>68.0</ele><time>2026-05-02T08:18:40Z</time></trkpt><trkpt lat="43.50076515799412" lon="10.34189035287231"><ele>67.8</ele><time>2026-05-02T08:18:41Z</time></trkpt><trkpt lat="43.500849030086286" lon="10.341837024725296"><ele>67.6</ele><time>2026-05-02T08:18:42Z</time></trkpt><trkpt lat="43.50092251944303" lon="10.341755313836963"><ele>67.4</ele><time>2026-05-02T08:18:43Z</time></trkpt><trkpt lat="43.50099455291277" lon="10.341671414404571"><ele>67.2</ele><time>2026-05-02T08:18:44Z</time></trkpt><trkpt lat="43.50105654970826" lon="10.341566239955556"><ele>67.0</ele><time>2026-05-02T08:18:45Z</time></trkpt><trkpt lat="43.50110350201085" lon="10.3414445142325"><ele>66.6</ele><time>2026-05-02T08:18:46Z</time></trkpt><trkpt lat="43.50114867314537" lon="10.341326361782325"><ele>66.2</ele><time>2026-05-02T08:18:47Z</time></trkpt><trkpt lat="43.50120004962432" lon="10.341210472947191"><ele>65.8</ele><time>2026-05-02T08:18:48Z</time></trkpt><trkpt lat="43.501257855466065" lon="10.341107890817137"><ele>65.4</ele><time>2026-05-02T08:18:49Z</time></trkpt><trkpt lat="43.50132258498879" lon="10.341007202955847"><ele>65.0</ele><time>2026-05-02T08:18:50Z</time></trkpt><trkpt lat="43.501394288030255" lon="10.34090905310445"><ele>64.6</ele><time>2026-05-02T08:18:51Z</time></trkpt><trkpt lat="43.50146583933808" lon="10.340809895630196"><ele>64.2</ele><time>2026-05-02T08:18:52Z</time></trkpt><trkpt lat="43.50154321805376" lon="10.3407154718502"><ele>63.8</ele><time>2026-05-02T08:18:53Z</time></trkpt><trkpt lat="43.501619375800665" lon="10.340629438093554"><ele>63.4</ele><time>2026-05-02T08:18:54Z</time></trkpt><trkpt lat="43.5017014839036" lon="10.340539677560525"><ele>63.0</ele><time>2026-05-02T08:18:55Z</time></trkpt><trkpt lat="43.501783549872805" lon="10.34045560493012"><ele>63.0</ele><time>2026-05-02T08:18:56Z</time></trkpt><trkpt lat="43.501868819593454" lon="10.340373420493588"><ele>63.0</ele><time>2026-05-02T08:18:57Z</time></trkpt><trkpt lat="43.50194879223352" lon="10.34028966200758"><ele>63.0</ele><time>2026-05-02T08:18:58Z</time></trkpt><trkpt lat="43.50203317339908" lon="10.34020332712121"><ele>63.0</ele><time>2026-05-02T08:18:59Z</time></trkpt><trkpt lat="43.5021182553711" lon="10.340118676396688"><ele>63.0</ele><time>2026-05-02T08:19:00Z</time></trkpt><trkpt lat="43.50220544343046" lon="10.340040656264131"><ele>62.0</ele><time>2026-05-02T08:19:01Z</time></trkpt><trkpt lat="43.502294009055866" lon="10.339962251869107"><ele>61.0</ele><time>2026-05-02T08:19:02Z</time></trkpt><trkpt lat="43.50239620752556" lon="10.339877847702864"><ele>60.0</ele><time>2026-05-02T08:19:03Z</time></trkpt><trkpt lat="43.502465805321805" lon="10.33980581296566"><ele>59.0</ele><time>2026-05-02T08:19:04Z</time></trkpt><trkpt lat="43.50253765875865" lon="10.339697260118315"><ele>58.0</ele><time>2026-05-02T08:19:05Z</time></trkpt><trkpt lat="43.50261381151458" lon="10.33961556589812"><ele>58.0</ele><time>2026-05-02T08:19:06Z</time></trkpt><trkpt lat="43.50269106004859" lon="10.339525098777234"><ele>58.0</ele><time>2026-05-02T08:19:07Z</time></trkpt><trkpt lat="43.502763707104165" lon="10.339436200576639"><ele>58.0</ele><time>2026-05-02T08:19:08Z</time></trkpt><trkpt lat="43.50283536010349" lon="10.339350072506758"><ele>58.0</ele><time>2026-05-02T08:19:09Z</time></trkpt><trkpt lat="43.502905795201" lon="10.339260764904955"><ele>58.0</ele><time>2026-05-02T08:19:10Z</time></trkpt><trkpt lat="43.50297251950662" lon="10.339168913090264"><ele>58.166666666666664</ele><time>2026-05-02T08:19:11Z</time></trkpt><trkpt lat="43.503050238149505" lon="10.339085350062117"><ele>58.33333333333333</ele><time>2026-05-02T08:19:12Z</time></trkpt><trkpt lat="43.50310412117271" lon="10.33900114014282"><ele>58.5</ele><time>2026-05-02T08:19:13Z</time></trkpt><trkpt lat="43.50317335223928" lon="10.338923156453221"><ele>58.66666666666667</ele><time>2026-05-02T08:19:14Z</time></trkpt><trkpt lat="43.50324075516117" lon="10.338857506627287"><ele>58.833333333333336</ele><time>2026-05-02T08:19:15Z</time></trkpt><trkpt lat="43.503316632004" lon="10.338802538717854"><ele>59.0</ele><time>2026-05-02T08:19:16Z</time></trkpt><trkpt lat="43.50339394307306" lon="10.338757268482441"><ele>59.00000000000001</ele><time>2026-05-02T08:19:17Z</time></trkpt><trkpt lat="43.50346560960627" lon="10.33871490705555"><ele>59.0</ele><time>2026-05-02T08:19:18Z</time></trkpt><trkpt lat="43.503541375213544" lon="10.338681396608328"><ele>59.0</ele><time>2026-05-02T08:19:19Z</time></trkpt><trkpt lat="43.50361668581338" lon="10.338642956587064"><ele>59.0</ele><time>2026-05-02T08:19:20Z</time></trkpt><trkpt lat="43.50368928150841" lon="10.338601733038475"><ele>59.00000000000001</ele><time>2026-05-02T08:19:21Z</time></trkpt><trkpt lat="43.50376171331361" lon="10.338557396976585"><ele>59.0</ele><time>2026-05-02T08:19:22Z</time></trkpt><trkpt lat="43.50383285187413" lon="10.338522915485887"><ele>58.333333333333336</ele><time>2026-05-02T08:19:23Z</time></trkpt><trkpt lat="43.503909324500874" lon="10.33848823536848"><ele>57.66666666666667</ele><time>2026-05-02T08:19:24Z</time></trkpt><trkpt lat="43.50397659131344" lon="10.338446116591998"><ele>57.0</ele><time>2026-05-02T08:19:25Z</time></trkpt><trkpt lat="43.504048065325286" lon="10.338409203692247"><ele>56.33333333333333</ele><time>2026-05-02T08:19:26Z</time></trkpt><trkpt lat="43.50411571059569" lon="10.338359565245755"><ele>55.666666666666664</ele><time>2026-05-02T08:19:27Z</time></trkpt><trkpt lat="43.50418068858813" lon="10.33831379770037"><ele>55.0</ele><time>2026-05-02T08:19:28Z</time></trkpt><trkpt lat="43.5042504591613" lon="10.33828159407858"><ele>54.99999999999999</ele><time>2026-05-02T08:19:29Z</time></trkpt><trkpt lat="43.50432069402826" lon="10.338245182768404"><ele>55.0</ele><time>2026-05-02T08:19:30Z</time></trkpt><trkpt lat="43.50439272528953" lon="10.338211026085693"><ele>55.0</ele><time>2026-05-02T08:19:31Z</time></trkpt><trkpt lat="43.50446028289168" lon="10.338168975257474"><ele>55.0</ele><time>2026-05-02T08:19:32Z</time></trkpt><trkpt lat="43.50453243082779" lon="10.338132438784289"><ele>54.99999999999999</ele><time>2026-05-02T08:19:33Z</time></trkpt><trkpt lat="43.50460224134163" lon="10.338096077811608"><ele>55.0</ele><time>2026-05-02T08:19:34Z</time></trkpt><trkpt lat="43.50467516283008" lon="10.338061203503365"><ele>54.33333333333333</ele><time>2026-05-02T08:19:35Z</time></trkpt><trkpt lat="43.50474218563281" lon="10.33801956691154"><ele>53.666666666666664</ele><time>2026-05-02T08:19:36Z</time></trkpt><trkpt lat="43.504815178635354" lon="10.337970003157553"><ele>53.0</ele><time>2026-05-02T08:19:37Z</time></trkpt><trkpt lat="43.50488938817698" lon="10.337928360850928"><ele>52.33333333333333</ele><time>2026-05-02T08:19:38Z</time></trkpt><trkpt lat="43.504967140078655" lon="10.337892760523902"><ele>51.666666666666664</ele><time>2026-05-02T08:19:39Z</time></trkpt><trkpt lat="43.50505355404342" lon="10.337862619537189"><ele>51.0</ele><time>2026-05-02T08:19:40Z</time></trkpt><trkpt lat="43.505154970914504" lon="10.337849831856976"><ele>51.0</ele><time>2026-05-02T08:19:41Z</time></trkpt><trkpt lat="43.50521337168066" lon="10.33777380386357"><ele>51.0</ele><time>2026-05-02T08:19:42Z</time></trkpt><trkpt lat="43.5052890634966" lon="10.337726544800207"><ele>51.0</ele><time>2026-05-02T08:19:43Z</time></trkpt><trkpt lat="43.505369980055306" lon="10.337675891747347"><ele>51.0</ele><time>2026-05-02T08:19:44Z</time></trkpt><trkpt lat="43.50545255252554" lon="10.337620680854203"><ele>51.0</ele><time>2026-05-02T08:19:45Z</time></trkpt><trkpt lat="43.50552960432679" lon="10.337554197071869"><ele>51.0</ele><time>2026-05-02T08:19:46Z</time></trkpt><trkpt lat="43.505602580895285" lon="10.337467724817149"><ele>50.0</ele><time>2026-05-02T08:19:47Z</time></trkpt><trkpt lat="43.50566752867211" lon="10.337365453909149"><ele>49.0</ele><time>2026-05-02T08:19:48Z</time></trkpt><trkpt lat="43.5057298504743" lon="10.337265392424163"><ele>48.0</ele><time>2026-05-02T08:19:49Z</time></trkpt><trkpt lat="43.505786634370956" lon="10.3371588382614"><ele>47.0</ele><time>2026-05-02T08:19:50Z</time></trkpt><trkpt lat="43.5058557429382" lon="10.33704921876231"><ele>46.0</ele><time>2026-05-02T08:19:51Z</time></trkpt><trkpt lat="43.505921526575406" lon="10.336935192640679"><ele>45.599999999999994</ele><time>2026-05-02T08:19:52Z</time></trkpt><trkpt lat="43.5059915643736" lon="10.336825336171476"><ele>45.2</ele><time>2026-05-02T08:19:53Z</time></trkpt><trkpt lat="43.506070432962616" lon="10.336727569773425"><ele>44.8</ele><time>2026-05-02T08:19:54Z</time></trkpt><trkpt lat="43.506153364007574" lon="10.336634372928055"><ele>44.400000000000006</ele><time>2026-05-02T08:19:55Z</time></trkpt><trkpt lat="43.50624528393427" lon="10.336560666135403"><ele>44.0</ele><time>2026-05-02T08:19:56Z</time></trkpt><trkpt lat="43.50634652448481" lon="10.33651147647889"><ele>43.400000000000006</ele><time>2026-05-02T08:19:57Z</time></trkpt><trkpt lat="43.50645215625681" lon="10.336478601991168"><ele>42.8</ele><time>2026-05-02T08:19:58Z</time></trkpt><trkpt lat="43.506551577148926" lon="10.33645288109323"><ele>42.2</ele><time>2026-05-02T08:19:59Z</time></trkpt><trkpt lat="43.506659284294734" lon="10.336430358737609"><ele>41.599999999999994</ele><time>2026-05-02T08:20:00Z</time></trkpt><trkpt lat="43.506753375329865" lon="10.336427141436054"><ele>41.0</ele><time>2026-05-02T08:20:01Z</time></trkpt><trkpt lat="43.50685147140305" lon="10.336416925239007"><ele>41.0</ele><time>2026-05-02T08:20:02Z</time></trkpt><trkpt lat="43.50694333848702" lon="10.336397610962651"><ele>41.0</ele><time>2026-05-02T08:20:03Z</time></trkpt><trkpt lat="43.50704350683964" lon="10.336388796398928"><ele>41.0</ele><time>2026-05-02T08:20:04Z</time></trkpt><trkpt lat="43.50713641133746" lon="10.336375899678423"><ele>41.0</ele><time>2026-05-02T08:20:05Z</time></trkpt><trkpt lat="43.507233288151845" lon="10.336356323023814"><ele>41.0</ele><time>2026-05-02T08:20:06Z</time></trkpt><trkpt lat="43.507323761429866" lon="10.336345493974243"><ele>40.8</ele><time>2026-05-02T08:20:07Z</time></trkpt><trkpt lat="43.50741607026792" lon="10.336324927778936"><ele>40.599999999999994</ele><time>2026-05-02T08:20:08Z</time></trkpt><trkpt lat="43.507507637187736" lon="10.336305213935535"><ele>40.4</ele><time>2026-05-02T08:20:09Z</time></trkpt><trkpt lat="43.50759856332338" lon="10.336273597810091"><ele>40.2</ele><time>2026-05-02T08:20:10Z</time></trkpt><trkpt lat="43.50768913548419" lon="10.336236946297724"><ele>40.0</ele><time>2026-05-02T08:20:11Z</time></trkpt><trkpt lat="43.50777623909131" lon="10.336192769909799"><ele>40.0</ele><time>2026-05-02T08:20:12Z</time></trkpt><trkpt lat="43.50786121855881" lon="10.336140266478676"><ele>40.0</ele><time>2026-05-02T08:20:13Z</time></trkpt><trkpt lat="43.50794586817262" lon="10.336079563801762"><ele>40.0</ele><time>2026-05-02T08:20:14Z</time></trkpt><trkpt lat="43.50803053226355" lon="10.336018125022221"><ele>40.0</ele><time>2026-05-02T08:20:15Z</time></trkpt><trkpt lat="43.508116862137584" lon="10.335961198347773"><ele>40.0</ele><time>2026-05-02T08:20:16Z</time></trkpt><trkpt lat="43.508203264190854" lon="10.335910512819346"><ele>39.6</ele><time>2026-05-02T08:20:17Z</time></trkpt><trkpt lat="43.5082859298259" lon="10.335821682253224"><ele>39.2</ele><time>2026-05-02T08:20:18Z</time></trkpt><trkpt lat="43.508366318413" lon="10.335745010573259"><ele>38.8</ele><time>2026-05-02T08:20:19Z</time></trkpt><trkpt lat="43.50844569351747" lon="10.335664993469848"><ele>38.4</ele><time>2026-05-02T08:20:20Z</time></trkpt><trkpt lat="43.508528558855254" lon="10.3355969240937"><ele>38.0</ele><time>2026-05-02T08:20:21Z</time></trkpt><trkpt lat="43.508603891593" lon="10.335518781425112"><ele>37.4</ele><time>2026-05-02T08:20:22Z</time></trkpt><trkpt lat="43.50868907047624" lon="10.33543757226341"><ele>36.8</ele><time>2026-05-02T08:20:23Z</time></trkpt><trkpt lat="43.50876366191058" lon="10.335348363392809"><ele>36.2</ele><time>2026-05-02T08:20:24Z</time></trkpt><trkpt lat="43.508833933698426" lon="10.335246687889162"><ele>35.6</ele><time>2026-05-02T08:20:25Z</time></trkpt><trkpt lat="43.50890240943047" lon="10.3351354212905"><ele>35.0</ele><time>2026-05-02T08:20:26Z</time></trkpt><trkpt lat="43.5089547957352" lon="10.335010122343308"><ele>33.4</ele><time>2026-05-02T08:20:27Z</time></trkpt><trkpt lat="43.509005133311895" lon="10.334880721803684"><ele>31.8</ele><time>2026-05-02T08:20:28Z</time></trkpt><trkpt lat="43.50906157736374" lon="10.334755044555065"><ele>30.200000000000003</ele><time>2026-05-02T08:20:29Z</time></trkpt><trkpt lat="43.509125935070614" lon="10.334632670566403"><ele>28.6</ele><time>2026-05-02T08:20:30Z</time></trkpt><trkpt lat="43.50919688253453" lon="10.334521693488831"><ele>27.0</ele><time>2026-05-02T08:20:31Z</time></trkpt><trkpt lat="43.50926553133767" lon="10.334425192988604"><ele>26.666666666666668</ele><time>2026-05-02T08:20:32Z</time></trkpt><trkpt lat="43.50932821619815" lon="10.334344480587884"><ele>26.333333333333336</ele><time>2026-05-02T08:20:33Z</time></trkpt><trkpt lat="43.50939107731558" lon="10.334270972015648"><ele>26.0</ele><time>2026-05-02T08:20:34Z</time></trkpt><trkpt lat="43.50945550794976" lon="10.33421042277091"><ele>25.666666666666668</ele><time>2026-05-02T08:20:35Z</time></trkpt><trkpt lat="43.509534886460486" lon="10.334166876643996"><ele>25.333333333333336</ele><time>2026-05-02T08:20:36Z</time></trkpt><trkpt lat="43.50964308416312" lon="10.334178846592428"><ele>25.0</ele><time>2026-05-02T08:20:37Z</time></trkpt><trkpt lat="43.509766387614015" lon="10.334106064183674"><ele>24.500000000000004</ele><time>2026-05-02T08:20:39Z</time></trkpt><trkpt lat="43.50979877658317" lon="10.333997331856493"><ele>24.0</ele><time>2026-05-02T08:20:40Z</time></trkpt><trkpt lat="43.5098106905856" lon="10.333900078892807"><ele>23.5</ele><time>2026-05-02T08:20:41Z</time></trkpt><trkpt lat="43.50979719557933" lon="10.33380571991526"><ele>23.0</ele><time>2026-05-02T08:20:42Z</time></trkpt><trkpt lat="43.5097648356005" lon="10.333726094722387"><ele>22.5</ele><time>2026-05-02T08:20:43Z</time></trkpt><trkpt lat="43.50968190261566" lon="10.333606648432113"><ele>22.0</ele><time>2026-05-02T08:20:45Z</time></trkpt><trkpt lat="43.50958603538787" lon="10.333596228200157"><ele>22.0</ele><time>2026-05-02T08:20:47Z</time></trkpt><trkpt lat="43.50958429564718" lon="10.333443544267546"><ele>22.0</ele><time>2026-05-02T08:20:48Z</time></trkpt><trkpt lat="43.509593433455876" lon="10.333292689431321"><ele>22.0</ele><time>2026-05-02T08:20:50Z</time></trkpt><trkpt lat="43.50959166271681" lon="10.333153911523533"><ele>22.0</ele><time>2026-05-02T08:20:52Z</time></trkpt><trkpt lat="43.509651679756146" lon="10.333069952086344"><ele>22.0</ele><time>2026-05-02T08:20:53Z</time></trkpt><trkpt lat="43.509697862521286" lon="10.33291327350311"><ele>21.833333333333332</ele><time>2026-05-02T08:20:55Z</time></trkpt><trkpt lat="43.509743624055076" lon="10.332752181052964"><ele>21.666666666666664</ele><time>2026-05-02T08:20:57Z</time></trkpt><trkpt lat="43.509767533069265" lon="10.332670214888138"><ele>21.5</ele><time>2026-05-02T08:20:58Z</time></trkpt><trkpt lat="43.509793128659325" lon="10.33258667145158"><ele>21.333333333333332</ele><time>2026-05-02T08:20:59Z</time></trkpt><trkpt lat="43.509820879060406" lon="10.33250479263817"><ele>21.166666666666668</ele><time>2026-05-02T08:21:00Z</time></trkpt><trkpt lat="43.50985125591191" lon="10.332422537105415"><ele>21.0</ele><time>2026-05-02T08:21:01Z</time></trkpt><trkpt lat="43.50988317429512" lon="10.332344413077712"><ele>21.166666666666668</ele><time>2026-05-02T08:21:02Z</time></trkpt><trkpt lat="43.50994481375179" lon="10.332186698511011"><ele>21.333333333333332</ele><time>2026-05-02T08:21:04Z</time></trkpt><trkpt lat="43.50997020121674" lon="10.332097890196051"><ele>21.5</ele><time>2026-05-02T08:21:05Z</time></trkpt><trkpt lat="43.50999878684028" lon="10.33200898599695"><ele>21.666666666666664</ele><time>2026-05-02T08:21:06Z</time></trkpt><trkpt lat="43.510029216117616" lon="10.331918947861299"><ele>21.833333333333332</ele><time>2026-05-02T08:21:07Z</time></trkpt><trkpt lat="43.51006367873658" lon="10.331835886578594"><ele>22.0</ele><time>2026-05-02T08:21:08Z</time></trkpt><trkpt lat="43.510098551672" lon="10.33175078406578"><ele>22.0</ele><time>2026-05-02T08:21:09Z</time></trkpt><trkpt lat="43.51013299967196" lon="10.331662107857976"><ele>22.0</ele><time>2026-05-02T08:21:10Z</time></trkpt><trkpt lat="43.510169013590705" lon="10.33157715689535"><ele>22.0</ele><time>2026-05-02T08:21:11Z</time></trkpt><trkpt lat="43.51022029444071" lon="10.331496647259247"><ele>22.0</ele><time>2026-05-02T08:21:12Z</time></trkpt><trkpt lat="43.51024919108383" lon="10.331412371977397"><ele>22.0</ele><time>2026-05-02T08:21:13Z</time></trkpt><trkpt lat="43.51028360254957" lon="10.331318769255853"><ele>22.0</ele><time>2026-05-02T08:21:14Z</time></trkpt><trkpt lat="43.51032300049361" lon="10.331233265384403"><ele>22.0</ele><time>2026-05-02T08:21:15Z</time></trkpt><trkpt lat="43.51036479004773" lon="10.331149989153529"><ele>21.666666666666664</ele><time>2026-05-02T08:21:16Z</time></trkpt><trkpt lat="43.51041042110551" lon="10.331065131939377"><ele>21.333333333333332</ele><time>2026-05-02T08:21:17Z</time></trkpt><trkpt lat="43.510463377227545" lon="10.330991862013015"><ele>21.0</ele><time>2026-05-02T08:21:18Z</time></trkpt><trkpt lat="43.51050602142579" lon="10.330910446044678"><ele>20.666666666666668</ele><time>2026-05-02T08:21:19Z</time></trkpt><trkpt lat="43.51053863352106" lon="10.330813220124664"><ele>20.333333333333336</ele><time>2026-05-02T08:21:20Z</time></trkpt><trkpt lat="43.51058480899699" lon="10.330732008070806"><ele>20.0</ele><time>2026-05-02T08:21:21Z</time></trkpt><trkpt lat="43.51062923065704" lon="10.33065289589778"><ele>20.0</ele><time>2026-05-02T08:21:22Z</time></trkpt><trkpt lat="43.51066420448026" lon="10.330573025710013"><ele>20.0</ele><time>2026-05-02T08:21:23Z</time></trkpt><trkpt lat="43.51070421218097" lon="10.33048478403321"><ele>20.0</ele><time>2026-05-02T08:21:24Z</time></trkpt><trkpt lat="43.5107512636153" lon="10.33040043483295"><ele>20.0</ele><time>2026-05-02T08:21:25Z</time></trkpt><trkpt lat="43.51079998640272" lon="10.330320170976764"><ele>20.0</ele><time>2026-05-02T08:21:26Z</time></trkpt><trkpt lat="43.51084088820746" lon="10.330236815439095"><ele>20.0</ele><time>2026-05-02T08:21:27Z</time></trkpt><trkpt lat="43.51088190418979" lon="10.330156842985017"><ele>20.0</ele><time>2026-05-02T08:21:28Z</time></trkpt><trkpt lat="43.510925089741036" lon="10.330077339924568"><ele>20.0</ele><time>2026-05-02T08:21:29Z</time></trkpt><trkpt lat="43.51096216766327" lon="10.329991671211333"><ele>20.0</ele><time>2026-05-02T08:21:30Z</time></trkpt><trkpt lat="43.511005483653896" lon="10.329916325438155"><ele>20.0</ele><time>2026-05-02T08:21:31Z</time></trkpt><trkpt lat="43.511046145114484" lon="10.329844002669963"><ele>20.0</ele><time>2026-05-02T08:21:32Z</time></trkpt><trkpt lat="43.51108961954418" lon="10.329768844065677"><ele>20.0</ele><time>2026-05-02T08:21:33Z</time></trkpt><trkpt lat="43.511130073421505" lon="10.329688596532366"><ele>20.0</ele><time>2026-05-02T08:21:34Z</time></trkpt><trkpt lat="43.51116738118758" lon="10.329612344180159"><ele>20.0</ele><time>2026-05-02T08:21:35Z</time></trkpt><trkpt lat="43.51121327893216" lon="10.329541632984842"><ele>20.0</ele><time>2026-05-02T08:21:36Z</time></trkpt><trkpt lat="43.511254106585405" lon="10.329464106474386"><ele>20.0</ele><time>2026-05-02T08:21:37Z</time></trkpt><trkpt lat="43.51129331927853" lon="10.329385718192274"><ele>20.0</ele><time>2026-05-02T08:21:38Z</time></trkpt><trkpt lat="43.51133378173492" lon="10.329307631217022"><ele>20.0</ele><time>2026-05-02T08:21:39Z</time></trkpt><trkpt lat="43.51137361703654" lon="10.329233242173997"><ele>20.0</ele><time>2026-05-02T08:21:40Z</time></trkpt><trkpt lat="43.51141720678364" lon="10.329155583129593"><ele>20.0</ele><time>2026-05-02T08:21:41Z</time></trkpt><trkpt lat="43.51145925831975" lon="10.329077550805055"><ele>20.0</ele><time>2026-05-02T08:21:42Z</time></trkpt><trkpt lat="43.51149987353619" lon="10.328997138912632"><ele>20.0</ele><time>2026-05-02T08:21:43Z</time></trkpt><trkpt lat="43.51154470776409" lon="10.328922898504404"><ele>20.0</ele><time>2026-05-02T08:21:44Z</time></trkpt><trkpt lat="43.51158545994682" lon="10.328846375767482"><ele>20.0</ele><time>2026-05-02T08:21:45Z</time></trkpt><trkpt lat="43.5116287619049" lon="10.328769348358716"><ele>20.0</ele><time>2026-05-02T08:21:46Z</time></trkpt><trkpt lat="43.511672794130085" lon="10.328693861157737"><ele>20.0</ele><time>2026-05-02T08:21:47Z</time></trkpt><trkpt lat="43.51171103747458" lon="10.328613269235113"><ele>20.0</ele><time>2026-05-02T08:21:48Z</time></trkpt><trkpt lat="43.51175348475715" lon="10.328530759255417"><ele>20.0</ele><time>2026-05-02T08:21:49Z</time></trkpt><trkpt lat="43.511798549953454" lon="10.328451976241046"><ele>19.428571428571427</ele><time>2026-05-02T08:21:50Z</time></trkpt><trkpt lat="43.51184104058814" lon="10.328373193054073"><ele>18.857142857142858</ele><time>2026-05-02T08:21:51Z</time></trkpt><trkpt lat="43.51188750619955" lon="10.328290467271517"><ele>18.285714285714285</ele><time>2026-05-02T08:21:52Z</time></trkpt><trkpt lat="43.511932280841265" lon="10.328210335596083"><ele>17.714285714285715</ele><time>2026-05-02T08:21:53Z</time></trkpt><trkpt lat="43.511976737513926" lon="10.328127720421561"><ele>17.142857142857142</ele><time>2026-05-02T08:21:54Z</time></trkpt><trkpt lat="43.51202128774935" lon="10.328046813136105"><ele>16.57142857142857</ele><time>2026-05-02T08:21:55Z</time></trkpt><trkpt lat="43.51206239725068" lon="10.327964468888583"><ele>16.0</ele><time>2026-05-02T08:21:56Z</time></trkpt><trkpt lat="43.51210087766324" lon="10.327876098699145"><ele>15.714285714285714</ele><time>2026-05-02T08:21:57Z</time></trkpt><trkpt lat="43.512149797510524" lon="10.32780433952781"><ele>15.428571428571427</ele><time>2026-05-02T08:21:58Z</time></trkpt><trkpt lat="43.512201138580934" lon="10.3277330779805"><ele>15.142857142857142</ele><time>2026-05-02T08:21:59Z</time></trkpt><trkpt lat="43.51225107607488" lon="10.32765875066763"><ele>14.857142857142858</ele><time>2026-05-02T08:22:00Z</time></trkpt><trkpt lat="43.51229914429274" lon="10.327589979087131"><ele>14.571428571428571</ele><time>2026-05-02T08:22:01Z</time></trkpt><trkpt lat="43.512346910469496" lon="10.327518627477318"><ele>14.285714285714285</ele><time>2026-05-02T08:22:02Z</time></trkpt><trkpt lat="43.5124027979113" lon="10.32746613023939"><ele>14.0</ele><time>2026-05-02T08:22:03Z</time></trkpt><trkpt lat="43.51245282859117" lon="10.327397734415051"><ele>14.000000000000002</ele><time>2026-05-02T08:22:04Z</time></trkpt><trkpt lat="43.5125027391919" lon="10.327322594235087"><ele>14.0</ele><time>2026-05-02T08:22:05Z</time></trkpt><trkpt lat="43.51255886839888" lon="10.327254069893312"><ele>14.0</ele><time>2026-05-02T08:22:06Z</time></trkpt><trkpt lat="43.51261748057179" lon="10.327180195741052"><ele>14.0</ele><time>2026-05-02T08:22:07Z</time></trkpt><trkpt lat="43.512680901044675" lon="10.32710527049244"><ele>14.000000000000002</ele><time>2026-05-02T08:22:08Z</time></trkpt><trkpt lat="43.51275025194032" lon="10.327032901581942"><ele>14.0</ele><time>2026-05-02T08:22:09Z</time></trkpt><trkpt lat="43.51282126444238" lon="10.326958453802238"><ele>13.2</ele><time>2026-05-02T08:22:10Z</time></trkpt><trkpt lat="43.512891708232125" lon="10.326874874264208"><ele>12.399999999999999</ele><time>2026-05-02T08:22:11Z</time></trkpt><trkpt lat="43.51296827555898" lon="10.326795549122979"><ele>11.6</ele><time>2026-05-02T08:22:12Z</time></trkpt><trkpt lat="43.51304955660759" lon="10.326718782743475"><ele>10.8</ele><time>2026-05-02T08:22:13Z</time></trkpt><trkpt lat="43.51313348620804" lon="10.3266498662997"><ele>10.0</ele><time>2026-05-02T08:22:14Z</time></trkpt><trkpt lat="43.51322079601239" lon="10.32658336075122"><ele>9.8</ele><time>2026-05-02T08:22:15Z</time></trkpt><trkpt lat="43.513305058823654" lon="10.326516290661925"><ele>9.6</ele><time>2026-05-02T08:22:16Z</time></trkpt><trkpt lat="43.513385904291226" lon="10.32645077375871"><ele>9.4</ele><time>2026-05-02T08:22:17Z</time></trkpt><trkpt lat="43.51346302210413" lon="10.326386744760226"><ele>9.2</ele><time>2026-05-02T08:22:18Z</time></trkpt><trkpt lat="43.513541601044736" lon="10.326333156919572"><ele>9.0</ele><time>2026-05-02T08:22:19Z</time></trkpt><trkpt lat="43.51362053992354" lon="10.32628658430876"><ele>9.0</ele><time>2026-05-02T08:22:20Z</time></trkpt><trkpt lat="43.51369487506435" lon="10.326244146453861"><ele>9.0</ele><time>2026-05-02T08:22:21Z</time></trkpt><trkpt lat="43.5137678318868" lon="10.326189835593391"><ele>9.0</ele><time>2026-05-02T08:22:22Z</time></trkpt><trkpt lat="43.5138443331029" lon="10.32614503357198"><ele>9.0</ele><time>2026-05-02T08:22:23Z</time></trkpt><trkpt lat="43.51391263724741" lon="10.3260938606957"><ele>9.0</ele><time>2026-05-02T08:22:24Z</time></trkpt><trkpt lat="43.513982406333966" lon="10.32606456417107"><ele>9.0</ele><time>2026-05-02T08:22:25Z</time></trkpt><trkpt lat="43.514044897454966" lon="10.326031462147279"><ele>8.5</ele><time>2026-05-02T08:22:26Z</time></trkpt><trkpt lat="43.51410309558575" lon="10.325998086869657"><ele>8.0</ele><time>2026-05-02T08:22:27Z</time></trkpt><trkpt lat="43.51420969571071" lon="10.325938167739324"><ele>7.5</ele><time>2026-05-02T08:22:29Z</time></trkpt><trkpt lat="43.51432241017686" lon="10.32587792470235"><ele>7.0</ele><time>2026-05-02T08:22:31Z</time></trkpt><trkpt lat="43.51438308489792" lon="10.325844620265023"><ele>6.5</ele><time>2026-05-02T08:22:32Z</time></trkpt><trkpt lat="43.5144458260108" lon="10.325810712381674"><ele>6.0</ele><time>2026-05-02T08:22:33Z</time></trkpt><trkpt lat="43.51450893518039" lon="10.325779111538694"><ele>6.333333333333333</ele><time>2026-05-02T08:22:34Z</time></trkpt><trkpt lat="43.51457156787147" lon="10.32574358161087"><ele>6.666666666666666</ele><time>2026-05-02T08:22:35Z</time></trkpt><trkpt lat="43.514633019682805" lon="10.32570242664085"><ele>7.0</ele><time>2026-05-02T08:22:36Z</time></trkpt><trkpt lat="43.514693051401295" lon="10.32567178818877"><ele>7.333333333333333</ele><time>2026-05-02T08:22:37Z</time></trkpt><trkpt lat="43.5147549759979" lon="10.325638564086981"><ele>7.666666666666666</ele><time>2026-05-02T08:22:38Z</time></trkpt><trkpt lat="43.514870272007194" lon="10.325566280415268"><ele>8.0</ele><time>2026-05-02T08:22:40Z</time></trkpt><trkpt lat="43.51498344950895" lon="10.325498811751098"><ele>8.0</ele><time>2026-05-02T08:22:42Z</time></trkpt><trkpt lat="43.5150954986063" lon="10.325434210734986"><ele>8.0</ele><time>2026-05-02T08:22:44Z</time></trkpt><trkpt lat="43.515208301649196" lon="10.325374692658768"><ele>8.0</ele><time>2026-05-02T08:22:46Z</time></trkpt><trkpt lat="43.51531926105939" lon="10.325309507654522"><ele>8.0</ele><time>2026-05-02T08:22:48Z</time></trkpt><trkpt lat="43.51542478084423" lon="10.325244294313627"><ele>8.833333333333332</ele><time>2026-05-02T08:22:50Z</time></trkpt><trkpt lat="43.515518476051994" lon="10.325178714115673"><ele>9.666666666666666</ele><time>2026-05-02T08:22:52Z</time></trkpt><trkpt lat="43.51560051371881" lon="10.325132579143663"><ele>10.5</ele><time>2026-05-02T08:22:54Z</time></trkpt><trkpt lat="43.51567487216548" lon="10.325107384663337"><ele>11.333333333333332</ele><time>2026-05-02T08:22:56Z</time></trkpt><trkpt lat="43.515753821780834" lon="10.325100630045734"><ele>12.166666666666666</ele><time>2026-05-02T08:22:58Z</time></trkpt><trkpt lat="43.51583284532496" lon="10.3250770560446"><ele>13.0</ele><time>2026-05-02T08:23:00Z</time></trkpt><trkpt lat="43.51591013384197" lon="10.325064082558582"><ele>13.0</ele><time>2026-05-02T08:23:02Z</time></trkpt><trkpt lat="43.515993069099274" lon="10.325062739654546"><ele>13.0</ele><time>2026-05-02T08:23:04Z</time></trkpt><trkpt lat="43.51607154871562" lon="10.325057065561845"><ele>13.0</ele><time>2026-05-02T08:23:06Z</time></trkpt><trkpt lat="43.5161349792144" lon="10.325059732654626"><ele>13.0</ele><time>2026-05-02T08:23:08Z</time></trkpt><trkpt lat="43.51621749714068" lon="10.325033032373652"><ele>13.0</ele><time>2026-05-02T08:23:11Z</time></trkpt><trkpt lat="43.5162829306654" lon="10.325023988353538"><ele>13.0</ele><time>2026-05-02T08:23:13Z</time></trkpt><trkpt lat="43.51635044791463" lon="10.325038000449082"><ele>13.0</ele><time>2026-05-02T08:23:15Z</time></trkpt><trkpt lat="43.516436620582475" lon="10.325029624433114"><ele>13.0</ele><time>2026-05-02T08:23:18Z</time></trkpt><trkpt lat="43.51649940135263" lon="10.325021716363707"><ele>13.0</ele><time>2026-05-02T08:23:20Z</time></trkpt><trkpt lat="43.51657087881432" lon="10.3250120894083"><ele>13.0</ele><time>2026-05-02T08:23:22Z</time></trkpt><trkpt lat="43.51663799352635" lon="10.325000601303685"><ele>13.0</ele><time>2026-05-02T08:23:24Z</time></trkpt><trkpt lat="43.516702608226865" lon="10.32498954789087"><ele>13.0</ele><time>2026-05-02T08:23:26Z</time></trkpt><trkpt lat="43.51678709691338" lon="10.32497513317494"><ele>13.0</ele><time>2026-05-02T08:23:29Z</time></trkpt><trkpt lat="43.516873493624416" lon="10.324960392930699"><ele>13.0</ele><time>2026-05-02T08:23:32Z</time></trkpt><trkpt lat="43.51694124119063" lon="10.324948834443413"><ele>12.999999999999998</ele><time>2026-05-02T08:23:34Z</time></trkpt><trkpt lat="43.51700826293952" lon="10.324937904717816"><ele>13.0</ele><time>2026-05-02T08:23:36Z</time></trkpt><trkpt lat="43.51707777854336" lon="10.324927056190683"><ele>13.0</ele><time>2026-05-02T08:23:38Z</time></trkpt><trkpt lat="43.51716149390219" lon="10.324912947592226"><ele>13.0</ele><time>2026-05-02T08:23:40Z</time></trkpt><trkpt lat="43.51727140353782" lon="10.324888222220848"><ele>12.999999999999998</ele><time>2026-05-02T08:23:42Z</time></trkpt><trkpt lat="43.51736204662395" lon="10.324815473267195"><ele>13.0</ele><time>2026-05-02T08:23:44Z</time></trkpt><trkpt lat="43.517473340758286" lon="10.324793670727932"><ele>13.0</ele><time>2026-05-02T08:23:46Z</time></trkpt><trkpt lat="43.51758757671665" lon="10.324753855589826"><ele>13.0</ele><time>2026-05-02T08:23:48Z</time></trkpt><trkpt lat="43.51770062434531" lon="10.324695691576906"><ele>13.0</ele><time>2026-05-02T08:23:50Z</time></trkpt><trkpt lat="43.517804389421734" lon="10.324622223749317"><ele>13.0</ele><time>2026-05-02T08:23:52Z</time></trkpt><trkpt lat="43.517865821625726" lon="10.324594448886344"><ele>13.0</ele><time>2026-05-02T08:23:53Z</time></trkpt><trkpt lat="43.51799084870672" lon="10.324588641392802"><ele>12.600000000000001</ele><time>2026-05-02T08:23:55Z</time></trkpt><trkpt lat="43.518113612259704" lon="10.324534915198623"><ele>12.200000000000001</ele><time>2026-05-02T08:23:57Z</time></trkpt><trkpt lat="43.51816956812896" lon="10.324489852284554"><ele>11.8</ele><time>2026-05-02T08:23:58Z</time></trkpt><trkpt lat="43.5182928005789" lon="10.324446150452635"><ele>11.4</ele><time>2026-05-02T08:24:00Z</time></trkpt><trkpt lat="43.5183555954849" lon="10.324418935599695"><ele>11.0</ele><time>2026-05-02T08:24:01Z</time></trkpt><trkpt lat="43.51841921983536" lon="10.324393746226379"><ele>11.0</ele><time>2026-05-02T08:24:02Z</time></trkpt><trkpt lat="43.51847875235688" lon="10.324363143711835"><ele>11.0</ele><time>2026-05-02T08:24:03Z</time></trkpt><trkpt lat="43.518546791921295" lon="10.324336601217837"><ele>11.0</ele><time>2026-05-02T08:24:04Z</time></trkpt><trkpt lat="43.51861592398703" lon="10.324320589889567"><ele>11.0</ele><time>2026-05-02T08:24:05Z</time></trkpt><trkpt lat="43.51868300094309" lon="10.324291033016193"><ele>11.0</ele><time>2026-05-02T08:24:06Z</time></trkpt><trkpt lat="43.518746968690735" lon="10.324263555416666"><ele>11.0</ele><time>2026-05-02T08:24:07Z</time></trkpt><trkpt lat="43.51881233345887" lon="10.324238895671131"><ele>11.0</ele><time>2026-05-02T08:24:08Z</time></trkpt><trkpt lat="43.51887744668242" lon="10.324206416044698"><ele>11.0</ele><time>2026-05-02T08:24:09Z</time></trkpt><trkpt lat="43.518943339826365" lon="10.32418319786393"><ele>11.0</ele><time>2026-05-02T08:24:10Z</time></trkpt><trkpt lat="43.51900969405595" lon="10.324171549372803"><ele>11.0</ele><time>2026-05-02T08:24:11Z</time></trkpt><trkpt lat="43.51907592653862" lon="10.324156964229672"><ele>11.0</ele><time>2026-05-02T08:24:12Z</time></trkpt><trkpt lat="43.51913853783754" lon="10.324127192795673"><ele>11.0</ele><time>2026-05-02T08:24:13Z</time></trkpt><trkpt lat="43.51920520399582" lon="10.324100662827052"><ele>11.0</ele><time>2026-05-02T08:24:14Z</time></trkpt><trkpt lat="43.51927291153553" lon="10.324085461812505"><ele>11.0</ele><time>2026-05-02T08:24:15Z</time></trkpt><trkpt lat="43.519341571882656" lon="10.324085108252854"><ele>11.0</ele><time>2026-05-02T08:24:16Z</time></trkpt><trkpt lat="43.51940825204256" lon="10.32410601219434"><ele>11.0</ele><time>2026-05-02T08:24:17Z</time></trkpt><trkpt lat="43.519468701596985" lon="10.324131829449973"><ele>11.0</ele><time>2026-05-02T08:24:18Z</time></trkpt><trkpt lat="43.51953670367866" lon="10.324150387288974"><ele>11.0</ele><time>2026-05-02T08:24:19Z</time></trkpt><trkpt lat="43.51960024970536" lon="10.324180860653469"><ele>11.0</ele><time>2026-05-02T08:24:20Z</time></trkpt><trkpt lat="43.519662399887864" lon="10.32420605408934"><ele>11.0</ele><time>2026-05-02T08:24:21Z</time></trkpt><trkpt lat="43.51972604230649" lon="10.324239603544255"><ele>11.0</ele><time>2026-05-02T08:24:22Z</time></trkpt><trkpt lat="43.51978863603882" lon="10.324270355932365"><ele>11.0</ele><time>2026-05-02T08:24:23Z</time></trkpt><trkpt lat="43.51985135586592" lon="10.324298407270506"><ele>11.0</ele><time>2026-05-02T08:24:24Z</time></trkpt><trkpt lat="43.519914081448086" lon="10.324320991643138"><ele>11.0</ele><time>2026-05-02T08:24:25Z</time></trkpt><trkpt lat="43.51997697789221" lon="10.324347935925463"><ele>11.0</ele><time>2026-05-02T08:24:26Z</time></trkpt><trkpt lat="43.52004043226586" lon="10.324370081548048"><ele>11.0</ele><time>2026-05-02T08:24:27Z</time></trkpt><trkpt lat="43.52010240064478" lon="10.32439559340776"><ele>11.0</ele><time>2026-05-02T08:24:28Z</time></trkpt><trkpt lat="43.52016469679577" lon="10.32441655786657"><ele>11.0</ele><time>2026-05-02T08:24:29Z</time></trkpt><trkpt lat="43.52022748808026" lon="10.324438405518475"><ele>11.0</ele><time>2026-05-02T08:24:30Z</time></trkpt><trkpt lat="43.5202913809207" lon="10.32445858029422"><ele>11.0</ele><time>2026-05-02T08:24:31Z</time></trkpt><trkpt lat="43.52035625289873" lon="10.32446448596172"><ele>11.0</ele><time>2026-05-02T08:24:32Z</time></trkpt><trkpt lat="43.52042017964171" lon="10.324450255067008"><ele>11.0</ele><time>2026-05-02T08:24:33Z</time></trkpt><trkpt lat="43.52048370511756" lon="10.324438030112834"><ele>11.0</ele><time>2026-05-02T08:24:34Z</time></trkpt><trkpt lat="43.520546149146426" lon="10.324422938819685"><ele>11.0</ele><time>2026-05-02T08:24:35Z</time></trkpt><trkpt lat="43.520611526258605" lon="10.324406048589537"><ele>11.0</ele><time>2026-05-02T08:24:36Z</time></trkpt><trkpt lat="43.52067660358985" lon="10.324389714467216"><ele>11.428571428571429</ele><time>2026-05-02T08:24:37Z</time></trkpt><trkpt lat="43.52074132964667" lon="10.324371749512853"><ele>11.857142857142858</ele><time>2026-05-02T08:24:38Z</time></trkpt><trkpt lat="43.520805645296676" lon="10.324347452830274"><ele>12.285714285714285</ele><time>2026-05-02T08:24:39Z</time></trkpt><trkpt lat="43.52086932990109" lon="10.324325385686574"><ele>12.714285714285715</ele><time>2026-05-02T08:24:40Z</time></trkpt><trkpt lat="43.52093393338958" lon="10.324303938112218"><ele>13.142857142857142</ele><time>2026-05-02T08:24:41Z</time></trkpt><trkpt lat="43.52099912923357" lon="10.324280826603113"><ele>13.571428571428571</ele><time>2026-05-02T08:24:42Z</time></trkpt><trkpt lat="43.521065103622696" lon="10.324258554023233"><ele>14.0</ele><time>2026-05-02T08:24:43Z</time></trkpt><trkpt lat="43.521129148694705" lon="10.32423278603594"><ele>14.0</ele><time>2026-05-02T08:24:44Z</time></trkpt><trkpt lat="43.521194600868384" lon="10.324210842131325"><ele>14.0</ele><time>2026-05-02T08:24:45Z</time></trkpt><trkpt lat="43.52125800531313" lon="10.324186865232388"><ele>14.0</ele><time>2026-05-02T08:24:46Z</time></trkpt><trkpt lat="43.52132154800324" lon="10.324156135054311"><ele>14.0</ele><time>2026-05-02T08:24:47Z</time></trkpt><trkpt lat="43.52138500844611" lon="10.324124730852752"><ele>14.0</ele><time>2026-05-02T08:24:48Z</time></trkpt><trkpt lat="43.52144901809694" lon="10.324093661698454"><ele>14.0</ele><time>2026-05-02T08:24:49Z</time></trkpt><trkpt lat="43.521511856799265" lon="10.32406164362038"><ele>14.0</ele><time>2026-05-02T08:24:50Z</time></trkpt><trkpt lat="43.52158416528495" lon="10.324013552680311"><ele>13.666666666666668</ele><time>2026-05-02T08:24:51Z</time></trkpt><trkpt lat="43.52169767188364" lon="10.323946728565032"><ele>13.333333333333334</ele><time>2026-05-02T08:24:53Z</time></trkpt><trkpt lat="43.52176409721175" lon="10.323914330963833"><ele>13.0</ele><time>2026-05-02T08:24:54Z</time></trkpt><trkpt lat="43.521825566945665" lon="10.32387811390562"><ele>12.666666666666668</ele><time>2026-05-02T08:24:55Z</time></trkpt><trkpt lat="43.5218864225146" lon="10.323843539275613"><ele>12.333333333333334</ele><time>2026-05-02T08:24:56Z</time></trkpt><trkpt lat="43.52194863866166" lon="10.323812158289904"><ele>12.0</ele><time>2026-05-02T08:24:57Z</time></trkpt><trkpt lat="43.522012007877485" lon="10.323784493108885"><ele>12.285714285714285</ele><time>2026-05-02T08:24:58Z</time></trkpt><trkpt lat="43.52206767244172" lon="10.323739510622755"><ele>12.571428571428571</ele><time>2026-05-02T08:24:59Z</time></trkpt><trkpt lat="43.522127890491106" lon="10.323702498563339"><ele>12.857142857142858</ele><time>2026-05-02T08:25:00Z</time></trkpt><trkpt lat="43.522187964660866" lon="10.323668525934389"><ele>13.142857142857142</ele><time>2026-05-02T08:25:01Z</time></trkpt><trkpt lat="43.52225030285422" lon="10.323646316241351"><ele>13.428571428571429</ele><time>2026-05-02T08:25:02Z</time></trkpt><trkpt lat="43.522307809787634" lon="10.323602695333268"><ele>13.714285714285714</ele><time>2026-05-02T08:25:03Z</time></trkpt><trkpt lat="43.52236898544227" lon="10.323571370701446"><ele>14.0</ele><time>2026-05-02T08:25:04Z</time></trkpt><trkpt lat="43.52243023869865" lon="10.323534665012163"><ele>14.0</ele><time>2026-05-02T08:25:05Z</time></trkpt><trkpt lat="43.52248995824958" lon="10.323496130469875"><ele>14.0</ele><time>2026-05-02T08:25:06Z</time></trkpt><trkpt lat="43.522551126124775" lon="10.323471168554022"><ele>14.0</ele><time>2026-05-02T08:25:07Z</time></trkpt><trkpt lat="43.52261420752242" lon="10.32343871329528"><ele>14.0</ele><time>2026-05-02T08:25:08Z</time></trkpt><trkpt lat="43.52267848080241" lon="10.323410944476246"><ele>14.0</ele><time>2026-05-02T08:25:09Z</time></trkpt><trkpt lat="43.52273823284956" lon="10.32337486405755"><ele>14.0</ele><time>2026-05-02T08:25:10Z</time></trkpt><trkpt lat="43.52279856104791" lon="10.323335391961807"><ele>14.0</ele><time>2026-05-02T08:25:11Z</time></trkpt><trkpt lat="43.52285920164671" lon="10.32329780735807"><ele>14.285714285714285</ele><time>2026-05-02T08:25:12Z</time></trkpt><trkpt lat="43.522917770807865" lon="10.323265910246183"><ele>14.571428571428571</ele><time>2026-05-02T08:25:13Z</time></trkpt><trkpt lat="43.52297811601633" lon="10.323232205038137"><ele>14.857142857142858</ele><time>2026-05-02T08:25:14Z</time></trkpt><trkpt lat="43.52303784237649" lon="10.323197209119561"><ele>15.142857142857142</ele><time>2026-05-02T08:25:15Z</time></trkpt><trkpt lat="43.52309853114414" lon="10.323162664666611"><ele>15.428571428571427</ele><time>2026-05-02T08:25:16Z</time></trkpt><trkpt lat="43.52315946550286" lon="10.323129070523574"><ele>15.714285714285714</ele><time>2026-05-02T08:25:17Z</time></trkpt><trkpt lat="43.52322195344265" lon="10.32310166522094"><ele>16.0</ele><time>2026-05-02T08:25:18Z</time></trkpt><trkpt lat="43.523284828263044" lon="10.323075935373462"><ele>15.857142857142856</ele><time>2026-05-02T08:25:19Z</time></trkpt><trkpt lat="43.523348557381325" lon="10.323055785457607"><ele>15.714285714285712</ele><time>2026-05-02T08:25:20Z</time></trkpt><trkpt lat="43.523410478920205" lon="10.323033057000352"><ele>15.571428571428571</ele><time>2026-05-02T08:25:21Z</time></trkpt><trkpt lat="43.52347341472464" lon="10.323016966478935"><ele>15.428571428571427</ele><time>2026-05-02T08:25:22Z</time></trkpt><trkpt lat="43.523536679800195" lon="10.323005258947868"><ele>15.285714285714285</ele><time>2026-05-02T08:25:23Z</time></trkpt><trkpt lat="43.523601721964575" lon="10.32299787244764"><ele>15.142857142857142</ele><time>2026-05-02T08:25:24Z</time></trkpt><trkpt lat="43.52366419309227" lon="10.322983892168274"><ele>15.0</ele><time>2026-05-02T08:25:25Z</time></trkpt><trkpt lat="43.52373397659338" lon="10.322982612516181"><ele>15.0</ele><time>2026-05-02T08:25:26Z</time></trkpt><trkpt lat="43.523852877872294" lon="10.322974422699989"><ele>15.0</ele><time>2026-05-02T08:25:27.999Z</time></trkpt><trkpt lat="43.52391732543735" lon="10.322979541492753"><ele>15.0</ele><time>2026-05-02T08:25:28.999Z</time></trkpt><trkpt lat="43.52398032085801" lon="10.32298625521993"><ele>15.0</ele><time>2026-05-02T08:25:29.999Z</time></trkpt><trkpt lat="43.52409241575361" lon="10.322985795537717"><ele>15.0</ele><time>2026-05-02T08:25:31.999Z</time></trkpt><trkpt lat="43.524162761024684" lon="10.323019539542939"><ele>15.0</ele><time>2026-05-02T08:25:32.999Z</time></trkpt><trkpt lat="43.52425495052401" lon="10.323024074722563"><ele>15.0</ele><time>2026-05-02T08:25:34.999Z</time></trkpt><trkpt lat="43.52431974259367" lon="10.323032642070649"><ele>15.0</ele><time>2026-05-02T08:25:36.999Z</time></trkpt><trkpt lat="43.52441030029544" lon="10.32306124276489"><ele>15.0</ele><time>2026-05-02T08:26:09Z</time></trkpt><trkpt lat="43.52447812164706" lon="10.323071213752584"><ele>15.0</ele><time>2026-05-02T08:26:11Z</time></trkpt><trkpt lat="43.524554934177715" lon="10.323078490396984"><ele>15.0</ele><time>2026-05-02T08:26:13Z</time></trkpt><trkpt lat="43.524642188262305" lon="10.323054301719187"><ele>15.0</ele><time>2026-05-02T08:26:15Z</time></trkpt><trkpt lat="43.52474515033306" lon="10.323035454289162"><ele>15.5</ele><time>2026-05-02T08:26:17Z</time></trkpt><trkpt lat="43.52485209598122" lon="10.323001261904576"><ele>16.0</ele><time>2026-05-02T08:26:19Z</time></trkpt><trkpt lat="43.52497060538427" lon="10.32297150687886"><ele>16.5</ele><time>2026-05-02T08:26:21Z</time></trkpt><trkpt lat="43.525080245376664" lon="10.32292666021742"><ele>17.0</ele><time>2026-05-02T08:26:23Z</time></trkpt><trkpt lat="43.52520628576106" lon="10.322906060039665"><ele>17.0</ele><time>2026-05-02T08:26:25Z</time></trkpt><trkpt lat="43.52526829648585" lon="10.322886415103"><ele>17.0</ele><time>2026-05-02T08:26:26Z</time></trkpt><trkpt lat="43.52533104157287" lon="10.32286748549705"><ele>17.0</ele><time>2026-05-02T08:26:27Z</time></trkpt><trkpt lat="43.525397650715895" lon="10.322856015377768"><ele>17.0</ele><time>2026-05-02T08:26:28Z</time></trkpt><trkpt lat="43.52546203208422" lon="10.322839095227602"><ele>17.0</ele><time>2026-05-02T08:26:29Z</time></trkpt><trkpt lat="43.52558231641769" lon="10.322776818260646"><ele>17.0</ele><time>2026-05-02T08:26:31Z</time></trkpt><trkpt lat="43.525642276708645" lon="10.322745886944295"><ele>16.8</ele><time>2026-05-02T08:26:32Z</time></trkpt><trkpt lat="43.52570423206013" lon="10.322730493240135"><ele>16.6</ele><time>2026-05-02T08:26:33Z</time></trkpt><trkpt lat="43.52582582660684" lon="10.322692672495787"><ele>16.400000000000002</ele><time>2026-05-02T08:26:35Z</time></trkpt><trkpt lat="43.52593497038467" lon="10.322656469773113"><ele>16.2</ele><time>2026-05-02T08:26:37Z</time></trkpt><trkpt lat="43.526013917304056" lon="10.322619036266623"><ele>16.0</ele><time>2026-05-02T08:26:39Z</time></trkpt><trkpt lat="43.52608724501607" lon="10.32260270838955"><ele>16.0</ele><time>2026-05-02T08:26:41Z</time></trkpt><trkpt lat="43.526151745231964" lon="10.322560834851297"><ele>16.0</ele><time>2026-05-02T08:26:43Z</time></trkpt><trkpt lat="43.5262402714607" lon="10.322529407684733"><ele>16.0</ele><time>2026-05-02T08:26:45Z</time></trkpt><trkpt lat="43.5263311734652" lon="10.322480870698925"><ele>16.0</ele><time>2026-05-02T08:26:47Z</time></trkpt><trkpt lat="43.52642468180843" lon="10.322430859085637"><ele>16.0</ele><time>2026-05-02T08:26:49Z</time></trkpt><trkpt lat="43.52651151488564" lon="10.32236645164991"><ele>15.600000000000001</ele><time>2026-05-02T08:26:51Z</time></trkpt><trkpt lat="43.526600341577385" lon="10.322319277887296"><ele>15.200000000000001</ele><time>2026-05-02T08:26:53Z</time></trkpt><trkpt lat="43.52668745790405" lon="10.322256826689786"><ele>14.799999999999999</ele><time>2026-05-02T08:26:55Z</time></trkpt><trkpt lat="43.52678839955757" lon="10.322196201549112"><ele>14.399999999999999</ele><time>2026-05-02T08:26:57Z</time></trkpt><trkpt lat="43.526849287854844" lon="10.322160675363023"><ele>14.0</ele><time>2026-05-02T08:26:58Z</time></trkpt><trkpt lat="43.526929548044556" lon="10.322099169586338"><ele>14.0</ele><time>2026-05-02T08:27:00Z</time></trkpt><trkpt lat="43.526998594827525" lon="10.322063974390462"><ele>13.999999999999998</ele><time>2026-05-02T08:27:02Z</time></trkpt><trkpt lat="43.52705832002391" lon="10.3220232915288"><ele>13.999999999999998</ele><time>2026-05-02T08:27:04Z</time></trkpt><trkpt lat="43.52715498698786" lon="10.321970948886863"><ele>14.0</ele><time>2026-05-02T08:27:07Z</time></trkpt><trkpt lat="43.52725201390041" lon="10.321934135458418"><ele>14.0</ele><time>2026-05-02T08:27:09Z</time></trkpt><trkpt lat="43.52735522293323" lon="10.3218862056606"><ele>13.399999999999999</ele><time>2026-05-02T08:27:11Z</time></trkpt><trkpt lat="43.52746759421967" lon="10.321845659684797"><ele>12.799999999999999</ele><time>2026-05-02T08:27:13Z</time></trkpt><trkpt lat="43.52752968540594" lon="10.321819051371076"><ele>12.2</ele><time>2026-05-02T08:27:14Z</time></trkpt><trkpt lat="43.527645956987776" lon="10.321772927668707"><ele>11.600000000000001</ele><time>2026-05-02T08:27:16Z</time></trkpt><trkpt lat="43.52770740644535" lon="10.321751334782247"><ele>11.0</ele><time>2026-05-02T08:27:17Z</time></trkpt><trkpt lat="43.52782888247035" lon="10.321709676568075"><ele>11.0</ele><time>2026-05-02T08:27:19Z</time></trkpt><trkpt lat="43.527894429677154" lon="10.32168607964269"><ele>11.0</ele><time>2026-05-02T08:27:20Z</time></trkpt><trkpt lat="43.5280109929747" lon="10.321646684849629"><ele>11.0</ele><time>2026-05-02T08:27:22Z</time></trkpt><trkpt lat="43.52807350013324" lon="10.321629421307549"><ele>11.0</ele><time>2026-05-02T08:27:23Z</time></trkpt><trkpt lat="43.52813566877558" lon="10.321605514978227"><ele>11.0</ele><time>2026-05-02T08:27:24Z</time></trkpt><trkpt lat="43.528198966843945" lon="10.32157851946052"><ele>11.0</ele><time>2026-05-02T08:27:25Z</time></trkpt><trkpt lat="43.52826080636576" lon="10.32156160618286"><ele>11.0</ele><time>2026-05-02T08:27:26Z</time></trkpt><trkpt lat="43.52832898205247" lon="10.321534859411361"><ele>11.0</ele><time>2026-05-02T08:27:27Z</time></trkpt><trkpt lat="43.52839440589331" lon="10.321510294055031"><ele>11.0</ele><time>2026-05-02T08:27:28Z</time></trkpt><trkpt lat="43.528456869992624" lon="10.321488529984618"><ele>11.0</ele><time>2026-05-02T08:27:29Z</time></trkpt><trkpt lat="43.5285212325972" lon="10.321460944370974"><ele>11.0</ele><time>2026-05-02T08:27:30Z</time></trkpt><trkpt lat="43.528648642865996" lon="10.321424002381514"><ele>11.0</ele><time>2026-05-02T08:27:32Z</time></trkpt><trkpt lat="43.52871271813541" lon="10.321401147674873"><ele>11.0</ele><time>2026-05-02T08:27:33Z</time></trkpt><trkpt lat="43.52877564188218" lon="10.32137656443782"><ele>10.714285714285715</ele><time>2026-05-02T08:27:34Z</time></trkpt><trkpt lat="43.528842214887156" lon="10.321358317303531"><ele>10.428571428571429</ele><time>2026-05-02T08:27:35Z</time></trkpt><trkpt lat="43.528907225651494" lon="10.32133254248596"><ele>10.142857142857142</ele><time>2026-05-02T08:27:36Z</time></trkpt><trkpt lat="43.52897115268147" lon="10.321313942900867"><ele>9.857142857142858</ele><time>2026-05-02T08:27:37Z</time></trkpt><trkpt lat="43.52903827908735" lon="10.321284404003427"><ele>9.571428571428571</ele><time>2026-05-02T08:27:38Z</time></trkpt><trkpt lat="43.52910532278112" lon="10.321256897144119"><ele>9.285714285714286</ele><time>2026-05-02T08:27:39Z</time></trkpt><trkpt lat="43.529172479834294" lon="10.321234240184346"><ele>9.0</ele><time>2026-05-02T08:27:40Z</time></trkpt><trkpt lat="43.52923823080951" lon="10.321204885645441"><ele>9.000000000000002</ele><time>2026-05-02T08:27:41Z</time></trkpt><trkpt lat="43.52930843118642" lon="10.321176003608773"><ele>9.0</ele><time>2026-05-02T08:27:42Z</time></trkpt><trkpt lat="43.529372073534915" lon="10.321155870255522"><ele>9.0</ele><time>2026-05-02T08:27:43Z</time></trkpt><trkpt lat="43.529440103227344" lon="10.321133345945361"><ele>9.0</ele><time>2026-05-02T08:27:44Z</time></trkpt><trkpt lat="43.52950611391758" lon="10.321110005246132"><ele>9.0</ele><time>2026-05-02T08:27:45Z</time></trkpt><trkpt lat="43.52957402432558" lon="10.321090373563349"><ele>9.000000000000002</ele><time>2026-05-02T08:27:46Z</time></trkpt><trkpt lat="43.52963945394508" lon="10.321065704963763"><ele>9.0</ele><time>2026-05-02T08:27:47Z</time></trkpt><trkpt lat="43.52970559315083" lon="10.321041506661812"><ele>9.166666666666666</ele><time>2026-05-02T08:27:48Z</time></trkpt><trkpt lat="43.52982435843101" lon="10.320991795958385"><ele>9.333333333333334</ele><time>2026-05-02T08:27:50Z</time></trkpt><trkpt lat="43.529881868167664" lon="10.320955222672147"><ele>9.5</ele><time>2026-05-02T08:27:51Z</time></trkpt><trkpt lat="43.529990590193115" lon="10.320882757753523"><ele>9.666666666666668</ele><time>2026-05-02T08:27:53Z</time></trkpt><trkpt lat="43.53004872359617" lon="10.320839706285854"><ele>9.833333333333334</ele><time>2026-05-02T08:27:54Z</time></trkpt><trkpt lat="43.530108772461176" lon="10.320790019640892"><ele>10.0</ele><time>2026-05-02T08:27:55Z</time></trkpt><trkpt lat="43.530168540321206" lon="10.320744686006218"><ele>10.0</ele><time>2026-05-02T08:27:56Z</time></trkpt><trkpt lat="43.53022585056228" lon="10.320698601916988"><ele>10.0</ele><time>2026-05-02T08:27:57Z</time></trkpt><trkpt lat="43.53028566622952" lon="10.32065167384532"><ele>10.0</ele><time>2026-05-02T08:27:58Z</time></trkpt><trkpt lat="43.53034559099051" lon="10.320604248421796"><ele>10.0</ele><time>2026-05-02T08:27:59Z</time></trkpt><trkpt lat="43.53040296469544" lon="10.320558243485829"><ele>10.0</ele><time>2026-05-02T08:28:00Z</time></trkpt><trkpt lat="43.53046131942557" lon="10.320516941128336"><ele>10.0</ele><time>2026-05-02T08:28:01Z</time></trkpt><trkpt lat="43.53052032460376" lon="10.32047336470771"><ele>10.0</ele><time>2026-05-02T08:28:02Z</time></trkpt><trkpt lat="43.53057869588253" lon="10.320426372749772"><ele>10.285714285714285</ele><time>2026-05-02T08:28:03Z</time></trkpt><trkpt lat="43.53063747720125" lon="10.320381269525093"><ele>10.571428571428571</ele><time>2026-05-02T08:28:04Z</time></trkpt><trkpt lat="43.530694778293004" lon="10.320339615179153"><ele>10.857142857142858</ele><time>2026-05-02T08:28:05Z</time></trkpt><trkpt lat="43.53075107045906" lon="10.32029498739853"><ele>11.142857142857142</ele><time>2026-05-02T08:28:06Z</time></trkpt><trkpt lat="43.530807894922276" lon="10.320247816492062"><ele>11.428571428571429</ele><time>2026-05-02T08:28:07Z</time></trkpt><trkpt lat="43.53086320391835" lon="10.320204183525084"><ele>11.714285714285714</ele><time>2026-05-02T08:28:08Z</time></trkpt><trkpt lat="43.53092057153535" lon="10.320156266088953"><ele>12.0</ele><time>2026-05-02T08:28:09Z</time></trkpt><trkpt lat="43.530975882879176" lon="10.320113341807867"><ele>12.0</ele><time>2026-05-02T08:28:10Z</time></trkpt><trkpt lat="43.53103197368545" lon="10.320068404970465"><ele>12.0</ele><time>2026-05-02T08:28:11Z</time></trkpt><trkpt lat="43.53113693804175" lon="10.319981894922675"><ele>12.0</ele><time>2026-05-02T08:28:13Z</time></trkpt><trkpt lat="43.53119155866386" lon="10.319937208487657"><ele>12.0</ele><time>2026-05-02T08:28:14Z</time></trkpt><trkpt lat="43.53124387194809" lon="10.319887402813345"><ele>12.0</ele><time>2026-05-02T08:28:15Z</time></trkpt><trkpt lat="43.53134895111674" lon="10.319797756253418"><ele>12.0</ele><time>2026-05-02T08:28:17Z</time></trkpt><trkpt lat="43.53145672758179" lon="10.31970844716581"><ele>12.0</ele><time>2026-05-02T08:28:19Z</time></trkpt><trkpt lat="43.53156196277078" lon="10.319626472724012"><ele>12.0</ele><time>2026-05-02T08:28:21Z</time></trkpt><trkpt lat="43.531664295788126" lon="10.319556541072904"><ele>12.0</ele><time>2026-05-02T08:28:23Z</time></trkpt><trkpt lat="43.531753802716494" lon="10.319485326469602"><ele>12.0</ele><time>2026-05-02T08:28:25Z</time></trkpt><trkpt lat="43.5318201660988" lon="10.31942948999203"><ele>12.0</ele><time>2026-05-02T08:28:27Z</time></trkpt><trkpt lat="43.53189940329192" lon="10.31940043486343"><ele>12.0</ele><time>2026-05-02T08:28:30Z</time></trkpt><trkpt lat="43.53197763171191" lon="10.31937942853477"><ele>12.0</ele><time>2026-05-02T08:29:36Z</time></trkpt><trkpt lat="43.53205182421006" lon="10.319367991850452"><ele>12.0</ele><time>2026-05-02T08:29:39Z</time></trkpt><trkpt lat="43.53209708010828" lon="10.319229394061255"><ele>12.0</ele><time>2026-05-02T08:29:43Z</time></trkpt><trkpt lat="43.53207302562724" lon="10.319032347950673"><ele>12.0</ele><time>2026-05-02T08:29:46Z</time></trkpt><trkpt lat="43.53204045672718" lon="10.3189017400566"><ele>11.8</ele><time>2026-05-02T08:29:48Z</time></trkpt><trkpt lat="43.53199573057913" lon="10.318779834401107"><ele>11.6</ele><time>2026-05-02T08:29:50Z</time></trkpt><trkpt lat="43.53195840718912" lon="10.318648749876365"><ele>11.4</ele><time>2026-05-02T08:29:52Z</time></trkpt><trkpt lat="43.53191397969271" lon="10.318521014631607"><ele>11.200000000000001</ele><time>2026-05-02T08:29:54Z</time></trkpt><trkpt lat="43.53187918529874" lon="10.318383390562092"><ele>11.0</ele><time>2026-05-02T08:29:56Z</time></trkpt><trkpt lat="43.53183031719153" lon="10.318253350944445"><ele>11.0</ele><time>2026-05-02T08:29:58Z</time></trkpt><trkpt lat="43.531809970677244" lon="10.318131925619783"><ele>11.0</ele><time>2026-05-02T08:30:00Z</time></trkpt><trkpt lat="43.53178131045697" lon="10.318020858025525"><ele>11.0</ele><time>2026-05-02T08:30:02Z</time></trkpt><trkpt lat="43.53174422662572" lon="10.317893534535184"><ele>11.0</ele><time>2026-05-02T08:30:05Z</time></trkpt><trkpt lat="43.531709785397936" lon="10.317783254654419"><ele>11.0</ele><time>2026-05-02T08:30:07Z</time></trkpt><trkpt lat="43.53167237104775" lon="10.317635225874078"><ele>10.8</ele><time>2026-05-02T08:30:09Z</time></trkpt><trkpt lat="43.53162256270404" lon="10.317488005773079"><ele>10.600000000000001</ele><time>2026-05-02T08:30:11Z</time></trkpt><trkpt lat="43.53159787919132" lon="10.317401938141494"><ele>10.4</ele><time>2026-05-02T08:30:12Z</time></trkpt><trkpt lat="43.531557226553055" lon="10.317240690644535"><ele>10.2</ele><time>2026-05-02T08:30:14Z</time></trkpt><trkpt lat="43.53150903548979" lon="10.317077105347977"><ele>10.0</ele><time>2026-05-02T08:30:16Z</time></trkpt><trkpt lat="43.531483909093495" lon="10.316994717537114"><ele>11.0</ele><time>2026-05-02T08:30:17Z</time></trkpt><trkpt lat="43.5314577955274" lon="10.316911995914538"><ele>12.0</ele><time>2026-05-02T08:30:18Z</time></trkpt><trkpt lat="43.53143359918047" lon="10.316829849669572"><ele>13.0</ele><time>2026-05-02T08:30:19Z</time></trkpt><trkpt lat="43.531415074860234" lon="10.31674550062829"><ele>14.0</ele><time>2026-05-02T08:30:20Z</time></trkpt><trkpt lat="43.53139154128923" lon="10.316660959690385"><ele>14.999999999999998</ele><time>2026-05-02T08:30:21Z</time></trkpt><trkpt lat="43.53134402471392" lon="10.316496076964327"><ele>16.0</ele><time>2026-05-02T08:30:23Z</time></trkpt><trkpt lat="43.531305974546655" lon="10.316422187276947"><ele>15.833333333333332</ele><time>2026-05-02T08:30:24Z</time></trkpt><trkpt lat="43.5312715531402" lon="10.316347414576054"><ele>15.666666666666666</ele><time>2026-05-02T08:30:25Z</time></trkpt><trkpt lat="43.531241428733274" lon="10.31626669191585"><ele>15.5</ele><time>2026-05-02T08:30:26Z</time></trkpt><trkpt lat="43.53119402023336" lon="10.316197694529409"><ele>15.333333333333332</ele><time>2026-05-02T08:30:27Z</time></trkpt><trkpt lat="43.53111485608852" lon="10.316056941723001"><ele>15.166666666666666</ele><time>2026-05-02T08:30:29Z</time></trkpt><trkpt lat="43.53107155092718" lon="10.31597802102682"><ele>15.0</ele><time>2026-05-02T08:30:30Z</time></trkpt><trkpt lat="43.531031614224716" lon="10.315906237030632"><ele>15.0</ele><time>2026-05-02T08:30:31Z</time></trkpt><trkpt lat="43.5309942383918" lon="10.315833670629432"><ele>15.0</ele><time>2026-05-02T08:30:32Z</time></trkpt><trkpt lat="43.530966179581284" lon="10.315750876881514"><ele>15.0</ele><time>2026-05-02T08:30:33Z</time></trkpt><trkpt lat="43.530952587648166" lon="10.315662374802837"><ele>15.0</ele><time>2026-05-02T08:30:34Z</time></trkpt><trkpt lat="43.53089243959995" lon="10.315506960519864"><ele>15.0</ele><time>2026-05-02T08:30:36Z</time></trkpt><trkpt lat="43.53083020319579" lon="10.315460961076196"><ele>15.0</ele><time>2026-05-02T08:30:37Z</time></trkpt><trkpt lat="43.530726800198956" lon="10.315371721670095"><ele>14.666666666666666</ele><time>2026-05-02T08:30:39Z</time></trkpt><trkpt lat="43.53069212596565" lon="10.315296995442099"><ele>14.333333333333332</ele><time>2026-05-02T08:30:40Z</time></trkpt><trkpt lat="43.53065419210535" lon="10.315219849344354"><ele>14.0</ele><time>2026-05-02T08:30:41Z</time></trkpt><trkpt lat="43.53061606604575" lon="10.315146885954046"><ele>13.666666666666666</ele><time>2026-05-02T08:30:42Z</time></trkpt><trkpt lat="43.5305392678111" lon="10.315010361264735"><ele>13.333333333333332</ele><time>2026-05-02T08:30:44Z</time></trkpt><trkpt lat="43.530502081095136" lon="10.314940110021345"><ele>13.0</ele><time>2026-05-02T08:30:45Z</time></trkpt><trkpt lat="43.5304586931277" lon="10.314866524060614"><ele>12.999999999999998</ele><time>2026-05-02T08:30:46Z</time></trkpt><trkpt lat="43.53041979450223" lon="10.314795062487418"><ele>13.0</ele><time>2026-05-02T08:30:47Z</time></trkpt><trkpt lat="43.530346161575366" lon="10.314654041385113"><ele>13.0</ele><time>2026-05-02T08:30:49Z</time></trkpt><trkpt lat="43.530305639885746" lon="10.314583898830582"><ele>13.0</ele><time>2026-05-02T08:30:50Z</time></trkpt><trkpt lat="43.53026261765564" lon="10.314513694709646"><ele>12.999999999999998</ele><time>2026-05-02T08:30:51Z</time></trkpt><trkpt lat="43.5302231444307" lon="10.314443849162629"><ele>13.0</ele><time>2026-05-02T08:30:52Z</time></trkpt><trkpt lat="43.530181521699966" lon="10.314372607583689"><ele>12.833333333333332</ele><time>2026-05-02T08:30:53Z</time></trkpt><trkpt lat="43.530107153260985" lon="10.314233389820552"><ele>12.666666666666666</ele><time>2026-05-02T08:30:55Z</time></trkpt><trkpt lat="43.53007202417767" lon="10.314159202810094"><ele>12.5</ele><time>2026-05-02T08:30:56Z</time></trkpt><trkpt lat="43.53004139009463" lon="10.314078368537974"><ele>12.333333333333332</ele><time>2026-05-02T08:30:57Z</time></trkpt><trkpt lat="43.53000642114903" lon="10.314004636560014"><ele>12.166666666666666</ele><time>2026-05-02T08:30:58Z</time></trkpt><trkpt lat="43.52992633509066" lon="10.313880542244037"><ele>12.0</ele><time>2026-05-02T08:31:00Z</time></trkpt><trkpt lat="43.52988756374411" lon="10.313810135816903"><ele>12.0</ele><time>2026-05-02T08:31:01Z</time></trkpt><trkpt lat="43.529846922443696" lon="10.313734234535298"><ele>12.0</ele><time>2026-05-02T08:31:02Z</time></trkpt><trkpt lat="43.52981320238943" lon="10.313657964940937"><ele>12.0</ele><time>2026-05-02T08:31:03Z</time></trkpt><trkpt lat="43.52977890380274" lon="10.313579201655344"><ele>12.0</ele><time>2026-05-02T08:31:04Z</time></trkpt><trkpt lat="43.52971604784116" lon="10.313426675565672"><ele>12.0</ele><time>2026-05-02T08:31:06Z</time></trkpt><trkpt lat="43.52968037108559" lon="10.31334213317646"><ele>12.0</ele><time>2026-05-02T08:31:07Z</time></trkpt><trkpt lat="43.52961916223022" lon="10.313190755058073"><ele>11.999999999999998</ele><time>2026-05-02T08:31:09Z</time></trkpt><trkpt lat="43.52957899184614" lon="10.313109748620507"><ele>12.0</ele><time>2026-05-02T08:31:10Z</time></trkpt><trkpt lat="43.52954132765772" lon="10.313028687404447"><ele>12.0</ele><time>2026-05-02T08:31:11Z</time></trkpt><trkpt lat="43.529496941824966" lon="10.312956532545261"><ele>12.0</ele><time>2026-05-02T08:31:12Z</time></trkpt><trkpt lat="43.52945606653495" lon="10.312878663519074"><ele>12.0</ele><time>2026-05-02T08:31:13Z</time></trkpt><trkpt lat="43.52941943605691" lon="10.312802307802086"><ele>11.999999999999998</ele><time>2026-05-02T08:31:14Z</time></trkpt><trkpt lat="43.52938043848694" lon="10.312724574705197"><ele>12.0</ele><time>2026-05-02T08:31:15Z</time></trkpt><trkpt lat="43.52933941638179" lon="10.312651210177542"><ele>12.166666666666666</ele><time>2026-05-02T08:31:16Z</time></trkpt><trkpt lat="43.52929736546911" lon="10.312577613584937"><ele>12.333333333333332</ele><time>2026-05-02T08:31:17Z</time></trkpt><trkpt lat="43.52925522888916" lon="10.312510592029394"><ele>12.5</ele><time>2026-05-02T08:31:18Z</time></trkpt><trkpt lat="43.529214836871425" lon="10.312438182836228"><ele>12.666666666666666</ele><time>2026-05-02T08:31:19Z</time></trkpt><trkpt lat="43.529178951501954" lon="10.312366708582266"><ele>12.833333333333332</ele><time>2026-05-02T08:31:20Z</time></trkpt><trkpt lat="43.52910833515586" lon="10.312223399641974"><ele>13.0</ele><time>2026-05-02T08:31:22Z</time></trkpt><trkpt lat="43.52907837233183" lon="10.312142974347523"><ele>13.0</ele><time>2026-05-02T08:31:23Z</time></trkpt><trkpt lat="43.529041358968165" lon="10.312069830214288"><ele>13.0</ele><time>2026-05-02T08:31:24Z</time></trkpt><trkpt lat="43.529002160671105" lon="10.311997569593638"><ele>13.0</ele><time>2026-05-02T08:31:25Z</time></trkpt><trkpt lat="43.528961896648646" lon="10.311925857322496"><ele>13.0</ele><time>2026-05-02T08:31:26Z</time></trkpt><trkpt lat="43.528922877387885" lon="10.311850148643678"><ele>13.0</ele><time>2026-05-02T08:31:27Z</time></trkpt><trkpt lat="43.52888251269087" lon="10.311773866564216"><ele>13.0</ele><time>2026-05-02T08:31:28Z</time></trkpt><trkpt lat="43.52884322831578" lon="10.311698321811937"><ele>13.0</ele><time>2026-05-02T08:31:29Z</time></trkpt><trkpt lat="43.528810494696685" lon="10.311614686885775"><ele>13.0</ele><time>2026-05-02T08:31:30Z</time></trkpt><trkpt lat="43.52877240944242" lon="10.311535336423104"><ele>13.0</ele><time>2026-05-02T08:31:31Z</time></trkpt><trkpt lat="43.52873032641032" lon="10.311460110181885"><ele>13.0</ele><time>2026-05-02T08:31:32Z</time></trkpt><trkpt lat="43.5286886233231" lon="10.311382260390692"><ele>13.0</ele><time>2026-05-02T08:31:33Z</time></trkpt><trkpt lat="43.52864678210578" lon="10.311306161626925"><ele>13.0</ele><time>2026-05-02T08:31:34Z</time></trkpt><trkpt lat="43.52860697463618" lon="10.311226359604726"><ele>13.0</ele><time>2026-05-02T08:31:35Z</time></trkpt><trkpt lat="43.52856646035773" lon="10.311146489886431"><ele>13.0</ele><time>2026-05-02T08:31:36Z</time></trkpt><trkpt lat="43.5285245532866" lon="10.31107135137924"><ele>12.285714285714285</ele><time>2026-05-02T08:31:37Z</time></trkpt><trkpt lat="43.5284820011115" lon="10.310997583638144"><ele>11.571428571428573</ele><time>2026-05-02T08:31:38Z</time></trkpt><trkpt lat="43.528439860538505" lon="10.31091964865034"><ele>10.857142857142858</ele><time>2026-05-02T08:31:39Z</time></trkpt><trkpt lat="43.528395625672104" lon="10.310835334415192"><ele>10.142857142857142</ele><time>2026-05-02T08:31:40Z</time></trkpt><trkpt lat="43.52836466699457" lon="10.310749759660563"><ele>9.428571428571427</ele><time>2026-05-02T08:31:41Z</time></trkpt><trkpt lat="43.528335563951295" lon="10.310667445637385"><ele>8.714285714285714</ele><time>2026-05-02T08:31:42Z</time></trkpt><trkpt lat="43.528310461505576" lon="10.310578192701513"><ele>8.0</ele><time>2026-05-02T08:31:43Z</time></trkpt><trkpt lat="43.52829399338765" lon="10.31048955695793"><ele>7.999999999999999</ele><time>2026-05-02T08:31:44Z</time></trkpt><trkpt lat="43.52828624348678" lon="10.310402676814904"><ele>8.0</ele><time>2026-05-02T08:31:45Z</time></trkpt><trkpt lat="43.52828343910157" lon="10.310251710130702"><ele>8.0</ele><time>2026-05-02T08:31:47Z</time></trkpt><trkpt lat="43.528288351180976" lon="10.310115815249787"><ele>8.0</ele><time>2026-05-02T08:31:49Z</time></trkpt><trkpt lat="43.5283370354038" lon="10.310052669450748"><ele>7.999999999999999</ele><time>2026-05-02T08:31:50Z</time></trkpt><trkpt lat="43.52837192345789" lon="10.30992796609456"><ele>8.0</ele><time>2026-05-02T08:31:52Z</time></trkpt><trkpt lat="43.528326001723926" lon="10.3098104003111"><ele>7.999999999999999</ele><time>2026-05-02T08:31:54Z</time></trkpt><trkpt lat="43.528255299314594" lon="10.309789578411674"><ele>8.0</ele><time>2026-05-02T08:31:56Z</time></trkpt><trkpt lat="43.52817605891849" lon="10.309790904751805"><ele>8.0</ele><time>2026-05-02T08:31:58Z</time></trkpt><trkpt lat="43.528086797972215" lon="10.309847916408888"><ele>8.0</ele><time>2026-05-02T08:32:00Z</time></trkpt><trkpt lat="43.52798934855242" lon="10.309880916231974"><ele>7.999999999999999</ele><time>2026-05-02T08:32:02Z</time></trkpt><trkpt lat="43.52792375781192" lon="10.309897817584494"><ele>8.0</ele><time>2026-05-02T08:32:04Z</time></trkpt><trkpt lat="43.5278466532607" lon="10.309920018524547"><ele>7.4</ele><time>2026-05-02T08:32:06Z</time></trkpt><trkpt lat="43.52774682912468" lon="10.309930885580025"><ele>6.800000000000001</ele><time>2026-05-02T08:32:08Z</time></trkpt><trkpt lat="43.52764706191436" lon="10.309990320904053"><ele>6.2</ele><time>2026-05-02T08:32:10Z</time></trkpt><trkpt lat="43.52754011347489" lon="10.310037662972896"><ele>5.6</ele><time>2026-05-02T08:32:12Z</time></trkpt><trkpt lat="43.527424010390334" lon="10.310059580727216"><ele>5.0</ele><time>2026-05-02T08:32:14Z</time></trkpt><trkpt lat="43.52730745538239" lon="10.310100501795027"><ele>5.0</ele><time>2026-05-02T08:32:16Z</time></trkpt><trkpt lat="43.52718624572815" lon="10.310135186593946"><ele>5.0</ele><time>2026-05-02T08:32:18Z</time></trkpt><trkpt lat="43.527065936996905" lon="10.310176338373202"><ele>5.0</ele><time>2026-05-02T08:32:20Z</time></trkpt><trkpt lat="43.526944470850715" lon="10.310212137530554"><ele>5.0</ele><time>2026-05-02T08:32:22Z</time></trkpt><trkpt lat="43.52682504047665" lon="10.310238944444432"><ele>5.6</ele><time>2026-05-02T08:32:24Z</time></trkpt><trkpt lat="43.5267032805987" lon="10.310271595217229"><ele>6.2</ele><time>2026-05-02T08:32:26Z</time></trkpt><trkpt lat="43.52657923865342" lon="10.310299840985277"><ele>6.800000000000001</ele><time>2026-05-02T08:32:28Z</time></trkpt><trkpt lat="43.526517333054365" lon="10.310318065631199"><ele>7.4</ele><time>2026-05-02T08:32:29Z</time></trkpt><trkpt lat="43.52639502104556" lon="10.310346058842336"><ele>8.0</ele><time>2026-05-02T08:32:31Z</time></trkpt><trkpt lat="43.52632914989699" lon="10.310359684221453"><ele>8.0</ele><time>2026-05-02T08:32:32Z</time></trkpt><trkpt lat="43.52626718215237" lon="10.310377493137672"><ele>7.999999999999999</ele><time>2026-05-02T08:32:33Z</time></trkpt><trkpt lat="43.526204030863404" lon="10.31039348916722"><ele>8.0</ele><time>2026-05-02T08:32:34Z</time></trkpt><trkpt lat="43.52608049807171" lon="10.310423783382841"><ele>8.0</ele><time>2026-05-02T08:32:36Z</time></trkpt><trkpt lat="43.526018038268674" lon="10.310439761260463"><ele>7.999999999999999</ele><time>2026-05-02T08:32:37Z</time></trkpt><trkpt lat="43.52595330115911" lon="10.31045462153351"><ele>8.0</ele><time>2026-05-02T08:32:38Z</time></trkpt><trkpt lat="43.52588960743106" lon="10.31047195267657"><ele>8.0</ele><time>2026-05-02T08:32:39Z</time></trkpt><trkpt lat="43.52582354580726" lon="10.310487198051195"><ele>8.0</ele><time>2026-05-02T08:32:40Z</time></trkpt><trkpt lat="43.525694889144184" lon="10.310514320890723"><ele>8.0</ele><time>2026-05-02T08:32:42Z</time></trkpt><trkpt lat="43.52562751949349" lon="10.31052833026684"><ele>8.0</ele><time>2026-05-02T08:32:43Z</time></trkpt><trkpt lat="43.52556290172926" lon="10.310546368646886"><ele>8.0</ele><time>2026-05-02T08:32:44Z</time></trkpt><trkpt lat="43.52550077055059" lon="10.310564400265273"><ele>8.0</ele><time>2026-05-02T08:32:45Z</time></trkpt><trkpt lat="43.525374543011964" lon="10.310591704413246"><ele>7.999999999999999</ele><time>2026-05-02T08:32:47Z</time></trkpt><trkpt lat="43.52525220722315" lon="10.31061647353586"><ele>8.0</ele><time>2026-05-02T08:32:49Z</time></trkpt><trkpt lat="43.5251858237219" lon="10.310629002253988"><ele>8.0</ele><time>2026-05-02T08:32:50Z</time></trkpt><trkpt lat="43.525123362041626" lon="10.31064765794413"><ele>8.0</ele><time>2026-05-02T08:32:51Z</time></trkpt><trkpt lat="43.525002668804355" lon="10.310681282351235"><ele>7.999999999999999</ele><time>2026-05-02T08:32:53Z</time></trkpt><trkpt lat="43.524939105123316" lon="10.31069674905114"><ele>8.0</ele><time>2026-05-02T08:32:54Z</time></trkpt><trkpt lat="43.52487179203999" lon="10.310710771887413"><ele>7.999999999999999</ele><time>2026-05-02T08:32:55Z</time></trkpt><trkpt lat="43.52480754407791" lon="10.310727548988913"><ele>8.0</ele><time>2026-05-02T08:32:56Z</time></trkpt><trkpt lat="43.524680322955675" lon="10.310750720289363"><ele>8.0</ele><time>2026-05-02T08:32:58Z</time></trkpt><trkpt lat="43.524611875110665" lon="10.31075635529628"><ele>8.0</ele><time>2026-05-02T08:32:59Z</time></trkpt><trkpt lat="43.524549187514" lon="10.31077178759322"><ele>7.999999999999999</ele><time>2026-05-02T08:33:00Z</time></trkpt><trkpt lat="43.524430400368075" lon="10.310805722181165"><ele>8.0</ele><time>2026-05-02T08:33:02Z</time></trkpt><trkpt lat="43.524365655275496" lon="10.310816550394438"><ele>7.666666666666666</ele><time>2026-05-02T08:33:03Z</time></trkpt><trkpt lat="43.524299245177055" lon="10.310836417685037"><ele>7.333333333333333</ele><time>2026-05-02T08:33:04Z</time></trkpt><trkpt lat="43.524234085692534" lon="10.310851848928642"><ele>7.0</ele><time>2026-05-02T08:33:05Z</time></trkpt><trkpt lat="43.52411280474295" lon="10.310880729050883"><ele>6.666666666666666</ele><time>2026-05-02T08:33:07Z</time></trkpt><trkpt lat="43.52404781647009" lon="10.310902843449245"><ele>6.333333333333333</ele><time>2026-05-02T08:33:08Z</time></trkpt><trkpt lat="43.52398485676967" lon="10.31092519678582"><ele>6.0</ele><time>2026-05-02T08:33:09Z</time></trkpt><trkpt lat="43.523919683398056" lon="10.310941173004629"><ele>6.0</ele><time>2026-05-02T08:33:10Z</time></trkpt><trkpt lat="43.52385540501449" lon="10.310956592546441"><ele>6.0</ele><time>2026-05-02T08:33:11Z</time></trkpt><trkpt lat="43.523723697259776" lon="10.310980761658538"><ele>6.0</ele><time>2026-05-02T08:33:13Z</time></trkpt><trkpt lat="43.523656916353175" lon="10.310999719924215"><ele>6.0</ele><time>2026-05-02T08:33:14Z</time></trkpt><trkpt lat="43.52359092896663" lon="10.311014685757423"><ele>6.0</ele><time>2026-05-02T08:33:15Z</time></trkpt><trkpt lat="43.523522654882164" lon="10.311028209477412"><ele>6.0</ele><time>2026-05-02T08:33:16Z</time></trkpt><trkpt lat="43.523455109146866" lon="10.311049472134158"><ele>5.7142857142857135</ele><time>2026-05-02T08:33:17Z</time></trkpt><trkpt lat="43.52338671974142" lon="10.311068343431574"><ele>5.428571428571429</ele><time>2026-05-02T08:33:18Z</time></trkpt><trkpt lat="43.52331888928664" lon="10.311086583891843"><ele>5.142857142857142</ele><time>2026-05-02T08:33:19Z</time></trkpt><trkpt lat="43.523250498122984" lon="10.31110026155612"><ele>4.857142857142857</ele><time>2026-05-02T08:33:20Z</time></trkpt><trkpt lat="43.523181881231515" lon="10.311114839235913"><ele>4.571428571428571</ele><time>2026-05-02T08:33:21Z</time></trkpt><trkpt lat="43.52311355354276" lon="10.311127303995217"><ele>4.285714285714286</ele><time>2026-05-02T08:33:22Z</time></trkpt><trkpt lat="43.52304665736179" lon="10.311142934049132"><ele>4.0</ele><time>2026-05-02T08:33:23Z</time></trkpt><trkpt lat="43.52297938468925" lon="10.311159990715492"><ele>4.0</ele><time>2026-05-02T08:33:24Z</time></trkpt><trkpt lat="43.52291313165458" lon="10.311177937483848"><ele>3.9999999999999996</ele><time>2026-05-02T08:33:25Z</time></trkpt><trkpt lat="43.52284740868999" lon="10.311198330094106"><ele>4.0</ele><time>2026-05-02T08:33:26Z</time></trkpt><trkpt lat="43.5227796635735" lon="10.311216181318244"><ele>4.0</ele><time>2026-05-02T08:33:27Z</time></trkpt><trkpt lat="43.52271249624153" lon="10.311227963737045"><ele>3.9999999999999996</ele><time>2026-05-02T08:33:28Z</time></trkpt><trkpt lat="43.522645369580154" lon="10.311236912408487"><ele>4.0</ele><time>2026-05-02T08:33:29Z</time></trkpt><trkpt lat="43.52258152516055" lon="10.311250680824385"><ele>4.0</ele><time>2026-05-02T08:33:30Z</time></trkpt><trkpt lat="43.52251807368731" lon="10.311267303830927"><ele>3.714285714285714</ele><time>2026-05-02T08:33:31Z</time></trkpt><trkpt lat="43.52245286682023" lon="10.311282880577496"><ele>3.428571428571428</ele><time>2026-05-02T08:33:32Z</time></trkpt><trkpt lat="43.52238689433444" lon="10.311297476383302"><ele>3.142857142857143</ele><time>2026-05-02T08:33:33Z</time></trkpt><trkpt lat="43.522322183481414" lon="10.311311388797117"><ele>2.8571428571428568</ele><time>2026-05-02T08:33:34Z</time></trkpt><trkpt lat="43.522258010943766" lon="10.311332223622774"><ele>2.571428571428571</ele><time>2026-05-02T08:33:35Z</time></trkpt><trkpt lat="43.52219199358165" lon="10.311358971171556"><ele>2.2857142857142856</ele><time>2026-05-02T08:33:36Z</time></trkpt><trkpt lat="43.522126320956566" lon="10.311380570461276"><ele>2.0</ele><time>2026-05-02T08:33:37Z</time></trkpt><trkpt lat="43.522058215465854" lon="10.311407156755347"><ele>2.142857142857143</ele><time>2026-05-02T08:33:38Z</time></trkpt><trkpt lat="43.52199211478011" lon="10.311430097283678"><ele>2.2857142857142856</ele><time>2026-05-02T08:33:39Z</time></trkpt><trkpt lat="43.521926921197284" lon="10.311456250462891"><ele>2.4285714285714284</ele><time>2026-05-02T08:33:40Z</time></trkpt><trkpt lat="43.52186076171833" lon="10.31148475713023"><ele>2.571428571428571</ele><time>2026-05-02T08:33:41Z</time></trkpt><trkpt lat="43.521793365766115" lon="10.3115122943354"><ele>2.7142857142857144</ele><time>2026-05-02T08:33:42Z</time></trkpt><trkpt lat="43.52172669060041" lon="10.311539919385735"><ele>2.8571428571428568</ele><time>2026-05-02T08:33:43Z</time></trkpt><trkpt lat="43.52166245188643" lon="10.311569663943125"><ele>3.0</ele><time>2026-05-02T08:33:44Z</time></trkpt><trkpt lat="43.521600416707024" lon="10.311603772946379"><ele>3.0</ele><time>2026-05-02T08:33:45Z</time></trkpt><trkpt lat="43.5215374448255" lon="10.311639861131455"><ele>3.0</ele><time>2026-05-02T08:33:46Z</time></trkpt><trkpt lat="43.5214790283068" lon="10.311684440582823"><ele>3.0</ele><time>2026-05-02T08:33:47Z</time></trkpt><trkpt lat="43.52141737808508" lon="10.311726217384967"><ele>3.0</ele><time>2026-05-02T08:33:48Z</time></trkpt><trkpt lat="43.52131789237362" lon="10.31181669121363"><ele>3.0</ele><time>2026-05-02T08:33:50Z</time></trkpt><trkpt lat="43.521175814974036" lon="10.311924353158291"><ele>2.8571428571428568</ele><time>2026-05-02T08:33:52Z</time></trkpt><trkpt lat="43.52111879057759" lon="10.311978270682419"><ele>2.7142857142857144</ele><time>2026-05-02T08:33:53Z</time></trkpt><trkpt lat="43.52106183229375" lon="10.312034476477567"><ele>2.571428571428571</ele><time>2026-05-02T08:33:54Z</time></trkpt><trkpt lat="43.52100607537325" lon="10.312092166896306"><ele>2.4285714285714284</ele><time>2026-05-02T08:33:55Z</time></trkpt><trkpt lat="43.52095549669485" lon="10.312159316262221"><ele>2.2857142857142856</ele><time>2026-05-02T08:33:56Z</time></trkpt><trkpt lat="43.520905511373805" lon="10.312221959094916"><ele>2.142857142857143</ele><time>2026-05-02T08:33:57Z</time></trkpt><trkpt lat="43.52085951155339" lon="10.31229329225317"><ele>2.0</ele><time>2026-05-02T08:33:58Z</time></trkpt><trkpt lat="43.52081459427949" lon="10.312361563294338"><ele>2.0</ele><time>2026-05-02T08:33:59Z</time></trkpt><trkpt lat="43.52076986475281" lon="10.31243483858554"><ele>1.9999999999999998</ele><time>2026-05-02T08:34:00Z</time></trkpt><trkpt lat="43.520725600968994" lon="10.312510620619255"><ele>2.0</ele><time>2026-05-02T08:34:01Z</time></trkpt><trkpt lat="43.5206839827883" lon="10.31258423839801"><ele>2.0</ele><time>2026-05-02T08:34:02Z</time></trkpt><trkpt lat="43.520641098802294" lon="10.31266021327081"><ele>1.9999999999999998</ele><time>2026-05-02T08:34:03Z</time></trkpt><trkpt lat="43.520599621546644" lon="10.312736906617172"><ele>2.0</ele><time>2026-05-02T08:34:04Z</time></trkpt><trkpt lat="43.52055719661085" lon="10.312810283125279"><ele>2.0</ele><time>2026-05-02T08:34:05Z</time></trkpt><trkpt lat="43.52051342251364" lon="10.312883000160205"><ele>2.0</ele><time>2026-05-02T08:34:06Z</time></trkpt><trkpt lat="43.520471146421194" lon="10.312955236150005"><ele>1.9999999999999998</ele><time>2026-05-02T08:34:07Z</time></trkpt><trkpt lat="43.520430813218454" lon="10.313028700976663"><ele>2.0</ele><time>2026-05-02T08:34:08Z</time></trkpt><trkpt lat="43.520386715045326" lon="10.313102456677983"><ele>2.0</ele><time>2026-05-02T08:34:09Z</time></trkpt><trkpt lat="43.52034615717918" lon="10.31318004055461"><ele>1.9999999999999998</ele><time>2026-05-02T08:34:10Z</time></trkpt><trkpt lat="43.520307516447225" lon="10.313256644129844"><ele>2.0</ele><time>2026-05-02T08:34:11Z</time></trkpt><trkpt lat="43.52026169201426" lon="10.313324988788905"><ele>2.0</ele><time>2026-05-02T08:34:12Z</time></trkpt><trkpt lat="43.52022283235113" lon="10.313401533428921"><ele>2.0</ele><time>2026-05-02T08:34:13Z</time></trkpt><trkpt lat="43.52018372859081" lon="10.313469745793748"><ele>1.9999999999999998</ele><time>2026-05-02T08:34:14Z</time></trkpt><trkpt lat="43.52014634887551" lon="10.313546189771165"><ele>2.0</ele><time>2026-05-02T08:34:15Z</time></trkpt><trkpt lat="43.52010357734943" lon="10.31361442607056"><ele>2.0</ele><time>2026-05-02T08:34:16Z</time></trkpt><trkpt lat="43.52006266382285" lon="10.31368286673662"><ele>1.9999999999999998</ele><time>2026-05-02T08:34:17Z</time></trkpt><trkpt lat="43.52002476022947" lon="10.313759094646514"><ele>2.0</ele><time>2026-05-02T08:34:18Z</time></trkpt><trkpt lat="43.5199817105532" lon="10.313830877780703"><ele>2.0</ele><time>2026-05-02T08:34:19Z</time></trkpt><trkpt lat="43.51989953254937" lon="10.31397001003374"><ele>2.6666666666666665</ele><time>2026-05-02T08:34:21Z</time></trkpt><trkpt lat="43.5198617693365" lon="10.314044306545266"><ele>3.333333333333333</ele><time>2026-05-02T08:34:22Z</time></trkpt><trkpt lat="43.519826642790456" lon="10.314120295581397"><ele>4.0</ele><time>2026-05-02T08:34:23Z</time></trkpt><trkpt lat="43.51978579019209" lon="10.314189902430725"><ele>4.666666666666667</ele><time>2026-05-02T08:34:24Z</time></trkpt><trkpt lat="43.51972139290474" lon="10.31432158798396"><ele>5.333333333333333</ele><time>2026-05-02T08:34:26Z</time></trkpt><trkpt lat="43.519674053981085" lon="10.314383123985682"><ele>6.0</ele><time>2026-05-02T08:34:27Z</time></trkpt><trkpt lat="43.519629553225286" lon="10.314504261926077"><ele>5.3999999999999995</ele><time>2026-05-02T08:34:29Z</time></trkpt><trkpt lat="43.519566006932635" lon="10.314635353122704"><ele>4.8</ele><time>2026-05-02T08:34:31Z</time></trkpt><trkpt lat="43.51951980471497" lon="10.31471060310546"><ele>4.199999999999999</ele><time>2026-05-02T08:34:32Z</time></trkpt><trkpt lat="43.51942019292328" lon="10.314829844538083"><ele>3.5999999999999996</ele><time>2026-05-02T08:34:34Z</time></trkpt><trkpt lat="43.51936558780863" lon="10.314879532965547"><ele>3.0</ele><time>2026-05-02T08:34:35Z</time></trkpt><trkpt lat="43.51931910921901" lon="10.314968616905036"><ele>3.0</ele><time>2026-05-02T08:34:36Z</time></trkpt><trkpt lat="43.519276919693425" lon="10.315062330427695"><ele>3.0</ele><time>2026-05-02T08:34:37Z</time></trkpt><trkpt lat="43.51920185842251" lon="10.315197616661509"><ele>3.0</ele><time>2026-05-02T08:34:39Z</time></trkpt><trkpt lat="43.51916075110183" lon="10.315273896299667"><ele>3.0</ele><time>2026-05-02T08:34:40Z</time></trkpt><trkpt lat="43.51912254886166" lon="10.315351532912258"><ele>3.0</ele><time>2026-05-02T08:34:41Z</time></trkpt><trkpt lat="43.519080274217124" lon="10.315420410562448"><ele>3.0</ele><time>2026-05-02T08:34:42Z</time></trkpt><trkpt lat="43.519040006962" lon="10.315496227079672"><ele>3.0</ele><time>2026-05-02T08:34:43Z</time></trkpt><trkpt lat="43.5189933057524" lon="10.31556586721559"><ele>3.0</ele><time>2026-05-02T08:34:44Z</time></trkpt><trkpt lat="43.51890855836334" lon="10.315693643993553"><ele>3.0</ele><time>2026-05-02T08:34:46Z</time></trkpt><trkpt lat="43.51887185332986" lon="10.315780227674615"><ele>3.0</ele><time>2026-05-02T08:34:47Z</time></trkpt><trkpt lat="43.5188391184615" lon="10.315862537436317"><ele>3.0</ele><time>2026-05-02T08:34:48Z</time></trkpt><trkpt lat="43.51880142666861" lon="10.315943134388426"><ele>3.0</ele><time>2026-05-02T08:34:49Z</time></trkpt><trkpt lat="43.518718325449406" lon="10.316053297239469"><ele>2.714285714285714</ele><time>2026-05-02T08:34:51Z</time></trkpt><trkpt lat="43.51866988262914" lon="10.316130735681055"><ele>2.4285714285714284</ele><time>2026-05-02T08:34:52Z</time></trkpt><trkpt lat="43.518626763296034" lon="10.316200025940423"><ele>2.142857142857143</ele><time>2026-05-02T08:34:53Z</time></trkpt><trkpt lat="43.518575169847615" lon="10.316259257264418"><ele>1.857142857142857</ele><time>2026-05-02T08:34:54Z</time></trkpt><trkpt lat="43.51851438187346" lon="10.316300206655118"><ele>1.5714285714285712</ele><time>2026-05-02T08:34:55Z</time></trkpt><trkpt lat="43.518453294721006" lon="10.316334405380104"><ele>1.2857142857142856</ele><time>2026-05-02T08:34:56Z</time></trkpt><trkpt lat="43.51839337980206" lon="10.316368458727853"><ele>1.0</ele><time>2026-05-02T08:34:57Z</time></trkpt><trkpt lat="43.51833079450837" lon="10.316398727010682"><ele>1.1428571428571428</ele><time>2026-05-02T08:34:58Z</time></trkpt><trkpt lat="43.518268676013264" lon="10.316422722805786"><ele>1.2857142857142856</ele><time>2026-05-02T08:34:59Z</time></trkpt><trkpt lat="43.51820580261763" lon="10.316445335601346"><ele>1.4285714285714284</ele><time>2026-05-02T08:35:00Z</time></trkpt><trkpt lat="43.518138444686855" lon="10.316456813631614"><ele>1.5714285714285714</ele><time>2026-05-02T08:35:01Z</time></trkpt><trkpt lat="43.51807571304511" lon="10.316467219247501"><ele>1.714285714285714</ele><time>2026-05-02T08:35:02Z</time></trkpt><trkpt lat="43.51801260990139" lon="10.316479125817187"><ele>1.857142857142857</ele><time>2026-05-02T08:35:03Z</time></trkpt><trkpt lat="43.51794992727514" lon="10.316492695489668"><ele>2.0</ele><time>2026-05-02T08:35:04Z</time></trkpt><trkpt lat="43.517886279320834" lon="10.316507225621907"><ele>2.0</ele><time>2026-05-02T08:35:05Z</time></trkpt><trkpt lat="43.51782377196583" lon="10.316522200946867"><ele>1.9999999999999998</ele><time>2026-05-02T08:35:06Z</time></trkpt><trkpt lat="43.51776027774798" lon="10.316535737118329"><ele>2.0</ele><time>2026-05-02T08:35:07Z</time></trkpt><trkpt lat="43.51769702950209" lon="10.316550234206288"><ele>2.0</ele><time>2026-05-02T08:35:08Z</time></trkpt><trkpt lat="43.517634448739614" lon="10.316563316565864"><ele>1.9999999999999998</ele><time>2026-05-02T08:35:09Z</time></trkpt><trkpt lat="43.51757152341821" lon="10.316575904479306"><ele>2.0</ele><time>2026-05-02T08:35:10Z</time></trkpt><trkpt lat="43.517506919435064" lon="10.316588724918699"><ele>2.0</ele><time>2026-05-02T08:35:11Z</time></trkpt><trkpt lat="43.517442176542424" lon="10.316603207879966"><ele>2.0</ele><time>2026-05-02T08:35:12Z</time></trkpt><trkpt lat="43.51737857408169" lon="10.316616615434583"><ele>1.9999999999999998</ele><time>2026-05-02T08:35:13Z</time></trkpt><trkpt lat="43.51731261330467" lon="10.31663516704098"><ele>2.0</ele><time>2026-05-02T08:35:14Z</time></trkpt><trkpt lat="43.517248063481325" lon="10.316651809084592"><ele>2.0</ele><time>2026-05-02T08:35:15Z</time></trkpt><trkpt lat="43.517184338095" lon="10.316664902599541"><ele>1.9999999999999998</ele><time>2026-05-02T08:35:16Z</time></trkpt><trkpt lat="43.517117441775184" lon="10.316678992610738"><ele>2.0</ele><time>2026-05-02T08:35:17Z</time></trkpt><trkpt lat="43.517052247039196" lon="10.316699065069804"><ele>2.0</ele><time>2026-05-02T08:35:18Z</time></trkpt><trkpt lat="43.516990142043184" lon="10.316714714593617"><ele>2.142857142857143</ele><time>2026-05-02T08:35:19Z</time></trkpt><trkpt lat="43.516920643433586" lon="10.316724686968502"><ele>2.2857142857142856</ele><time>2026-05-02T08:35:20Z</time></trkpt><trkpt lat="43.51685317112665" lon="10.316732615656957"><ele>2.4285714285714284</ele><time>2026-05-02T08:35:21Z</time></trkpt><trkpt lat="43.51678303587007" lon="10.31674825068353"><ele>2.571428571428571</ele><time>2026-05-02T08:35:22Z</time></trkpt><trkpt lat="43.516715611916005" lon="10.31675911267586"><ele>2.7142857142857144</ele><time>2026-05-02T08:35:23Z</time></trkpt><trkpt lat="43.51664638818073" lon="10.316767476182097"><ele>2.8571428571428568</ele><time>2026-05-02T08:35:24Z</time></trkpt><trkpt lat="43.516575977956876" lon="10.316779726752129"><ele>3.0</ele><time>2026-05-02T08:35:25Z</time></trkpt><trkpt lat="43.5165100798057" lon="10.31679536592192"><ele>2.9999999999999996</ele><time>2026-05-02T08:35:26Z</time></trkpt><trkpt lat="43.5164413640313" lon="10.316812348343394"><ele>3.0</ele><time>2026-05-02T08:35:27Z</time></trkpt><trkpt lat="43.51637628484588" lon="10.31682116750553"><ele>3.0</ele><time>2026-05-02T08:35:28Z</time></trkpt><trkpt lat="43.516310723000295" lon="10.316834191174998"><ele>3.0</ele><time>2026-05-02T08:35:29Z</time></trkpt><trkpt lat="43.51624382512057" lon="10.316843064926344"><ele>3.0</ele><time>2026-05-02T08:35:30Z</time></trkpt><trkpt lat="43.51617538495366" lon="10.31685610791329"><ele>2.9999999999999996</ele><time>2026-05-02T08:35:31Z</time></trkpt><trkpt lat="43.51611127532545" lon="10.316867373686645"><ele>3.0</ele><time>2026-05-02T08:35:32Z</time></trkpt><trkpt lat="43.516043091685454" lon="10.316883284259069"><ele>2.8571428571428568</ele><time>2026-05-02T08:35:33Z</time></trkpt><trkpt lat="43.51597843873731" lon="10.316894403766844"><ele>2.7142857142857144</ele><time>2026-05-02T08:35:34Z</time></trkpt><trkpt lat="43.515913065246416" lon="10.316905551358737"><ele>2.571428571428571</ele><time>2026-05-02T08:35:35Z</time></trkpt><trkpt lat="43.515848294262526" lon="10.316914486139789"><ele>2.4285714285714284</ele><time>2026-05-02T08:35:36Z</time></trkpt><trkpt lat="43.51578231064522" lon="10.316930188545113"><ele>2.2857142857142856</ele><time>2026-05-02T08:35:37Z</time></trkpt><trkpt lat="43.515717203822554" lon="10.316944342118601"><ele>2.142857142857143</ele><time>2026-05-02T08:35:38Z</time></trkpt><trkpt lat="43.51565376712974" lon="10.316944473784655"><ele>2.0</ele><time>2026-05-02T08:35:39Z</time></trkpt><trkpt lat="43.51558182805666" lon="10.316955449322576"><ele>1.9999999999999998</ele><time>2026-05-02T08:35:40Z</time></trkpt><trkpt lat="43.51545673358606" lon="10.316971354919696"><ele>2.0</ele><time>2026-05-02T08:35:42Z</time></trkpt><trkpt lat="43.51539172837784" lon="10.316986591856699"><ele>2.0</ele><time>2026-05-02T08:35:43Z</time></trkpt><trkpt lat="43.51527042795449" lon="10.317002118680094"><ele>2.0</ele><time>2026-05-02T08:35:45Z</time></trkpt><trkpt lat="43.51520620961935" lon="10.317019245488327"><ele>1.9999999999999998</ele><time>2026-05-02T08:35:46Z</time></trkpt><trkpt lat="43.51514099571985" lon="10.317036659699486"><ele>2.0</ele><time>2026-05-02T08:35:47Z</time></trkpt><trkpt lat="43.51502161277647" lon="10.31708773878787"><ele>1.9999999999999998</ele><time>2026-05-02T08:35:49Z</time></trkpt><trkpt lat="43.51496183424406" lon="10.317123812692872"><ele>2.0</ele><time>2026-05-02T08:35:50Z</time></trkpt><trkpt lat="43.51485501946275" lon="10.31721021906347"><ele>2.0</ele><time>2026-05-02T08:35:52Z</time></trkpt><trkpt lat="43.51480581488349" lon="10.317265082721807"><ele>2.0</ele><time>2026-05-02T08:35:53Z</time></trkpt><trkpt lat="43.51475544184666" lon="10.317317356588699"><ele>1.9999999999999998</ele><time>2026-05-02T08:35:54Z</time></trkpt><trkpt lat="43.51465894559458" lon="10.317427457373714"><ele>2.0</ele><time>2026-05-02T08:35:56Z</time></trkpt><trkpt lat="43.51461306113517" lon="10.317491484635953"><ele>2.6666666666666665</ele><time>2026-05-02T08:35:57Z</time></trkpt><trkpt lat="43.514531032156704" lon="10.31761915515253"><ele>3.333333333333333</ele><time>2026-05-02T08:35:59Z</time></trkpt><trkpt lat="43.51448399432774" lon="10.317687539093617"><ele>4.0</ele><time>2026-05-02T08:36:00Z</time></trkpt><trkpt lat="43.51439272441525" lon="10.317805838208423"><ele>4.666666666666667</ele><time>2026-05-02T08:36:02Z</time></trkpt><trkpt lat="43.51434714993189" lon="10.317867100689886"><ele>5.333333333333333</ele><time>2026-05-02T08:36:03Z</time></trkpt><trkpt lat="43.514297767260906" lon="10.317925944070511"><ele>6.0</ele><time>2026-05-02T08:36:04Z</time></trkpt><trkpt lat="43.51420231435505" lon="10.318038797904372"><ele>6.333333333333333</ele><time>2026-05-02T08:36:06Z</time></trkpt><trkpt lat="43.51410688555766" lon="10.31815383387986"><ele>6.666666666666666</ele><time>2026-05-02T08:36:08Z</time></trkpt><trkpt lat="43.51405745365768" lon="10.318207618539063"><ele>7.0</ele><time>2026-05-02T08:36:09Z</time></trkpt><trkpt lat="43.514004105864686" lon="10.318256286062429"><ele>7.333333333333333</ele><time>2026-05-02T08:36:10Z</time></trkpt><trkpt lat="43.513947587844" lon="10.31830447273086"><ele>7.666666666666666</ele><time>2026-05-02T08:36:11Z</time></trkpt><trkpt lat="43.51388881059554" lon="10.31834630560036"><ele>8.0</ele><time>2026-05-02T08:36:12Z</time></trkpt><trkpt lat="43.51377062907412" lon="10.318407619198569"><ele>7.666666666666666</ele><time>2026-05-02T08:36:14Z</time></trkpt><trkpt lat="43.51370910003867" lon="10.318431327226552"><ele>7.333333333333333</ele><time>2026-05-02T08:36:15Z</time></trkpt><trkpt lat="43.51364335671716" lon="10.318436832898334"><ele>7.0</ele><time>2026-05-02T08:36:16Z</time></trkpt><trkpt lat="43.51351831250164" lon="10.318438312672976"><ele>6.666666666666666</ele><time>2026-05-02T08:36:18Z</time></trkpt><trkpt lat="43.51345106465665" lon="10.318434653624772"><ele>6.333333333333333</ele><time>2026-05-02T08:36:19Z</time></trkpt><trkpt lat="43.51338733401791" lon="10.318421643849085"><ele>6.0</ele><time>2026-05-02T08:36:20Z</time></trkpt><trkpt lat="43.51332319339367" lon="10.318410959835997"><ele>5.999999999999999</ele><time>2026-05-02T08:36:21Z</time></trkpt><trkpt lat="43.51325843086557" lon="10.318396143278557"><ele>6.0</ele><time>2026-05-02T08:36:22Z</time></trkpt><trkpt lat="43.51319517546117" lon="10.318374143431907"><ele>6.0</ele><time>2026-05-02T08:36:23Z</time></trkpt><trkpt lat="43.51313034453327" lon="10.318349467850128"><ele>6.0</ele><time>2026-05-02T08:36:24Z</time></trkpt><trkpt lat="43.51306964015446" lon="10.318320276577738"><ele>6.0</ele><time>2026-05-02T08:36:25Z</time></trkpt><trkpt lat="43.51300720790898" lon="10.318291439976843"><ele>5.999999999999999</ele><time>2026-05-02T08:36:26Z</time></trkpt><trkpt lat="43.512947180429634" lon="10.31825917945707"><ele>6.0</ele><time>2026-05-02T08:36:27Z</time></trkpt><trkpt lat="43.51288612674085" lon="10.318226707171428"><ele>5.999999999999999</ele><time>2026-05-02T08:36:28Z</time></trkpt><trkpt lat="43.51282300582945" lon="10.3181951600172"><ele>6.0</ele><time>2026-05-02T08:36:29Z</time></trkpt><trkpt lat="43.51276358248081" lon="10.318165189363576"><ele>6.0</ele><time>2026-05-02T08:36:30Z</time></trkpt><trkpt lat="43.512700647522976" lon="10.318143329364112"><ele>6.0</ele><time>2026-05-02T08:36:31Z</time></trkpt><trkpt lat="43.51263727712162" lon="10.318120977769764"><ele>6.0</ele><time>2026-05-02T08:36:32Z</time></trkpt><trkpt lat="43.5125748065182" lon="10.3181093911901"><ele>5.999999999999999</ele><time>2026-05-02T08:36:33Z</time></trkpt><trkpt lat="43.51245659313391" lon="10.318167037933158"><ele>6.0</ele><time>2026-05-02T08:36:35Z</time></trkpt><trkpt lat="43.512413971753745" lon="10.318235231314038"><ele>5.999999999999999</ele><time>2026-05-02T08:36:36Z</time></trkpt><trkpt lat="43.51237971227758" lon="10.318315171936542"><ele>6.0</ele><time>2026-05-02T08:36:37Z</time></trkpt><trkpt lat="43.51234198236131" lon="10.318386560893849"><ele>6.0</ele><time>2026-05-02T08:36:38Z</time></trkpt><trkpt lat="43.51230270382177" lon="10.318457390674318"><ele>6.0</ele><time>2026-05-02T08:36:39Z</time></trkpt><trkpt lat="43.51226617606145" lon="10.318533946585477"><ele>6.0</ele><time>2026-05-02T08:36:40Z</time></trkpt><trkpt lat="43.51222023506327" lon="10.318598470212251"><ele>5.999999999999999</ele><time>2026-05-02T08:36:41Z</time></trkpt><trkpt lat="43.51217028973176" lon="10.318659492580498"><ele>6.0</ele><time>2026-05-02T08:36:42Z</time></trkpt><trkpt lat="43.512122957057535" lon="10.318722751352457"><ele>6.0</ele><time>2026-05-02T08:36:43Z</time></trkpt><trkpt lat="43.512077979446694" lon="10.31878963483948"><ele>6.0</ele><time>2026-05-02T08:36:44Z</time></trkpt><trkpt lat="43.51202956909751" lon="10.318852518022945"><ele>6.0</ele><time>2026-05-02T08:36:45Z</time></trkpt><trkpt lat="43.511983995910256" lon="10.318915121174198"><ele>6.0</ele><time>2026-05-02T08:36:46Z</time></trkpt><trkpt lat="43.51189660176718" lon="10.319038567884364"><ele>6.0</ele><time>2026-05-02T08:36:48Z</time></trkpt><trkpt lat="43.51185056149089" lon="10.319098554720108"><ele>6.0</ele><time>2026-05-02T08:36:49Z</time></trkpt><trkpt lat="43.51180851574974" lon="10.319167344491174"><ele>5.0</ele><time>2026-05-02T08:36:50Z</time></trkpt><trkpt lat="43.51172821570932" lon="10.319282023992955"><ele>3.9999999999999996</ele><time>2026-05-02T08:36:52Z</time></trkpt><trkpt lat="43.51164350197974" lon="10.319387789146223"><ele>3.0</ele><time>2026-05-02T08:36:54Z</time></trkpt><trkpt lat="43.51153846971806" lon="10.319465926375678"><ele>2.0</ele><time>2026-05-02T08:36:56Z</time></trkpt><trkpt lat="43.51147778256654" lon="10.319496457487801"><ele>1.0</ele><time>2026-05-02T08:36:57Z</time></trkpt><trkpt lat="43.51141491270347" lon="10.319513321181784"><ele>1.0</ele><time>2026-05-02T08:36:58Z</time></trkpt><trkpt lat="43.5113505149352" lon="10.319516219421493"><ele>0.9999999999999999</ele><time>2026-05-02T08:36:59Z</time></trkpt><trkpt lat="43.51128679285552" lon="10.31950194585245"><ele>1.0</ele><time>2026-05-02T08:37:00Z</time></trkpt><trkpt lat="43.51122491415377" lon="10.319481788659361"><ele>1.0</ele><time>2026-05-02T08:37:01Z</time></trkpt><trkpt lat="43.51116399869472" lon="10.31945739035479"><ele>0.9999999999999999</ele><time>2026-05-02T08:37:02Z</time></trkpt><trkpt lat="43.511099294938376" lon="10.319425851771925"><ele>1.0</ele><time>2026-05-02T08:37:03Z</time></trkpt><trkpt lat="43.51103915520122" lon="10.319399874811763"><ele>1.0</ele><time>2026-05-02T08:37:04Z</time></trkpt><trkpt lat="43.51097891767786" lon="10.319374340719097"><ele>1.0</ele><time>2026-05-02T08:37:05Z</time></trkpt><trkpt lat="43.5109171171089" lon="10.319347864741822"><ele>0.9999999999999999</ele><time>2026-05-02T08:37:06Z</time></trkpt><trkpt lat="43.51085402406738" lon="10.319322633822436"><ele>1.0</ele><time>2026-05-02T08:37:07Z</time></trkpt><trkpt lat="43.510789692494" lon="10.319297957780822"><ele>1.0</ele><time>2026-05-02T08:37:08Z</time></trkpt><trkpt lat="43.51072539164547" lon="10.31926800835883"><ele>0.9999999999999999</ele><time>2026-05-02T08:37:09Z</time></trkpt><trkpt lat="43.51066382249709" lon="10.319230583641936"><ele>1.0</ele><time>2026-05-02T08:37:10Z</time></trkpt><trkpt lat="43.510606278750856" lon="10.31919046668159"><ele>1.0</ele><time>2026-05-02T08:37:11Z</time></trkpt><trkpt lat="43.51054499888034" lon="10.319158280248889"><ele>0.9999999999999999</ele><time>2026-05-02T08:37:12Z</time></trkpt><trkpt lat="43.51048068272802" lon="10.31913540023516"><ele>1.0</ele><time>2026-05-02T08:37:13Z</time></trkpt><trkpt lat="43.51035288405242" lon="10.319129619312386"><ele>1.0</ele><time>2026-05-02T08:37:15Z</time></trkpt><trkpt lat="43.51028781553571" lon="10.319139833631526"><ele>1.0</ele><time>2026-05-02T08:37:16Z</time></trkpt><trkpt lat="43.51016883879411" lon="10.319133501321195"><ele>0.9999999999999999</ele><time>2026-05-02T08:37:18Z</time></trkpt><trkpt lat="43.510105752489004" lon="10.319142117460402"><ele>1.0</ele><time>2026-05-02T08:37:19Z</time></trkpt><trkpt lat="43.51004223123338" lon="10.31914877131232"><ele>1.5</ele><time>2026-05-02T08:37:20Z</time></trkpt><trkpt lat="43.50991976310035" lon="10.319168579756893"><ele>2.0</ele><time>2026-05-02T08:37:22Z</time></trkpt><trkpt lat="43.50980101966191" lon="10.3191819115817"><ele>2.5</ele><time>2026-05-02T08:37:24Z</time></trkpt><trkpt lat="43.509680995777245" lon="10.319204689794237"><ele>3.0</ele><time>2026-05-02T08:37:26Z</time></trkpt><trkpt lat="43.5095593406913" lon="10.319232760511804"><ele>3.4</ele><time>2026-05-02T08:37:28Z</time></trkpt><trkpt lat="43.509434835300254" lon="10.319262326737954"><ele>3.8</ele><time>2026-05-02T08:37:30Z</time></trkpt><trkpt lat="43.50931004473009" lon="10.319279583724372"><ele>4.2</ele><time>2026-05-02T08:37:32Z</time></trkpt><trkpt lat="43.509246822519856" lon="10.319290530753822"><ele>4.6</ele><time>2026-05-02T08:37:33Z</time></trkpt><trkpt lat="43.50918255004483" lon="10.319307673136471"><ele>5.0</ele><time>2026-05-02T08:37:34Z</time></trkpt><trkpt lat="43.50905846423603" lon="10.319344472903811"><ele>5.0</ele><time>2026-05-02T08:37:36Z</time></trkpt><trkpt lat="43.50899688326554" lon="10.319363199943085"><ele>5.0</ele><time>2026-05-02T08:37:37Z</time></trkpt><trkpt lat="43.508934060940106" lon="10.31938093598103"><ele>5.0</ele><time>2026-05-02T08:37:38Z</time></trkpt><trkpt lat="43.50886959665777" lon="10.31940001396056"><ele>5.0</ele><time>2026-05-02T08:37:39Z</time></trkpt><trkpt lat="43.508806105426565" lon="10.319413046546728"><ele>5.0</ele><time>2026-05-02T08:37:40Z</time></trkpt><trkpt lat="43.50874175548015" lon="10.319428650749613"><ele>5.0</ele><time>2026-05-02T08:37:41Z</time></trkpt><trkpt lat="43.508678004958576" lon="10.319444307939861"><ele>5.0</ele><time>2026-05-02T08:37:42Z</time></trkpt><trkpt lat="43.50861205508252" lon="10.319461660298478"><ele>4.857142857142857</ele><time>2026-05-02T08:37:43Z</time></trkpt><trkpt lat="43.50854777527778" lon="10.319477022180486"><ele>4.714285714285714</ele><time>2026-05-02T08:37:44Z</time></trkpt><trkpt lat="43.508484341449474" lon="10.319491453751091"><ele>4.571428571428571</ele><time>2026-05-02T08:37:45Z</time></trkpt><trkpt lat="43.50841853008582" lon="10.319505201405452"><ele>4.428571428571429</ele><time>2026-05-02T08:37:46Z</time></trkpt><trkpt lat="43.50835583008548" lon="10.319516760501859"><ele>4.285714285714286</ele><time>2026-05-02T08:37:47Z</time></trkpt><trkpt lat="43.508292361582534" lon="10.319533872810663"><ele>4.142857142857142</ele><time>2026-05-02T08:37:48Z</time></trkpt><trkpt lat="43.508228895448774" lon="10.319552118545962"><ele>4.0</ele><time>2026-05-02T08:37:49Z</time></trkpt><trkpt lat="43.508166489553105" lon="10.31956669124927"><ele>4.0</ele><time>2026-05-02T08:37:50Z</time></trkpt><trkpt lat="43.508101963211296" lon="10.319580474344129"><ele>3.9999999999999996</ele><time>2026-05-02T08:37:51Z</time></trkpt><trkpt lat="43.50803915851439" lon="10.31959613948645"><ele>4.0</ele><time>2026-05-02T08:37:52Z</time></trkpt><trkpt lat="43.507915039031204" lon="10.319622301664761"><ele>4.0</ele><time>2026-05-02T08:37:54Z</time></trkpt><trkpt lat="43.50785129443483" lon="10.319634982371896"><ele>3.9999999999999996</ele><time>2026-05-02T08:37:55Z</time></trkpt><trkpt lat="43.50778701149413" lon="10.319646727256563"><ele>4.0</ele><time>2026-05-02T08:37:56Z</time></trkpt><trkpt lat="43.507724537053925" lon="10.319660539087316"><ele>4.0</ele><time>2026-05-02T08:37:57Z</time></trkpt><trkpt lat="43.50760321425637" lon="10.319689593921138"><ele>4.2</ele><time>2026-05-02T08:37:59Z</time></trkpt><trkpt lat="43.50753882261524" lon="10.319704155800158"><ele>4.4</ele><time>2026-05-02T08:38:00Z</time></trkpt><trkpt lat="43.50741635599556" lon="10.319736701734314"><ele>4.6</ele><time>2026-05-02T08:38:02Z</time></trkpt><trkpt lat="43.50729604158139" lon="10.319764738330672"><ele>4.8</ele><time>2026-05-02T08:38:04Z</time></trkpt><trkpt lat="43.507174149372055" lon="10.31979371731417"><ele>5.0</ele><time>2026-05-02T08:38:06Z</time></trkpt><trkpt lat="43.507050364885544" lon="10.319822586491009"><ele>5.166666666666667</ele><time>2026-05-02T08:38:08Z</time></trkpt><trkpt lat="43.50698742332362" lon="10.319841708942166"><ele>5.333333333333334</ele><time>2026-05-02T08:38:09Z</time></trkpt><trkpt lat="43.50692534598825" lon="10.31985793382049"><ele>5.5</ele><time>2026-05-02T08:38:10Z</time></trkpt><trkpt lat="43.50686297479891" lon="10.319874369326651"><ele>5.666666666666667</ele><time>2026-05-02T08:38:11Z</time></trkpt><trkpt lat="43.50673977850954" lon="10.319902208521043"><ele>5.833333333333333</ele><time>2026-05-02T08:38:13Z</time></trkpt><trkpt lat="43.50667730284828" lon="10.319918674467747"><ele>6.0</ele><time>2026-05-02T08:38:14Z</time></trkpt><trkpt lat="43.50655418761351" lon="10.319943202950453"><ele>6.0</ele><time>2026-05-02T08:38:16Z</time></trkpt><trkpt lat="43.506431186660656" lon="10.319961801760128"><ele>6.0</ele><time>2026-05-02T08:38:18Z</time></trkpt><trkpt lat="43.50636844616821" lon="10.31997151268205"><ele>6.0</ele><time>2026-05-02T08:38:19Z</time></trkpt><trkpt lat="43.50630565805599" lon="10.319982133557303"><ele>6.0</ele><time>2026-05-02T08:38:20Z</time></trkpt><trkpt lat="43.50624123281193" lon="10.319995317742194"><ele>6.0</ele><time>2026-05-02T08:38:21Z</time></trkpt><trkpt lat="43.50617491547339" lon="10.320010492751225"><ele>6.0</ele><time>2026-05-02T08:38:22Z</time></trkpt><trkpt lat="43.50605055534316" lon="10.32004321941908"><ele>5.25</ele><time>2026-05-02T08:38:24Z</time></trkpt><trkpt lat="43.505930069514164" lon="10.320073407486438"><ele>4.5</ele><time>2026-05-02T08:38:26Z</time></trkpt><trkpt lat="43.50580787329228" lon="10.320109257731213"><ele>3.75</ele><time>2026-05-02T08:38:28Z</time></trkpt><trkpt lat="43.505692632721356" lon="10.320137129220562"><ele>3.0</ele><time>2026-05-02T08:38:30Z</time></trkpt><trkpt lat="43.50557401140197" lon="10.320173856434964"><ele>3.0</ele><time>2026-05-02T08:38:32Z</time></trkpt><trkpt lat="43.50545630355778" lon="10.320198677651096"><ele>3.0</ele><time>2026-05-02T08:38:34Z</time></trkpt><trkpt lat="43.50533617353038" lon="10.320219623140472"><ele>3.0</ele><time>2026-05-02T08:38:36Z</time></trkpt><trkpt lat="43.505216778472935" lon="10.32024640709217"><ele>3.0</ele><time>2026-05-02T08:38:38Z</time></trkpt><trkpt lat="43.505099264341304" lon="10.32028167543767"><ele>2.75</ele><time>2026-05-02T08:38:40Z</time></trkpt><trkpt lat="43.504983474852935" lon="10.320309883124128"><ele>2.5</ele><time>2026-05-02T08:38:42Z</time></trkpt><trkpt lat="43.5048670376529" lon="10.320342342021986"><ele>2.25</ele><time>2026-05-02T08:38:44Z</time></trkpt><trkpt lat="43.504754202420465" lon="10.320366178746719"><ele>2.0</ele><time>2026-05-02T08:38:46Z</time></trkpt><trkpt lat="43.50463707537908" lon="10.320394363478155"><ele>2.2</ele><time>2026-05-02T08:38:48Z</time></trkpt><trkpt lat="43.504518521046116" lon="10.320427450019025"><ele>2.4000000000000004</ele><time>2026-05-02T08:38:50Z</time></trkpt><trkpt lat="43.504402410650094" lon="10.320451652817844"><ele>2.5999999999999996</ele><time>2026-05-02T08:38:52Z</time></trkpt><trkpt lat="43.504285006918714" lon="10.320475115114837"><ele>2.8</ele><time>2026-05-02T08:38:54Z</time></trkpt><trkpt lat="43.50422277324083" lon="10.320488381749122"><ele>3.0</ele><time>2026-05-02T08:38:55Z</time></trkpt><trkpt lat="43.50410477843697" lon="10.320523235681755"><ele>3.0</ele><time>2026-05-02T08:38:57Z</time></trkpt><trkpt lat="43.503988604576875" lon="10.320555346072233"><ele>3.0</ele><time>2026-05-02T08:38:59Z</time></trkpt><trkpt lat="43.503867578614056" lon="10.320584315504467"><ele>3.0</ele><time>2026-05-02T08:39:01Z</time></trkpt><trkpt lat="43.50374990138461" lon="10.320610639239465"><ele>3.0</ele><time>2026-05-02T08:39:03Z</time></trkpt><trkpt lat="43.50362903909756" lon="10.320644491348615"><ele>4.5</ele><time>2026-05-02T08:39:05Z</time></trkpt><trkpt lat="43.50351258681746" lon="10.320676505850916"><ele>6.0</ele><time>2026-05-02T08:39:07Z</time></trkpt><trkpt lat="43.50339735073138" lon="10.320696656622145"><ele>7.5</ele><time>2026-05-02T08:39:09Z</time></trkpt><trkpt lat="43.503279023243266" lon="10.320726757011476"><ele>9.0</ele><time>2026-05-02T08:39:11Z</time></trkpt><trkpt lat="43.503162572769256" lon="10.320753480531335"><ele>9.0</ele><time>2026-05-02T08:39:13Z</time></trkpt><trkpt lat="43.50304330282" lon="10.320779236143224"><ele>9.0</ele><time>2026-05-02T08:39:15Z</time></trkpt><trkpt lat="43.50292588274724" lon="10.320809307244028"><ele>9.0</ele><time>2026-05-02T08:39:17Z</time></trkpt><trkpt lat="43.50280753756592" lon="10.320844934717078"><ele>9.0</ele><time>2026-05-02T08:39:19Z</time></trkpt><trkpt lat="43.50269005214704" lon="10.320873846977307"><ele>8.5</ele><time>2026-05-02T08:39:21Z</time></trkpt><trkpt lat="43.502573513936674" lon="10.320893394972467"><ele>8.0</ele><time>2026-05-02T08:39:23Z</time></trkpt><trkpt lat="43.502459151338456" lon="10.32092409453191"><ele>7.5</ele><time>2026-05-02T08:39:25Z</time></trkpt><trkpt lat="43.502344254935736" lon="10.320958505995003"><ele>7.0</ele><time>2026-05-02T08:39:27Z</time></trkpt><trkpt lat="43.50222652120522" lon="10.320976533072809"><ele>7.0</ele><time>2026-05-02T08:39:29Z</time></trkpt><trkpt lat="43.50211058391352" lon="10.32100761307365"><ele>7.0</ele><time>2026-05-02T08:39:31Z</time></trkpt><trkpt lat="43.50199663307968" lon="10.321032099773113"><ele>7.0</ele><time>2026-05-02T08:39:33Z</time></trkpt><trkpt lat="43.501881199743785" lon="10.321055576086412"><ele>7.0</ele><time>2026-05-02T08:39:35Z</time></trkpt><trkpt lat="43.501763874377694" lon="10.32109037186603"><ele>7.0</ele><time>2026-05-02T08:39:37Z</time></trkpt><trkpt lat="43.50164670683653" lon="10.321114271107243"><ele>7.0</ele><time>2026-05-02T08:39:39Z</time></trkpt><trkpt lat="43.50152841862794" lon="10.321141380827052"><ele>7.0</ele><time>2026-05-02T08:39:41Z</time></trkpt><trkpt lat="43.50141310219963" lon="10.32117508355241"><ele>7.0</ele><time>2026-05-02T08:39:43Z</time></trkpt><trkpt lat="43.50129764252695" lon="10.321196645376746"><ele>7.5</ele><time>2026-05-02T08:39:45Z</time></trkpt><trkpt lat="43.501175624089605" lon="10.321209690315097"><ele>8.0</ele><time>2026-05-02T08:39:47Z</time></trkpt><trkpt lat="43.50105611947534" lon="10.321232893796228"><ele>8.5</ele><time>2026-05-02T08:39:49Z</time></trkpt><trkpt lat="43.50094042822067" lon="10.321263534798021"><ele>9.0</ele><time>2026-05-02T08:39:51Z</time></trkpt><trkpt lat="43.50082053223982" lon="10.321295934554602"><ele>9.0</ele><time>2026-05-02T08:39:53Z</time></trkpt><trkpt lat="43.500705206829814" lon="10.321332805524635"><ele>9.0</ele><time>2026-05-02T08:39:55Z</time></trkpt><trkpt lat="43.50058999250629" lon="10.3213756041612"><ele>9.0</ele><time>2026-05-02T08:39:57Z</time></trkpt><trkpt lat="43.50047244202137" lon="10.321422207860774"><ele>9.0</ele><time>2026-05-02T08:39:59Z</time></trkpt><trkpt lat="43.50035289856306" lon="10.321470479898741"><ele>9.166666666666666</ele><time>2026-05-02T08:40:01Z</time></trkpt><trkpt lat="43.500290000886594" lon="10.321495428569484"><ele>9.333333333333334</ele><time>2026-05-02T08:40:02Z</time></trkpt><trkpt lat="43.50022820605938" lon="10.321515953452383"><ele>9.5</ele><time>2026-05-02T08:40:03Z</time></trkpt><trkpt lat="43.50010629687234" lon="10.321555914826494"><ele>9.666666666666668</ele><time>2026-05-02T08:40:05Z</time></trkpt><trkpt lat="43.50004333147827" lon="10.3215756913232"><ele>9.833333333333334</ele><time>2026-05-02T08:40:06Z</time></trkpt><trkpt lat="43.49997927611234" lon="10.321599400430431"><ele>10.0</ele><time>2026-05-02T08:40:07Z</time></trkpt><trkpt lat="43.499915235729326" lon="10.321621980279112"><ele>10.0</ele><time>2026-05-02T08:40:08Z</time></trkpt><trkpt lat="43.49985220588412" lon="10.321636876501247"><ele>10.0</ele><time>2026-05-02T08:40:09Z</time></trkpt><trkpt lat="43.4997861015332" lon="10.321656481034632"><ele>10.0</ele><time>2026-05-02T08:40:10Z</time></trkpt><trkpt lat="43.4997216271505" lon="10.321680294014227"><ele>10.0</ele><time>2026-05-02T08:40:11Z</time></trkpt><trkpt lat="43.4996550471109" lon="10.321709672844518"><ele>10.0</ele><time>2026-05-02T08:40:12Z</time></trkpt><trkpt lat="43.49952674123437" lon="10.321743806406108"><ele>10.0</ele><time>2026-05-02T08:40:14Z</time></trkpt><trkpt lat="43.499458811267786" lon="10.321763279151446"><ele>9.833333333333334</ele><time>2026-05-02T08:40:15Z</time></trkpt><trkpt lat="43.49939406517915" lon="10.321787844022301"><ele>9.666666666666668</ele><time>2026-05-02T08:40:16Z</time></trkpt><trkpt lat="43.49933099728525" lon="10.321811133866023"><ele>9.5</ele><time>2026-05-02T08:40:17Z</time></trkpt><trkpt lat="43.49922736566462" lon="10.321847647212099"><ele>9.333333333333334</ele><time>2026-05-02T08:40:19Z</time></trkpt><trkpt lat="43.499161214464706" lon="10.321864540604317"><ele>9.166666666666666</ele><time>2026-05-02T08:40:21Z</time></trkpt><trkpt lat="43.49909569167302" lon="10.321886343456391"><ele>9.0</ele><time>2026-05-02T08:40:23Z</time></trkpt><trkpt lat="43.49900295296988" lon="10.321918020815266"><ele>9.0</ele><time>2026-05-02T08:40:26Z</time></trkpt><trkpt lat="43.498907915523276" lon="10.32195612170461"><ele>9.0</ele><time>2026-05-02T08:40:28Z</time></trkpt><trkpt lat="43.4987971123187" lon="10.321993523700852"><ele>9.0</ele><time>2026-05-02T08:40:30Z</time></trkpt><trkpt lat="43.4986761064358" lon="10.32203182681584"><ele>9.0</ele><time>2026-05-02T08:40:32Z</time></trkpt><trkpt lat="43.498613984139226" lon="10.32204960468413"><ele>9.0</ele><time>2026-05-02T08:40:33Z</time></trkpt><trkpt lat="43.498552017279465" lon="10.322073316421205"><ele>8.285714285714286</ele><time>2026-05-02T08:40:34Z</time></trkpt><trkpt lat="43.49848949700871" lon="10.322094431275048"><ele>7.571428571428571</ele><time>2026-05-02T08:40:35Z</time></trkpt><trkpt lat="43.49842491455865" lon="10.322114520616415"><ele>6.857142857142858</ele><time>2026-05-02T08:40:36Z</time></trkpt><trkpt lat="43.49835802135951" lon="10.322133241709057"><ele>6.142857142857143</ele><time>2026-05-02T08:40:37Z</time></trkpt><trkpt lat="43.49829191707573" lon="10.322154214347888"><ele>5.428571428571429</ele><time>2026-05-02T08:40:38Z</time></trkpt><trkpt lat="43.498226663956316" lon="10.322177208305977"><ele>4.714285714285714</ele><time>2026-05-02T08:40:39Z</time></trkpt><trkpt lat="43.49816258163458" lon="10.322200713502145"><ele>4.0</ele><time>2026-05-02T08:40:40Z</time></trkpt><trkpt lat="43.49809903385359" lon="10.322218403223848"><ele>4.0</ele><time>2026-05-02T08:40:41Z</time></trkpt><trkpt lat="43.498033986277875" lon="10.322228435294054"><ele>3.9999999999999996</ele><time>2026-05-02T08:40:42Z</time></trkpt><trkpt lat="43.49797168829646" lon="10.32224233190438"><ele>4.0</ele><time>2026-05-02T08:40:43Z</time></trkpt><trkpt lat="43.497909168390485" lon="10.322265943798564"><ele>4.0</ele><time>2026-05-02T08:40:44Z</time></trkpt><trkpt lat="43.497845849379125" lon="10.322284448525155"><ele>3.9999999999999996</ele><time>2026-05-02T08:40:45Z</time></trkpt><trkpt lat="43.49778351320559" lon="10.322301861054816"><ele>4.0</ele><time>2026-05-02T08:40:46Z</time></trkpt><trkpt lat="43.49771978245941" lon="10.322319256368042"><ele>4.0</ele><time>2026-05-02T08:40:47Z</time></trkpt><trkpt lat="43.49759816594769" lon="10.322357250133923"><ele>5.0</ele><time>2026-05-02T08:40:49Z</time></trkpt><trkpt lat="43.49747685414455" lon="10.32239581796722"><ele>6.0</ele><time>2026-05-02T08:40:51Z</time></trkpt><trkpt lat="43.49735780826991" lon="10.32243631510904"><ele>7.0</ele><time>2026-05-02T08:40:53Z</time></trkpt><trkpt lat="43.49723924419719" lon="10.32248778738309"><ele>8.0</ele><time>2026-05-02T08:40:55Z</time></trkpt><trkpt lat="43.497179027231574" lon="10.32252104568704"><ele>9.0</ele><time>2026-05-02T08:40:56Z</time></trkpt><trkpt lat="43.4971203396655" lon="10.32255808739346"><ele>8.142857142857144</ele><time>2026-05-02T08:40:57Z</time></trkpt><trkpt lat="43.49706023332868" lon="10.322597820809266"><ele>7.285714285714286</ele><time>2026-05-02T08:40:58Z</time></trkpt><trkpt lat="43.49700109955462" lon="10.322643743610136"><ele>6.428571428571429</ele><time>2026-05-02T08:40:59Z</time></trkpt><trkpt lat="43.49694260892856" lon="10.322690542311513"><ele>5.571428571428572</ele><time>2026-05-02T08:41:00Z</time></trkpt><trkpt lat="43.49688518989399" lon="10.322743619037817"><ele>4.714285714285714</ele><time>2026-05-02T08:41:01Z</time></trkpt><trkpt lat="43.49682527318851" lon="10.322795970659557"><ele>3.8571428571428568</ele><time>2026-05-02T08:41:02Z</time></trkpt><trkpt lat="43.49676343384116" lon="10.322850784754971"><ele>3.0</ele><time>2026-05-02T08:41:03Z</time></trkpt><trkpt lat="43.49670486218602" lon="10.322900262037376"><ele>2.9999999999999996</ele><time>2026-05-02T08:41:04Z</time></trkpt><trkpt lat="43.496644880328596" lon="10.322951957838816"><ele>3.0</ele><time>2026-05-02T08:41:05Z</time></trkpt><trkpt lat="43.49658655944879" lon="10.323009120754907"><ele>3.0</ele><time>2026-05-02T08:41:06Z</time></trkpt><trkpt lat="43.49652641923067" lon="10.323062509204577"><ele>3.0</ele><time>2026-05-02T08:41:07Z</time></trkpt><trkpt lat="43.496468353391094" lon="10.323116193820718"><ele>3.0</ele><time>2026-05-02T08:41:08Z</time></trkpt><trkpt lat="43.496407226440056" lon="10.323165693500307"><ele>2.9999999999999996</ele><time>2026-05-02T08:41:09Z</time></trkpt><trkpt lat="43.49635245021343" lon="10.323214469230027"><ele>3.0</ele><time>2026-05-02T08:41:10Z</time></trkpt><trkpt lat="43.49629785112942" lon="10.323263461134824"><ele>3.571428571428571</ele><time>2026-05-02T08:41:11Z</time></trkpt><trkpt lat="43.49624301207212" lon="10.323314653929138"><ele>4.142857142857142</ele><time>2026-05-02T08:41:12Z</time></trkpt><trkpt lat="43.496184279784586" lon="10.323355217530876"><ele>4.714285714285714</ele><time>2026-05-02T08:41:13Z</time></trkpt><trkpt lat="43.49612602702185" lon="10.323389831269893"><ele>5.285714285714286</ele><time>2026-05-02T08:41:14Z</time></trkpt><trkpt lat="43.4960657984932" lon="10.323419464748493"><ele>5.857142857142857</ele><time>2026-05-02T08:41:15Z</time></trkpt><trkpt lat="43.496004725596556" lon="10.323441987453903"><ele>6.428571428571429</ele><time>2026-05-02T08:41:16Z</time></trkpt><trkpt lat="43.4959414674355" lon="10.323455215265234"><ele>7.0</ele><time>2026-05-02T08:41:17Z</time></trkpt><trkpt lat="43.495878564602606" lon="10.32346856710865"><ele>7.0</ele><time>2026-05-02T08:41:18Z</time></trkpt><trkpt lat="43.49581554010382" lon="10.323483844177366"><ele>7.0</ele><time>2026-05-02T08:41:19Z</time></trkpt><trkpt lat="43.49575199226668" lon="10.323489692109872"><ele>7.0</ele><time>2026-05-02T08:41:20Z</time></trkpt><trkpt lat="43.495685428605206" lon="10.323493410660399"><ele>7.0</ele><time>2026-05-02T08:41:21Z</time></trkpt><trkpt lat="43.49562062863404" lon="10.323497178061865"><ele>7.0</ele><time>2026-05-02T08:41:22Z</time></trkpt><trkpt lat="43.495557295182756" lon="10.323500874795629"><ele>7.0</ele><time>2026-05-02T08:41:23Z</time></trkpt><trkpt lat="43.49543480939694" lon="10.323501797254258"><ele>7.0</ele><time>2026-05-02T08:41:25Z</time></trkpt><trkpt lat="43.49531151014791" lon="10.323514730269107"><ele>6.0</ele><time>2026-05-02T08:41:27Z</time></trkpt><trkpt lat="43.495190662029614" lon="10.323525904140885"><ele>5.0</ele><time>2026-05-02T08:41:29Z</time></trkpt><trkpt lat="43.495071826681546" lon="10.323549127273944"><ele>4.0</ele><time>2026-05-02T08:41:31Z</time></trkpt><trkpt lat="43.49495560768682" lon="10.323582808914349"><ele>3.0</ele><time>2026-05-02T08:41:33Z</time></trkpt><trkpt lat="43.494837606316786" lon="10.323620455225843"><ele>3.0</ele><time>2026-05-02T08:41:35Z</time></trkpt><trkpt lat="43.49471549297107" lon="10.323663145199589"><ele>3.0</ele><time>2026-05-02T08:41:37Z</time></trkpt><trkpt lat="43.49459593039806" lon="10.323702486920267"><ele>3.0</ele><time>2026-05-02T08:41:39Z</time></trkpt><trkpt lat="43.494533791479135" lon="10.323721138137465"><ele>3.0</ele><time>2026-05-02T08:41:40Z</time></trkpt><trkpt lat="43.49442005009379" lon="10.323769549850196"><ele>3.0</ele><time>2026-05-02T08:41:42Z</time></trkpt><trkpt lat="43.4943081232834" lon="10.323830543561996"><ele>4.6</ele><time>2026-05-02T08:41:44Z</time></trkpt><trkpt lat="43.49420639060738" lon="10.323912290325746"><ele>6.2</ele><time>2026-05-02T08:41:46Z</time></trkpt><trkpt lat="43.49410926183831" lon="10.324003438235497"><ele>7.800000000000001</ele><time>2026-05-02T08:41:48Z</time></trkpt><trkpt lat="43.49400511517519" lon="10.324088422858395"><ele>9.4</ele><time>2026-05-02T08:41:50Z</time></trkpt><trkpt lat="43.49395232928821" lon="10.3241362257077"><ele>11.0</ele><time>2026-05-02T08:41:51Z</time></trkpt><trkpt lat="43.493851763352005" lon="10.324223116053242"><ele>9.25</ele><time>2026-05-02T08:41:53Z</time></trkpt><trkpt lat="43.49375206147461" lon="10.324315914328956"><ele>7.5</ele><time>2026-05-02T08:41:55Z</time></trkpt><trkpt lat="43.49365507847879" lon="10.324410497244093"><ele>5.75</ele><time>2026-05-02T08:41:57Z</time></trkpt><trkpt lat="43.49355717935184" lon="10.324506891316299"><ele>4.0</ele><time>2026-05-02T08:41:59Z</time></trkpt><trkpt lat="43.49345690093766" lon="10.324597710503365"><ele>4.0</ele><time>2026-05-02T08:42:01Z</time></trkpt><trkpt lat="43.49336066414787" lon="10.324690723857653"><ele>4.0</ele><time>2026-05-02T08:42:03Z</time></trkpt><trkpt lat="43.493260234135334" lon="10.324789724916656"><ele>4.0</ele><time>2026-05-02T08:42:05Z</time></trkpt><trkpt lat="43.49315571169764" lon="10.324871093609746"><ele>4.0</ele><time>2026-05-02T08:42:07Z</time></trkpt><trkpt lat="43.493049312008324" lon="10.32493747370325"><ele>4.4</ele><time>2026-05-02T08:42:09Z</time></trkpt><trkpt lat="43.492933347471954" lon="10.32497979809684"><ele>4.800000000000001</ele><time>2026-05-02T08:42:11Z</time></trkpt><trkpt lat="43.49281788886652" lon="10.325012020758143"><ele>5.199999999999999</ele><time>2026-05-02T08:42:13Z</time></trkpt><trkpt lat="43.49275554933995" lon="10.325037766135962"><ele>5.6</ele><time>2026-05-02T08:42:14Z</time></trkpt><trkpt lat="43.492694296723855" lon="10.325059341928148"><ele>6.0</ele><time>2026-05-02T08:42:15Z</time></trkpt><trkpt lat="43.49257601843389" lon="10.325096849791526"><ele>6.0</ele><time>2026-05-02T08:42:17Z</time></trkpt><trkpt lat="43.49251379982904" lon="10.325120343175566"><ele>6.0</ele><time>2026-05-02T08:42:18Z</time></trkpt><trkpt lat="43.49239332319875" lon="10.325166162162391"><ele>6.0</ele><time>2026-05-02T08:42:20Z</time></trkpt><trkpt lat="43.49227448491792" lon="10.325208332540207"><ele>6.0</ele><time>2026-05-02T08:42:22Z</time></trkpt><trkpt lat="43.49215047523346" lon="10.325245076934214"><ele>6.0</ele><time>2026-05-02T08:42:24Z</time></trkpt><trkpt lat="43.49208418192152" lon="10.325266848926953"><ele>6.428571428571428</ele><time>2026-05-02T08:42:25Z</time></trkpt><trkpt lat="43.4920231576092" lon="10.325290077870964"><ele>6.857142857142858</ele><time>2026-05-02T08:42:26Z</time></trkpt><trkpt lat="43.49190391325435" lon="10.325332257088082"><ele>7.2857142857142865</ele><time>2026-05-02T08:42:28Z</time></trkpt><trkpt lat="43.49184139243949" lon="10.32535458824873"><ele>7.714285714285714</ele><time>2026-05-02T08:42:29Z</time></trkpt><trkpt lat="43.49177866713776" lon="10.325374427399368"><ele>8.142857142857142</ele><time>2026-05-02T08:42:30Z</time></trkpt><trkpt lat="43.491713164997606" lon="10.325394276917153"><ele>8.571428571428573</ele><time>2026-05-02T08:42:31Z</time></trkpt><trkpt lat="43.49164898313681" lon="10.325415469520884"><ele>9.0</ele><time>2026-05-02T08:42:32Z</time></trkpt><trkpt lat="43.491582351387" lon="10.325439336976324"><ele>9.000000000000002</ele><time>2026-05-02T08:42:33Z</time></trkpt><trkpt lat="43.491518068749784" lon="10.325458980311804"><ele>9.0</ele><time>2026-05-02T08:42:34Z</time></trkpt><trkpt lat="43.49145446367017" lon="10.325480629479372"><ele>9.0</ele><time>2026-05-02T08:42:35Z</time></trkpt><trkpt lat="43.491390311558014" lon="10.32550694149135"><ele>9.0</ele><time>2026-05-02T08:42:36Z</time></trkpt><trkpt lat="43.491327393579354" lon="10.325527747070332"><ele>9.0</ele><time>2026-05-02T08:42:37Z</time></trkpt><trkpt lat="43.49126451788815" lon="10.32555768804812"><ele>9.000000000000002</ele><time>2026-05-02T08:42:38Z</time></trkpt><trkpt lat="43.49120459487037" lon="10.325592445782334"><ele>9.0</ele><time>2026-05-02T08:42:39Z</time></trkpt><trkpt lat="43.491146895098815" lon="10.32563162506632"><ele>8.833333333333334</ele><time>2026-05-02T08:42:40Z</time></trkpt><trkpt lat="43.491087095521884" lon="10.325670124116456"><ele>8.666666666666666</ele><time>2026-05-02T08:42:41Z</time></trkpt><trkpt lat="43.49103057412685" lon="10.325714689297127"><ele>8.5</ele><time>2026-05-02T08:42:42Z</time></trkpt><trkpt lat="43.49093050311062" lon="10.325820721441712"><ele>8.333333333333332</ele><time>2026-05-02T08:42:44Z</time></trkpt><trkpt lat="43.490881698030584" lon="10.3258769017518"><ele>8.166666666666666</ele><time>2026-05-02T08:42:45Z</time></trkpt><trkpt lat="43.490789532845135" lon="10.325984227997614"><ele>8.0</ele><time>2026-05-02T08:42:47Z</time></trkpt><trkpt lat="43.49070015998121" lon="10.326093254123192"><ele>8.0</ele><time>2026-05-02T08:42:49Z</time></trkpt><trkpt lat="43.49062059313652" lon="10.32621921098387"><ele>8.0</ele><time>2026-05-02T08:42:51Z</time></trkpt><trkpt lat="43.490562371463426" lon="10.32636500108903"><ele>8.0</ele><time>2026-05-02T08:42:53Z</time></trkpt><trkpt lat="43.49050922329728" lon="10.326509212166131"><ele>8.0</ele><time>2026-05-02T08:42:55Z</time></trkpt><trkpt lat="43.490454708495925" lon="10.326657589734225"><ele>8.5</ele><time>2026-05-02T08:42:57Z</time></trkpt><trkpt lat="43.49039630123652" lon="10.326804954184862"><ele>9.0</ele><time>2026-05-02T08:42:59Z</time></trkpt><trkpt lat="43.49033882880593" lon="10.326949686540697"><ele>9.5</ele><time>2026-05-02T08:43:01Z</time></trkpt><trkpt lat="43.490283075231204" lon="10.32709854704223"><ele>10.0</ele><time>2026-05-02T08:43:03Z</time></trkpt><trkpt lat="43.49022181088898" lon="10.327241842609865"><ele>11.0</ele><time>2026-05-02T08:43:05Z</time></trkpt><trkpt lat="43.490173698452686" lon="10.327388407157368"><ele>12.0</ele><time>2026-05-02T08:43:07Z</time></trkpt><trkpt lat="43.49011638929566" lon="10.32753433240102"><ele>13.0</ele><time>2026-05-02T08:43:09Z</time></trkpt><trkpt lat="43.490057297500485" lon="10.327679157878222"><ele>14.0</ele><time>2026-05-02T08:43:11Z</time></trkpt><trkpt lat="43.489998636487925" lon="10.327822891379666"><ele>14.0</ele><time>2026-05-02T08:43:13Z</time></trkpt><trkpt lat="43.48994637025468" lon="10.327969764053943"><ele>14.0</ele><time>2026-05-02T08:43:15Z</time></trkpt><trkpt lat="43.4898922813533" lon="10.328116039447519"><ele>14.0</ele><time>2026-05-02T08:43:17Z</time></trkpt><trkpt lat="43.48983675394713" lon="10.328259636600567"><ele>14.0</ele><time>2026-05-02T08:43:19Z</time></trkpt><trkpt lat="43.48978157577459" lon="10.328405672518134"><ele>14.25</ele><time>2026-05-02T08:43:21Z</time></trkpt><trkpt lat="43.48972242646596" lon="10.328549967545499"><ele>14.5</ele><time>2026-05-02T08:43:23Z</time></trkpt><trkpt lat="43.489666118740146" lon="10.328693966834892"><ele>14.75</ele><time>2026-05-02T08:43:25Z</time></trkpt><trkpt lat="43.48961313755977" lon="10.328837990634378"><ele>15.0</ele><time>2026-05-02T08:43:27Z</time></trkpt><trkpt lat="43.48955373733789" lon="10.328985248982834"><ele>15.0</ele><time>2026-05-02T08:43:29Z</time></trkpt><trkpt lat="43.489491879984605" lon="10.329121412701824"><ele>15.0</ele><time>2026-05-02T08:43:31Z</time></trkpt><trkpt lat="43.48941043759672" lon="10.32924089026257"><ele>15.0</ele><time>2026-05-02T08:43:33Z</time></trkpt><trkpt lat="43.48935362433942" lon="10.329380272842082"><ele>15.0</ele><time>2026-05-02T08:43:35Z</time></trkpt><trkpt lat="43.48927068961775" lon="10.329402627801091"><ele>15.0</ele><time>2026-05-02T08:43:36Z</time></trkpt><trkpt lat="43.48915491570477" lon="10.32947233039292"><ele>15.0</ele><time>2026-05-02T08:43:38Z</time></trkpt><trkpt lat="43.48903709520477" lon="10.329540680716402"><ele>15.0</ele><time>2026-05-02T08:43:40Z</time></trkpt><trkpt lat="43.48891587242106" lon="10.32960367838871"><ele>15.0</ele><time>2026-05-02T08:43:42Z</time></trkpt><trkpt lat="43.48885717935323" lon="10.329635216189534"><ele>15.0</ele><time>2026-05-02T08:43:43Z</time></trkpt><trkpt lat="43.488798106317645" lon="10.329668330759386"><ele>15.0</ele><time>2026-05-02T08:43:44Z</time></trkpt><trkpt lat="43.48873947757048" lon="10.329701811306709"><ele>15.0</ele><time>2026-05-02T08:43:45Z</time></trkpt><trkpt lat="43.48862387041935" lon="10.329763714734346"><ele>15.75</ele><time>2026-05-02T08:43:47Z</time></trkpt><trkpt lat="43.48850864985537" lon="10.329819771033495"><ele>16.5</ele><time>2026-05-02T08:43:49Z</time></trkpt><trkpt lat="43.488396590038285" lon="10.329885137742043"><ele>17.25</ele><time>2026-05-02T08:43:51Z</time></trkpt><trkpt lat="43.48828452367434" lon="10.329944692393637"><ele>18.0</ele><time>2026-05-02T08:43:53Z</time></trkpt><trkpt lat="43.48817015782976" lon="10.330007310631938"><ele>18.0</ele><time>2026-05-02T08:43:55Z</time></trkpt><trkpt lat="43.488057935989445" lon="10.330064952134764"><ele>18.0</ele><time>2026-05-02T08:43:57Z</time></trkpt><trkpt lat="43.487941847040545" lon="10.330122171946611"><ele>18.0</ele><time>2026-05-02T08:43:59Z</time></trkpt><trkpt lat="43.487828116407734" lon="10.330176297759083"><ele>18.0</ele><time>2026-05-02T08:44:01Z</time></trkpt><trkpt lat="43.48771218721515" lon="10.330241940865605"><ele>17.4</ele><time>2026-05-02T08:44:03Z</time></trkpt><trkpt lat="43.4875980737457" lon="10.330310269470584"><ele>16.8</ele><time>2026-05-02T08:44:05Z</time></trkpt><trkpt lat="43.48747982296993" lon="10.330364389232967"><ele>16.2</ele><time>2026-05-02T08:44:07Z</time></trkpt><trkpt lat="43.48736465903542" lon="10.330421401023143"><ele>15.6</ele><time>2026-05-02T08:44:09Z</time></trkpt><trkpt lat="43.48730455470701" lon="10.330458600754657"><ele>15.0</ele><time>2026-05-02T08:44:10Z</time></trkpt><trkpt lat="43.48718984814861" lon="10.33052105557689"><ele>15.8</ele><time>2026-05-02T08:44:12Z</time></trkpt><trkpt lat="43.48706760833564" lon="10.330585769945323"><ele>16.6</ele><time>2026-05-02T08:44:14Z</time></trkpt><trkpt lat="43.48695657155901" lon="10.330642389155555"><ele>17.4</ele><time>2026-05-02T08:44:16Z</time></trkpt><trkpt lat="43.48689770134344" lon="10.330679003876432"><ele>18.2</ele><time>2026-05-02T08:44:17Z</time></trkpt><trkpt lat="43.486780763664505" lon="10.330741770574685"><ele>19.0</ele><time>2026-05-02T08:44:19Z</time></trkpt><trkpt lat="43.48666627587606" lon="10.33080181537815"><ele>19.0</ele><time>2026-05-02T08:44:21Z</time></trkpt><trkpt lat="43.48655349197669" lon="10.330862471024815"><ele>19.0</ele><time>2026-05-02T08:44:23Z</time></trkpt><trkpt lat="43.486450265240904" lon="10.330923311669501"><ele>19.0</ele><time>2026-05-02T08:44:25Z</time></trkpt><trkpt lat="43.48637651868836" lon="10.330955819299717"><ele>19.0</ele><time>2026-05-02T08:44:26Z</time></trkpt><trkpt lat="43.48631768146548" lon="10.330987040221283"><ele>19.0</ele><time>2026-05-02T08:44:27Z</time></trkpt><trkpt lat="43.48620274365254" lon="10.331054196774636"><ele>18.71428571428571</ele><time>2026-05-02T08:44:29Z</time></trkpt><trkpt lat="43.486143136404515" lon="10.331089702501446"><ele>18.42857142857143</ele><time>2026-05-02T08:44:30Z</time></trkpt><trkpt lat="43.48608009584252" lon="10.331122121792275"><ele>18.142857142857142</ele><time>2026-05-02T08:44:31Z</time></trkpt><trkpt lat="43.48601891470536" lon="10.331155954412557"><ele>17.857142857142854</ele><time>2026-05-02T08:44:32Z</time></trkpt><trkpt lat="43.48595754928935" lon="10.33119316503102"><ele>17.57142857142857</ele><time>2026-05-02T08:44:33Z</time></trkpt><trkpt lat="43.48589690214302" lon="10.331226341966023"><ele>17.285714285714285</ele><time>2026-05-02T08:44:34Z</time></trkpt><trkpt lat="43.48583554942538" lon="10.33125715008203"><ele>17.0</ele><time>2026-05-02T08:44:35Z</time></trkpt><trkpt lat="43.48571945369106" lon="10.331312030854974"><ele>16.999999999999996</ele><time>2026-05-02T08:44:37Z</time></trkpt><trkpt lat="43.48566098469347" lon="10.331351175156412"><ele>17.0</ele><time>2026-05-02T08:44:38Z</time></trkpt><trkpt lat="43.48559977190445" lon="10.331394711728597"><ele>17.0</ele><time>2026-05-02T08:44:39Z</time></trkpt><trkpt lat="43.48553786490182" lon="10.331423789700922"><ele>17.0</ele><time>2026-05-02T08:44:40Z</time></trkpt><trkpt lat="43.485474138932055" lon="10.331454417875934"><ele>17.0</ele><time>2026-05-02T08:44:41Z</time></trkpt><trkpt lat="43.48541172011921" lon="10.331486745335166"><ele>16.999999999999996</ele><time>2026-05-02T08:44:42Z</time></trkpt><trkpt lat="43.48534943890179" lon="10.331519548148254"><ele>17.0</ele><time>2026-05-02T08:44:43Z</time></trkpt><trkpt lat="43.48528770733905" lon="10.33155311928777"><ele>17.142857142857142</ele><time>2026-05-02T08:44:44Z</time></trkpt><trkpt lat="43.48522273303965" lon="10.331582423335968"><ele>17.285714285714285</ele><time>2026-05-02T08:44:45Z</time></trkpt><trkpt lat="43.48515773877634" lon="10.331620327456084"><ele>17.42857142857143</ele><time>2026-05-02T08:44:46Z</time></trkpt><trkpt lat="43.48509152851613" lon="10.331656652546465"><ele>17.57142857142857</ele><time>2026-05-02T08:44:47Z</time></trkpt><trkpt lat="43.48502891655937" lon="10.331692895321623"><ele>17.714285714285715</ele><time>2026-05-02T08:44:48Z</time></trkpt><trkpt lat="43.48496575933097" lon="10.331734294256798"><ele>17.857142857142858</ele><time>2026-05-02T08:44:49Z</time></trkpt><trkpt lat="43.484905934568914" lon="10.331770065379878"><ele>18.0</ele><time>2026-05-02T08:44:50Z</time></trkpt><trkpt lat="43.48484272456319" lon="10.331806479408346"><ele>18.000000000000004</ele><time>2026-05-02T08:44:51Z</time></trkpt><trkpt lat="43.48477899547302" lon="10.331843624994878"><ele>18.0</ele><time>2026-05-02T08:44:52Z</time></trkpt><trkpt lat="43.48471637978255" lon="10.331876306641211"><ele>18.0</ele><time>2026-05-02T08:44:53Z</time></trkpt><trkpt lat="43.48465456449884" lon="10.331916282096305"><ele>18.0</ele><time>2026-05-02T08:44:54Z</time></trkpt><trkpt lat="43.484591167379605" lon="10.33195540405358"><ele>18.0</ele><time>2026-05-02T08:44:55Z</time></trkpt><trkpt lat="43.48452955836923" lon="10.331985047107526"><ele>18.000000000000004</ele><time>2026-05-02T08:44:56Z</time></trkpt><trkpt lat="43.484466964031895" lon="10.33201644998294"><ele>18.0</ele><time>2026-05-02T08:44:57Z</time></trkpt><trkpt lat="43.48440510726535" lon="10.332052008598145"><ele>17.571428571428573</ele><time>2026-05-02T08:44:58Z</time></trkpt><trkpt lat="43.48434179678275" lon="10.332087501814673"><ele>17.142857142857142</ele><time>2026-05-02T08:44:59Z</time></trkpt><trkpt lat="43.48427954944927" lon="10.332123418168731"><ele>16.714285714285715</ele><time>2026-05-02T08:45:00Z</time></trkpt><trkpt lat="43.48421586950836" lon="10.332155602509964"><ele>16.285714285714285</ele><time>2026-05-02T08:45:01Z</time></trkpt><trkpt lat="43.48415085489419" lon="10.332181694133702"><ele>15.857142857142858</ele><time>2026-05-02T08:45:02Z</time></trkpt><trkpt lat="43.48408774523237" lon="10.332216491667971"><ele>15.428571428571429</ele><time>2026-05-02T08:45:03Z</time></trkpt><trkpt lat="43.484024071054534" lon="10.332260258226437"><ele>15.0</ele><time>2026-05-02T08:45:04Z</time></trkpt><trkpt lat="43.48396275786803" lon="10.332304262300138"><ele>15.0</ele><time>2026-05-02T08:45:05Z</time></trkpt><trkpt lat="43.48389962448466" lon="10.332349983418222"><ele>15.0</ele><time>2026-05-02T08:45:06Z</time></trkpt><trkpt lat="43.4838362070986" lon="10.3323965670172"><ele>15.0</ele><time>2026-05-02T08:45:07Z</time></trkpt><trkpt lat="43.48377286361887" lon="10.332442632756852"><ele>15.0</ele><time>2026-05-02T08:45:08Z</time></trkpt><trkpt lat="43.48370862938285" lon="10.33248956047018"><ele>15.0</ele><time>2026-05-02T08:45:09Z</time></trkpt><trkpt lat="43.48364588608747" lon="10.332538303125773"><ele>15.0</ele><time>2026-05-02T08:45:10Z</time></trkpt><trkpt lat="43.48358306520072" lon="10.332585679301339"><ele>15.0</ele><time>2026-05-02T08:45:11Z</time></trkpt><trkpt lat="43.48352073771864" lon="10.332635221738563"><ele>14.142857142857144</ele><time>2026-05-02T08:45:12Z</time></trkpt><trkpt lat="43.483455394545196" lon="10.332680333453332"><ele>13.285714285714285</ele><time>2026-05-02T08:45:13Z</time></trkpt><trkpt lat="43.48339271028712" lon="10.332730204101344"><ele>12.428571428571429</ele><time>2026-05-02T08:45:14Z</time></trkpt><trkpt lat="43.48332896930197" lon="10.332774680926054"><ele>11.571428571428573</ele><time>2026-05-02T08:45:15Z</time></trkpt><trkpt lat="43.48326510125728" lon="10.332814863767137"><ele>10.714285714285715</ele><time>2026-05-02T08:45:16Z</time></trkpt><trkpt lat="43.48319746997295" lon="10.332851318219708"><ele>9.857142857142858</ele><time>2026-05-02T08:45:17Z</time></trkpt><trkpt lat="43.48313480285394" lon="10.332885807109754"><ele>9.0</ele><time>2026-05-02T08:45:18Z</time></trkpt><trkpt lat="43.483066139445256" lon="10.332923076647125"><ele>9.000000000000002</ele><time>2026-05-02T08:45:19Z</time></trkpt><trkpt lat="43.48300179732139" lon="10.332960579190775"><ele>9.0</ele><time>2026-05-02T08:45:20Z</time></trkpt><trkpt lat="43.482935935137235" lon="10.332992344310354"><ele>9.0</ele><time>2026-05-02T08:45:21Z</time></trkpt><trkpt lat="43.48287061564157" lon="10.333025733349594"><ele>9.0</ele><time>2026-05-02T08:45:22Z</time></trkpt><trkpt lat="43.482809671264604" lon="10.333054486939439"><ele>9.0</ele><time>2026-05-02T08:45:23Z</time></trkpt><trkpt lat="43.48274206924214" lon="10.333086098030433"><ele>9.000000000000002</ele><time>2026-05-02T08:45:24Z</time></trkpt><trkpt lat="43.4826759320497" lon="10.333111020342585"><ele>9.0</ele><time>2026-05-02T08:45:25Z</time></trkpt><trkpt lat="43.48261121457223" lon="10.333139021193169"><ele>10.42857142857143</ele><time>2026-05-02T08:45:26Z</time></trkpt><trkpt lat="43.48254398708871" lon="10.33316621553052"><ele>11.857142857142858</ele><time>2026-05-02T08:45:27Z</time></trkpt><trkpt lat="43.48247860357067" lon="10.333186563583308"><ele>13.285714285714285</ele><time>2026-05-02T08:45:28Z</time></trkpt><trkpt lat="43.48241143531724" lon="10.333206945783333"><ele>14.714285714285715</ele><time>2026-05-02T08:45:29Z</time></trkpt><trkpt lat="43.48234679408313" lon="10.333223561108934"><ele>16.142857142857146</ele><time>2026-05-02T08:45:30Z</time></trkpt><trkpt lat="43.48227811435583" lon="10.333245775778213"><ele>17.57142857142857</ele><time>2026-05-02T08:45:31Z</time></trkpt><trkpt lat="43.48220935106826" lon="10.333264330021873"><ele>19.0</ele><time>2026-05-02T08:45:32Z</time></trkpt><trkpt lat="43.48213883498704" lon="10.333278277180263"><ele>18.71428571428571</ele><time>2026-05-02T08:45:33Z</time></trkpt><trkpt lat="43.482068337329466" lon="10.333292822627868"><ele>18.42857142857143</ele><time>2026-05-02T08:45:34Z</time></trkpt><trkpt lat="43.48199628929726" lon="10.333300380822548"><ele>18.142857142857142</ele><time>2026-05-02T08:45:35Z</time></trkpt><trkpt lat="43.481926130849665" lon="10.333309604763208"><ele>17.857142857142854</ele><time>2026-05-02T08:45:36Z</time></trkpt><trkpt lat="43.481856187946" lon="10.333316316392388"><ele>17.57142857142857</ele><time>2026-05-02T08:45:37Z</time></trkpt><trkpt lat="43.48178306307429" lon="10.333320078370498"><ele>17.285714285714285</ele><time>2026-05-02T08:45:38Z</time></trkpt><trkpt lat="43.481709922277346" lon="10.33331998691506"><ele>17.0</ele><time>2026-05-02T08:45:39Z</time></trkpt><trkpt lat="43.4816373481044" lon="10.3333235106602"><ele>16.999999999999996</ele><time>2026-05-02T08:45:40Z</time></trkpt><trkpt lat="43.48156390638216" lon="10.333320424168246"><ele>17.0</ele><time>2026-05-02T08:45:41Z</time></trkpt><trkpt lat="43.481490114589974" lon="10.333325953757946"><ele>17.0</ele><time>2026-05-02T08:45:42Z</time></trkpt><trkpt lat="43.481417184331406" lon="10.333329557809213"><ele>17.0</ele><time>2026-05-02T08:45:43Z</time></trkpt><trkpt lat="43.48133972563291" lon="10.333336367007186"><ele>17.0</ele><time>2026-05-02T08:45:44Z</time></trkpt><trkpt lat="43.48126621995186" lon="10.333331606529459"><ele>16.999999999999996</ele><time>2026-05-02T08:45:45Z</time></trkpt><trkpt lat="43.48119178442091" lon="10.333331184052877"><ele>17.0</ele><time>2026-05-02T08:45:46Z</time></trkpt><trkpt lat="43.48111900735936" lon="10.333336373368358"><ele>16.999999999999996</ele><time>2026-05-02T08:45:47Z</time></trkpt><trkpt lat="43.48104424862784" lon="10.333333242683947"><ele>17.0</ele><time>2026-05-02T08:45:48Z</time></trkpt><trkpt lat="43.48097450691827" lon="10.333339828184092"><ele>17.0</ele><time>2026-05-02T08:45:49Z</time></trkpt><trkpt lat="43.48090312632532" lon="10.333347946691248"><ele>17.0</ele><time>2026-05-02T08:45:50Z</time></trkpt><trkpt lat="43.480830794656384" lon="10.33334600816919"><ele>17.0</ele><time>2026-05-02T08:45:51Z</time></trkpt><trkpt lat="43.48076152461869" lon="10.333338988305364"><ele>16.999999999999996</ele><time>2026-05-02T08:45:52Z</time></trkpt><trkpt lat="43.4806873500743" lon="10.333333725848766"><ele>17.0</ele><time>2026-05-02T08:45:53Z</time></trkpt><trkpt lat="43.480610075450016" lon="10.333335631583198"><ele>17.0</ele><time>2026-05-02T08:45:54Z</time></trkpt><trkpt lat="43.48053491231556" lon="10.333342790559172"><ele>17.0</ele><time>2026-05-02T08:45:55Z</time></trkpt><trkpt lat="43.480459220273275" lon="10.333345106287165"><ele>17.0</ele><time>2026-05-02T08:45:56Z</time></trkpt><trkpt lat="43.480377255675386" lon="10.333343335793675"><ele>17.0</ele><time>2026-05-02T08:45:57Z</time></trkpt><trkpt lat="43.48029647433784" lon="10.333341769865791"><ele>17.0</ele><time>2026-05-02T08:45:58Z</time></trkpt><trkpt lat="43.480216333111606" lon="10.333344669605248"><ele>17.0</ele><time>2026-05-02T08:45:59Z</time></trkpt><trkpt lat="43.48013454049184" lon="10.333335721491206"><ele>16.5</ele><time>2026-05-02T08:46:00Z</time></trkpt><trkpt lat="43.480054451214066" lon="10.333337949373325"><ele>16.0</ele><time>2026-05-02T08:46:01Z</time></trkpt><trkpt lat="43.47997848496379" lon="10.333322285838895"><ele>15.5</ele><time>2026-05-02T08:46:02Z</time></trkpt><trkpt lat="43.47990977406048" lon="10.333297285284964"><ele>15.0</ele><time>2026-05-02T08:46:03Z</time></trkpt><trkpt lat="43.47982936017888" lon="10.33327748101511"><ele>14.500000000000002</ele><time>2026-05-02T08:46:04Z</time></trkpt><trkpt lat="43.47975780704589" lon="10.333255997567859"><ele>14.0</ele><time>2026-05-02T08:46:05Z</time></trkpt><trkpt lat="43.47968882186771" lon="10.33323207067707"><ele>14.0</ele><time>2026-05-02T08:46:06Z</time></trkpt><trkpt lat="43.47961705015466" lon="10.333202452223135"><ele>14.0</ele><time>2026-05-02T08:46:07Z</time></trkpt><trkpt lat="43.47954891850457" lon="10.33317189316539"><ele>14.0</ele><time>2026-05-02T08:46:08Z</time></trkpt><trkpt lat="43.479470689184126" lon="10.33314620112877"><ele>14.0</ele><time>2026-05-02T08:46:09Z</time></trkpt><trkpt lat="43.479403546012854" lon="10.333112859985217"><ele>14.0</ele><time>2026-05-02T08:46:10Z</time></trkpt><trkpt lat="43.4793366655129" lon="10.333076617055536"><ele>14.0</ele><time>2026-05-02T08:46:11Z</time></trkpt><trkpt lat="43.47926843242305" lon="10.333041863768353"><ele>14.0</ele><time>2026-05-02T08:46:12Z</time></trkpt><trkpt lat="43.47919591520929" lon="10.333003824009587"><ele>13.285714285714286</ele><time>2026-05-02T08:46:13Z</time></trkpt><trkpt lat="43.47913000042559" lon="10.332965328322679"><ele>12.571428571428571</ele><time>2026-05-02T08:46:14Z</time></trkpt><trkpt lat="43.47907168384628" lon="10.332910883163933"><ele>11.857142857142858</ele><time>2026-05-02T08:46:15Z</time></trkpt><trkpt lat="43.479002491779944" lon="10.332869388961509"><ele>11.142857142857142</ele><time>2026-05-02T08:46:16Z</time></trkpt><trkpt lat="43.47893701000839" lon="10.332824438342714"><ele>10.428571428571429</ele><time>2026-05-02T08:46:17Z</time></trkpt><trkpt lat="43.478875322699295" lon="10.332774667955048"><ele>9.714285714285715</ele><time>2026-05-02T08:46:18Z</time></trkpt><trkpt lat="43.47881563681884" lon="10.332720690218618"><ele>9.0</ele><time>2026-05-02T08:46:19Z</time></trkpt><trkpt lat="43.47875345421224" lon="10.332667376750846"><ele>8.857142857142858</ele><time>2026-05-02T08:46:20Z</time></trkpt><trkpt lat="43.478697859577174" lon="10.332603327348927"><ele>8.714285714285715</ele><time>2026-05-02T08:46:21Z</time></trkpt><trkpt lat="43.478651734639236" lon="10.332531346111763"><ele>8.571428571428571</ele><time>2026-05-02T08:46:22Z</time></trkpt><trkpt lat="43.47861343630853" lon="10.332450926492966"><ele>8.428571428571429</ele><time>2026-05-02T08:46:23Z</time></trkpt><trkpt lat="43.47857423572284" lon="10.332367403254272"><ele>8.285714285714285</ele><time>2026-05-02T08:46:24Z</time></trkpt><trkpt lat="43.47852892347255" lon="10.332295751901354"><ele>8.142857142857142</ele><time>2026-05-02T08:46:25Z</time></trkpt><trkpt lat="43.47849227628393" lon="10.332217788703282"><ele>8.0</ele><time>2026-05-02T08:46:26Z</time></trkpt><trkpt lat="43.4784512116848" lon="10.332144072480217"><ele>7.999999999999999</ele><time>2026-05-02T08:46:27Z</time></trkpt><trkpt lat="43.47837500514369" lon="10.33199914649139"><ele>8.0</ele><time>2026-05-02T08:46:29Z</time></trkpt><trkpt lat="43.47833278790088" lon="10.331928909206555"><ele>8.0</ele><time>2026-05-02T08:46:30Z</time></trkpt><trkpt lat="43.47828923061077" lon="10.331860300462562"><ele>8.0</ele><time>2026-05-02T08:46:31Z</time></trkpt><trkpt lat="43.47823988864639" lon="10.33179342560107"><ele>7.999999999999999</ele><time>2026-05-02T08:46:32Z</time></trkpt><trkpt lat="43.47819379395234" lon="10.33172793783955"><ele>8.0</ele><time>2026-05-02T08:46:33Z</time></trkpt><trkpt lat="43.47814795051905" lon="10.331665120886122"><ele>8.0</ele><time>2026-05-02T08:46:34Z</time></trkpt><trkpt lat="43.47809824994061" lon="10.331606461019717"><ele>7.999999999999999</ele><time>2026-05-02T08:46:35Z</time></trkpt><trkpt lat="43.478047811482604" lon="10.33154913475148"><ele>8.0</ele><time>2026-05-02T08:46:36Z</time></trkpt><trkpt lat="43.47799794424354" lon="10.331489909648486"><ele>8.0</ele><time>2026-05-02T08:46:37Z</time></trkpt><trkpt lat="43.47795075121326" lon="10.331430836726726"><ele>7.999999999999999</ele><time>2026-05-02T08:46:38Z</time></trkpt><trkpt lat="43.47789790699688" lon="10.331370711868468"><ele>8.0</ele><time>2026-05-02T08:46:39Z</time></trkpt><trkpt lat="43.47784979505847" lon="10.331314233564957"><ele>8.0</ele><time>2026-05-02T08:46:40Z</time></trkpt><trkpt lat="43.47780057981277" lon="10.33125598023579"><ele>8.333333333333332</ele><time>2026-05-02T08:46:41Z</time></trkpt><trkpt lat="43.47775044020371" lon="10.331200232552327"><ele>8.666666666666666</ele><time>2026-05-02T08:46:42Z</time></trkpt><trkpt lat="43.47765691612625" lon="10.331087035575324"><ele>9.0</ele><time>2026-05-02T08:46:44Z</time></trkpt><trkpt lat="43.4776043527747" lon="10.331029395423325"><ele>9.333333333333334</ele><time>2026-05-02T08:46:45Z</time></trkpt><trkpt lat="43.477556846712844" lon="10.33097219624405"><ele>9.666666666666668</ele><time>2026-05-02T08:46:46Z</time></trkpt><trkpt lat="43.47746031762624" lon="10.330862412883825"><ele>10.0</ele><time>2026-05-02T08:46:48Z</time></trkpt><trkpt lat="43.47740788769548" lon="10.330813311340048"><ele>10.0</ele><time>2026-05-02T08:46:49Z</time></trkpt><trkpt lat="43.477296611601936" lon="10.330736374091702"><ele>10.0</ele><time>2026-05-02T08:46:51Z</time></trkpt><trkpt lat="43.47718364147965" lon="10.330661054629344"><ele>10.0</ele><time>2026-05-02T08:46:53Z</time></trkpt><trkpt lat="43.47712558622427" lon="10.330624740847469"><ele>10.0</ele><time>2026-05-02T08:46:54Z</time></trkpt><trkpt lat="43.477014786568645" lon="10.330557871712742"><ele>10.0</ele><time>2026-05-02T08:46:56Z</time></trkpt><trkpt lat="43.47695390777838" lon="10.330530415375234"><ele>9.25</ele><time>2026-05-02T08:46:57Z</time></trkpt><trkpt lat="43.47684120730344" lon="10.330472890392612"><ele>8.5</ele><time>2026-05-02T08:46:59Z</time></trkpt><trkpt lat="43.47672677850198" lon="10.33040183697071"><ele>7.75</ele><time>2026-05-02T08:47:01Z</time></trkpt><trkpt lat="43.47660915685135" lon="10.330356672684829"><ele>7.0</ele><time>2026-05-02T08:47:03Z</time></trkpt><trkpt lat="43.47649255829322" lon="10.33031393816716"><ele>7.0</ele><time>2026-05-02T08:47:05Z</time></trkpt><trkpt lat="43.47637011146874" lon="10.330295435148104"><ele>6.999999999999999</ele><time>2026-05-02T08:47:07Z</time></trkpt><trkpt lat="43.476242268421615" lon="10.330309247592679"><ele>6.999999999999999</ele><time>2026-05-02T08:47:09Z</time></trkpt><trkpt lat="43.476178001032025" lon="10.330328411495593"><ele>7.0</ele><time>2026-05-02T08:47:10Z</time></trkpt><trkpt lat="43.47611429218841" lon="10.330352418160652"><ele>7.0</ele><time>2026-05-02T08:47:11Z</time></trkpt><trkpt lat="43.475997764896896" lon="10.330428268102741"><ele>6.6</ele><time>2026-05-02T08:47:13Z</time></trkpt><trkpt lat="43.47588655791208" lon="10.33051938698087"><ele>6.199999999999999</ele><time>2026-05-02T08:47:15Z</time></trkpt><trkpt lat="43.475782438599744" lon="10.330625081823442"><ele>5.8</ele><time>2026-05-02T08:47:17Z</time></trkpt><trkpt lat="43.475731807100814" lon="10.330682092793595"><ele>5.4</ele><time>2026-05-02T08:47:18Z</time></trkpt><trkpt lat="43.47568463173369" lon="10.33073957211234"><ele>5.0</ele><time>2026-05-02T08:47:19Z</time></trkpt><trkpt lat="43.47563628170497" lon="10.330800337215566"><ele>5.666666666666667</ele><time>2026-05-02T08:47:20Z</time></trkpt><trkpt lat="43.475588446083485" lon="10.330862645473784"><ele>6.333333333333334</ele><time>2026-05-02T08:47:21Z</time></trkpt><trkpt lat="43.475542949980415" lon="10.330928149835216"><ele>7.0</ele><time>2026-05-02T08:47:22Z</time></trkpt><trkpt lat="43.47549429364451" lon="10.330993521189226"><ele>7.666666666666667</ele><time>2026-05-02T08:47:23Z</time></trkpt><trkpt lat="43.47544374493757" lon="10.331054977320623"><ele>8.333333333333334</ele><time>2026-05-02T08:47:24Z</time></trkpt><trkpt lat="43.47538455024442" lon="10.331094347056965"><ele>9.0</ele><time>2026-05-02T08:47:25Z</time></trkpt><trkpt lat="43.475262020768675" lon="10.331139315380483"><ele>9.000000000000002</ele><time>2026-05-02T08:47:27Z</time></trkpt><trkpt lat="43.47519264582355" lon="10.331154025746933"><ele>9.0</ele><time>2026-05-02T08:47:28Z</time></trkpt><trkpt lat="43.47512736351823" lon="10.331156172637844"><ele>9.0</ele><time>2026-05-02T08:47:29Z</time></trkpt><trkpt lat="43.47506281530825" lon="10.331149478289548"><ele>9.0</ele><time>2026-05-02T08:47:30Z</time></trkpt><trkpt lat="43.474998920250854" lon="10.33113721859302"><ele>9.0</ele><time>2026-05-02T08:47:31Z</time></trkpt><trkpt lat="43.474936057166715" lon="10.331128920494175"><ele>9.000000000000002</ele><time>2026-05-02T08:47:32Z</time></trkpt><trkpt lat="43.47487231340335" lon="10.331115476691759"><ele>9.0</ele><time>2026-05-02T08:47:33Z</time></trkpt><trkpt lat="43.474809871951344" lon="10.331103219516374"><ele>9.0</ele><time>2026-05-02T08:47:34Z</time></trkpt><trkpt lat="43.474747155460584" lon="10.331091925790982"><ele>9.0</ele><time>2026-05-02T08:47:35Z</time></trkpt><trkpt lat="43.4746827764461" lon="10.331083061015748"><ele>9.0</ele><time>2026-05-02T08:47:36Z</time></trkpt><trkpt lat="43.474620405587444" lon="10.33106989857808"><ele>9.0</ele><time>2026-05-02T08:47:37Z</time></trkpt><trkpt lat="43.474494687184986" lon="10.331056236031527"><ele>9.0</ele><time>2026-05-02T08:47:39Z</time></trkpt><trkpt lat="43.47443202097022" lon="10.331046385695922"><ele>9.0</ele><time>2026-05-02T08:47:40Z</time></trkpt><trkpt lat="43.47430612747221" lon="10.331028361779353"><ele>8.833333333333334</ele><time>2026-05-02T08:47:42Z</time></trkpt><trkpt lat="43.47417851420024" lon="10.331033945187093"><ele>8.666666666666666</ele><time>2026-05-02T08:47:44Z</time></trkpt><trkpt lat="43.474061856852494" lon="10.331082746038026"><ele>8.5</ele><time>2026-05-02T08:47:46Z</time></trkpt><trkpt lat="43.47400574804557" lon="10.331123727522218"><ele>8.333333333333332</ele><time>2026-05-02T08:47:47Z</time></trkpt><trkpt lat="43.47395139031198" lon="10.331171438910658"><ele>8.166666666666666</ele><time>2026-05-02T08:47:48Z</time></trkpt><trkpt lat="43.47389574817636" lon="10.3312158325129"><ele>8.0</ele><time>2026-05-02T08:47:49Z</time></trkpt><trkpt lat="43.47384039056143" lon="10.331272825651945"><ele>8.833333333333332</ele><time>2026-05-02T08:47:50Z</time></trkpt><trkpt lat="43.47373313526446" lon="10.331355103811337"><ele>9.666666666666666</ele><time>2026-05-02T08:47:52Z</time></trkpt><trkpt lat="43.47367847142691" lon="10.331400331787018"><ele>10.5</ele><time>2026-05-02T08:47:53Z</time></trkpt><trkpt lat="43.47362190431043" lon="10.331445545567956"><ele>11.333333333333332</ele><time>2026-05-02T08:47:54Z</time></trkpt><trkpt lat="43.473512250168575" lon="10.33153360780577"><ele>12.166666666666666</ele><time>2026-05-02T08:47:56Z</time></trkpt><trkpt lat="43.47345712051552" lon="10.331580193082464"><ele>13.0</ele><time>2026-05-02T08:47:57Z</time></trkpt><trkpt lat="43.47339972491922" lon="10.331623231738588"><ele>13.0</ele><time>2026-05-02T08:47:58Z</time></trkpt><trkpt lat="43.47334237424348" lon="10.331666569100031"><ele>13.0</ele><time>2026-05-02T08:47:59Z</time></trkpt><trkpt lat="43.4732874670031" lon="10.331715711150574"><ele>13.0</ele><time>2026-05-02T08:48:00Z</time></trkpt><trkpt lat="43.47323540564805" lon="10.331770793689055"><ele>13.0</ele><time>2026-05-02T08:48:01Z</time></trkpt><trkpt lat="43.473186404225736" lon="10.331831871107406"><ele>13.0</ele><time>2026-05-02T08:48:02Z</time></trkpt><trkpt lat="43.473144754125066" lon="10.331903919022063"><ele>13.0</ele><time>2026-05-02T08:48:03Z</time></trkpt><trkpt lat="43.473103343284755" lon="10.331979577676174"><ele>13.0</ele><time>2026-05-02T08:48:04Z</time></trkpt><trkpt lat="43.473062215316595" lon="10.332058027873886"><ele>13.0</ele><time>2026-05-02T08:48:05Z</time></trkpt><trkpt lat="43.47302628670559" lon="10.332138130016528"><ele>13.0</ele><time>2026-05-02T08:48:06Z</time></trkpt><trkpt lat="43.472989864438695" lon="10.332222761042685"><ele>13.0</ele><time>2026-05-02T08:48:07Z</time></trkpt><trkpt lat="43.47295347868447" lon="10.332310312476771"><ele>13.0</ele><time>2026-05-02T08:48:08Z</time></trkpt><trkpt lat="43.47291747501804" lon="10.33239398216433"><ele>13.0</ele><time>2026-05-02T08:48:09Z</time></trkpt><trkpt lat="43.47288236423035" lon="10.33248312450323"><ele>13.0</ele><time>2026-05-02T08:48:10Z</time></trkpt><trkpt lat="43.4728500757452" lon="10.33257647813683"><ele>13.0</ele><time>2026-05-02T08:48:11Z</time></trkpt><trkpt lat="43.472814133577856" lon="10.332660834748959"><ele>13.0</ele><time>2026-05-02T08:48:12Z</time></trkpt><trkpt lat="43.47277382037535" lon="10.332745536192123"><ele>13.0</ele><time>2026-05-02T08:48:13Z</time></trkpt><trkpt lat="43.472733302550985" lon="10.332830361395228"><ele>13.0</ele><time>2026-05-02T08:48:14Z</time></trkpt><trkpt lat="43.4726911775376" lon="10.332910181868334"><ele>13.0</ele><time>2026-05-02T08:48:15Z</time></trkpt><trkpt lat="43.472644667488936" lon="10.33298687397685"><ele>13.0</ele><time>2026-05-02T08:48:16Z</time></trkpt><trkpt lat="43.472590787708675" lon="10.333052614776411"><ele>13.0</ele><time>2026-05-02T08:48:17Z</time></trkpt><trkpt lat="43.472539965543035" lon="10.333121067473058"><ele>13.0</ele><time>2026-05-02T08:48:18Z</time></trkpt><trkpt lat="43.472487001185414" lon="10.33318386339694"><ele>13.0</ele><time>2026-05-02T08:48:19Z</time></trkpt><trkpt lat="43.472442435407025" lon="10.33325672955828"><ele>13.0</ele><time>2026-05-02T08:48:20Z</time></trkpt><trkpt lat="43.47239161672655" lon="10.3333291498932"><ele>13.0</ele><time>2026-05-02T08:48:21Z</time></trkpt><trkpt lat="43.47234376428068" lon="10.333400770742436"><ele>13.0</ele><time>2026-05-02T08:48:22Z</time></trkpt><trkpt lat="43.4722938560592" lon="10.333468538633424"><ele>13.0</ele><time>2026-05-02T08:48:23Z</time></trkpt><trkpt lat="43.47224613280764" lon="10.333532034938045"><ele>13.0</ele><time>2026-05-02T08:48:24Z</time></trkpt><trkpt lat="43.47219676161799" lon="10.333596746485519"><ele>13.0</ele><time>2026-05-02T08:48:25Z</time></trkpt><trkpt lat="43.47214706981578" lon="10.333658788954256"><ele>12.0</ele><time>2026-05-02T08:48:26Z</time></trkpt><trkpt lat="43.47209895718307" lon="10.333720752701486"><ele>11.0</ele><time>2026-05-02T08:48:27Z</time></trkpt><trkpt lat="43.47205125429717" lon="10.333785221217326"><ele>10.0</ele><time>2026-05-02T08:48:28Z</time></trkpt><trkpt lat="43.47200518808847" lon="10.333852183236203"><ele>9.0</ele><time>2026-05-02T08:48:29Z</time></trkpt><trkpt lat="43.47195792093163" lon="10.333918372460044"><ele>8.0</ele><time>2026-05-02T08:48:30Z</time></trkpt><trkpt lat="43.471910766512025" lon="10.333981958275476"><ele>7.0</ele><time>2026-05-02T08:48:31Z</time></trkpt><trkpt lat="43.47186377250104" lon="10.33404982792576"><ele>6.0</ele><time>2026-05-02T08:48:32Z</time></trkpt><trkpt lat="43.4718131181624" lon="10.334115550326871"><ele>5.999999999999999</ele><time>2026-05-02T08:48:33Z</time></trkpt><trkpt lat="43.471763260356404" lon="10.334179794624776"><ele>6.0</ele><time>2026-05-02T08:48:34Z</time></trkpt><trkpt lat="43.47171380150273" lon="10.33424670261718"><ele>6.0</ele><time>2026-05-02T08:48:35Z</time></trkpt><trkpt lat="43.47166517068701" lon="10.334312416940154"><ele>6.0</ele><time>2026-05-02T08:48:36Z</time></trkpt><trkpt lat="43.471614072163206" lon="10.334380865042862"><ele>6.0</ele><time>2026-05-02T08:48:37Z</time></trkpt><trkpt lat="43.47156416771012" lon="10.334446722680065"><ele>5.999999999999999</ele><time>2026-05-02T08:48:38Z</time></trkpt><trkpt lat="43.47151368886216" lon="10.334518917693964"><ele>6.0</ele><time>2026-05-02T08:48:39Z</time></trkpt><trkpt lat="43.47146532486585" lon="10.334586936404948"><ele>5.999999999999999</ele><time>2026-05-02T08:48:40Z</time></trkpt><trkpt lat="43.47141506248867" lon="10.334653219037444"><ele>6.0</ele><time>2026-05-02T08:48:41Z</time></trkpt><trkpt lat="43.47136628552126" lon="10.3347225862794"><ele>6.0</ele><time>2026-05-02T08:48:42Z</time></trkpt><trkpt lat="43.47131836471611" lon="10.334792930995146"><ele>6.0</ele><time>2026-05-02T08:48:43Z</time></trkpt><trkpt lat="43.47126867077651" lon="10.334859433994618"><ele>6.0</ele><time>2026-05-02T08:48:44Z</time></trkpt><trkpt lat="43.471219803874206" lon="10.334926480907342"><ele>5.999999999999999</ele><time>2026-05-02T08:48:45Z</time></trkpt><trkpt lat="43.4711735134792" lon="10.33499459380018"><ele>6.0</ele><time>2026-05-02T08:48:46Z</time></trkpt><trkpt lat="43.47112598214743" lon="10.33506323656104"><ele>6.333333333333333</ele><time>2026-05-02T08:48:47Z</time></trkpt><trkpt lat="43.47108193875718" lon="10.33513643380356"><ele>6.666666666666666</ele><time>2026-05-02T08:48:48Z</time></trkpt><trkpt lat="43.47103638013507" lon="10.335206255992782"><ele>7.0</ele><time>2026-05-02T08:48:49Z</time></trkpt><trkpt lat="43.470987605397156" lon="10.335271511540046"><ele>7.333333333333333</ele><time>2026-05-02T08:48:50Z</time></trkpt><trkpt lat="43.47093891211707" lon="10.335338337120978"><ele>7.666666666666666</ele><time>2026-05-02T08:48:51Z</time></trkpt><trkpt lat="43.47083753406712" lon="10.33545517643233"><ele>8.0</ele><time>2026-05-02T08:48:53Z</time></trkpt><trkpt lat="43.47074486503824" lon="10.33555823044848"><ele>8.8</ele><time>2026-05-02T08:48:55Z</time></trkpt><trkpt lat="43.47064437039701" lon="10.335638254140907"><ele>9.600000000000001</ele><time>2026-05-02T08:48:57Z</time></trkpt><trkpt lat="43.4705671699734" lon="10.335695424159082"><ele>10.399999999999999</ele><time>2026-05-02T08:48:59Z</time></trkpt><trkpt lat="43.47049961815566" lon="10.33574288683737"><ele>11.2</ele><time>2026-05-02T08:49:01Z</time></trkpt><trkpt lat="43.47043165024214" lon="10.335791125756552"><ele>12.0</ele><time>2026-05-02T08:49:03Z</time></trkpt><trkpt lat="43.470344677056254" lon="10.335839544555478"><ele>12.0</ele><time>2026-05-02T08:49:05Z</time></trkpt><trkpt lat="43.47025243240601" lon="10.33590117835671"><ele>12.0</ele><time>2026-05-02T08:49:07Z</time></trkpt><trkpt lat="43.47015093675438" lon="10.335941278320036"><ele>12.0</ele><time>2026-05-02T08:49:09Z</time></trkpt><trkpt lat="43.470056194464334" lon="10.33599717761188"><ele>12.0</ele><time>2026-05-02T08:49:11Z</time></trkpt><trkpt lat="43.46996630785135" lon="10.336066703989996"><ele>12.0</ele><time>2026-05-02T08:49:13Z</time></trkpt><trkpt lat="43.46988173371122" lon="10.336139034299078"><ele>12.0</ele><time>2026-05-02T08:49:15Z</time></trkpt><trkpt lat="43.46980604424699" lon="10.336224400380736"><ele>12.0</ele><time>2026-05-02T08:49:17Z</time></trkpt><trkpt lat="43.46972608917508" lon="10.336305109318488"><ele>12.0</ele><time>2026-05-02T08:49:19Z</time></trkpt><trkpt lat="43.4696479397224" lon="10.336399800427122"><ele>12.0</ele><time>2026-05-02T08:49:21Z</time></trkpt><trkpt lat="43.46956797447226" lon="10.336488643429453"><ele>12.0</ele><time>2026-05-02T08:49:23Z</time></trkpt><trkpt lat="43.46949150638307" lon="10.336562713496138"><ele>11.8</ele><time>2026-05-02T08:49:25Z</time></trkpt><trkpt lat="43.46942973186917" lon="10.33665438592179"><ele>11.6</ele><time>2026-05-02T08:49:27Z</time></trkpt><trkpt lat="43.46935280941866" lon="10.336750687437576"><ele>11.4</ele><time>2026-05-02T08:49:29Z</time></trkpt><trkpt lat="43.469311689361476" lon="10.336864599224109"><ele>11.200000000000001</ele><time>2026-05-02T08:49:31Z</time></trkpt><trkpt lat="43.46926245954363" lon="10.33698062399788"><ele>11.0</ele><time>2026-05-02T08:49:33Z</time></trkpt><trkpt lat="43.46920485875554" lon="10.337094009858363"><ele>11.0</ele><time>2026-05-02T08:49:35Z</time></trkpt><trkpt lat="43.469159117535874" lon="10.337209210414505"><ele>11.0</ele><time>2026-05-02T08:49:37Z</time></trkpt><trkpt lat="43.46909714445302" lon="10.337319257484067"><ele>11.0</ele><time>2026-05-02T08:49:39Z</time></trkpt><trkpt lat="43.46902408055293" lon="10.337413882537833"><ele>11.0</ele><time>2026-05-02T08:49:41Z</time></trkpt><trkpt lat="43.46895322547207" lon="10.337500165472727"><ele>11.0</ele><time>2026-05-02T08:49:43Z</time></trkpt><trkpt lat="43.46887184393194" lon="10.33757015123808"><ele>10.8</ele><time>2026-05-02T08:49:45Z</time></trkpt><trkpt lat="43.46879202652092" lon="10.337648186046623"><ele>10.600000000000001</ele><time>2026-05-02T08:49:47Z</time></trkpt><trkpt lat="43.46871674517118" lon="10.337733244343664"><ele>10.4</ele><time>2026-05-02T08:49:49Z</time></trkpt><trkpt lat="43.46864847164225" lon="10.337822426786547"><ele>10.2</ele><time>2026-05-02T08:49:51Z</time></trkpt><trkpt lat="43.46858458706386" lon="10.337918190322982"><ele>10.0</ele><time>2026-05-02T08:49:53Z</time></trkpt><trkpt lat="43.46852020602312" lon="10.338012521610377"><ele>12.6</ele><time>2026-05-02T08:49:55Z</time></trkpt><trkpt lat="43.46845661039584" lon="10.338107592597531"><ele>15.2</ele><time>2026-05-02T08:49:57Z</time></trkpt><trkpt lat="43.46839078040337" lon="10.338208599481739"><ele>17.799999999999997</ele><time>2026-05-02T08:49:59Z</time></trkpt><trkpt lat="43.468322938350845" lon="10.338311339731552"><ele>20.4</ele><time>2026-05-02T08:50:01Z</time></trkpt><trkpt lat="43.46825346204241" lon="10.338414134067852"><ele>23.0</ele><time>2026-05-02T08:50:03Z</time></trkpt><trkpt lat="43.468180773070806" lon="10.338516591476345"><ele>23.0</ele><time>2026-05-02T08:50:05Z</time></trkpt><trkpt lat="43.46810861506946" lon="10.338623961616722"><ele>23.0</ele><time>2026-05-02T08:50:07Z</time></trkpt><trkpt lat="43.468035687801304" lon="10.338729488406003"><ele>23.0</ele><time>2026-05-02T08:50:09Z</time></trkpt><trkpt lat="43.46796097407054" lon="10.338837820161892"><ele>23.0</ele><time>2026-05-02T08:50:11Z</time></trkpt><trkpt lat="43.46788634163879" lon="10.338949848347744"><ele>23.0</ele><time>2026-05-02T08:50:13Z</time></trkpt><trkpt lat="43.46781071416835" lon="10.339054913653447"><ele>22.2</ele><time>2026-05-02T08:50:15Z</time></trkpt><trkpt lat="43.46773638892562" lon="10.339157476095691"><ele>21.4</ele><time>2026-05-02T08:50:17Z</time></trkpt><trkpt lat="43.46766546496105" lon="10.339260906087825"><ele>20.599999999999998</ele><time>2026-05-02T08:50:19Z</time></trkpt><trkpt lat="43.46758892481996" lon="10.339358640000214"><ele>19.799999999999997</ele><time>2026-05-02T08:50:21Z</time></trkpt><trkpt lat="43.467513428477666" lon="10.339459211461715"><ele>19.0</ele><time>2026-05-02T08:50:23Z</time></trkpt><trkpt lat="43.46743473653194" lon="10.339554980753384"><ele>19.0</ele><time>2026-05-02T08:50:25Z</time></trkpt><trkpt lat="43.4673571184743" lon="10.339646144602037"><ele>19.0</ele><time>2026-05-02T08:50:27Z</time></trkpt><trkpt lat="43.46727862464775" lon="10.339741712592028"><ele>19.0</ele><time>2026-05-02T08:50:29Z</time></trkpt><trkpt lat="43.467201169344115" lon="10.339838824020914"><ele>19.0</ele><time>2026-05-02T08:50:31Z</time></trkpt><trkpt lat="43.4671330627934" lon="10.339947836107369"><ele>19.0</ele><time>2026-05-02T08:50:33Z</time></trkpt><trkpt lat="43.467074189995" lon="10.340062524038132"><ele>17.8</ele><time>2026-05-02T08:50:35Z</time></trkpt><trkpt lat="43.46701480134678" lon="10.340171178498412"><ele>16.599999999999998</ele><time>2026-05-02T08:50:37Z</time></trkpt><trkpt lat="43.46695511755763" lon="10.340307076748038"><ele>15.4</ele><time>2026-05-02T08:50:39Z</time></trkpt><trkpt lat="43.46690082756725" lon="10.340429312115354"><ele>14.2</ele><time>2026-05-02T08:50:41Z</time></trkpt><trkpt lat="43.46683125868045" lon="10.340543355586252"><ele>13.0</ele><time>2026-05-02T08:50:43Z</time></trkpt><trkpt lat="43.466752624930194" lon="10.340598981573658"><ele>17.2</ele><time>2026-05-02T08:50:44Z</time></trkpt><trkpt lat="43.466698634687255" lon="10.340691107440419"><ele>21.4</ele><time>2026-05-02T08:50:46Z</time></trkpt><trkpt lat="43.46661360534189" lon="10.340766504083795"><ele>25.599999999999998</ele><time>2026-05-02T08:50:48Z</time></trkpt><trkpt lat="43.466527246109514" lon="10.340838773492532"><ele>29.8</ele><time>2026-05-02T08:50:50Z</time></trkpt><trkpt lat="43.4664512308711" lon="10.340940192312464"><ele>34.0</ele><time>2026-05-02T08:50:52Z</time></trkpt><trkpt lat="43.46637050086338" lon="10.341037797564795"><ele>34.0</ele><time>2026-05-02T08:50:54Z</time></trkpt><trkpt lat="43.466296539767725" lon="10.341145589583776"><ele>34.0</ele><time>2026-05-02T08:50:56Z</time></trkpt><trkpt lat="43.4662540570385" lon="10.341213002337655"><ele>34.0</ele><time>2026-05-02T08:50:57Z</time></trkpt><trkpt lat="43.46617839064972" lon="10.341304747660827"><ele>34.0</ele><time>2026-05-02T08:50:59Z</time></trkpt><trkpt lat="43.46610506191279" lon="10.341400622260126"><ele>34.0</ele><time>2026-05-02T08:51:01Z</time></trkpt><trkpt lat="43.46599479117462" lon="10.341480454173768"><ele>33.8</ele><time>2026-05-02T08:51:03Z</time></trkpt><trkpt lat="43.46594755224802" lon="10.341598038078747"><ele>33.599999999999994</ele><time>2026-05-02T08:51:05Z</time></trkpt><trkpt lat="43.4658666033506" lon="10.341694826442684"><ele>33.4</ele><time>2026-05-02T08:51:07Z</time></trkpt><trkpt lat="43.46578608828415" lon="10.34179258822797"><ele>33.199999999999996</ele><time>2026-05-02T08:51:09Z</time></trkpt><trkpt lat="43.465711694848395" lon="10.341898588236317"><ele>33.0</ele><time>2026-05-02T08:51:11Z</time></trkpt><trkpt lat="43.46563656728385" lon="10.342012037732045"><ele>33.0</ele><time>2026-05-02T08:51:13Z</time></trkpt><trkpt lat="43.465560456831625" lon="10.342122672660233"><ele>33.0</ele><time>2026-05-02T08:51:15Z</time></trkpt><trkpt lat="43.46548438342272" lon="10.342242426035039"><ele>33.0</ele><time>2026-05-02T08:51:17Z</time></trkpt><trkpt lat="43.465400305889816" lon="10.342353863627253"><ele>33.0</ele><time>2026-05-02T08:51:19Z</time></trkpt><trkpt lat="43.465327943903375" lon="10.342451687866284"><ele>33.0</ele><time>2026-05-02T08:51:21Z</time></trkpt><trkpt lat="43.46524765567856" lon="10.342575903692115"><ele>31.599999999999998</ele><time>2026-05-02T08:51:23Z</time></trkpt><trkpt lat="43.465191421030205" lon="10.342711379819603"><ele>30.199999999999996</ele><time>2026-05-02T08:51:25Z</time></trkpt><trkpt lat="43.465144916422545" lon="10.342846520106844"><ele>28.8</ele><time>2026-05-02T08:51:27Z</time></trkpt><trkpt lat="43.465115347036" lon="10.342982855632657"><ele>27.4</ele><time>2026-05-02T08:51:29Z</time></trkpt><trkpt lat="43.46510005690282" lon="10.343121515226825"><ele>26.0</ele><time>2026-05-02T08:51:31Z</time></trkpt><trkpt lat="43.465092468409374" lon="10.34326350979262"><ele>26.0</ele><time>2026-05-02T08:51:33Z</time></trkpt><trkpt lat="43.46510005655612" lon="10.343402316494416"><ele>26.0</ele><time>2026-05-02T08:51:35Z</time></trkpt><trkpt lat="43.465115855569785" lon="10.343536466364602"><ele>26.0</ele><time>2026-05-02T08:51:37Z</time></trkpt><trkpt lat="43.4651388998983" lon="10.343675032879254"><ele>26.0</ele><time>2026-05-02T08:51:39Z</time></trkpt><trkpt lat="43.465147425268455" lon="10.34381803133696"><ele>26.0</ele><time>2026-05-02T08:51:41Z</time></trkpt><trkpt lat="43.465134954141604" lon="10.343970521762268"><ele>27.666666666666664</ele><time>2026-05-02T08:51:43Z</time></trkpt><trkpt lat="43.465097378131716" lon="10.344136560182063"><ele>29.333333333333332</ele><time>2026-05-02T08:51:45Z</time></trkpt><trkpt lat="43.46507389193457" lon="10.344228989137196"><ele>31.0</ele><time>2026-05-02T08:51:46Z</time></trkpt><trkpt lat="43.46504887744069" lon="10.344317204953452"><ele>32.666666666666664</ele><time>2026-05-02T08:51:47Z</time></trkpt><trkpt lat="43.46502632457721" lon="10.344411739129026"><ele>34.333333333333336</ele><time>2026-05-02T08:51:48Z</time></trkpt><trkpt lat="43.46500747268338" lon="10.34451353810876"><ele>36.0</ele><time>2026-05-02T08:51:49Z</time></trkpt><trkpt lat="43.46498603096695" lon="10.344620293313977"><ele>36.833333333333336</ele><time>2026-05-02T08:51:50Z</time></trkpt><trkpt lat="43.464971365800956" lon="10.344730229170041"><ele>37.666666666666664</ele><time>2026-05-02T08:51:51Z</time></trkpt><trkpt lat="43.46495688010624" lon="10.344842646475383"><ele>38.5</ele><time>2026-05-02T08:51:52Z</time></trkpt><trkpt lat="43.464942842594674" lon="10.344959078020665"><ele>39.33333333333333</ele><time>2026-05-02T08:51:53Z</time></trkpt><trkpt lat="43.46493110947229" lon="10.345080568285521"><ele>40.166666666666664</ele><time>2026-05-02T08:51:54Z</time></trkpt><trkpt lat="43.46491761419317" lon="10.345204811998217"><ele>41.0</ele><time>2026-05-02T08:51:55Z</time></trkpt><trkpt lat="43.464911049808066" lon="10.345333929961626"><ele>41.0</ele><time>2026-05-02T08:51:56Z</time></trkpt><trkpt lat="43.46488803058438" lon="10.345464560741101"><ele>41.0</ele><time>2026-05-02T08:51:57Z</time></trkpt><trkpt lat="43.464898291961475" lon="10.3456000141926"><ele>41.0</ele><time>2026-05-02T08:51:58Z</time></trkpt><trkpt lat="43.4648948333927" lon="10.345735731541257"><ele>41.0</ele><time>2026-05-02T08:51:59Z</time></trkpt><trkpt lat="43.4648962143316" lon="10.345871043657485"><ele>41.0</ele><time>2026-05-02T08:52:00Z</time></trkpt><trkpt lat="43.46490266965424" lon="10.346005809055406"><ele>40.599999999999994</ele><time>2026-05-02T08:52:01Z</time></trkpt><trkpt lat="43.464914427994685" lon="10.346138945561448"><ele>40.199999999999996</ele><time>2026-05-02T08:52:02Z</time></trkpt><trkpt lat="43.46492856987127" lon="10.34627143184775"><ele>39.8</ele><time>2026-05-02T08:52:03Z</time></trkpt><trkpt lat="43.46494921281371" lon="10.346401792469374"><ele>39.4</ele><time>2026-05-02T08:52:04Z</time></trkpt><trkpt lat="43.464969767187725" lon="10.346529771499114"><ele>39.0</ele><time>2026-05-02T08:52:05Z</time></trkpt><trkpt lat="43.46498994567002" lon="10.346656523271198"><ele>38.4</ele><time>2026-05-02T08:52:06Z</time></trkpt><trkpt lat="43.46501468509274" lon="10.3467792376823"><ele>37.8</ele><time>2026-05-02T08:52:07Z</time></trkpt><trkpt lat="43.46503287541044" lon="10.346906069220111"><ele>37.2</ele><time>2026-05-02T08:52:08Z</time></trkpt><trkpt lat="43.46505328968412" lon="10.347026106328713"><ele>36.6</ele><time>2026-05-02T08:52:09Z</time></trkpt><trkpt lat="43.46507355182723" lon="10.34714261405922"><ele>36.0</ele><time>2026-05-02T08:52:10Z</time></trkpt><trkpt lat="43.46508723048875" lon="10.347269244763432"><ele>33.0</ele><time>2026-05-02T08:52:11Z</time></trkpt><trkpt lat="43.46509948613234" lon="10.34739484709418"><ele>30.0</ele><time>2026-05-02T08:52:12Z</time></trkpt><trkpt lat="43.46511214040263" lon="10.347521312543842"><ele>27.0</ele><time>2026-05-02T08:52:13Z</time></trkpt><trkpt lat="43.465120416399685" lon="10.347642358399503"><ele>24.0</ele><time>2026-05-02T08:52:14Z</time></trkpt><trkpt lat="43.465123171917014" lon="10.347768266932867"><ele>21.0</ele><time>2026-05-02T08:52:15Z</time></trkpt><trkpt lat="43.46512532774376" lon="10.347895091625984"><ele>21.0</ele><time>2026-05-02T08:52:16Z</time></trkpt><trkpt lat="43.46512983532024" lon="10.348021671355719"><ele>21.0</ele><time>2026-05-02T08:52:17Z</time></trkpt><trkpt lat="43.46513480821448" lon="10.348148516038794"><ele>21.0</ele><time>2026-05-02T08:52:18Z</time></trkpt><trkpt lat="43.4651395682566" lon="10.348269670429165"><ele>21.0</ele><time>2026-05-02T08:52:19Z</time></trkpt><trkpt lat="43.46514095117711" lon="10.348388522608946"><ele>21.0</ele><time>2026-05-02T08:52:20Z</time></trkpt><trkpt lat="43.46514319511584" lon="10.348511111871977"><ele>21.0</ele><time>2026-05-02T08:52:21Z</time></trkpt><trkpt lat="43.465146170568914" lon="10.348633104363072"><ele>19.166666666666668</ele><time>2026-05-02T08:52:22Z</time></trkpt><trkpt lat="43.465148180433516" lon="10.348753596826452"><ele>17.333333333333332</ele><time>2026-05-02T08:52:23Z</time></trkpt><trkpt lat="43.465151248238044" lon="10.34886978761076"><ele>15.5</ele><time>2026-05-02T08:52:24Z</time></trkpt><trkpt lat="43.46515399136811" lon="10.34899065149429"><ele>13.666666666666668</ele><time>2026-05-02T08:52:25Z</time></trkpt><trkpt lat="43.4651552129615" lon="10.349112474763198"><ele>11.833333333333334</ele><time>2026-05-02T08:52:26Z</time></trkpt><trkpt lat="43.46515247595486" lon="10.349237168025049"><ele>10.0</ele><time>2026-05-02T08:52:27Z</time></trkpt><trkpt lat="43.46514225958305" lon="10.34935524394206"><ele>9.833333333333334</ele><time>2026-05-02T08:52:28Z</time></trkpt><trkpt lat="43.465138405155294" lon="10.349470685474392"><ele>9.666666666666668</ele><time>2026-05-02T08:52:29Z</time></trkpt><trkpt lat="43.465131803796496" lon="10.349585614673266"><ele>9.5</ele><time>2026-05-02T08:52:30Z</time></trkpt><trkpt lat="43.46512589496682" lon="10.349697747637594"><ele>9.333333333333334</ele><time>2026-05-02T08:52:31Z</time></trkpt><trkpt lat="43.465124852028026" lon="10.34980774663246"><ele>9.166666666666666</ele><time>2026-05-02T08:52:32Z</time></trkpt><trkpt lat="43.46512392928945" lon="10.349919441336429"><ele>9.0</ele><time>2026-05-02T08:52:33Z</time></trkpt><trkpt lat="43.4651196134964" lon="10.350027324991547"><ele>11.666666666666668</ele><time>2026-05-02T08:52:34Z</time></trkpt><trkpt lat="43.46511418177549" lon="10.3501302472518"><ele>14.333333333333334</ele><time>2026-05-02T08:52:35Z</time></trkpt><trkpt lat="43.46511109195969" lon="10.350223790733443"><ele>17.0</ele><time>2026-05-02T08:52:36Z</time></trkpt><trkpt lat="43.46510979570538" lon="10.350315380986657"><ele>19.666666666666668</ele><time>2026-05-02T08:52:37Z</time></trkpt><trkpt lat="43.46510176385908" lon="10.35047846573414"><ele>22.333333333333336</ele><time>2026-05-02T08:52:39Z</time></trkpt><trkpt lat="43.46508698385044" lon="10.350629803425631"><ele>25.0</ele><time>2026-05-02T08:52:41Z</time></trkpt><trkpt lat="43.46505941653594" lon="10.350791231128538"><ele>27.8</ele><time>2026-05-02T08:52:43Z</time></trkpt><trkpt lat="43.465002391254664" lon="10.350934113595253"><ele>30.6</ele><time>2026-05-02T08:52:45Z</time></trkpt><trkpt lat="43.464928381633676" lon="10.35104553579703"><ele>33.4</ele><time>2026-05-02T08:52:47Z</time></trkpt><trkpt lat="43.464848927478876" lon="10.351148043209864"><ele>36.2</ele><time>2026-05-02T08:52:49Z</time></trkpt><trkpt lat="43.46477454470301" lon="10.35124883632102"><ele>39.0</ele><time>2026-05-02T08:52:51Z</time></trkpt><trkpt lat="43.46470737663069" lon="10.351355831430578"><ele>41.8</ele><time>2026-05-02T08:52:53Z</time></trkpt><trkpt lat="43.46465357283364" lon="10.351476315154859"><ele>44.599999999999994</ele><time>2026-05-02T08:52:55Z</time></trkpt><trkpt lat="43.46461628136368" lon="10.35160021064742"><ele>47.4</ele><time>2026-05-02T08:52:57Z</time></trkpt><trkpt lat="43.464578993293905" lon="10.351720589678877"><ele>50.199999999999996</ele><time>2026-05-02T08:52:59Z</time></trkpt><trkpt lat="43.46454640456063" lon="10.351840758740696"><ele>53.0</ele><time>2026-05-02T08:53:01Z</time></trkpt><trkpt lat="43.464520611029776" lon="10.351961429624467"><ele>48.00000000000001</ele><time>2026-05-02T08:53:03Z</time></trkpt><trkpt lat="43.4644924703531" lon="10.352082274528525"><ele>43.0</ele><time>2026-05-02T08:53:05Z</time></trkpt><trkpt lat="43.46447734759194" lon="10.352204977119953"><ele>38.0</ele><time>2026-05-02T08:53:07Z</time></trkpt><trkpt lat="43.46447031016063" lon="10.352326062977934"><ele>33.0</ele><time>2026-05-02T08:53:09Z</time></trkpt><trkpt lat="43.46447466052538" lon="10.352446462789345"><ele>28.0</ele><time>2026-05-02T08:53:11Z</time></trkpt><trkpt lat="43.4644907024837" lon="10.352564136611399"><ele>23.0</ele><time>2026-05-02T08:53:13Z</time></trkpt><trkpt lat="43.46451210572156" lon="10.352677328251994"><ele>23.0</ele><time>2026-05-02T08:53:15Z</time></trkpt><trkpt lat="43.46454191789148" lon="10.352786625322427"><ele>23.0</ele><time>2026-05-02T08:53:17Z</time></trkpt><trkpt lat="43.46457368408927" lon="10.352893813953767"><ele>23.0</ele><time>2026-05-02T08:53:19Z</time></trkpt><trkpt lat="43.46460355389837" lon="10.353006770940151"><ele>23.0</ele><time>2026-05-02T08:53:21Z</time></trkpt><trkpt lat="43.46463459637222" lon="10.353119068546027"><ele>23.0</ele><time>2026-05-02T08:53:23Z</time></trkpt><trkpt lat="43.464672067619716" lon="10.353225276577135"><ele>23.0</ele><time>2026-05-02T08:53:25Z</time></trkpt><trkpt lat="43.464717475118995" lon="10.353330595749288"><ele>30.2</ele><time>2026-05-02T08:53:27Z</time></trkpt><trkpt lat="43.464769071372515" lon="10.353436130247648"><ele>37.4</ele><time>2026-05-02T08:53:29Z</time></trkpt><trkpt lat="43.46482839731057" lon="10.353535494591677"><ele>44.60000000000001</ele><time>2026-05-02T08:53:31Z</time></trkpt><trkpt lat="43.464877775995696" lon="10.353642024342232"><ele>51.800000000000004</ele><time>2026-05-02T08:53:33Z</time></trkpt><trkpt lat="43.46492840818102" lon="10.353749948084236"><ele>59.0</ele><time>2026-05-02T08:53:35Z</time></trkpt><trkpt lat="43.46498375784769" lon="10.353857138017203"><ele>56.400000000000006</ele><time>2026-05-02T08:53:37Z</time></trkpt><trkpt lat="43.465028552271285" lon="10.353972025156256"><ele>53.800000000000004</ele><time>2026-05-02T08:53:39Z</time></trkpt><trkpt lat="43.46508374830129" lon="10.35407838621362"><ele>51.2</ele><time>2026-05-02T08:53:41Z</time></trkpt><trkpt lat="43.46514124753078" lon="10.3541856673436"><ele>48.599999999999994</ele><time>2026-05-02T08:53:43Z</time></trkpt><trkpt lat="43.46519315006165" lon="10.354291762904447"><ele>46.0</ele><time>2026-05-02T08:53:45Z</time></trkpt><trkpt lat="43.46524901250828" lon="10.354398615564955"><ele>46.0</ele><time>2026-05-02T08:53:47Z</time></trkpt><trkpt lat="43.4653049431745" lon="10.354501176899978"><ele>46.0</ele><time>2026-05-02T08:53:49Z</time></trkpt><trkpt lat="43.46536399887704" lon="10.35460153290429"><ele>46.0</ele><time>2026-05-02T08:53:51Z</time></trkpt><trkpt lat="43.465407924039596" lon="10.354712941513423"><ele>46.0</ele><time>2026-05-02T08:53:53Z</time></trkpt><trkpt lat="43.465458795597975" lon="10.354823659126941"><ele>46.0</ele><time>2026-05-02T08:53:55Z</time></trkpt><trkpt lat="43.46551351759142" lon="10.354930365181636"><ele>51.4</ele><time>2026-05-02T08:53:57Z</time></trkpt><trkpt lat="43.46554752067948" lon="10.355044941249133"><ele>56.8</ele><time>2026-05-02T08:53:59Z</time></trkpt><trkpt lat="43.46556412515636" lon="10.355178969227008"><ele>62.199999999999996</ele><time>2026-05-02T08:54:01Z</time></trkpt><trkpt lat="43.46555908256406" lon="10.35530338138597"><ele>67.6</ele><time>2026-05-02T08:54:03Z</time></trkpt><trkpt lat="43.46554340662168" lon="10.355436786071447"><ele>73.0</ele><time>2026-05-02T08:54:05Z</time></trkpt><trkpt lat="43.465517524252725" lon="10.35555739458051"><ele>74.6</ele><time>2026-05-02T08:54:07Z</time></trkpt><trkpt lat="43.465482860017744" lon="10.355683116295117"><ele>76.19999999999999</ele><time>2026-05-02T08:54:09Z</time></trkpt><trkpt lat="43.465435666455654" lon="10.355791798615831"><ele>77.8</ele><time>2026-05-02T08:54:11Z</time></trkpt><trkpt lat="43.465371525633124" lon="10.355891540127214"><ele>79.39999999999999</ele><time>2026-05-02T08:54:13Z</time></trkpt><trkpt lat="43.46528985383239" lon="10.355963072009857"><ele>81.0</ele><time>2026-05-02T08:54:15Z</time></trkpt><trkpt lat="43.46520313847283" lon="10.356016581479388"><ele>77.0</ele><time>2026-05-02T08:54:17Z</time></trkpt><trkpt lat="43.465107641413866" lon="10.356042500460099"><ele>73.0</ele><time>2026-05-02T08:54:19Z</time></trkpt><trkpt lat="43.46500711806333" lon="10.356068515601928"><ele>69.0</ele><time>2026-05-02T08:54:21Z</time></trkpt><trkpt lat="43.46491805187582" lon="10.356068278872318"><ele>65.0</ele><time>2026-05-02T08:54:23Z</time></trkpt><trkpt lat="43.46482488247103" lon="10.356085759300365"><ele>61.0</ele><time>2026-05-02T08:54:25Z</time></trkpt><trkpt lat="43.46474847084717" lon="10.35611172509496"><ele>61.0</ele><time>2026-05-02T08:54:27Z</time></trkpt><trkpt lat="43.46465969326491" lon="10.356180515379144"><ele>60.99999999999999</ele><time>2026-05-02T08:54:29Z</time></trkpt><trkpt lat="43.464584820454945" lon="10.356270234338446"><ele>60.99999999999999</ele><time>2026-05-02T08:54:31Z</time></trkpt><trkpt lat="43.46451266258254" lon="10.356358732643788"><ele>61.0</ele><time>2026-05-02T08:54:33Z</time></trkpt><trkpt lat="43.46443903796131" lon="10.356448972991418"><ele>61.0</ele><time>2026-05-02T08:54:35Z</time></trkpt><trkpt lat="43.46436465355226" lon="10.35653527778142"><ele>64.8</ele><time>2026-05-02T08:54:37Z</time></trkpt><trkpt lat="43.46429199119627" lon="10.356627140885777"><ele>68.6</ele><time>2026-05-02T08:54:39Z</time></trkpt><trkpt lat="43.4642125980566" lon="10.356717440809364"><ele>72.4</ele><time>2026-05-02T08:54:41Z</time></trkpt><trkpt lat="43.46414095650079" lon="10.356808946947949"><ele>76.2</ele><time>2026-05-02T08:54:43Z</time></trkpt><trkpt lat="43.46407129120999" lon="10.356896293746734"><ele>80.0</ele><time>2026-05-02T08:54:45Z</time></trkpt><trkpt lat="43.46400902353147" lon="10.357014266197334"><ele>80.0</ele><time>2026-05-02T08:54:47Z</time></trkpt><trkpt lat="43.463959196836285" lon="10.357132841198474"><ele>80.0</ele><time>2026-05-02T08:54:50Z</time></trkpt><trkpt lat="43.46390333898806" lon="10.357269235963663"><ele>80.0</ele><time>2026-05-02T08:54:51Z</time></trkpt><trkpt lat="43.46386771843833" lon="10.357431601382773"><ele>80.0</ele><time>2026-05-02T08:54:53Z</time></trkpt><trkpt lat="43.463857024355974" lon="10.357521733320471"><ele>80.0</ele><time>2026-05-02T08:54:54Z</time></trkpt><trkpt lat="43.463833849064294" lon="10.357606899151916"><ele>79.0</ele><time>2026-05-02T08:54:55Z</time></trkpt><trkpt lat="43.46381901402027" lon="10.357694769754847"><ele>78.0</ele><time>2026-05-02T08:54:56Z</time></trkpt><trkpt lat="43.463801544185486" lon="10.357788910598797"><ele>77.0</ele><time>2026-05-02T08:54:57Z</time></trkpt><trkpt lat="43.463777656574045" lon="10.35788839540469"><ele>76.0</ele><time>2026-05-02T08:54:58Z</time></trkpt><trkpt lat="43.46375307146512" lon="10.35800634733288"><ele>75.0</ele><time>2026-05-02T08:54:59Z</time></trkpt><trkpt lat="43.463735827581544" lon="10.358101751902348"><ele>74.0</ele><time>2026-05-02T08:55:00Z</time></trkpt><trkpt lat="43.46371938137295" lon="10.358207727251107"><ele>72.16666666666667</ele><time>2026-05-02T08:55:01Z</time></trkpt><trkpt lat="43.46369651641626" lon="10.358315641760441"><ele>70.33333333333334</ele><time>2026-05-02T08:55:02Z</time></trkpt><trkpt lat="43.46366353383812" lon="10.358420548150752"><ele>68.5</ele><time>2026-05-02T08:55:03Z</time></trkpt><trkpt lat="43.46364347581404" lon="10.358539273993078"><ele>66.66666666666667</ele><time>2026-05-02T08:55:04Z</time></trkpt><trkpt lat="43.46359476814836" lon="10.358621555342404"><ele>64.83333333333333</ele><time>2026-05-02T08:55:05Z</time></trkpt><trkpt lat="43.46356155187312" lon="10.358757969687742"><ele>63.0</ele><time>2026-05-02T08:55:06Z</time></trkpt><trkpt lat="43.463495321832696" lon="10.358842969350192"><ele>64.8</ele><time>2026-05-02T08:55:07Z</time></trkpt><trkpt lat="43.46340441680273" lon="10.358915131348994"><ele>66.6</ele><time>2026-05-02T08:55:08Z</time></trkpt><trkpt lat="43.46330922325814" lon="10.358968820769125"><ele>68.4</ele><time>2026-05-02T08:55:09Z</time></trkpt><trkpt lat="43.46322558043577" lon="10.359054993816953"><ele>70.2</ele><time>2026-05-02T08:55:10Z</time></trkpt><trkpt lat="43.46316409965089" lon="10.359115072661524"><ele>72.0</ele><time>2026-05-02T08:55:11Z</time></trkpt><trkpt lat="43.46303609855185" lon="10.359177578630907"><ele>66.6</ele><time>2026-05-02T08:55:12Z</time></trkpt><trkpt lat="43.462942876292885" lon="10.359257571469954"><ele>61.2</ele><time>2026-05-02T08:55:13Z</time></trkpt><trkpt lat="43.462854302419125" lon="10.359341130645468"><ele>55.8</ele><time>2026-05-02T08:55:14Z</time></trkpt><trkpt lat="43.46275636785862" lon="10.359418887149832"><ele>50.4</ele><time>2026-05-02T08:55:15Z</time></trkpt><trkpt lat="43.462657117565044" lon="10.359509951360725"><ele>45.0</ele><time>2026-05-02T08:55:16Z</time></trkpt><trkpt lat="43.46256567464948" lon="10.359607130277512"><ele>48.25</ele><time>2026-05-02T08:55:17Z</time></trkpt><trkpt lat="43.46248907775466" lon="10.35972471525431"><ele>51.5</ele><time>2026-05-02T08:55:18Z</time></trkpt><trkpt lat="43.46244580333747" lon="10.359877246386956"><ele>54.75</ele><time>2026-05-02T08:55:19Z</time></trkpt><trkpt lat="43.46240870821113" lon="10.360025394838521"><ele>58.0</ele><time>2026-05-02T08:55:20Z</time></trkpt><trkpt lat="43.4623682519298" lon="10.3601717994647"><ele>58.0</ele><time>2026-05-02T08:55:21Z</time></trkpt><trkpt lat="43.462312782848045" lon="10.360317878716252"><ele>58.0</ele><time>2026-05-02T08:55:22Z</time></trkpt><trkpt lat="43.46227151258047" lon="10.360471467463167"><ele>58.0</ele><time>2026-05-02T08:55:23Z</time></trkpt><trkpt lat="43.46226249941322" lon="10.36063652562912"><ele>58.0</ele><time>2026-05-02T08:55:24Z</time></trkpt><trkpt lat="43.46227476453217" lon="10.360801441623023"><ele>59.0</ele><time>2026-05-02T08:55:25Z</time></trkpt><trkpt lat="43.46228500874773" lon="10.360964555132783"><ele>60.0</ele><time>2026-05-02T08:55:26Z</time></trkpt><trkpt lat="43.46229309585592" lon="10.36112860402881"><ele>61.0</ele><time>2026-05-02T08:55:27Z</time></trkpt><trkpt lat="43.46230416201509" lon="10.361291660705886"><ele>62.0</ele><time>2026-05-02T08:55:28Z</time></trkpt><trkpt lat="43.46230342322292" lon="10.36144577017882"><ele>59.8</ele><time>2026-05-02T08:55:29Z</time></trkpt><trkpt lat="43.46232790389936" lon="10.361592556709855"><ele>57.6</ele><time>2026-05-02T08:55:30Z</time></trkpt><trkpt lat="43.462379802994455" lon="10.361716117228498"><ele>55.4</ele><time>2026-05-02T08:55:31Z</time></trkpt><trkpt lat="43.462476979967704" lon="10.361803773351413"><ele>53.199999999999996</ele><time>2026-05-02T08:55:32Z</time></trkpt><trkpt lat="43.46259336273017" lon="10.361841430591381"><ele>51.0</ele><time>2026-05-02T08:55:33Z</time></trkpt><trkpt lat="43.46270840515253" lon="10.36184359494368"><ele>51.0</ele><time>2026-05-02T08:55:34Z</time></trkpt><trkpt lat="43.46281714923752" lon="10.361849855967995"><ele>51.0</ele><time>2026-05-02T08:55:35Z</time></trkpt><trkpt lat="43.46292282629476" lon="10.361867549080136"><ele>51.0</ele><time>2026-05-02T08:55:36Z</time></trkpt><trkpt lat="43.46302142056285" lon="10.361887476535177"><ele>51.0</ele><time>2026-05-02T08:55:37Z</time></trkpt><trkpt lat="43.4631169505734" lon="10.361900920843972"><ele>51.0</ele><time>2026-05-02T08:55:38Z</time></trkpt><trkpt lat="43.46319013876835" lon="10.361949780603602"><ele>51.8</ele><time>2026-05-02T08:55:39Z</time></trkpt><trkpt lat="43.463247537324186" lon="10.362043774027486"><ele>52.599999999999994</ele><time>2026-05-02T08:55:40Z</time></trkpt><trkpt lat="43.46325126087904" lon="10.362173980903417"><ele>53.4</ele><time>2026-05-02T08:55:41Z</time></trkpt><trkpt lat="43.46320555881991" lon="10.36229096597159"><ele>54.2</ele><time>2026-05-02T08:55:42Z</time></trkpt><trkpt lat="43.46313772868296" lon="10.362379275874588"><ele>55.0</ele><time>2026-05-02T08:55:43Z</time></trkpt><trkpt lat="43.46304710217162" lon="10.362395650280723"><ele>55.0</ele><time>2026-05-02T08:55:44Z</time></trkpt><trkpt lat="43.46295912086944" lon="10.362440606372898"><ele>55.0</ele><time>2026-05-02T08:55:45Z</time></trkpt><trkpt lat="43.46286520033655" lon="10.362460508031203"><ele>55.0</ele><time>2026-05-02T08:55:46Z</time></trkpt><trkpt lat="43.46277414474515" lon="10.362484061715111"><ele>55.0</ele><time>2026-05-02T08:55:47Z</time></trkpt><trkpt lat="43.46267837451462" lon="10.362516789393897"><ele>55.0</ele><time>2026-05-02T08:55:48Z</time></trkpt><trkpt lat="43.46258693609842" lon="10.36255629819654"><ele>53.0</ele><time>2026-05-02T08:55:49Z</time></trkpt><trkpt lat="43.46249263712385" lon="10.36260667727305"><ele>51.0</ele><time>2026-05-02T08:55:50Z</time></trkpt><trkpt lat="43.4624038550064" lon="10.36266798482619"><ele>49.0</ele><time>2026-05-02T08:55:51Z</time></trkpt><trkpt lat="43.462322931293045" lon="10.362747143057511"><ele>47.0</ele><time>2026-05-02T08:55:52Z</time></trkpt><trkpt lat="43.46224497650083" lon="10.362845666632513"><ele>45.0</ele><time>2026-05-02T08:55:53Z</time></trkpt><trkpt lat="43.46217471724772" lon="10.362953462189678"><ele>42.4</ele><time>2026-05-02T08:55:54Z</time></trkpt><trkpt lat="43.4621069471999" lon="10.36307000371475"><ele>39.8</ele><time>2026-05-02T08:55:55Z</time></trkpt><trkpt lat="43.46204970184491" lon="10.363199478707555"><ele>37.2</ele><time>2026-05-02T08:55:56Z</time></trkpt><trkpt lat="43.462000997251806" lon="10.363340586174177"><ele>34.6</ele><time>2026-05-02T08:55:57Z</time></trkpt><trkpt lat="43.46196192724545" lon="10.363489238258282"><ele>32.0</ele><time>2026-05-02T08:55:58Z</time></trkpt><trkpt lat="43.461929467906636" lon="10.363645995370307"><ele>32.0</ele><time>2026-05-02T08:55:59Z</time></trkpt><trkpt lat="43.461894480644716" lon="10.363807881401518"><ele>32.0</ele><time>2026-05-02T08:56:00Z</time></trkpt><trkpt lat="43.46185576193802" lon="10.363968519600068"><ele>32.0</ele><time>2026-05-02T08:56:01Z</time></trkpt><trkpt lat="43.46181632858324" lon="10.364128687018715"><ele>32.0</ele><time>2026-05-02T08:56:02Z</time></trkpt><trkpt lat="43.461764923124385" lon="10.364287417561513"><ele>31.0</ele><time>2026-05-02T08:56:03Z</time></trkpt><trkpt lat="43.46172571749798" lon="10.364448976257075"><ele>30.0</ele><time>2026-05-02T08:56:04Z</time></trkpt><trkpt lat="43.46166468371709" lon="10.364609580863759"><ele>29.0</ele><time>2026-05-02T08:56:05Z</time></trkpt><trkpt lat="43.46158658693305" lon="10.36474982688279"><ele>28.0</ele><time>2026-05-02T08:56:06Z</time></trkpt><trkpt lat="43.461481804197064" lon="10.364860823083765"><ele>27.75</ele><time>2026-05-02T08:56:07Z</time></trkpt><trkpt lat="43.461381621469144" lon="10.36496964051849"><ele>27.5</ele><time>2026-05-02T08:56:08Z</time></trkpt><trkpt lat="43.461284855153366" lon="10.365081058929519"><ele>27.25</ele><time>2026-05-02T08:56:09Z</time></trkpt><trkpt lat="43.461192903545346" lon="10.36520121795525"><ele>27.0</ele><time>2026-05-02T08:56:10Z</time></trkpt><trkpt lat="43.461111929922886" lon="10.365342058534184"><ele>26.0</ele><time>2026-05-02T08:56:11Z</time></trkpt><trkpt lat="43.461052042253876" lon="10.365499745572373"><ele>25.0</ele><time>2026-05-02T08:56:12Z</time></trkpt><trkpt lat="43.46099549990073" lon="10.365646651984841"><ele>24.0</ele><time>2026-05-02T08:56:13Z</time></trkpt><trkpt lat="43.4609658795754" lon="10.365798296437458"><ele>23.0</ele><time>2026-05-02T08:56:14Z</time></trkpt><trkpt lat="43.46093825821992" lon="10.3659549424451"><ele>22.4</ele><time>2026-05-02T08:56:15Z</time></trkpt><trkpt lat="43.460909397610905" lon="10.366102303362311"><ele>21.799999999999997</ele><time>2026-05-02T08:56:16Z</time></trkpt><trkpt lat="43.46087583280968" lon="10.366244178060608"><ele>21.2</ele><time>2026-05-02T08:56:17Z</time></trkpt><trkpt lat="43.460836453764614" lon="10.36638735515008"><ele>20.6</ele><time>2026-05-02T08:56:18Z</time></trkpt><trkpt lat="43.460791545162884" lon="10.366515551242768"><ele>20.0</ele><time>2026-05-02T08:56:19Z</time></trkpt><trkpt lat="43.46073040485232" lon="10.366646429317221"><ele>19.0</ele><time>2026-05-02T08:56:20Z</time></trkpt><trkpt lat="43.460663689608" lon="10.366760879638795"><ele>18.0</ele><time>2026-05-02T08:56:21Z</time></trkpt><trkpt lat="43.460596098060954" lon="10.36686668537764"><ele>17.0</ele><time>2026-05-02T08:56:22Z</time></trkpt><trkpt lat="43.46052009030398" lon="10.366963326477862"><ele>16.0</ele><time>2026-05-02T08:56:23Z</time></trkpt><trkpt lat="43.4604428184635" lon="10.367048012390882"><ele>15.0</ele><time>2026-05-02T08:56:24Z</time></trkpt><trkpt lat="43.460366319767104" lon="10.367122826959507"><ele>15.0</ele><time>2026-05-02T08:56:25Z</time></trkpt><trkpt lat="43.460284125377" lon="10.367179313061575"><ele>15.0</ele><time>2026-05-02T08:56:26Z</time></trkpt><trkpt lat="43.460200786780845" lon="10.367225778727745"><ele>15.0</ele><time>2026-05-02T08:56:27Z</time></trkpt><trkpt lat="43.46011848025449" lon="10.367262492816506"><ele>15.0</ele><time>2026-05-02T08:56:28Z</time></trkpt><trkpt lat="43.460035549822436" lon="10.367294409095344"><ele>15.0</ele><time>2026-05-02T08:56:29Z</time></trkpt><trkpt lat="43.45995416242359" lon="10.367326785716761"><ele>15.0</ele><time>2026-05-02T08:56:30Z</time></trkpt><trkpt lat="43.45987886596893" lon="10.36735691450317"><ele>15.833333333333334</ele><time>2026-05-02T08:56:31Z</time></trkpt><trkpt lat="43.459804621606786" lon="10.367386055663022"><ele>16.666666666666668</ele><time>2026-05-02T08:56:32Z</time></trkpt><trkpt lat="43.459732528284455" lon="10.367413800626172"><ele>17.5</ele><time>2026-05-02T08:56:33Z</time></trkpt><trkpt lat="43.45965989674647" lon="10.367444232034392"><ele>18.333333333333336</ele><time>2026-05-02T08:56:34Z</time></trkpt><trkpt lat="43.45958819124077" lon="10.367481384699287"><ele>19.166666666666668</ele><time>2026-05-02T08:56:35Z</time></trkpt><trkpt lat="43.45951934492403" lon="10.367527306235708"><ele>20.0</ele><time>2026-05-02T08:56:36Z</time></trkpt><trkpt lat="43.45945072618946" lon="10.367578547903488"><ele>20.5</ele><time>2026-05-02T08:56:37Z</time></trkpt><trkpt lat="43.4593844236369" lon="10.36764241872714"><ele>21.0</ele><time>2026-05-02T08:56:38Z</time></trkpt><trkpt lat="43.45932035756498" lon="10.367700417619066"><ele>21.5</ele><time>2026-05-02T08:56:39Z</time></trkpt><trkpt lat="43.4592560472643" lon="10.367766531483413"><ele>22.0</ele><time>2026-05-02T08:56:40Z</time></trkpt><trkpt lat="43.45919052339619" lon="10.367834690965692"><ele>22.5</ele><time>2026-05-02T08:56:41Z</time></trkpt><trkpt lat="43.45912159645693" lon="10.367899188298985"><ele>23.0</ele><time>2026-05-02T08:56:42Z</time></trkpt><trkpt lat="43.45905170662145" lon="10.36796219865149"><ele>22.666666666666668</ele><time>2026-05-02T08:56:43Z</time></trkpt><trkpt lat="43.458983110540494" lon="10.368035012358542"><ele>22.333333333333336</ele><time>2026-05-02T08:56:44Z</time></trkpt><trkpt lat="43.45890687163174" lon="10.368105735741908"><ele>22.0</ele><time>2026-05-02T08:56:45Z</time></trkpt><trkpt lat="43.4588373979188" lon="10.36817308636428"><ele>21.666666666666668</ele><time>2026-05-02T08:56:46Z</time></trkpt><trkpt lat="43.45876799037942" lon="10.368251021950266"><ele>21.333333333333332</ele><time>2026-05-02T08:56:47Z</time></trkpt><trkpt lat="43.458697744839796" lon="10.368324484856583"><ele>21.0</ele><time>2026-05-02T08:56:48Z</time></trkpt><trkpt lat="43.45863174764682" lon="10.368400608190296"><ele>21.0</ele><time>2026-05-02T08:56:49Z</time></trkpt><trkpt lat="43.45857041537919" lon="10.36848774446908"><ele>21.0</ele><time>2026-05-02T08:56:50Z</time></trkpt><trkpt lat="43.45851832723245" lon="10.368585811328535"><ele>21.0</ele><time>2026-05-02T08:56:51Z</time></trkpt><trkpt lat="43.458469127763166" lon="10.368684905524306"><ele>21.0</ele><time>2026-05-02T08:56:52Z</time></trkpt><trkpt lat="43.4584221347658" lon="10.368789209994333"><ele>21.0</ele><time>2026-05-02T08:56:53Z</time></trkpt><trkpt lat="43.458383400473416" lon="10.368898017323401"><ele>21.0</ele><time>2026-05-02T08:56:54Z</time></trkpt><trkpt lat="43.458348945793155" lon="10.369005979974807"><ele>21.0</ele><time>2026-05-02T08:56:55Z</time></trkpt><trkpt lat="43.45831137205791" lon="10.369112477851981"><ele>21.0</ele><time>2026-05-02T08:56:56Z</time></trkpt><trkpt lat="43.458279648493324" lon="10.369221790218244"><ele>21.0</ele><time>2026-05-02T08:56:57Z</time></trkpt><trkpt lat="43.458249036590246" lon="10.369324964256961"><ele>21.0</ele><time>2026-05-02T08:56:58Z</time></trkpt><trkpt lat="43.45822195610258" lon="10.369426495211751"><ele>21.0</ele><time>2026-05-02T08:56:59Z</time></trkpt><trkpt lat="43.45819184527101" lon="10.369526119905116"><ele>21.0</ele><time>2026-05-02T08:57:00Z</time></trkpt><trkpt lat="43.45816404955951" lon="10.369626615837701"><ele>21.428571428571427</ele><time>2026-05-02T08:57:01Z</time></trkpt><trkpt lat="43.45813433866102" lon="10.369724118751414"><ele>21.857142857142858</ele><time>2026-05-02T08:57:02Z</time></trkpt><trkpt lat="43.45810256069469" lon="10.369817280730087"><ele>22.285714285714285</ele><time>2026-05-02T08:57:03Z</time></trkpt><trkpt lat="43.45807506280634" lon="10.369912072660425"><ele>22.714285714285715</ele><time>2026-05-02T08:57:04Z</time></trkpt><trkpt lat="43.4580497216085" lon="10.370008026844431"><ele>23.142857142857142</ele><time>2026-05-02T08:57:05Z</time></trkpt><trkpt lat="43.45802423277481" lon="10.370101295666375"><ele>23.57142857142857</ele><time>2026-05-02T08:57:06Z</time></trkpt><trkpt lat="43.45799994828911" lon="10.370192312608676"><ele>24.0</ele><time>2026-05-02T08:57:07Z</time></trkpt><trkpt lat="43.45797487991335" lon="10.370280838417445"><ele>24.142857142857142</ele><time>2026-05-02T08:57:08Z</time></trkpt><trkpt lat="43.45794681069617" lon="10.370368333939078"><ele>24.285714285714285</ele><time>2026-05-02T08:57:09Z</time></trkpt><trkpt lat="43.45792130132964" lon="10.37045244973665"><ele>24.42857142857143</ele><time>2026-05-02T08:57:10Z</time></trkpt><trkpt lat="43.4578874477225" lon="10.370534646940751"><ele>24.57142857142857</ele><time>2026-05-02T08:57:11Z</time></trkpt><trkpt lat="43.4578517055225" lon="10.37061103627865"><ele>24.714285714285715</ele><time>2026-05-02T08:57:12Z</time></trkpt><trkpt lat="43.457812021881594" lon="10.370685146841348"><ele>24.857142857142858</ele><time>2026-05-02T08:57:13Z</time></trkpt><trkpt lat="43.45777547689021" lon="10.370757677158961"><ele>25.0</ele><time>2026-05-02T08:57:14Z</time></trkpt><trkpt lat="43.45772999114846" lon="10.370821873599851"><ele>25.000000000000004</ele><time>2026-05-02T08:57:15Z</time></trkpt><trkpt lat="43.45768399027117" lon="10.370887623561675"><ele>25.0</ele><time>2026-05-02T08:57:16Z</time></trkpt><trkpt lat="43.457637728256564" lon="10.37095268081144"><ele>25.0</ele><time>2026-05-02T08:57:17Z</time></trkpt><trkpt lat="43.45759023580358" lon="10.371012183643636"><ele>25.0</ele><time>2026-05-02T08:57:18Z</time></trkpt><trkpt lat="43.457541860402834" lon="10.37107324537361"><ele>25.0</ele><time>2026-05-02T08:57:19Z</time></trkpt><trkpt lat="43.457495305861634" lon="10.371134556276289"><ele>25.000000000000004</ele><time>2026-05-02T08:57:20Z</time></trkpt><trkpt lat="43.457447677404744" lon="10.371192739405222"><ele>25.0</ele><time>2026-05-02T08:57:21Z</time></trkpt><trkpt lat="43.45735263441718" lon="10.37130468250841"><ele>24.833333333333336</ele><time>2026-05-02T08:57:23Z</time></trkpt><trkpt lat="43.4573013324353" lon="10.371358372367231"><ele>24.666666666666668</ele><time>2026-05-02T08:57:24Z</time></trkpt><trkpt lat="43.45725184604951" lon="10.371413579084788"><ele>24.5</ele><time>2026-05-02T08:57:25Z</time></trkpt><trkpt lat="43.457203184204836" lon="10.371468860463553"><ele>24.333333333333336</ele><time>2026-05-02T08:57:26Z</time></trkpt><trkpt lat="43.45715505910561" lon="10.371525314479085"><ele>24.166666666666668</ele><time>2026-05-02T08:57:27Z</time></trkpt><trkpt lat="43.4570584345149" lon="10.371633747045934"><ele>24.0</ele><time>2026-05-02T08:57:29Z</time></trkpt><trkpt lat="43.45696702348744" lon="10.37174991699202"><ele>23.999999999999996</ele><time>2026-05-02T08:57:31Z</time></trkpt><trkpt lat="43.45692215085477" lon="10.37181333873237"><ele>24.0</ele><time>2026-05-02T08:57:32Z</time></trkpt><trkpt lat="43.456876514566375" lon="10.371875023575335"><ele>24.0</ele><time>2026-05-02T08:57:33Z</time></trkpt><trkpt lat="43.45682881749492" lon="10.371934288574058"><ele>24.0</ele><time>2026-05-02T08:57:34Z</time></trkpt><trkpt lat="43.456781192746206" lon="10.371991757317927"><ele>24.0</ele><time>2026-05-02T08:57:35Z</time></trkpt><trkpt lat="43.45673203723822" lon="10.372049364560715"><ele>23.999999999999996</ele><time>2026-05-02T08:57:36Z</time></trkpt><trkpt lat="43.45668252039461" lon="10.37210393217272"><ele>24.0</ele><time>2026-05-02T08:57:37Z</time></trkpt><trkpt lat="43.45658807815884" lon="10.372218009227812"><ele>24.0</ele><time>2026-05-02T08:57:39Z</time></trkpt><trkpt lat="43.45649592492992" lon="10.372331412019461"><ele>24.0</ele><time>2026-05-02T08:57:41Z</time></trkpt><trkpt lat="43.45640227120654" lon="10.372441404891802"><ele>24.0</ele><time>2026-05-02T08:57:43Z</time></trkpt><trkpt lat="43.456312130208175" lon="10.372559196415741"><ele>24.0</ele><time>2026-05-02T08:57:45Z</time></trkpt><trkpt lat="43.45621766359603" lon="10.372667336969954"><ele>24.0</ele><time>2026-05-02T08:57:47Z</time></trkpt><trkpt lat="43.45616586727148" lon="10.37271705573153"><ele>24.0</ele><time>2026-05-02T08:57:48Z</time></trkpt><trkpt lat="43.45611896447067" lon="10.372775976684435"><ele>24.0</ele><time>2026-05-02T08:57:49Z</time></trkpt><trkpt lat="43.45603095912103" lon="10.372894000506705"><ele>24.0</ele><time>2026-05-02T08:57:51Z</time></trkpt><trkpt lat="43.45594092123661" lon="10.373015014648466"><ele>24.0</ele><time>2026-05-02T08:57:53Z</time></trkpt><trkpt lat="43.455849131319276" lon="10.373132520944376"><ele>25.285714285714285</ele><time>2026-05-02T08:57:55Z</time></trkpt><trkpt lat="43.455802825667206" lon="10.373192973987821"><ele>26.57142857142857</ele><time>2026-05-02T08:57:56Z</time></trkpt><trkpt lat="43.45575355983631" lon="10.373247393157794"><ele>27.857142857142854</ele><time>2026-05-02T08:57:57Z</time></trkpt><trkpt lat="43.455702844636704" lon="10.37330496189415"><ele>29.142857142857142</ele><time>2026-05-02T08:57:58Z</time></trkpt><trkpt lat="43.455651699534435" lon="10.373364358409656"><ele>30.42857142857143</ele><time>2026-05-02T08:57:59Z</time></trkpt><trkpt lat="43.45560189917861" lon="10.373420367150104"><ele>31.71428571428571</ele><time>2026-05-02T08:58:00Z</time></trkpt><trkpt lat="43.455552931217476" lon="10.373476151329527"><ele>33.0</ele><time>2026-05-02T08:58:01Z</time></trkpt><trkpt lat="43.4555016332669" lon="10.373537146452504"><ele>32.833333333333336</ele><time>2026-05-02T08:58:02Z</time></trkpt><trkpt lat="43.45545359030553" lon="10.373595145745337"><ele>32.666666666666664</ele><time>2026-05-02T08:58:03Z</time></trkpt><trkpt lat="43.45540810032004" lon="10.373657502827637"><ele>32.5</ele><time>2026-05-02T08:58:04Z</time></trkpt><trkpt lat="43.455316842458494" lon="10.373766475683304"><ele>32.33333333333333</ele><time>2026-05-02T08:58:06Z</time></trkpt><trkpt lat="43.45526006915468" lon="10.373822156561161"><ele>32.166666666666664</ele><time>2026-05-02T08:58:07Z</time></trkpt><trkpt lat="43.45520860731523" lon="10.373882126526308"><ele>32.0</ele><time>2026-05-02T08:58:08Z</time></trkpt><trkpt lat="43.4551570463197" lon="10.373939549359308"><ele>31.999999999999996</ele><time>2026-05-02T08:58:09Z</time></trkpt><trkpt lat="43.455106041891" lon="10.373999535488458"><ele>32.0</ele><time>2026-05-02T08:58:10Z</time></trkpt><trkpt lat="43.45506188306687" lon="10.374061654443047"><ele>32.0</ele><time>2026-05-02T08:58:11Z</time></trkpt><trkpt lat="43.45501189368434" lon="10.374121019388205"><ele>32.0</ele><time>2026-05-02T08:58:12Z</time></trkpt><trkpt lat="43.45491589130596" lon="10.374232688047043"><ele>31.999999999999996</ele><time>2026-05-02T08:58:14Z</time></trkpt><trkpt lat="43.45486146714691" lon="10.374296705219683"><ele>32.0</ele><time>2026-05-02T08:58:15Z</time></trkpt><trkpt lat="43.45481315241369" lon="10.37435556682668"><ele>31.999999999999996</ele><time>2026-05-02T08:58:16Z</time></trkpt><trkpt lat="43.45476476049513" lon="10.374416282045805"><ele>32.0</ele><time>2026-05-02T08:58:17Z</time></trkpt><trkpt lat="43.45471607088666" lon="10.374474051540433"><ele>32.0</ele><time>2026-05-02T08:58:18Z</time></trkpt><trkpt lat="43.454669869572186" lon="10.37453415269392"><ele>32.0</ele><time>2026-05-02T08:58:19Z</time></trkpt><trkpt lat="43.45457281979944" lon="10.374639625066635"><ele>31.999999999999996</ele><time>2026-05-02T08:58:21Z</time></trkpt><trkpt lat="43.45446931556676" lon="10.37472993262329"><ele>32.0</ele><time>2026-05-02T08:58:23Z</time></trkpt><trkpt lat="43.45436469483391" lon="10.374810461923131"><ele>31.75</ele><time>2026-05-02T08:58:25Z</time></trkpt><trkpt lat="43.45426089393404" lon="10.374891133824026"><ele>31.5</ele><time>2026-05-02T08:58:27Z</time></trkpt><trkpt lat="43.454165291009176" lon="10.374971362957309"><ele>31.25</ele><time>2026-05-02T08:58:29Z</time></trkpt><trkpt lat="43.454070895519166" lon="10.375039690006906"><ele>31.0</ele><time>2026-05-02T08:58:31Z</time></trkpt><trkpt lat="43.45397125728471" lon="10.37511536485621"><ele>31.000000000000004</ele><time>2026-05-02T08:58:33Z</time></trkpt><trkpt lat="43.45391814614715" lon="10.375164526267765"><ele>31.0</ele><time>2026-05-02T08:58:34Z</time></trkpt><trkpt lat="43.45380868508107" lon="10.375244643499448"><ele>31.0</ele><time>2026-05-02T08:58:36Z</time></trkpt><trkpt lat="43.453705804916616" lon="10.375332287958894"><ele>31.0</ele><time>2026-05-02T08:58:38Z</time></trkpt><trkpt lat="43.45364892812578" lon="10.375374765076677"><ele>31.000000000000004</ele><time>2026-05-02T08:58:39Z</time></trkpt><trkpt lat="43.45359017684884" lon="10.375416577985122"><ele>31.0</ele><time>2026-05-02T08:58:40Z</time></trkpt><trkpt lat="43.45353091220323" lon="10.375462711742205"><ele>31.28571428571429</ele><time>2026-05-02T08:58:41Z</time></trkpt><trkpt lat="43.45347107309756" lon="10.37551094384789"><ele>31.571428571428577</ele><time>2026-05-02T08:58:42Z</time></trkpt><trkpt lat="43.453408603644654" lon="10.37554622359451"><ele>31.857142857142858</ele><time>2026-05-02T08:58:43Z</time></trkpt><trkpt lat="43.4533502720292" lon="10.375589100858614"><ele>32.142857142857146</ele><time>2026-05-02T08:58:44Z</time></trkpt><trkpt lat="43.45329644005678" lon="10.375637827260713"><ele>32.42857142857143</ele><time>2026-05-02T08:58:45Z</time></trkpt><trkpt lat="43.453239813492054" lon="10.375679548923484"><ele>32.714285714285715</ele><time>2026-05-02T08:58:46Z</time></trkpt><trkpt lat="43.453183006577724" lon="10.375727797201005"><ele>33.0</ele><time>2026-05-02T08:58:47Z</time></trkpt><trkpt lat="43.45312676627587" lon="10.375770841019111"><ele>33.0</ele><time>2026-05-02T08:58:48Z</time></trkpt><trkpt lat="43.45307180310638" lon="10.375815183271"><ele>33.0</ele><time>2026-05-02T08:58:49Z</time></trkpt><trkpt lat="43.453013616942904" lon="10.375858331069443"><ele>33.0</ele><time>2026-05-02T08:58:50Z</time></trkpt><trkpt lat="43.45290418222415" lon="10.375939227725237"><ele>33.0</ele><time>2026-05-02T08:58:52Z</time></trkpt><trkpt lat="43.45285136027547" lon="10.375988420666447"><ele>33.0</ele><time>2026-05-02T08:58:53Z</time></trkpt><trkpt lat="43.45279407101048" lon="10.376029300265362"><ele>33.0</ele><time>2026-05-02T08:58:54Z</time></trkpt><trkpt lat="43.45268311244742" lon="10.376109861450935"><ele>33.0</ele><time>2026-05-02T08:58:56Z</time></trkpt><trkpt lat="43.452628068440944" lon="10.376156343240067"><ele>33.0</ele><time>2026-05-02T08:58:57Z</time></trkpt><trkpt lat="43.452573183598226" lon="10.376200169343116"><ele>33.0</ele><time>2026-05-02T08:58:58Z</time></trkpt><trkpt lat="43.452513622127746" lon="10.376244427248588"><ele>33.0</ele><time>2026-05-02T08:58:59Z</time></trkpt><trkpt lat="43.45245297321911" lon="10.376291446025778"><ele>33.0</ele><time>2026-05-02T08:59:00Z</time></trkpt><trkpt lat="43.45238853371503" lon="10.376346602387096"><ele>33.0</ele><time>2026-05-02T08:59:01Z</time></trkpt><trkpt lat="43.45232407035306" lon="10.376395079035868"><ele>33.0</ele><time>2026-05-02T08:59:02Z</time></trkpt><trkpt lat="43.45226166122283" lon="10.376438695718052"><ele>33.0</ele><time>2026-05-02T08:59:03Z</time></trkpt><trkpt lat="43.45219210103092" lon="10.376489154064862"><ele>33.0</ele><time>2026-05-02T08:59:04Z</time></trkpt><trkpt lat="43.45212748037888" lon="10.376539831849112"><ele>33.0</ele><time>2026-05-02T08:59:05Z</time></trkpt><trkpt lat="43.45206005705284" lon="10.376593323428708"><ele>33.0</ele><time>2026-05-02T08:59:06Z</time></trkpt><trkpt lat="43.45199255956015" lon="10.376645180389719"><ele>33.0</ele><time>2026-05-02T08:59:07Z</time></trkpt><trkpt lat="43.45192091781108" lon="10.376696872960544"><ele>33.0</ele><time>2026-05-02T08:59:08Z</time></trkpt><trkpt lat="43.45184943521895" lon="10.3767495653505"><ele>31.333333333333332</ele><time>2026-05-02T08:59:09Z</time></trkpt><trkpt lat="43.45177913759529" lon="10.376806105584345"><ele>29.666666666666668</ele><time>2026-05-02T08:59:10Z</time></trkpt><trkpt lat="43.45170523859414" lon="10.376865451829243"><ele>28.0</ele><time>2026-05-02T08:59:11Z</time></trkpt><trkpt lat="43.45162988032193" lon="10.37691996812086"><ele>26.333333333333336</ele><time>2026-05-02T08:59:12Z</time></trkpt><trkpt lat="43.45155527299158" lon="10.37697659451749"><ele>24.666666666666668</ele><time>2026-05-02T08:59:13Z</time></trkpt><trkpt lat="43.45147671976364" lon="10.377024501264387"><ele>23.0</ele><time>2026-05-02T08:59:14Z</time></trkpt><trkpt lat="43.45140048178574" lon="10.377085576464504"><ele>23.0</ele><time>2026-05-02T08:59:15Z</time></trkpt><trkpt lat="43.45132027194968" lon="10.377135612792713"><ele>23.0</ele><time>2026-05-02T08:59:16Z</time></trkpt><trkpt lat="43.451243179761626" lon="10.377203016463724"><ele>23.0</ele><time>2026-05-02T08:59:17Z</time></trkpt><trkpt lat="43.451168860982435" lon="10.377271172128449"><ele>23.0</ele><time>2026-05-02T08:59:18Z</time></trkpt><trkpt lat="43.45108764459241" lon="10.377334725314679"><ele>23.0</ele><time>2026-05-02T08:59:19Z</time></trkpt><trkpt lat="43.451008757305736" lon="10.377399233154806"><ele>22.2</ele><time>2026-05-02T08:59:20Z</time></trkpt><trkpt lat="43.45093508831555" lon="10.377464059811329"><ele>21.4</ele><time>2026-05-02T08:59:21Z</time></trkpt><trkpt lat="43.45086017058975" lon="10.377546007575575"><ele>20.599999999999998</ele><time>2026-05-02T08:59:22Z</time></trkpt><trkpt lat="43.45079231532642" lon="10.377631319402965"><ele>19.799999999999997</ele><time>2026-05-02T08:59:23Z</time></trkpt><trkpt lat="43.45072747494013" lon="10.37772354696261"><ele>19.0</ele><time>2026-05-02T08:59:24Z</time></trkpt><trkpt lat="43.45066545412582" lon="10.377815556539016"><ele>19.0</ele><time>2026-05-02T08:59:25Z</time></trkpt><trkpt lat="43.45060672708219" lon="10.377911914895837"><ele>19.0</ele><time>2026-05-02T08:59:26Z</time></trkpt><trkpt lat="43.4505524199209" lon="10.37801120551872"><ele>19.0</ele><time>2026-05-02T08:59:27Z</time></trkpt><trkpt lat="43.45049850095689" lon="10.378112265790444"><ele>19.0</ele><time>2026-05-02T08:59:28Z</time></trkpt><trkpt lat="43.45044251669067" lon="10.378218061352694"><ele>19.0</ele><time>2026-05-02T08:59:29Z</time></trkpt><trkpt lat="43.450384760927236" lon="10.37831370149425"><ele>18.2</ele><time>2026-05-02T08:59:30Z</time></trkpt><trkpt lat="43.45032283056858" lon="10.378423499736039"><ele>17.4</ele><time>2026-05-02T08:59:31Z</time></trkpt><trkpt lat="43.45026649680943" lon="10.37854477485441"><ele>16.6</ele><time>2026-05-02T08:59:32Z</time></trkpt><trkpt lat="43.450201628056185" lon="10.378659837525552"><ele>15.8</ele><time>2026-05-02T08:59:33Z</time></trkpt><trkpt lat="43.45011819054554" lon="10.37877024077387"><ele>15.0</ele><time>2026-05-02T08:59:34Z</time></trkpt><trkpt lat="43.45002773915814" lon="10.37888931129551"><ele>14.5</ele><time>2026-05-02T08:59:35Z</time></trkpt><trkpt lat="43.44993126184109" lon="10.3790041867652"><ele>14.0</ele><time>2026-05-02T08:59:36Z</time></trkpt><trkpt lat="43.4498187562787" lon="10.379122847852459"><ele>13.5</ele><time>2026-05-02T08:59:37Z</time></trkpt><trkpt lat="43.44973844716896" lon="10.3791931231841"><ele>13.0</ele><time>2026-05-02T08:59:38Z</time></trkpt><trkpt lat="43.4496498196008" lon="10.37928371177998"><ele>12.600000000000001</ele><time>2026-05-02T08:59:39Z</time></trkpt><trkpt lat="43.449565520999975" lon="10.379378619336638"><ele>12.200000000000001</ele><time>2026-05-02T08:59:40Z</time></trkpt><trkpt lat="43.44948808211061" lon="10.379472450276436"><ele>11.8</ele><time>2026-05-02T08:59:41Z</time></trkpt><trkpt lat="43.44941056200429" lon="10.379555745757395"><ele>11.4</ele><time>2026-05-02T08:59:42Z</time></trkpt><trkpt lat="43.449325126091786" lon="10.379627789813982"><ele>11.0</ele><time>2026-05-02T08:59:43Z</time></trkpt><trkpt lat="43.449248420909015" lon="10.379701512372636"><ele>11.0</ele><time>2026-05-02T08:59:44Z</time></trkpt><trkpt lat="43.44917233063016" lon="10.379779529405978"><ele>11.0</ele><time>2026-05-02T08:59:45Z</time></trkpt><trkpt lat="43.44910038714806" lon="10.379861037626005"><ele>11.0</ele><time>2026-05-02T08:59:46Z</time></trkpt><trkpt lat="43.44903053501659" lon="10.379928576806844"><ele>11.0</ele><time>2026-05-02T08:59:47Z</time></trkpt><trkpt lat="43.44895762540799" lon="10.379996709980379"><ele>11.0</ele><time>2026-05-02T08:59:48Z</time></trkpt><trkpt lat="43.44889000568606" lon="10.380061312000809"><ele>11.0</ele><time>2026-05-02T08:59:49Z</time></trkpt><trkpt lat="43.44882440756179" lon="10.380113928984754"><ele>10.857142857142858</ele><time>2026-05-02T08:59:50Z</time></trkpt><trkpt lat="43.448759779840735" lon="10.380167874567382"><ele>10.714285714285714</ele><time>2026-05-02T08:59:51Z</time></trkpt><trkpt lat="43.44870094689212" lon="10.38022004165282"><ele>10.571428571428571</ele><time>2026-05-02T08:59:52Z</time></trkpt><trkpt lat="43.44864714401386" lon="10.38027309844507"><ele>10.428571428571429</ele><time>2026-05-02T08:59:53Z</time></trkpt><trkpt lat="43.4485932196067" lon="10.380326744587963"><ele>10.285714285714286</ele><time>2026-05-02T08:59:54Z</time></trkpt><trkpt lat="43.44854262462923" lon="10.380378983399153"><ele>10.142857142857142</ele><time>2026-05-02T08:59:55Z</time></trkpt><trkpt lat="43.44848642971397" lon="10.380425872752545"><ele>10.0</ele><time>2026-05-02T08:59:56Z</time></trkpt><trkpt lat="43.44838598150934" lon="10.38051422871258"><ele>10.2</ele><time>2026-05-02T08:59:58Z</time></trkpt><trkpt lat="43.44828788292123" lon="10.380609462248989"><ele>10.4</ele><time>2026-05-02T09:00:00Z</time></trkpt><trkpt lat="43.448189907825075" lon="10.38070348461219"><ele>10.600000000000001</ele><time>2026-05-02T09:00:02Z</time></trkpt><trkpt lat="43.448087919386566" lon="10.380791588167742"><ele>10.8</ele><time>2026-05-02T09:00:04Z</time></trkpt><trkpt lat="43.448028944993084" lon="10.380822417201486"><ele>11.0</ele><time>2026-05-02T09:00:05Z</time></trkpt><trkpt lat="43.44794123001314" lon="10.380931035306572"><ele>11.0</ele><time>2026-05-02T09:00:07Z</time></trkpt><trkpt lat="43.447851854962344" lon="10.381025293166148"><ele>11.0</ele><time>2026-05-02T09:00:09Z</time></trkpt><trkpt lat="43.44776123591957" lon="10.381109442165974"><ele>11.0</ele><time>2026-05-02T09:00:11Z</time></trkpt><trkpt lat="43.4476682118153" lon="10.38118718680785"><ele>11.0</ele><time>2026-05-02T09:00:13Z</time></trkpt><trkpt lat="43.44757866005164" lon="10.381278198384983"><ele>11.0</ele><time>2026-05-02T09:00:15Z</time></trkpt><trkpt lat="43.44748855459186" lon="10.381364615666365"><ele>10.600000000000001</ele><time>2026-05-02T09:00:17Z</time></trkpt><trkpt lat="43.447399130885636" lon="10.381448616683086"><ele>10.200000000000001</ele><time>2026-05-02T09:00:19Z</time></trkpt><trkpt lat="43.44730907158472" lon="10.381527028201909"><ele>9.8</ele><time>2026-05-02T09:00:21Z</time></trkpt><trkpt lat="43.44722130619227" lon="10.381612154773263"><ele>9.4</ele><time>2026-05-02T09:00:23Z</time></trkpt><trkpt lat="43.44713458661991" lon="10.38169723809569"><ele>9.0</ele><time>2026-05-02T09:00:25Z</time></trkpt><trkpt lat="43.447047462076156" lon="10.381783881843434"><ele>9.0</ele><time>2026-05-02T09:00:27Z</time></trkpt><trkpt lat="43.446957983883166" lon="10.381866493420576"><ele>9.0</ele><time>2026-05-02T09:00:29Z</time></trkpt><trkpt lat="43.446870768583665" lon="10.381948480167331"><ele>9.0</ele><time>2026-05-02T09:00:31Z</time></trkpt><trkpt lat="43.446778163262486" lon="10.382037351524348"><ele>9.0</ele><time>2026-05-02T09:00:33Z</time></trkpt><trkpt lat="43.44668539682403" lon="10.382118157402276"><ele>9.0</ele><time>2026-05-02T09:00:35Z</time></trkpt><trkpt lat="43.44659309091431" lon="10.382202244071648"><ele>9.8</ele><time>2026-05-02T09:00:37Z</time></trkpt><trkpt lat="43.44650324975841" lon="10.382282090012922"><ele>10.600000000000001</ele><time>2026-05-02T09:00:39Z</time></trkpt><trkpt lat="43.446412548313965" lon="10.382363020882666"><ele>11.4</ele><time>2026-05-02T09:00:41Z</time></trkpt><trkpt lat="43.4463191849921" lon="10.382443271820033"><ele>12.200000000000001</ele><time>2026-05-02T09:00:43Z</time></trkpt><trkpt lat="43.44621769450794" lon="10.382499418641483"><ele>13.0</ele><time>2026-05-02T09:00:45Z</time></trkpt><trkpt lat="43.44611609394755" lon="10.3825351930258"><ele>13.0</ele><time>2026-05-02T09:00:47Z</time></trkpt><trkpt lat="43.44600831067639" lon="10.382565371758455"><ele>13.0</ele><time>2026-05-02T09:00:49Z</time></trkpt><trkpt lat="43.445898914487415" lon="10.382598438986399"><ele>13.0</ele><time>2026-05-02T09:00:51Z</time></trkpt><trkpt lat="43.44579355185091" lon="10.382636255987707"><ele>13.0</ele><time>2026-05-02T09:00:53Z</time></trkpt><trkpt lat="43.445676432172036" lon="10.382661654033859"><ele>13.0</ele><time>2026-05-02T09:00:55Z</time></trkpt><trkpt lat="43.445565263038105" lon="10.382700135224965"><ele>12.600000000000001</ele><time>2026-05-02T09:00:57Z</time></trkpt><trkpt lat="43.44545263235693" lon="10.382739399259785"><ele>12.200000000000001</ele><time>2026-05-02T09:00:59Z</time></trkpt><trkpt lat="43.4453360368007" lon="10.382775449539341"><ele>11.8</ele><time>2026-05-02T09:01:01Z</time></trkpt><trkpt lat="43.445215101226" lon="10.382812319325335"><ele>11.4</ele><time>2026-05-02T09:01:03Z</time></trkpt><trkpt lat="43.44515331409788" lon="10.382832425029788"><ele>11.0</ele><time>2026-05-02T09:01:04Z</time></trkpt><trkpt lat="43.44508779061469" lon="10.38285191994838"><ele>11.0</ele><time>2026-05-02T09:01:05Z</time></trkpt><trkpt lat="43.44502296408425" lon="10.382867844481384"><ele>11.0</ele><time>2026-05-02T09:01:06Z</time></trkpt><trkpt lat="43.44495473696932" lon="10.382889779670972"><ele>11.0</ele><time>2026-05-02T09:01:07Z</time></trkpt><trkpt lat="43.44488826067048" lon="10.382913833083965"><ele>11.0</ele><time>2026-05-02T09:01:08Z</time></trkpt><trkpt lat="43.444820313956434" lon="10.382935776292848"><ele>11.0</ele><time>2026-05-02T09:01:09Z</time></trkpt><trkpt lat="43.44475234333706" lon="10.382954724645291"><ele>11.0</ele><time>2026-05-02T09:01:10Z</time></trkpt><trkpt lat="43.444681999828255" lon="10.382976860463122"><ele>11.0</ele><time>2026-05-02T09:01:11Z</time></trkpt><trkpt lat="43.4446097302105" lon="10.382996945099242"><ele>12.333333333333332</ele><time>2026-05-02T09:01:12Z</time></trkpt><trkpt lat="43.4445339718873" lon="10.383016695604047"><ele>13.666666666666666</ele><time>2026-05-02T09:01:13Z</time></trkpt><trkpt lat="43.4444619665795" lon="10.38304180777008"><ele>15.0</ele><time>2026-05-02T09:01:14Z</time></trkpt><trkpt lat="43.444383756095206" lon="10.383071837167618"><ele>16.333333333333332</ele><time>2026-05-02T09:01:15Z</time></trkpt><trkpt lat="43.44430697514767" lon="10.38310213957393"><ele>17.666666666666664</ele><time>2026-05-02T09:01:16Z</time></trkpt><trkpt lat="43.44422696123856" lon="10.383136274768228"><ele>19.0</ele><time>2026-05-02T09:01:17Z</time></trkpt><trkpt lat="43.444145386310325" lon="10.38316835430064"><ele>19.0</ele><time>2026-05-02T09:01:18Z</time></trkpt><trkpt lat="43.44406436991689" lon="10.38320950450646"><ele>19.0</ele><time>2026-05-02T09:01:19Z</time></trkpt><trkpt lat="43.44398299794719" lon="10.383253729533198"><ele>19.0</ele><time>2026-05-02T09:01:20Z</time></trkpt><trkpt lat="43.4439034557816" lon="10.383301231527646"><ele>19.0</ele><time>2026-05-02T09:01:21Z</time></trkpt><trkpt lat="43.44382177280187" lon="10.383350312810986"><ele>19.0</ele><time>2026-05-02T09:01:22Z</time></trkpt><trkpt lat="43.4437403220791" lon="10.383396943002873"><ele>19.0</ele><time>2026-05-02T09:01:23Z</time></trkpt><trkpt lat="43.44366660362825" lon="10.38344054445916"><ele>18.0</ele><time>2026-05-02T09:01:24Z</time></trkpt><trkpt lat="43.443567337752775" lon="10.383507482217526"><ele>17.0</ele><time>2026-05-02T09:01:26Z</time></trkpt><trkpt lat="43.44350569939465" lon="10.383554848147588"><ele>16.0</ele><time>2026-05-02T09:01:28Z</time></trkpt><trkpt lat="43.44345150648481" lon="10.383603469502894"><ele>15.0</ele><time>2026-05-02T09:01:52Z</time></trkpt><trkpt lat="43.443401580583355" lon="10.383658073368364"><ele>13.999999999999998</ele><time>2026-05-02T09:02:31Z</time></trkpt><trkpt lat="43.44333443897144" lon="10.383721272861502"><ele>13.0</ele><time>2026-05-02T09:02:35Z</time></trkpt><trkpt lat="43.44325835619867" lon="10.38376286596051"><ele>12.999999999999998</ele><time>2026-05-02T09:02:38Z</time></trkpt><trkpt lat="43.44318611013317" lon="10.38382689654014"><ele>13.0</ele><time>2026-05-02T09:02:41Z</time></trkpt><trkpt lat="43.443128550383996" lon="10.38386899657088"><ele>13.0</ele><time>2026-05-02T09:02:43Z</time></trkpt><trkpt lat="43.44305243762549" lon="10.383918277935797"><ele>13.0</ele><time>2026-05-02T09:02:45Z</time></trkpt><trkpt lat="43.44297468379477" lon="10.38398108135495"><ele>12.999999999999998</ele><time>2026-05-02T09:02:47Z</time></trkpt><trkpt lat="43.442877829909754" lon="10.38404855878684"><ele>13.0</ele><time>2026-05-02T09:02:49Z</time></trkpt><trkpt lat="43.442778973382545" lon="10.384109353698094"><ele>13.2</ele><time>2026-05-02T09:02:51Z</time></trkpt><trkpt lat="43.4426890149008" lon="10.384167076726"><ele>13.4</ele><time>2026-05-02T09:02:53Z</time></trkpt><trkpt lat="43.44258540858829" lon="10.384241561104258"><ele>13.599999999999998</ele><time>2026-05-02T09:02:55Z</time></trkpt><trkpt lat="43.44248457412882" lon="10.384313061574977"><ele>13.799999999999999</ele><time>2026-05-02T09:02:57Z</time></trkpt><trkpt lat="43.442386968855146" lon="10.384384772953869"><ele>14.0</ele><time>2026-05-02T09:02:59Z</time></trkpt><trkpt lat="43.4422783060349" lon="10.38445958722844"><ele>14.0</ele><time>2026-05-02T09:03:01Z</time></trkpt><trkpt lat="43.44219271847705" lon="10.384526056504678"><ele>13.999999999999998</ele><time>2026-05-02T09:03:03Z</time></trkpt><trkpt lat="43.4420971429714" lon="10.384596395964097"><ele>13.999999999999998</ele><time>2026-05-02T09:03:05Z</time></trkpt><trkpt lat="43.44199744058013" lon="10.384652313488871"><ele>14.0</ele><time>2026-05-02T09:03:07Z</time></trkpt><trkpt lat="43.44191404590166" lon="10.384723907974882"><ele>14.0</ele><time>2026-05-02T09:03:09Z</time></trkpt><trkpt lat="43.441818758221785" lon="10.384795770232502"><ele>15.5</ele><time>2026-05-02T09:03:11Z</time></trkpt><trkpt lat="43.441721470208556" lon="10.384875096252266"><ele>17.0</ele><time>2026-05-02T09:03:13Z</time></trkpt><trkpt lat="43.441619963538535" lon="10.384947187088652"><ele>18.5</ele><time>2026-05-02T09:03:15Z</time></trkpt><trkpt lat="43.441517078361464" lon="10.38502298817348"><ele>20.0</ele><time>2026-05-02T09:03:17Z</time></trkpt><trkpt lat="43.441416887216135" lon="10.38510492100097"><ele>20.0</ele><time>2026-05-02T09:03:19Z</time></trkpt><trkpt lat="43.44131539268858" lon="10.38517744076903"><ele>20.0</ele><time>2026-05-02T09:03:21Z</time></trkpt><trkpt lat="43.441213028038426" lon="10.385246232860728"><ele>20.0</ele><time>2026-05-02T09:03:23Z</time></trkpt><trkpt lat="43.441116409213876" lon="10.385328071421206"><ele>20.0</ele><time>2026-05-02T09:03:25Z</time></trkpt><trkpt lat="43.44101318832256" lon="10.385403919184354"><ele>19.4</ele><time>2026-05-02T09:03:27Z</time></trkpt><trkpt lat="43.4409188031365" lon="10.385465639921732"><ele>18.8</ele><time>2026-05-02T09:03:29Z</time></trkpt><trkpt lat="43.44081559306605" lon="10.385543944245619"><ele>18.2</ele><time>2026-05-02T09:03:31Z</time></trkpt><trkpt lat="43.44071272052313" lon="10.385624951933822"><ele>17.6</ele><time>2026-05-02T09:03:33Z</time></trkpt><trkpt lat="43.44064810184329" lon="10.385666612524298"><ele>17.0</ele><time>2026-05-02T09:03:34Z</time></trkpt><trkpt lat="43.440557864775904" lon="10.385739929021243"><ele>17.0</ele><time>2026-05-02T09:03:36Z</time></trkpt><trkpt lat="43.44044049518391" lon="10.38580370462641"><ele>17.0</ele><time>2026-05-02T09:03:38Z</time></trkpt><trkpt lat="43.44034243884625" lon="10.385890846018828"><ele>17.0</ele><time>2026-05-02T09:03:40Z</time></trkpt><trkpt lat="43.44023415728167" lon="10.385953249814733"><ele>17.0</ele><time>2026-05-02T09:03:42Z</time></trkpt><trkpt lat="43.440126290813154" lon="10.386013037823096"><ele>17.0</ele><time>2026-05-02T09:03:44Z</time></trkpt><trkpt lat="43.44001896474852" lon="10.386073130482723"><ele>17.0</ele><time>2026-05-02T09:03:46Z</time></trkpt><trkpt lat="43.439909508577266" lon="10.386137002574653"><ele>17.0</ele><time>2026-05-02T09:03:48Z</time></trkpt><trkpt lat="43.43980305805274" lon="10.386195778116779"><ele>17.0</ele><time>2026-05-02T09:03:50Z</time></trkpt><trkpt lat="43.439743279438375" lon="10.386229310343046"><ele>17.0</ele><time>2026-05-02T09:03:51Z</time></trkpt><trkpt lat="43.43963539455668" lon="10.386289532786948"><ele>17.0</ele><time>2026-05-02T09:03:53Z</time></trkpt><trkpt lat="43.43951486120469" lon="10.386332228615043"><ele>17.0</ele><time>2026-05-02T09:03:55Z</time></trkpt><trkpt lat="43.439458734557164" lon="10.386384198947853"><ele>17.0</ele><time>2026-05-02T09:03:56Z</time></trkpt><trkpt lat="43.43935410893882" lon="10.386415317194087"><ele>17.0</ele><time>2026-05-02T09:03:58Z</time></trkpt><trkpt lat="43.43929346535293" lon="10.386446662394858"><ele>17.0</ele><time>2026-05-02T09:03:59Z</time></trkpt><trkpt lat="43.439232268805696" lon="10.38647828132063"><ele>17.0</ele><time>2026-05-02T09:04:00Z</time></trkpt><trkpt lat="43.4391730917591" lon="10.386520703701546"><ele>16.999999999999996</ele><time>2026-05-02T09:04:01Z</time></trkpt><trkpt lat="43.43910842842819" lon="10.386503732306608"><ele>17.0</ele><time>2026-05-02T09:04:02Z</time></trkpt><trkpt lat="43.43903542949853" lon="10.3864985253843"><ele>17.0</ele><time>2026-05-02T09:04:03Z</time></trkpt><trkpt lat="43.4389826777047" lon="10.386567615826506"><ele>17.0</ele><time>2026-05-02T09:04:04Z</time></trkpt><trkpt lat="43.43892551044385" lon="10.386608952362003"><ele>17.0</ele><time>2026-05-02T09:04:05Z</time></trkpt><trkpt lat="43.438868090848615" lon="10.386669488456715"><ele>16.999999999999996</ele><time>2026-05-02T09:04:06Z</time></trkpt><trkpt lat="43.43880800405409" lon="10.386695920505824"><ele>17.0</ele><time>2026-05-02T09:04:07Z</time></trkpt><trkpt lat="43.43869719189242" lon="10.386759892387763"><ele>16.166666666666668</ele><time>2026-05-02T09:04:09Z</time></trkpt><trkpt lat="43.43863806943827" lon="10.386791417363403"><ele>15.333333333333334</ele><time>2026-05-02T09:04:10Z</time></trkpt><trkpt lat="43.43857920323129" lon="10.386825501915318"><ele>14.5</ele><time>2026-05-02T09:04:11Z</time></trkpt><trkpt lat="43.43851973196529" lon="10.386856178014197"><ele>13.666666666666668</ele><time>2026-05-02T09:04:12Z</time></trkpt><trkpt lat="43.438404716264806" lon="10.386919638497808"><ele>12.833333333333334</ele><time>2026-05-02T09:04:14Z</time></trkpt><trkpt lat="43.43829097241822" lon="10.386977780088616"><ele>12.0</ele><time>2026-05-02T09:04:16Z</time></trkpt><trkpt lat="43.43816807034495" lon="10.387032871972124"><ele>12.0</ele><time>2026-05-02T09:04:18Z</time></trkpt><trkpt lat="43.438056309085816" lon="10.387079866377324"><ele>12.0</ele><time>2026-05-02T09:04:20Z</time></trkpt><trkpt lat="43.43799563444051" lon="10.387115367036623"><ele>12.0</ele><time>2026-05-02T09:04:21Z</time></trkpt><trkpt lat="43.43793317212182" lon="10.387152037654358"><ele>12.0</ele><time>2026-05-02T09:04:22Z</time></trkpt><trkpt lat="43.437866895111405" lon="10.387199050903291"><ele>12.0</ele><time>2026-05-02T09:04:23Z</time></trkpt><trkpt lat="43.43775142797611" lon="10.38725182725776"><ele>12.0</ele><time>2026-05-02T09:04:25Z</time></trkpt><trkpt lat="43.43762934567529" lon="10.387318850844746"><ele>12.833333333333334</ele><time>2026-05-02T09:04:27Z</time></trkpt><trkpt lat="43.4375176390819" lon="10.387371667633772"><ele>13.666666666666668</ele><time>2026-05-02T09:04:29Z</time></trkpt><trkpt lat="43.43745410361836" lon="10.387406746854676"><ele>14.5</ele><time>2026-05-02T09:04:30Z</time></trkpt><trkpt lat="43.43734250138964" lon="10.387441624601054"><ele>15.333333333333334</ele><time>2026-05-02T09:04:32Z</time></trkpt><trkpt lat="43.437283044870725" lon="10.38747900006896"><ele>16.166666666666668</ele><time>2026-05-02T09:04:33Z</time></trkpt><trkpt lat="43.43721684946906" lon="10.387517544555829"><ele>17.0</ele><time>2026-05-02T09:04:34Z</time></trkpt><trkpt lat="43.437157162906196" lon="10.387551445300108"><ele>16.5</ele><time>2026-05-02T09:04:35Z</time></trkpt><trkpt lat="43.43708667360315" lon="10.387594339490736"><ele>16.0</ele><time>2026-05-02T09:04:36Z</time></trkpt><trkpt lat="43.437027030711526" lon="10.387629773554744"><ele>15.5</ele><time>2026-05-02T09:04:37Z</time></trkpt><trkpt lat="43.436909952079574" lon="10.387675676745308"><ele>15.0</ele><time>2026-05-02T09:04:39Z</time></trkpt><trkpt lat="43.43685147513947" lon="10.387711338830236"><ele>14.500000000000002</ele><time>2026-05-02T09:04:40Z</time></trkpt><trkpt lat="43.43674103264452" lon="10.387767990831733"><ele>14.0</ele><time>2026-05-02T09:04:42Z</time></trkpt><trkpt lat="43.43668359901806" lon="10.387803680755173"><ele>14.0</ele><time>2026-05-02T09:04:43Z</time></trkpt><trkpt lat="43.43657245103605" lon="10.387857198303875"><ele>13.999999999999998</ele><time>2026-05-02T09:04:45Z</time></trkpt><trkpt lat="43.4365108858804" lon="10.387892739228684"><ele>13.999999999999998</ele><time>2026-05-02T09:04:46Z</time></trkpt><trkpt lat="43.436399040765885" lon="10.387956070619932"><ele>14.0</ele><time>2026-05-02T09:04:48Z</time></trkpt><trkpt lat="43.436281762609624" lon="10.388004166806919"><ele>14.0</ele><time>2026-05-02T09:04:50Z</time></trkpt><trkpt lat="43.436222220808425" lon="10.38804195648964"><ele>15.5</ele><time>2026-05-02T09:04:51Z</time></trkpt><trkpt lat="43.43610573740066" lon="10.388087965791192"><ele>17.0</ele><time>2026-05-02T09:04:53Z</time></trkpt><trkpt lat="43.435988161212116" lon="10.388153443549474"><ele>18.5</ele><time>2026-05-02T09:04:55Z</time></trkpt><trkpt lat="43.43587393757461" lon="10.38820639562096"><ele>20.0</ele><time>2026-05-02T09:04:57Z</time></trkpt><trkpt lat="43.43576858884108" lon="10.388266274665215"><ele>20.0</ele><time>2026-05-02T09:04:59Z</time></trkpt><trkpt lat="43.43570595970482" lon="10.388299640031592"><ele>20.0</ele><time>2026-05-02T09:05:00Z</time></trkpt><trkpt lat="43.43560130807941" lon="10.388366059239845"><ele>20.0</ele><time>2026-05-02T09:05:02Z</time></trkpt><trkpt lat="43.435494422329256" lon="10.388426683906784"><ele>20.0</ele><time>2026-05-02T09:05:04Z</time></trkpt><trkpt lat="43.43540279184412" lon="10.388482007440603"><ele>20.0</ele><time>2026-05-02T09:05:06Z</time></trkpt><trkpt lat="43.43534476421035" lon="10.388525544741693"><ele>19.6</ele><time>2026-05-02T09:05:07Z</time></trkpt><trkpt lat="43.43525698319161" lon="10.388578473813789"><ele>19.2</ele><time>2026-05-02T09:05:09Z</time></trkpt><trkpt lat="43.43519961727611" lon="10.38862986256858"><ele>18.8</ele><time>2026-05-02T09:05:10Z</time></trkpt><trkpt lat="43.435097248584036" lon="10.388694269479739"><ele>18.4</ele><time>2026-05-02T09:05:12Z</time></trkpt><trkpt lat="43.435003243390376" lon="10.388771109448339"><ele>18.0</ele><time>2026-05-02T09:05:14Z</time></trkpt><trkpt lat="43.43489865764349" lon="10.38884041207175"><ele>17.8</ele><time>2026-05-02T09:05:16Z</time></trkpt><trkpt lat="43.434793985725946" lon="10.388918131539999"><ele>17.6</ele><time>2026-05-02T09:05:18Z</time></trkpt><trkpt lat="43.43468457464365" lon="10.388998333938813"><ele>17.4</ele><time>2026-05-02T09:05:20Z</time></trkpt><trkpt lat="43.43458232024573" lon="10.389078706978196"><ele>17.2</ele><time>2026-05-02T09:05:22Z</time></trkpt><trkpt lat="43.4345281618296" lon="10.389135707105547"><ele>17.0</ele><time>2026-05-02T09:05:23Z</time></trkpt><trkpt lat="43.434468385493645" lon="10.389169140845548"><ele>17.0</ele><time>2026-05-02T09:05:24Z</time></trkpt><trkpt lat="43.43435728600188" lon="10.38923916545166"><ele>17.0</ele><time>2026-05-02T09:05:26Z</time></trkpt><trkpt lat="43.43429495966913" lon="10.389287786226815"><ele>17.0</ele><time>2026-05-02T09:05:27Z</time></trkpt><trkpt lat="43.4342275574596" lon="10.389329060807597"><ele>17.0</ele><time>2026-05-02T09:05:28Z</time></trkpt><trkpt lat="43.43414227539898" lon="10.38935174041859"><ele>17.0</ele><time>2026-05-02T09:05:29Z</time></trkpt><trkpt lat="43.43404411747621" lon="10.389444266641032"><ele>17.0</ele><time>2026-05-02T09:05:31Z</time></trkpt><trkpt lat="43.4339297351917" lon="10.38953640026283"><ele>17.0</ele><time>2026-05-02T09:05:33Z</time></trkpt><trkpt lat="43.433871299975344" lon="10.389580472125395"><ele>17.0</ele><time>2026-05-02T09:05:34Z</time></trkpt><trkpt lat="43.4338130574568" lon="10.389623116252473"><ele>17.0</ele><time>2026-05-02T09:05:35Z</time></trkpt><trkpt lat="43.433755715792884" lon="10.38966668017882"><ele>17.0</ele><time>2026-05-02T09:05:36Z</time></trkpt><trkpt lat="43.433669504510036" lon="10.389759700140992"><ele>17.0</ele><time>2026-05-02T09:05:38Z</time></trkpt><trkpt lat="43.43353938794057" lon="10.389852240717001"><ele>17.5</ele><time>2026-05-02T09:05:40Z</time></trkpt><trkpt lat="43.43347869954775" lon="10.38988858967535"><ele>18.0</ele><time>2026-05-02T09:05:41Z</time></trkpt><trkpt lat="43.43342144173766" lon="10.38993238334474"><ele>18.5</ele><time>2026-05-02T09:05:42Z</time></trkpt><trkpt lat="43.43336261087562" lon="10.389978263496872"><ele>19.0</ele><time>2026-05-02T09:05:43Z</time></trkpt><trkpt lat="43.43330244633591" lon="10.390020426485163"><ele>19.5</ele><time>2026-05-02T09:05:44Z</time></trkpt><trkpt lat="43.43320059170874" lon="10.390091357825652"><ele>20.0</ele><time>2026-05-02T09:05:46Z</time></trkpt><trkpt lat="43.43313961765011" lon="10.390140592898202"><ele>20.0</ele><time>2026-05-02T09:05:47Z</time></trkpt><trkpt lat="43.43308402654632" lon="10.39018349963131"><ele>20.0</ele><time>2026-05-02T09:05:48Z</time></trkpt><trkpt lat="43.43302215428748" lon="10.390228217692984"><ele>20.0</ele><time>2026-05-02T09:05:49Z</time></trkpt><trkpt lat="43.432903238694834" lon="10.390310726619616"><ele>20.0</ele><time>2026-05-02T09:05:51Z</time></trkpt><trkpt lat="43.43284718139826" lon="10.390350494334477"><ele>20.0</ele><time>2026-05-02T09:05:52Z</time></trkpt><trkpt lat="43.43278351634949" lon="10.39039353609337"><ele>20.0</ele><time>2026-05-02T09:05:53Z</time></trkpt><trkpt lat="43.43272204636333" lon="10.39042871993766"><ele>20.25</ele><time>2026-05-02T09:05:54Z</time></trkpt><trkpt lat="43.43260678508238" lon="10.390511100993836"><ele>20.5</ele><time>2026-05-02T09:05:56Z</time></trkpt><trkpt lat="43.43250075126301" lon="10.39059539862763"><ele>20.75</ele><time>2026-05-02T09:05:58Z</time></trkpt><trkpt lat="43.4323969409911" lon="10.390658000653755"><ele>21.0</ele><time>2026-05-02T09:06:00Z</time></trkpt><trkpt lat="43.43231571494949" lon="10.390717543749146"><ele>21.0</ele><time>2026-05-02T09:06:01Z</time></trkpt><trkpt lat="43.432257419067746" lon="10.39076126262165"><ele>21.0</ele><time>2026-05-02T09:06:02Z</time></trkpt><trkpt lat="43.43219667641113" lon="10.39081014101472"><ele>21.0</ele><time>2026-05-02T09:06:03Z</time></trkpt><trkpt lat="43.43213126337592" lon="10.390820130851143"><ele>21.0</ele><time>2026-05-02T09:06:04Z</time></trkpt><trkpt lat="43.43206228878907" lon="10.39086582217785"><ele>21.0</ele><time>2026-05-02T09:06:05Z</time></trkpt><trkpt lat="43.43195250080084" lon="10.390958992457646"><ele>21.0</ele><time>2026-05-02T09:06:07Z</time></trkpt><trkpt lat="43.4318899788682" lon="10.391017234951237"><ele>20.857142857142858</ele><time>2026-05-02T09:06:08Z</time></trkpt><trkpt lat="43.43182131354965" lon="10.39103451470108"><ele>20.714285714285715</ele><time>2026-05-02T09:06:09Z</time></trkpt><trkpt lat="43.431771801498044" lon="10.391088783266378"><ele>20.57142857142857</ele><time>2026-05-02T09:06:10Z</time></trkpt><trkpt lat="43.43171711737807" lon="10.391156856375948"><ele>20.42857142857143</ele><time>2026-05-02T09:06:11Z</time></trkpt><trkpt lat="43.4316524188922" lon="10.391205145075599"><ele>20.285714285714285</ele><time>2026-05-02T09:06:12Z</time></trkpt><trkpt lat="43.43159399637065" lon="10.391242041068729"><ele>20.142857142857142</ele><time>2026-05-02T09:06:13Z</time></trkpt><trkpt lat="43.431538872409035" lon="10.391299173463407"><ele>20.0</ele><time>2026-05-02T09:06:14Z</time></trkpt><trkpt lat="43.43147489499162" lon="10.391358600385225"><ele>20.0</ele><time>2026-05-02T09:06:15Z</time></trkpt><trkpt lat="43.43137716921223" lon="10.391439826557212"><ele>20.0</ele><time>2026-05-02T09:06:17Z</time></trkpt><trkpt lat="43.43132482089141" lon="10.391505905285674"><ele>20.0</ele><time>2026-05-02T09:06:18Z</time></trkpt><trkpt lat="43.43127539873203" lon="10.391584569476471"><ele>20.0</ele><time>2026-05-02T09:06:19Z</time></trkpt><trkpt lat="43.43123050637924" lon="10.391646443339356"><ele>20.0</ele><time>2026-05-02T09:06:20Z</time></trkpt><trkpt lat="43.43118348470513" lon="10.391718953933527"><ele>20.0</ele><time>2026-05-02T09:06:21Z</time></trkpt><trkpt lat="43.431151167224165" lon="10.391793555431896"><ele>19.0</ele><time>2026-05-02T09:06:22Z</time></trkpt><trkpt lat="43.43112026056012" lon="10.391873647352718"><ele>18.0</ele><time>2026-05-02T09:06:23Z</time></trkpt><trkpt lat="43.4310920455714" lon="10.391954515279696"><ele>17.0</ele><time>2026-05-02T09:06:24Z</time></trkpt><trkpt lat="43.43107336933425" lon="10.392043426300793"><ele>16.0</ele><time>2026-05-02T09:06:25Z</time></trkpt><trkpt lat="43.43105464854792" lon="10.392129907971587"><ele>15.0</ele><time>2026-05-02T09:06:26Z</time></trkpt><trkpt lat="43.43104209788182" lon="10.392222205453104"><ele>14.0</ele><time>2026-05-02T09:06:27Z</time></trkpt><trkpt lat="43.4310318603408" lon="10.392316508979903"><ele>13.0</ele><time>2026-05-02T09:06:28Z</time></trkpt><trkpt lat="43.43102034724476" lon="10.392405507316184"><ele>13.0</ele><time>2026-05-02T09:06:29Z</time></trkpt><trkpt lat="43.43102179252738" lon="10.392504633293234"><ele>13.0</ele><time>2026-05-02T09:06:30Z</time></trkpt><trkpt lat="43.43102179044761" lon="10.392608882585176"><ele>13.0</ele><time>2026-05-02T09:06:31Z</time></trkpt><trkpt lat="43.43102038878192" lon="10.392705299933171"><ele>13.0</ele><time>2026-05-02T09:06:32Z</time></trkpt><trkpt lat="43.431018051889076" lon="10.392806747400561"><ele>13.0</ele><time>2026-05-02T09:06:33Z</time></trkpt><trkpt lat="43.431007415993605" lon="10.392907737092479"><ele>13.0</ele><time>2026-05-02T09:06:34Z</time></trkpt><trkpt lat="43.43099351466824" lon="10.39300795902248"><ele>13.0</ele><time>2026-05-02T09:06:35Z</time></trkpt><trkpt lat="43.43096911531471" lon="10.393102504678376"><ele>13.666666666666666</ele><time>2026-05-02T09:06:36Z</time></trkpt><trkpt lat="43.430937453571815" lon="10.393192602622237"><ele>14.333333333333332</ele><time>2026-05-02T09:06:37Z</time></trkpt><trkpt lat="43.43089941266843" lon="10.393273616599872"><ele>15.0</ele><time>2026-05-02T09:06:38Z</time></trkpt><trkpt lat="43.430861243572124" lon="10.393352860918103"><ele>15.666666666666668</ele><time>2026-05-02T09:06:39Z</time></trkpt><trkpt lat="43.43082414784797" lon="10.393429174540556"><ele>16.333333333333336</ele><time>2026-05-02T09:06:40Z</time></trkpt><trkpt lat="43.4307503381995" lon="10.393570164069295"><ele>17.0</ele><time>2026-05-02T09:06:42Z</time></trkpt><trkpt lat="43.43071555472666" lon="10.393646401698682"><ele>17.0</ele><time>2026-05-02T09:06:43Z</time></trkpt><trkpt lat="43.430644560503694" lon="10.393782239412868"><ele>17.0</ele><time>2026-05-02T09:06:45Z</time></trkpt><trkpt lat="43.43058472940033" lon="10.393921905967252"><ele>17.0</ele><time>2026-05-02T09:06:47Z</time></trkpt><trkpt lat="43.4305158225296" lon="10.394053414639783"><ele>17.0</ele><time>2026-05-02T09:06:49Z</time></trkpt><trkpt lat="43.430446325575126" lon="10.39418535618186"><ele>18.0</ele><time>2026-05-02T09:06:51Z</time></trkpt><trkpt lat="43.430379784165645" lon="10.394316105110393"><ele>19.0</ele><time>2026-05-02T09:06:53Z</time></trkpt><trkpt lat="43.43031432660825" lon="10.3944487970271"><ele>20.0</ele><time>2026-05-02T09:06:55Z</time></trkpt><trkpt lat="43.430241850825745" lon="10.39457201494081"><ele>21.0</ele><time>2026-05-02T09:06:57Z</time></trkpt><trkpt lat="43.43015771026281" lon="10.394684767644177"><ele>22.0</ele><time>2026-05-02T09:06:59Z</time></trkpt><trkpt lat="43.43005733837955" lon="10.394781968553163"><ele>23.0</ele><time>2026-05-02T09:07:01Z</time></trkpt><trkpt lat="43.42995956170913" lon="10.394877505044786"><ele>24.0</ele><time>2026-05-02T09:07:03Z</time></trkpt><trkpt lat="43.42986593155852" lon="10.394964340261119"><ele>25.0</ele><time>2026-05-02T09:07:05Z</time></trkpt><trkpt lat="43.4297773023123" lon="10.39506777728583"><ele>25.000000000000004</ele><time>2026-05-02T09:07:07Z</time></trkpt><trkpt lat="43.429704029702364" lon="10.395203738609798"><ele>25.0</ele><time>2026-05-02T09:07:09Z</time></trkpt><trkpt lat="43.429677874970295" lon="10.395283283309789"><ele>25.0</ele><time>2026-05-02T09:07:10Z</time></trkpt><trkpt lat="43.42964734969335" lon="10.395367266134548"><ele>25.0</ele><time>2026-05-02T09:07:11Z</time></trkpt><trkpt lat="43.42960063666654" lon="10.39545980470003"><ele>25.000000000000004</ele><time>2026-05-02T09:07:12Z</time></trkpt><trkpt lat="43.429564879298376" lon="10.395546535920214"><ele>25.0</ele><time>2026-05-02T09:07:13Z</time></trkpt><trkpt lat="43.429525213513614" lon="10.395633469695543"><ele>24.333333333333336</ele><time>2026-05-02T09:07:14Z</time></trkpt><trkpt lat="43.42948943396548" lon="10.395722792157635"><ele>23.666666666666668</ele><time>2026-05-02T09:07:15Z</time></trkpt><trkpt lat="43.429453735791604" lon="10.395822252640233"><ele>23.0</ele><time>2026-05-02T09:07:16Z</time></trkpt><trkpt lat="43.42941097534959" lon="10.395923371176854"><ele>22.333333333333336</ele><time>2026-05-02T09:07:17Z</time></trkpt><trkpt lat="43.42936186347977" lon="10.396015003771755"><ele>21.666666666666668</ele><time>2026-05-02T09:07:18Z</time></trkpt><trkpt lat="43.42930217268076" lon="10.396091620290736"><ele>21.0</ele><time>2026-05-02T09:07:19Z</time></trkpt><trkpt lat="43.42923128622394" lon="10.396145036482904"><ele>21.0</ele><time>2026-05-02T09:07:20Z</time></trkpt><trkpt lat="43.429157908469655" lon="10.396188719194006"><ele>21.0</ele><time>2026-05-02T09:07:21Z</time></trkpt><trkpt lat="43.429085121247596" lon="10.396232601976005"><ele>21.0</ele><time>2026-05-02T09:07:22Z</time></trkpt><trkpt lat="43.42902407803732" lon="10.39627014128014"><ele>21.0</ele><time>2026-05-02T09:07:23Z</time></trkpt><trkpt lat="43.428964982118394" lon="10.396313515842909"><ele>21.0</ele><time>2026-05-02T09:07:24Z</time></trkpt><trkpt lat="43.42891010110242" lon="10.396359385645704"><ele>21.0</ele><time>2026-05-02T09:07:25Z</time></trkpt><trkpt lat="43.42885759981618" lon="10.396409361924631"><ele>21.0</ele><time>2026-05-02T09:07:26Z</time></trkpt><trkpt lat="43.4288063453917" lon="10.39646946367734"><ele>20.0</ele><time>2026-05-02T09:07:27Z</time></trkpt><trkpt lat="43.428757923231785" lon="10.396531638858798"><ele>19.0</ele><time>2026-05-02T09:07:28Z</time></trkpt><trkpt lat="43.428713850879234" lon="10.396597063184998"><ele>18.0</ele><time>2026-05-02T09:07:29Z</time></trkpt><trkpt lat="43.42867706979985" lon="10.39667471925956"><ele>17.0</ele><time>2026-05-02T09:07:30Z</time></trkpt><trkpt lat="43.428614309815146" lon="10.396835361560747"><ele>16.0</ele><time>2026-05-02T09:07:32Z</time></trkpt><trkpt lat="43.42858846787635" lon="10.39692160716149"><ele>15.0</ele><time>2026-05-02T09:07:33Z</time></trkpt><trkpt lat="43.4285605796825" lon="10.397010466112864"><ele>15.0</ele><time>2026-05-02T09:07:34Z</time></trkpt><trkpt lat="43.42853855194701" lon="10.397102237866287"><ele>15.0</ele><time>2026-05-02T09:07:35Z</time></trkpt><trkpt lat="43.42851826795301" lon="10.397200539573156"><ele>15.0</ele><time>2026-05-02T09:07:36Z</time></trkpt><trkpt lat="43.42850028339373" lon="10.397301657180964"><ele>15.0</ele><time>2026-05-02T09:07:37Z</time></trkpt><trkpt lat="43.428484545640444" lon="10.397406863092513"><ele>15.0</ele><time>2026-05-02T09:07:38Z</time></trkpt><trkpt lat="43.428462075646536" lon="10.397511158461844"><ele>15.0</ele><time>2026-05-02T09:07:39Z</time></trkpt><trkpt lat="43.428442411272556" lon="10.397619018792858"><ele>15.166666666666666</ele><time>2026-05-02T09:07:40Z</time></trkpt><trkpt lat="43.42841888447476" lon="10.397728157835418"><ele>15.333333333333332</ele><time>2026-05-02T09:07:41Z</time></trkpt><trkpt lat="43.428390573312946" lon="10.397836648210113"><ele>15.5</ele><time>2026-05-02T09:07:42Z</time></trkpt><trkpt lat="43.42835001117035" lon="10.397942128797675"><ele>15.666666666666666</ele><time>2026-05-02T09:07:43Z</time></trkpt><trkpt lat="43.4283021764599" lon="10.398039620666985"><ele>15.833333333333332</ele><time>2026-05-02T09:07:44Z</time></trkpt><trkpt lat="43.428235458363226" lon="10.398131338971039"><ele>16.0</ele><time>2026-05-02T09:07:45Z</time></trkpt><trkpt lat="43.42817674396264" lon="10.398220486511532"><ele>15.999999999999998</ele><time>2026-05-02T09:07:46Z</time></trkpt><trkpt lat="43.42811403954945" lon="10.39831195601899"><ele>16.0</ele><time>2026-05-02T09:07:47Z</time></trkpt><trkpt lat="43.42806141078806" lon="10.398396136472888"><ele>16.0</ele><time>2026-05-02T09:07:48Z</time></trkpt><trkpt lat="43.42800081613955" lon="10.398475980328945"><ele>16.0</ele><time>2026-05-02T09:07:49Z</time></trkpt><trkpt lat="43.42793682558194" lon="10.398563256682671"><ele>15.999999999999998</ele><time>2026-05-02T09:07:50Z</time></trkpt><trkpt lat="43.427882713732735" lon="10.398633987702995"><ele>16.0</ele><time>2026-05-02T09:07:51Z</time></trkpt><trkpt lat="43.42782461802084" lon="10.398700424504959"><ele>15.0</ele><time>2026-05-02T09:07:52Z</time></trkpt><trkpt lat="43.427758626476574" lon="10.398745690978995"><ele>13.999999999999998</ele><time>2026-05-02T09:07:53Z</time></trkpt><trkpt lat="43.42768624333356" lon="10.398761288884815"><ele>13.0</ele><time>2026-05-02T09:07:54Z</time></trkpt><trkpt lat="43.42761192504139" lon="10.398770458499172"><ele>12.0</ele><time>2026-05-02T09:07:55Z</time></trkpt><trkpt lat="43.42754177916085" lon="10.39877871598746"><ele>11.0</ele><time>2026-05-02T09:07:56Z</time></trkpt><trkpt lat="43.427471378144496" lon="10.398785530527945"><ele>10.0</ele><time>2026-05-02T09:07:57Z</time></trkpt><trkpt lat="43.42740317493309" lon="10.398790393150133"><ele>9.0</ele><time>2026-05-02T09:07:58Z</time></trkpt><trkpt lat="43.42733659291826" lon="10.398795684825343"><ele>9.0</ele><time>2026-05-02T09:07:59Z</time></trkpt><trkpt lat="43.42727076674646" lon="10.398808739272951"><ele>9.0</ele><time>2026-05-02T09:08:00Z</time></trkpt><trkpt lat="43.42720766274409" lon="10.39883119874435"><ele>9.0</ele><time>2026-05-02T09:08:01Z</time></trkpt><trkpt lat="43.42714637934596" lon="10.398852413263235"><ele>9.0</ele><time>2026-05-02T09:08:02Z</time></trkpt><trkpt lat="43.42708327080892" lon="10.398873009992588"><ele>9.0</ele><time>2026-05-02T09:08:03Z</time></trkpt><trkpt lat="43.426977312706626" lon="10.39896599841965"><ele>9.0</ele><time>2026-05-02T09:08:05Z</time></trkpt><trkpt lat="43.42693518346052" lon="10.39903378169678"><ele>8.833333333333334</ele><time>2026-05-02T09:08:06Z</time></trkpt><trkpt lat="43.426877620415745" lon="10.399183672803098"><ele>8.666666666666666</ele><time>2026-05-02T09:08:08Z</time></trkpt><trkpt lat="43.426830212183255" lon="10.39934373395447"><ele>8.5</ele><time>2026-05-02T09:08:10Z</time></trkpt><trkpt lat="43.42680898376797" lon="10.399427257220166"><ele>8.333333333333332</ele><time>2026-05-02T09:08:11Z</time></trkpt><trkpt lat="43.42678653357437" lon="10.399508672763998"><ele>8.166666666666666</ele><time>2026-05-02T09:08:12Z</time></trkpt><trkpt lat="43.426761392494136" lon="10.399588806037851"><ele>8.0</ele><time>2026-05-02T09:08:13Z</time></trkpt><trkpt lat="43.42673152515381" lon="10.399673922735895"><ele>9.8</ele><time>2026-05-02T09:08:14Z</time></trkpt><trkpt lat="43.42664502662747" lon="10.399802157194616"><ele>11.600000000000001</ele><time>2026-05-02T09:08:16Z</time></trkpt><trkpt lat="43.42658531078913" lon="10.399840128982072"><ele>13.399999999999999</ele><time>2026-05-02T09:08:17Z</time></trkpt><trkpt lat="43.42646004849453" lon="10.399879327647447"><ele>15.2</ele><time>2026-05-02T09:08:19Z</time></trkpt><trkpt lat="43.426395621898706" lon="10.399894663644057"><ele>17.0</ele><time>2026-05-02T09:08:20Z</time></trkpt><trkpt lat="43.42633154453074" lon="10.399915388893781"><ele>15.166666666666668</ele><time>2026-05-02T09:08:21Z</time></trkpt><trkpt lat="43.42626959976736" lon="10.399936679253107"><ele>13.333333333333334</ele><time>2026-05-02T09:08:22Z</time></trkpt><trkpt lat="43.42615985894651" lon="10.400010516101739"><ele>11.5</ele><time>2026-05-02T09:08:24Z</time></trkpt><trkpt lat="43.42610556159109" lon="10.400057824634056"><ele>9.666666666666668</ele><time>2026-05-02T09:08:25Z</time></trkpt><trkpt lat="43.42605644187357" lon="10.400115495478051"><ele>7.833333333333334</ele><time>2026-05-02T09:08:26Z</time></trkpt><trkpt lat="43.42601348282625" lon="10.40018013579359"><ele>6.0</ele><time>2026-05-02T09:08:27Z</time></trkpt><trkpt lat="43.425940326764255" lon="10.400314004160006"><ele>6.0</ele><time>2026-05-02T09:08:29Z</time></trkpt><trkpt lat="43.42587091923352" lon="10.400443983134334"><ele>6.0</ele><time>2026-05-02T09:08:31Z</time></trkpt><trkpt lat="43.42583039959731" lon="10.400510754981525"><ele>6.0</ele><time>2026-05-02T09:08:32Z</time></trkpt><trkpt lat="43.425769081284436" lon="10.400644064656621"><ele>6.0</ele><time>2026-05-02T09:08:34Z</time></trkpt><trkpt lat="43.42569328244114" lon="10.400777609400828"><ele>6.0</ele><time>2026-05-02T09:08:36Z</time></trkpt><trkpt lat="43.425592378399365" lon="10.400851441323246"><ele>6.8</ele><time>2026-05-02T09:08:38Z</time></trkpt><trkpt lat="43.425530511068835" lon="10.400876603039688"><ele>7.6</ele><time>2026-05-02T09:08:39Z</time></trkpt><trkpt lat="43.42546737845462" lon="10.400895888984602"><ele>8.4</ele><time>2026-05-02T09:08:40Z</time></trkpt><trkpt lat="43.42535568977745" lon="10.400940178974578"><ele>9.2</ele><time>2026-05-02T09:08:42Z</time></trkpt><trkpt lat="43.42523866860157" lon="10.400984238322751"><ele>10.0</ele><time>2026-05-02T09:08:44Z</time></trkpt><trkpt lat="43.42512144706555" lon="10.401035407477268"><ele>10.0</ele><time>2026-05-02T09:08:46Z</time></trkpt><trkpt lat="43.4250062918" lon="10.401072529575279"><ele>10.0</ele><time>2026-05-02T09:08:48Z</time></trkpt><trkpt lat="43.424892486850666" lon="10.401120188233369"><ele>10.0</ele><time>2026-05-02T09:08:50Z</time></trkpt><trkpt lat="43.42478105016004" lon="10.401149451534755"><ele>10.0</ele><time>2026-05-02T09:08:52Z</time></trkpt><trkpt lat="43.424667848787756" lon="10.40117724546435"><ele>9.0</ele><time>2026-05-02T09:08:54Z</time></trkpt><trkpt lat="43.424547670833974" lon="10.401190683189231"><ele>8.0</ele><time>2026-05-02T09:08:56Z</time></trkpt><trkpt lat="43.42443458139432" lon="10.401208997567645"><ele>7.0</ele><time>2026-05-02T09:08:58Z</time></trkpt><trkpt lat="43.42431864489351" lon="10.401224494301623"><ele>6.0</ele><time>2026-05-02T09:09:00Z</time></trkpt><trkpt lat="43.42419911071083" lon="10.401242029611538"><ele>6.0</ele><time>2026-05-02T09:09:02Z</time></trkpt><trkpt lat="43.42407677990105" lon="10.401263697131405"><ele>6.0</ele><time>2026-05-02T09:09:04Z</time></trkpt><trkpt lat="43.42395562209286" lon="10.401292895372578"><ele>6.0</ele><time>2026-05-02T09:09:06Z</time></trkpt><trkpt lat="43.423832634422084" lon="10.401338872219705"><ele>6.0</ele><time>2026-05-02T09:09:08Z</time></trkpt><trkpt lat="43.423709550758936" lon="10.401372199350098"><ele>9.0</ele><time>2026-05-02T09:09:10Z</time></trkpt><trkpt lat="43.42358416394743" lon="10.401409095573761"><ele>12.0</ele><time>2026-05-02T09:09:12Z</time></trkpt><trkpt lat="43.42352214927775" lon="10.401431853589957"><ele>15.000000000000002</ele><time>2026-05-02T09:09:13Z</time></trkpt><trkpt lat="43.42345688388775" lon="10.401458337451366"><ele>18.0</ele><time>2026-05-02T09:09:14Z</time></trkpt><trkpt lat="43.423333422312005" lon="10.401505381949626"><ele>21.0</ele><time>2026-05-02T09:09:16Z</time></trkpt><trkpt lat="43.42327166854404" lon="10.401533813280302"><ele>21.0</ele><time>2026-05-02T09:09:17Z</time></trkpt><trkpt lat="43.42320995918416" lon="10.401560262455561"><ele>21.0</ele><time>2026-05-02T09:09:18Z</time></trkpt><trkpt lat="43.42314417985872" lon="10.401586138846604"><ele>21.0</ele><time>2026-05-02T09:09:19Z</time></trkpt><trkpt lat="43.42307878659876" lon="10.401604502409306"><ele>21.0</ele><time>2026-05-02T09:09:20Z</time></trkpt><trkpt lat="43.42301241315826" lon="10.401601530480532"><ele>21.0</ele><time>2026-05-02T09:09:21Z</time></trkpt><trkpt lat="43.422946460047044" lon="10.40155857807747"><ele>21.0</ele><time>2026-05-02T09:09:22Z</time></trkpt><trkpt lat="43.42288064928308" lon="10.40156214970443"><ele>21.0</ele><time>2026-05-02T09:09:23Z</time></trkpt><trkpt lat="43.422819245845496" lon="10.401539116496581"><ele>21.0</ele><time>2026-05-02T09:09:24Z</time></trkpt><trkpt lat="43.422754806726346" lon="10.401512068554709"><ele>21.0</ele><time>2026-05-02T09:09:25Z</time></trkpt><trkpt lat="43.422633286432855" lon="10.4014719439682"><ele>21.0</ele><time>2026-05-02T09:09:27Z</time></trkpt><trkpt lat="43.422568221669685" lon="10.40145593123888"><ele>21.0</ele><time>2026-05-02T09:09:28Z</time></trkpt><trkpt lat="43.42250045469922" lon="10.401437145724453"><ele>21.0</ele><time>2026-05-02T09:09:29Z</time></trkpt><trkpt lat="43.42243779239856" lon="10.401418350459842"><ele>21.0</ele><time>2026-05-02T09:09:30Z</time></trkpt><trkpt lat="43.42237062131465" lon="10.40139925962625"><ele>21.0</ele><time>2026-05-02T09:09:31Z</time></trkpt><trkpt lat="43.42230876595331" lon="10.401382249819008"><ele>21.0</ele><time>2026-05-02T09:09:32Z</time></trkpt><trkpt lat="43.42224481535702" lon="10.401352293200771"><ele>21.0</ele><time>2026-05-02T09:09:33Z</time></trkpt><trkpt lat="43.42217777366716" lon="10.401332482024275"><ele>21.0</ele><time>2026-05-02T09:09:34Z</time></trkpt><trkpt lat="43.42211129811611" lon="10.40131463151717"><ele>21.0</ele><time>2026-05-02T09:09:35Z</time></trkpt><trkpt lat="43.42204527505416" lon="10.401303645643527"><ele>21.0</ele><time>2026-05-02T09:09:36Z</time></trkpt><trkpt lat="43.42197571436644" lon="10.401293332010358"><ele>21.0</ele><time>2026-05-02T09:09:37Z</time></trkpt><trkpt lat="43.421848222880385" lon="10.401256660892804"><ele>19.428571428571427</ele><time>2026-05-02T09:09:39Z</time></trkpt><trkpt lat="43.42177418160177" lon="10.40122100731402"><ele>17.857142857142858</ele><time>2026-05-02T09:09:40Z</time></trkpt><trkpt lat="43.42170705565046" lon="10.401215634278042"><ele>16.285714285714285</ele><time>2026-05-02T09:09:41Z</time></trkpt><trkpt lat="43.421639046177205" lon="10.401203359610257"><ele>14.714285714285715</ele><time>2026-05-02T09:09:42Z</time></trkpt><trkpt lat="43.42157432850097" lon="10.40116464504172"><ele>13.142857142857142</ele><time>2026-05-02T09:09:43Z</time></trkpt><trkpt lat="43.421508573674465" lon="10.401151520953627"><ele>11.571428571428571</ele><time>2026-05-02T09:09:44Z</time></trkpt><trkpt lat="43.421443772200156" lon="10.401130775290458"><ele>10.0</ele><time>2026-05-02T09:09:45Z</time></trkpt><trkpt lat="43.421377608355115" lon="10.40112362926011"><ele>9.333333333333334</ele><time>2026-05-02T09:09:46Z</time></trkpt><trkpt lat="43.421312375711466" lon="10.401114060028156"><ele>8.666666666666668</ele><time>2026-05-02T09:09:47Z</time></trkpt><trkpt lat="43.42118952626813" lon="10.401082926396787"><ele>8.0</ele><time>2026-05-02T09:09:49Z</time></trkpt><trkpt lat="43.421126720118366" lon="10.401098903172537"><ele>7.333333333333334</ele><time>2026-05-02T09:09:50Z</time></trkpt><trkpt lat="43.42106530611783" lon="10.401122568067473"><ele>6.666666666666667</ele><time>2026-05-02T09:09:51Z</time></trkpt><trkpt lat="43.42100416094772" lon="10.401154792267597"><ele>6.0</ele><time>2026-05-02T09:09:52Z</time></trkpt><trkpt lat="43.42094410946835" lon="10.401196478876102"><ele>6.0</ele><time>2026-05-02T09:09:53Z</time></trkpt><trkpt lat="43.42088959283643" lon="10.401242692208388"><ele>6.0</ele><time>2026-05-02T09:09:54Z</time></trkpt><trkpt lat="43.42083065065917" lon="10.401287987994502"><ele>6.0</ele><time>2026-05-02T09:09:55Z</time></trkpt><trkpt lat="43.42072021260661" lon="10.401372128831195"><ele>6.0</ele><time>2026-05-02T09:09:57Z</time></trkpt><trkpt lat="43.42066376473038" lon="10.40141407803882"><ele>6.0</ele><time>2026-05-02T09:09:58Z</time></trkpt><trkpt lat="43.42060849960474" lon="10.401455807473798"><ele>6.0</ele><time>2026-05-02T09:09:59Z</time></trkpt><trkpt lat="43.420553740972466" lon="10.401504377832222"><ele>6.6</ele><time>2026-05-02T09:10:00Z</time></trkpt><trkpt lat="43.42050299051605" lon="10.401562043109688"><ele>7.199999999999999</ele><time>2026-05-02T09:10:01Z</time></trkpt><trkpt lat="43.42039755418063" lon="10.401654774420019"><ele>7.800000000000001</ele><time>2026-05-02T09:10:03Z</time></trkpt><trkpt lat="43.42034265429601" lon="10.401697684324418"><ele>8.4</ele><time>2026-05-02T09:10:04Z</time></trkpt><trkpt lat="43.420230922241196" lon="10.401766835566743"><ele>9.0</ele><time>2026-05-02T09:10:06Z</time></trkpt><trkpt lat="43.42010755913567" lon="10.401803996538485"><ele>9.0</ele><time>2026-05-02T09:10:08Z</time></trkpt><trkpt lat="43.419982251204694" lon="10.401811404848665"><ele>9.0</ele><time>2026-05-02T09:10:10Z</time></trkpt><trkpt lat="43.41991861017205" lon="10.401802995394226"><ele>9.0</ele><time>2026-05-02T09:10:11Z</time></trkpt><trkpt lat="43.419797862653475" lon="10.401800677957631"><ele>9.0</ele><time>2026-05-02T09:10:13Z</time></trkpt><trkpt lat="43.41973313839252" lon="10.401797009609524"><ele>9.0</ele><time>2026-05-02T09:10:14Z</time></trkpt><trkpt lat="43.4196072224065" lon="10.401799506422362"><ele>9.714285714285715</ele><time>2026-05-02T09:10:16Z</time></trkpt><trkpt lat="43.41954080443702" lon="10.401804063727749"><ele>10.428571428571429</ele><time>2026-05-02T09:10:17Z</time></trkpt><trkpt lat="43.41947751065875" lon="10.401813291435321"><ele>11.142857142857142</ele><time>2026-05-02T09:10:18Z</time></trkpt><trkpt lat="43.41935464081283" lon="10.40180035813531"><ele>11.857142857142858</ele><time>2026-05-02T09:10:20Z</time></trkpt><trkpt lat="43.419289560336914" lon="10.401797396672006"><ele>12.571428571428571</ele><time>2026-05-02T09:10:21Z</time></trkpt><trkpt lat="43.41922598596417" lon="10.401794737303847"><ele>13.285714285714286</ele><time>2026-05-02T09:10:22Z</time></trkpt><trkpt lat="43.41915968487002" lon="10.401793651256279"><ele>14.0</ele><time>2026-05-02T09:10:23Z</time></trkpt><trkpt lat="43.419091519275106" lon="10.401793126674908"><ele>14.000000000000002</ele><time>2026-05-02T09:10:24Z</time></trkpt><trkpt lat="43.41902638831114" lon="10.401786046631681"><ele>14.0</ele><time>2026-05-02T09:10:25Z</time></trkpt><trkpt lat="43.418960918377195" lon="10.40177742800933"><ele>14.0</ele><time>2026-05-02T09:10:26Z</time></trkpt><trkpt lat="43.41889463058836" lon="10.401775389469586"><ele>14.0</ele><time>2026-05-02T09:10:27Z</time></trkpt><trkpt lat="43.41876503028294" lon="10.401776844476629"><ele>14.000000000000002</ele><time>2026-05-02T09:10:29Z</time></trkpt><trkpt lat="43.418646830814595" lon="10.401751502553736"><ele>14.0</ele><time>2026-05-02T09:10:31Z</time></trkpt><trkpt lat="43.41852140708302" lon="10.40173445786623"><ele>14.399999999999999</ele><time>2026-05-02T09:10:33Z</time></trkpt><trkpt lat="43.41840105222776" lon="10.401707460918866"><ele>14.799999999999999</ele><time>2026-05-02T09:10:35Z</time></trkpt><trkpt lat="43.4183381462691" lon="10.401696038399443"><ele>15.200000000000001</ele><time>2026-05-02T09:10:36Z</time></trkpt><trkpt lat="43.41821278688461" lon="10.401671190594485"><ele>15.600000000000001</ele><time>2026-05-02T09:10:38Z</time></trkpt><trkpt lat="43.41808949572559" lon="10.40165819701857"><ele>16.0</ele><time>2026-05-02T09:10:40Z</time></trkpt><trkpt lat="43.41796746254597" lon="10.401628653964034"><ele>17.0</ele><time>2026-05-02T09:10:42Z</time></trkpt><trkpt lat="43.417846626155686" lon="10.401601753711919"><ele>18.0</ele><time>2026-05-02T09:10:44Z</time></trkpt><trkpt lat="43.41772499520558" lon="10.40157838301023"><ele>19.0</ele><time>2026-05-02T09:10:46Z</time></trkpt><trkpt lat="43.417600012653146" lon="10.401554608150091"><ele>20.0</ele><time>2026-05-02T09:10:48Z</time></trkpt><trkpt lat="43.41747649788653" lon="10.401523202690925"><ele>20.0</ele><time>2026-05-02T09:10:50Z</time></trkpt><trkpt lat="43.417354495554136" lon="10.401501272390588"><ele>20.0</ele><time>2026-05-02T09:10:52Z</time></trkpt><trkpt lat="43.41729025180643" lon="10.401492728291844"><ele>20.0</ele><time>2026-05-02T09:10:53Z</time></trkpt><trkpt lat="43.41716882042501" lon="10.401461527440649"><ele>20.0</ele><time>2026-05-02T09:10:55Z</time></trkpt><trkpt lat="43.41704646930541" lon="10.401442685647462"><ele>20.0</ele><time>2026-05-02T09:10:57Z</time></trkpt><trkpt lat="43.41692317003362" lon="10.401419476659097"><ele>21.2</ele><time>2026-05-02T09:10:59Z</time></trkpt><trkpt lat="43.41681461006805" lon="10.401372067181033"><ele>22.4</ele><time>2026-05-02T09:11:01Z</time></trkpt><trkpt lat="43.41674608709169" lon="10.401376336587628"><ele>23.6</ele><time>2026-05-02T09:11:02Z</time></trkpt><trkpt lat="43.4166305901151" lon="10.401349368724588"><ele>24.8</ele><time>2026-05-02T09:11:04Z</time></trkpt><trkpt lat="43.41651401824229" lon="10.401326629423131"><ele>26.0</ele><time>2026-05-02T09:11:06Z</time></trkpt><trkpt lat="43.41640419216794" lon="10.401303496059098"><ele>25.6</ele><time>2026-05-02T09:11:08Z</time></trkpt><trkpt lat="43.41633612619822" lon="10.401302147284298"><ele>25.200000000000003</ele><time>2026-05-02T09:11:09Z</time></trkpt><trkpt lat="43.41622666677482" lon="10.401282553868196"><ele>24.799999999999997</ele><time>2026-05-02T09:11:11Z</time></trkpt><trkpt lat="43.41611488851528" lon="10.401288138241405"><ele>24.4</ele><time>2026-05-02T09:11:13Z</time></trkpt><trkpt lat="43.416007881391586" lon="10.401311001928336"><ele>24.0</ele><time>2026-05-02T09:11:15Z</time></trkpt><trkpt lat="43.41590557645654" lon="10.40134759279298"><ele>24.0</ele><time>2026-05-02T09:11:17Z</time></trkpt><trkpt lat="43.41581613661593" lon="10.401409926867158"><ele>24.0</ele><time>2026-05-02T09:11:19Z</time></trkpt><trkpt lat="43.41573553757333" lon="10.401492183427827"><ele>24.0</ele><time>2026-05-02T09:11:21Z</time></trkpt><trkpt lat="43.415661432352" lon="10.401581293131072"><ele>24.0</ele><time>2026-05-02T09:11:23Z</time></trkpt><trkpt lat="43.415595602053756" lon="10.401677857923879"><ele>24.0</ele><time>2026-05-02T09:11:25Z</time></trkpt><trkpt lat="43.415530106768614" lon="10.401780655222035"><ele>20.8</ele><time>2026-05-02T09:11:27Z</time></trkpt><trkpt lat="43.41545321059594" lon="10.401885182864346"><ele>17.599999999999998</ele><time>2026-05-02T09:11:29Z</time></trkpt><trkpt lat="43.41538725284962" lon="10.401978963097935"><ele>14.4</ele><time>2026-05-02T09:11:31Z</time></trkpt><trkpt lat="43.41530020873637" lon="10.402053463818909"><ele>11.2</ele><time>2026-05-02T09:11:33Z</time></trkpt><trkpt lat="43.41520284229682" lon="10.402061289208952"><ele>8.0</ele><time>2026-05-02T09:11:35Z</time></trkpt><trkpt lat="43.41510650938981" lon="10.402084312703431"><ele>8.0</ele><time>2026-05-02T09:11:37Z</time></trkpt><trkpt lat="43.41500873000215" lon="10.402103151554401"><ele>8.0</ele><time>2026-05-02T09:11:39Z</time></trkpt><trkpt lat="43.41491462886414" lon="10.402131570666732"><ele>8.0</ele><time>2026-05-02T09:11:41Z</time></trkpt><trkpt lat="43.414827579372506" lon="10.402201702567561"><ele>8.0</ele><time>2026-05-02T09:11:43Z</time></trkpt><trkpt lat="43.414744813058974" lon="10.402278262849602"><ele>8.0</ele><time>2026-05-02T09:11:45Z</time></trkpt><trkpt lat="43.41466592540885" lon="10.402357709504855"><ele>10.8</ele><time>2026-05-02T09:11:47Z</time></trkpt><trkpt lat="43.4145835203073" lon="10.40243623402031"><ele>13.600000000000001</ele><time>2026-05-02T09:11:49Z</time></trkpt><trkpt lat="43.41449310451615" lon="10.402503914985143"><ele>16.400000000000002</ele><time>2026-05-02T09:11:51Z</time></trkpt><trkpt lat="43.4144016156857" lon="10.402551300764102"><ele>19.200000000000003</ele><time>2026-05-02T09:11:53Z</time></trkpt><trkpt lat="43.414306440277244" lon="10.402595357901406"><ele>22.0</ele><time>2026-05-02T09:11:55Z</time></trkpt><trkpt lat="43.41420663015244" lon="10.402643775552285"><ele>22.0</ele><time>2026-05-02T09:11:57Z</time></trkpt><trkpt lat="43.414109486296226" lon="10.402681365018616"><ele>22.0</ele><time>2026-05-02T09:11:59Z</time></trkpt><trkpt lat="43.414007536411404" lon="10.402694643931493"><ele>22.0</ele><time>2026-05-02T09:12:01Z</time></trkpt><trkpt lat="43.413902371562095" lon="10.402671067517966"><ele>22.0</ele><time>2026-05-02T09:12:03Z</time></trkpt><trkpt lat="43.41379473148935" lon="10.402623176593268"><ele>22.0</ele><time>2026-05-02T09:12:05Z</time></trkpt><trkpt lat="43.41367971069119" lon="10.402604572699078"><ele>20.25</ele><time>2026-05-02T09:12:07Z</time></trkpt><trkpt lat="43.41356410131188" lon="10.40260718714036"><ele>18.5</ele><time>2026-05-02T09:12:09Z</time></trkpt><trkpt lat="43.413453664019514" lon="10.402640925147061"><ele>16.75</ele><time>2026-05-02T09:12:11Z</time></trkpt><trkpt lat="43.41335228487942" lon="10.40271134418826"><ele>15.0</ele><time>2026-05-02T09:12:13Z</time></trkpt><trkpt lat="43.41326183857042" lon="10.402807792629012"><ele>15.0</ele><time>2026-05-02T09:12:15Z</time></trkpt><trkpt lat="43.41318758644223" lon="10.402936970561777"><ele>15.0</ele><time>2026-05-02T09:12:17Z</time></trkpt><trkpt lat="43.41310578360414" lon="10.403065334076048"><ele>15.0</ele><time>2026-05-02T09:12:19Z</time></trkpt><trkpt lat="43.41306797554975" lon="10.403137468101502"><ele>15.0</ele><time>2026-05-02T09:12:20Z</time></trkpt><trkpt lat="43.41298965994261" lon="10.40326894323596"><ele>15.0</ele><time>2026-05-02T09:12:22Z</time></trkpt><trkpt lat="43.41291504798406" lon="10.40339906890351"><ele>14.0</ele><time>2026-05-02T09:12:24Z</time></trkpt><trkpt lat="43.412839350682" lon="10.403522631224337"><ele>13.0</ele><time>2026-05-02T09:12:26Z</time></trkpt><trkpt lat="43.412764964327685" lon="10.403645346965058"><ele>12.0</ele><time>2026-05-02T09:12:28Z</time></trkpt><trkpt lat="43.41268016318338" lon="10.403749692715547"><ele>11.0</ele><time>2026-05-02T09:12:30Z</time></trkpt><trkpt lat="43.412588299435036" lon="10.403847663186697"><ele>13.666666666666666</ele><time>2026-05-02T09:12:32Z</time></trkpt><trkpt lat="43.41248581554831" lon="10.403939726603761"><ele>16.333333333333332</ele><time>2026-05-02T09:12:34Z</time></trkpt><trkpt lat="43.41237329588988" lon="10.404016792578664"><ele>19.0</ele><time>2026-05-02T09:12:36Z</time></trkpt><trkpt lat="43.41231386017552" lon="10.404047708236503"><ele>21.666666666666668</ele><time>2026-05-02T09:12:37Z</time></trkpt><trkpt lat="43.41225053704917" lon="10.404077815843689"><ele>24.333333333333332</ele><time>2026-05-02T09:12:38Z</time></trkpt><trkpt lat="43.412185023311196" lon="10.404091582778435"><ele>27.0</ele><time>2026-05-02T09:12:39Z</time></trkpt><trkpt lat="43.41211547638513" lon="10.40410569636042"><ele>27.0</ele><time>2026-05-02T09:12:40Z</time></trkpt><trkpt lat="43.412045475117694" lon="10.404104380585396"><ele>27.0</ele><time>2026-05-02T09:12:41Z</time></trkpt><trkpt lat="43.411971942385904" lon="10.404098970309544"><ele>27.0</ele><time>2026-05-02T09:12:42Z</time></trkpt><trkpt lat="43.41189985196351" lon="10.404075691277777"><ele>27.0</ele><time>2026-05-02T09:12:43Z</time></trkpt><trkpt lat="43.411827694733745" lon="10.404044553293014"><ele>27.0</ele><time>2026-05-02T09:12:44Z</time></trkpt><trkpt lat="43.41174673868938" lon="10.404024503864987"><ele>27.0</ele><time>2026-05-02T09:12:45Z</time></trkpt><trkpt lat="43.41166575561186" lon="10.403997817768673"><ele>27.0</ele><time>2026-05-02T09:12:46Z</time></trkpt><trkpt lat="43.41159384247869" lon="10.403970050894792"><ele>27.0</ele><time>2026-05-02T09:12:47Z</time></trkpt><trkpt lat="43.41152541645942" lon="10.403933841429382"><ele>27.0</ele><time>2026-05-02T09:12:48Z</time></trkpt><trkpt lat="43.41145370328111" lon="10.40390276359297"><ele>27.0</ele><time>2026-05-02T09:12:49Z</time></trkpt><trkpt lat="43.41138524766986" lon="10.403876125483672"><ele>27.0</ele><time>2026-05-02T09:12:50Z</time></trkpt><trkpt lat="43.41131196872406" lon="10.40385605662939"><ele>27.0</ele><time>2026-05-02T09:12:51Z</time></trkpt><trkpt lat="43.41123520473476" lon="10.403830936103791"><ele>27.0</ele><time>2026-05-02T09:12:52Z</time></trkpt><trkpt lat="43.41115996572709" lon="10.403819144676444"><ele>26.833333333333332</ele><time>2026-05-02T09:12:53Z</time></trkpt><trkpt lat="43.41107949230402" lon="10.40382615870217"><ele>26.666666666666664</ele><time>2026-05-02T09:12:54Z</time></trkpt><trkpt lat="43.41100429730455" lon="10.40383050519901"><ele>26.5</ele><time>2026-05-02T09:12:55Z</time></trkpt><trkpt lat="43.41092887482185" lon="10.403844810946891"><ele>26.333333333333332</ele><time>2026-05-02T09:12:56Z</time></trkpt><trkpt lat="43.410858485124784" lon="10.403866368441504"><ele>26.166666666666664</ele><time>2026-05-02T09:12:57Z</time></trkpt><trkpt lat="43.41078361860531" lon="10.403903774829459"><ele>26.0</ele><time>2026-05-02T09:12:58Z</time></trkpt><trkpt lat="43.4107118447904" lon="10.403944407595944"><ele>25.999999999999996</ele><time>2026-05-02T09:12:59Z</time></trkpt><trkpt lat="43.410643061168166" lon="10.403994384612652"><ele>26.0</ele><time>2026-05-02T09:13:00Z</time></trkpt><trkpt lat="43.41057849208484" lon="10.404049364357322"><ele>26.0</ele><time>2026-05-02T09:13:01Z</time></trkpt><trkpt lat="43.41051280908861" lon="10.404116879814856"><ele>26.0</ele><time>2026-05-02T09:13:02Z</time></trkpt><trkpt lat="43.41045198743654" lon="10.404181523362213"><ele>25.999999999999996</ele><time>2026-05-02T09:13:03Z</time></trkpt><trkpt lat="43.41039593160907" lon="10.404261777116533"><ele>26.0</ele><time>2026-05-02T09:13:04Z</time></trkpt><trkpt lat="43.41034322908404" lon="10.404344995172702"><ele>24.166666666666664</ele><time>2026-05-02T09:13:05Z</time></trkpt><trkpt lat="43.410300920011224" lon="10.40444013530187"><ele>22.333333333333332</ele><time>2026-05-02T09:13:06Z</time></trkpt><trkpt lat="43.4102612107379" lon="10.404544488752807"><ele>20.5</ele><time>2026-05-02T09:13:07Z</time></trkpt><trkpt lat="43.41022734893631" lon="10.404647324051975"><ele>18.666666666666664</ele><time>2026-05-02T09:13:08Z</time></trkpt><trkpt lat="43.41019267006274" lon="10.404749135670196"><ele>16.833333333333332</ele><time>2026-05-02T09:13:09Z</time></trkpt><trkpt lat="43.4101674692692" lon="10.404854442816386"><ele>15.0</ele><time>2026-05-02T09:13:10Z</time></trkpt><trkpt lat="43.41015281833747" lon="10.40496561944793"><ele>15.0</ele><time>2026-05-02T09:13:11Z</time></trkpt><trkpt lat="43.410130943519235" lon="10.405073027314213"><ele>15.0</ele><time>2026-05-02T09:13:12Z</time></trkpt><trkpt lat="43.41010767354956" lon="10.405180447900864"><ele>15.0</ele><time>2026-05-02T09:13:13Z</time></trkpt><trkpt lat="43.41008756228758" lon="10.405286491869608"><ele>15.0</ele><time>2026-05-02T09:13:14Z</time></trkpt><trkpt lat="43.41007208903409" lon="10.405393325078103"><ele>15.0</ele><time>2026-05-02T09:13:15Z</time></trkpt><trkpt lat="43.41006382430146" lon="10.40549773556098"><ele>15.0</ele><time>2026-05-02T09:13:16Z</time></trkpt><trkpt lat="43.41005210793143" lon="10.405611394485073"><ele>15.5</ele><time>2026-05-02T09:13:17Z</time></trkpt><trkpt lat="43.410054099495106" lon="10.40572574880178"><ele>16.0</ele><time>2026-05-02T09:13:18Z</time></trkpt><trkpt lat="43.4100460397571" lon="10.405825875019387"><ele>16.5</ele><time>2026-05-02T09:13:19Z</time></trkpt><trkpt lat="43.410048981402426" lon="10.405937918297766"><ele>17.0</ele><time>2026-05-02T09:13:20Z</time></trkpt><trkpt lat="43.410053224698295" lon="10.406049105756704"><ele>17.5</ele><time>2026-05-02T09:13:21Z</time></trkpt><trkpt lat="43.41006337412554" lon="10.406163600004172"><ele>18.0</ele><time>2026-05-02T09:13:22Z</time></trkpt><trkpt lat="43.41007446658462" lon="10.406275484382977"><ele>17.5</ele><time>2026-05-02T09:13:23Z</time></trkpt><trkpt lat="43.41008796745458" lon="10.406389454506595"><ele>17.0</ele><time>2026-05-02T09:13:24Z</time></trkpt><trkpt lat="43.410107617612105" lon="10.406499554498794"><ele>16.5</ele><time>2026-05-02T09:13:25Z</time></trkpt><trkpt lat="43.41012814391293" lon="10.40660920157235"><ele>16.0</ele><time>2026-05-02T09:13:26Z</time></trkpt><trkpt lat="43.41014508826155" lon="10.406727691037034"><ele>15.5</ele><time>2026-05-02T09:13:27Z</time></trkpt><trkpt lat="43.41016243016474" lon="10.40683894049295"><ele>15.0</ele><time>2026-05-02T09:13:28Z</time></trkpt><trkpt lat="43.41018167834189" lon="10.406954724722388"><ele>15.0</ele><time>2026-05-02T09:13:29Z</time></trkpt><trkpt lat="43.41020175879109" lon="10.407072131620831"><ele>15.0</ele><time>2026-05-02T09:13:30Z</time></trkpt><trkpt lat="43.410214728108556" lon="10.40718926586388"><ele>15.0</ele><time>2026-05-02T09:13:31Z</time></trkpt><trkpt lat="43.41023132412161" lon="10.407298065446616"><ele>15.0</ele><time>2026-05-02T09:13:32Z</time></trkpt><trkpt lat="43.4102259488404" lon="10.407413390968467"><ele>15.0</ele><time>2026-05-02T09:13:33Z</time></trkpt><trkpt lat="43.41018841696948" lon="10.407514710897447"><ele>15.0</ele><time>2026-05-02T09:13:34Z</time></trkpt><trkpt lat="43.410109330571096" lon="10.407566622636253"><ele>15.166666666666666</ele><time>2026-05-02T09:13:35Z</time></trkpt><trkpt lat="43.41003804514878" lon="10.407604238189684"><ele>15.333333333333332</ele><time>2026-05-02T09:13:36Z</time></trkpt><trkpt lat="43.409966208863096" lon="10.407632151908707"><ele>15.5</ele><time>2026-05-02T09:13:37Z</time></trkpt><trkpt lat="43.409891986786114" lon="10.407617820691343"><ele>15.666666666666666</ele><time>2026-05-02T09:13:38Z</time></trkpt><trkpt lat="43.409824286060505" lon="10.40760786541968"><ele>15.833333333333332</ele><time>2026-05-02T09:13:39Z</time></trkpt><trkpt lat="43.409708048547515" lon="10.407591937246005"><ele>16.0</ele><time>2026-05-02T09:13:41Z</time></trkpt><trkpt lat="43.40959525771215" lon="10.407579099816626"><ele>16.0</ele><time>2026-05-02T09:13:43Z</time></trkpt><trkpt lat="43.409483707013074" lon="10.407560705338588"><ele>16.0</ele><time>2026-05-02T09:13:45Z</time></trkpt><trkpt lat="43.40937144867619" lon="10.407558091451847"><ele>16.0</ele><time>2026-05-02T09:13:47Z</time></trkpt><trkpt lat="43.40926014443012" lon="10.407566125120423"><ele>16.0</ele><time>2026-05-02T09:13:49Z</time></trkpt><trkpt lat="43.409147785782736" lon="10.407590667201791"><ele>16.0</ele><time>2026-05-02T09:13:51Z</time></trkpt><trkpt lat="43.409041452493206" lon="10.407630903055463"><ele>16.0</ele><time>2026-05-02T09:13:53Z</time></trkpt><trkpt lat="43.408933312363004" lon="10.407670593312972"><ele>16.0</ele><time>2026-05-02T09:13:55Z</time></trkpt><trkpt lat="43.40882840314843" lon="10.407703153714735"><ele>16.0</ele><time>2026-05-02T09:13:57Z</time></trkpt><trkpt lat="43.4087216395201" lon="10.407741397085337"><ele>16.0</ele><time>2026-05-02T09:13:59Z</time></trkpt><trkpt lat="43.408613179536026" lon="10.407779478436721"><ele>15.600000000000001</ele><time>2026-05-02T09:14:01Z</time></trkpt><trkpt lat="43.40850057804934" lon="10.407815032502942"><ele>15.200000000000001</ele><time>2026-05-02T09:14:03Z</time></trkpt><trkpt lat="43.40838818740192" lon="10.407858798823264"><ele>14.799999999999999</ele><time>2026-05-02T09:14:05Z</time></trkpt><trkpt lat="43.40832662365022" lon="10.40787936417954"><ele>14.399999999999999</ele><time>2026-05-02T09:14:06Z</time></trkpt><trkpt lat="43.40821461347173" lon="10.40791250976167"><ele>14.0</ele><time>2026-05-02T09:14:08Z</time></trkpt><trkpt lat="43.408152838298165" lon="10.407936103401429"><ele>14.0</ele><time>2026-05-02T09:14:09Z</time></trkpt><trkpt lat="43.40803885241512" lon="10.407980616062709"><ele>14.0</ele><time>2026-05-02T09:14:11Z</time></trkpt><trkpt lat="43.407925902302544" lon="10.408024107782731"><ele>14.0</ele><time>2026-05-02T09:14:13Z</time></trkpt><trkpt lat="43.407814693425635" lon="10.40806768882155"><ele>14.0</ele><time>2026-05-02T09:14:15Z</time></trkpt><trkpt lat="43.40770168643696" lon="10.408115009944886"><ele>15.75</ele><time>2026-05-02T09:14:17Z</time></trkpt><trkpt lat="43.407589372020304" lon="10.408169161368782"><ele>17.5</ele><time>2026-05-02T09:14:19Z</time></trkpt><trkpt lat="43.40747883650243" lon="10.408231346423259"><ele>19.25</ele><time>2026-05-02T09:14:21Z</time></trkpt><trkpt lat="43.4073651154626" lon="10.40829652536613"><ele>21.0</ele><time>2026-05-02T09:14:23Z</time></trkpt><trkpt lat="43.40725336281554" lon="10.408362777419924"><ele>20.5</ele><time>2026-05-02T09:14:25Z</time></trkpt><trkpt lat="43.40714734183014" lon="10.408437104754586"><ele>20.0</ele><time>2026-05-02T09:14:27Z</time></trkpt><trkpt lat="43.40704437725281" lon="10.408508199876435"><ele>19.5</ele><time>2026-05-02T09:14:29Z</time></trkpt><trkpt lat="43.40694441512548" lon="10.40858840527554"><ele>19.0</ele><time>2026-05-02T09:14:31Z</time></trkpt><trkpt lat="43.4068469974444" lon="10.408663986632677"><ele>19.0</ele><time>2026-05-02T09:14:33Z</time></trkpt><trkpt lat="43.40675077224969" lon="10.408750997538514"><ele>19.0</ele><time>2026-05-02T09:14:35Z</time></trkpt><trkpt lat="43.40665785061398" lon="10.408843001353963"><ele>19.0</ele><time>2026-05-02T09:14:37Z</time></trkpt><trkpt lat="43.40656666961224" lon="10.408928417580231"><ele>19.0</ele><time>2026-05-02T09:14:39Z</time></trkpt><trkpt lat="43.40647167356388" lon="10.409011505211824"><ele>20.799999999999997</ele><time>2026-05-02T09:14:41Z</time></trkpt><trkpt lat="43.40637010223284" lon="10.409058591958537"><ele>22.599999999999998</ele><time>2026-05-02T09:14:43Z</time></trkpt><trkpt lat="43.40627755224615" lon="10.409120708139374"><ele>24.4</ele><time>2026-05-02T09:14:45Z</time></trkpt><trkpt lat="43.40619518258554" lon="10.409190756684108"><ele>26.2</ele><time>2026-05-02T09:14:47Z</time></trkpt><trkpt lat="43.40612114634876" lon="10.409264690842301"><ele>28.0</ele><time>2026-05-02T09:14:49Z</time></trkpt><trkpt lat="43.40603502297376" lon="10.409345056529414"><ele>28.0</ele><time>2026-05-02T09:14:51Z</time></trkpt><trkpt lat="43.40596006552336" lon="10.409441006077495"><ele>27.999999999999996</ele><time>2026-05-02T09:14:53Z</time></trkpt><trkpt lat="43.40588249997001" lon="10.409529875368444"><ele>27.999999999999996</ele><time>2026-05-02T09:14:55Z</time></trkpt><trkpt lat="43.40582791838377" lon="10.409641374044597"><ele>28.0</ele><time>2026-05-02T09:14:57Z</time></trkpt><trkpt lat="43.40576803895119" lon="10.409728412679288"><ele>28.0</ele><time>2026-05-02T09:14:59Z</time></trkpt><trkpt lat="43.4057039547769" lon="10.409826945694384"><ele>28.500000000000004</ele><time>2026-05-02T09:15:01Z</time></trkpt><trkpt lat="43.40564933712461" lon="10.409931977644423"><ele>29.0</ele><time>2026-05-02T09:15:03Z</time></trkpt><trkpt lat="43.40559921310013" lon="10.410031619569661"><ele>29.5</ele><time>2026-05-02T09:15:05Z</time></trkpt><trkpt lat="43.40553697826444" lon="10.410110066323965"><ele>30.0</ele><time>2026-05-02T09:15:08Z</time></trkpt><trkpt lat="43.405457661475246" lon="10.410183913116354"><ele>30.500000000000004</ele><time>2026-05-02T09:15:11Z</time></trkpt><trkpt lat="43.40540087062029" lon="10.410232760328526"><ele>31.0</ele><time>2026-05-02T09:15:13Z</time></trkpt><trkpt lat="43.405350079080506" lon="10.41028939382257"><ele>31.0</ele><time>2026-05-02T09:15:15Z</time></trkpt><trkpt lat="43.40528677948652" lon="10.410353691646462"><ele>31.0</ele><time>2026-05-02T09:15:18Z</time></trkpt><trkpt lat="43.405215474564066" lon="10.410440649292948"><ele>31.0</ele><time>2026-05-02T09:15:20Z</time></trkpt><trkpt lat="43.405150114440865" lon="10.410542203491543"><ele>31.0</ele><time>2026-05-02T09:15:22Z</time></trkpt><trkpt lat="43.405089983197925" lon="10.410668296816223"><ele>31.0</ele><time>2026-05-02T09:15:24Z</time></trkpt><trkpt lat="43.405029459688095" lon="10.410807562602159"><ele>30.857142857142858</ele><time>2026-05-02T09:15:26Z</time></trkpt><trkpt lat="43.40499949447287" lon="10.4108873001204"><ele>30.714285714285715</ele><time>2026-05-02T09:15:27Z</time></trkpt><trkpt lat="43.404969371697284" lon="10.410972649324734"><ele>30.571428571428573</ele><time>2026-05-02T09:15:28Z</time></trkpt><trkpt lat="43.40493727019813" lon="10.411062509433386"><ele>30.42857142857143</ele><time>2026-05-02T09:15:29Z</time></trkpt><trkpt lat="43.40490898567016" lon="10.411154985626553"><ele>30.285714285714285</ele><time>2026-05-02T09:15:30Z</time></trkpt><trkpt lat="43.404880818129655" lon="10.411254285500103"><ele>30.142857142857146</ele><time>2026-05-02T09:15:31Z</time></trkpt><trkpt lat="43.404847601073826" lon="10.411349435878746"><ele>30.0</ele><time>2026-05-02T09:15:32Z</time></trkpt><trkpt lat="43.40481529444604" lon="10.411439347250836"><ele>29.75</ele><time>2026-05-02T09:15:33Z</time></trkpt><trkpt lat="43.404765941762534" lon="10.411570346203344"><ele>29.5</ele><time>2026-05-02T09:15:35Z</time></trkpt><trkpt lat="43.40472323744737" lon="10.411724204027314"><ele>29.25</ele><time>2026-05-02T09:15:37Z</time></trkpt><trkpt lat="43.4046867687844" lon="10.41188582204173"><ele>29.0</ele><time>2026-05-02T09:15:39Z</time></trkpt><trkpt lat="43.40465380178144" lon="10.412051179467333"><ele>28.142857142857146</ele><time>2026-05-02T09:15:41Z</time></trkpt><trkpt lat="43.40464246026934" lon="10.412137705833102"><ele>27.285714285714285</ele><time>2026-05-02T09:15:42Z</time></trkpt><trkpt lat="43.404631694256764" lon="10.412227205718585"><ele>26.42857142857143</ele><time>2026-05-02T09:15:43Z</time></trkpt><trkpt lat="43.40460677728664" lon="10.412310845786664"><ele>25.571428571428573</ele><time>2026-05-02T09:15:44Z</time></trkpt><trkpt lat="43.40459020821481" lon="10.412398694357085"><ele>24.714285714285715</ele><time>2026-05-02T09:15:45Z</time></trkpt><trkpt lat="43.40457490717866" lon="10.412485147475877"><ele>23.857142857142858</ele><time>2026-05-02T09:15:46Z</time></trkpt><trkpt lat="43.40456259499351" lon="10.412573176772488"><ele>23.0</ele><time>2026-05-02T09:15:47Z</time></trkpt><trkpt lat="43.404547848021394" lon="10.412663732139274"><ele>22.571428571428573</ele><time>2026-05-02T09:15:48Z</time></trkpt><trkpt lat="43.40453364038298" lon="10.412752259612867"><ele>22.142857142857142</ele><time>2026-05-02T09:15:49Z</time></trkpt><trkpt lat="43.40451906541059" lon="10.412839821920564"><ele>21.714285714285715</ele><time>2026-05-02T09:15:50Z</time></trkpt><trkpt lat="43.40450269411324" lon="10.41293058719084"><ele>21.285714285714285</ele><time>2026-05-02T09:15:51Z</time></trkpt><trkpt lat="43.404491851343934" lon="10.413025258264875"><ele>20.857142857142858</ele><time>2026-05-02T09:15:52Z</time></trkpt><trkpt lat="43.404472551388984" lon="10.413115094784237"><ele>20.428571428571427</ele><time>2026-05-02T09:15:53Z</time></trkpt><trkpt lat="43.404455527471974" lon="10.41320715850075"><ele>20.0</ele><time>2026-05-02T09:15:54Z</time></trkpt><trkpt lat="43.40444298197622" lon="10.413302023216206"><ele>20.0</ele><time>2026-05-02T09:15:55Z</time></trkpt><trkpt lat="43.40442527812529" lon="10.413397598565648"><ele>20.0</ele><time>2026-05-02T09:15:56Z</time></trkpt><trkpt lat="43.40441240044308" lon="10.413492297938044"><ele>20.0</ele><time>2026-05-02T09:15:57Z</time></trkpt><trkpt lat="43.40439509793725" lon="10.4135844446047"><ele>20.0</ele><time>2026-05-02T09:15:58Z</time></trkpt><trkpt lat="43.40438093449869" lon="10.413678875190847"><ele>20.0</ele><time>2026-05-02T09:15:59Z</time></trkpt><trkpt lat="43.40436879602909" lon="10.413772680569355"><ele>20.0</ele><time>2026-05-02T09:16:00Z</time></trkpt><trkpt lat="43.40435855244723" lon="10.413866786017394"><ele>20.0</ele><time>2026-05-02T09:16:01Z</time></trkpt><trkpt lat="43.404354261961714" lon="10.413961531587862"><ele>20.0</ele><time>2026-05-02T09:16:02Z</time></trkpt><trkpt lat="43.404352943671135" lon="10.41405553441315"><ele>20.0</ele><time>2026-05-02T09:16:03Z</time></trkpt><trkpt lat="43.40435366194574" lon="10.414149723279003"><ele>20.0</ele><time>2026-05-02T09:16:04Z</time></trkpt><trkpt lat="43.40434372817575" lon="10.414245870039883"><ele>20.0</ele><time>2026-05-02T09:16:05Z</time></trkpt><trkpt lat="43.40433930021673" lon="10.414339470853259"><ele>20.0</ele><time>2026-05-02T09:16:06Z</time></trkpt><trkpt lat="43.404338302061205" lon="10.414432559800506"><ele>20.0</ele><time>2026-05-02T09:16:07Z</time></trkpt><trkpt lat="43.40434034443351" lon="10.414528206133824"><ele>20.0</ele><time>2026-05-02T09:16:08Z</time></trkpt><trkpt lat="43.40434395157532" lon="10.414628755716874"><ele>19.57142857142857</ele><time>2026-05-02T09:16:09Z</time></trkpt><trkpt lat="43.40435036004556" lon="10.414729031013952"><ele>19.142857142857142</ele><time>2026-05-02T09:16:10Z</time></trkpt><trkpt lat="43.40435692971614" lon="10.414830421239019"><ele>18.714285714285715</ele><time>2026-05-02T09:16:11Z</time></trkpt><trkpt lat="43.404362848328745" lon="10.414934182976939"><ele>18.285714285714285</ele><time>2026-05-02T09:16:12Z</time></trkpt><trkpt lat="43.40437023270009" lon="10.415035282992926"><ele>17.857142857142858</ele><time>2026-05-02T09:16:13Z</time></trkpt><trkpt lat="43.404380428490114" lon="10.4151356987707"><ele>17.428571428571427</ele><time>2026-05-02T09:16:14Z</time></trkpt><trkpt lat="43.404391551691916" lon="10.415236184300399"><ele>17.0</ele><time>2026-05-02T09:16:15Z</time></trkpt><trkpt lat="43.40440216185158" lon="10.415340066739121"><ele>17.0</ele><time>2026-05-02T09:16:16Z</time></trkpt><trkpt lat="43.40441852321129" lon="10.415444933908026"><ele>17.0</ele><time>2026-05-02T09:16:17Z</time></trkpt><trkpt lat="43.40443843946266" lon="10.41554650630713"><ele>17.0</ele><time>2026-05-02T09:16:18Z</time></trkpt><trkpt lat="43.40446424553502" lon="10.415646201086858"><ele>17.0</ele><time>2026-05-02T09:16:19Z</time></trkpt><trkpt lat="43.4044881397264" lon="10.415745120250332"><ele>17.0</ele><time>2026-05-02T09:16:20Z</time></trkpt><trkpt lat="43.404515485779065" lon="10.41584768115035"><ele>17.0</ele><time>2026-05-02T09:16:21Z</time></trkpt><trkpt lat="43.4045448099009" lon="10.415948265310748"><ele>16.666666666666668</ele><time>2026-05-02T09:16:22Z</time></trkpt><trkpt lat="43.40457874579448" lon="10.416047787772694"><ele>16.333333333333336</ele><time>2026-05-02T09:16:23Z</time></trkpt><trkpt lat="43.40461248410132" lon="10.416147880513698"><ele>16.0</ele><time>2026-05-02T09:16:24Z</time></trkpt><trkpt lat="43.40463822493705" lon="10.416253923567952"><ele>15.666666666666668</ele><time>2026-05-02T09:16:25Z</time></trkpt><trkpt lat="43.40466391690579" lon="10.416362113969466"><ele>15.333333333333334</ele><time>2026-05-02T09:16:26Z</time></trkpt><trkpt lat="43.40467748030787" lon="10.416469758885002"><ele>15.0</ele><time>2026-05-02T09:16:27Z</time></trkpt><trkpt lat="43.40467353303114" lon="10.416583610872877"><ele>15.0</ele><time>2026-05-02T09:16:28Z</time></trkpt><trkpt lat="43.40466192739521" lon="10.416696052576453"><ele>15.0</ele><time>2026-05-02T09:16:29Z</time></trkpt><trkpt lat="43.40464735950375" lon="10.416807721162877"><ele>15.0</ele><time>2026-05-02T09:16:30Z</time></trkpt><trkpt lat="43.4046357929301" lon="10.416918404243852"><ele>15.0</ele><time>2026-05-02T09:16:31Z</time></trkpt><trkpt lat="43.40462441437897" lon="10.417028480931256"><ele>15.0</ele><time>2026-05-02T09:16:32Z</time></trkpt><trkpt lat="43.40461155085839" lon="10.417138529063292"><ele>15.0</ele><time>2026-05-02T09:16:33Z</time></trkpt><trkpt lat="43.404597746440686" lon="10.417246462179728"><ele>15.5</ele><time>2026-05-02T09:16:34Z</time></trkpt><trkpt lat="43.404592058809165" lon="10.41735733615284"><ele>16.0</ele><time>2026-05-02T09:16:35Z</time></trkpt><trkpt lat="43.4045798568025" lon="10.417468673017353"><ele>16.5</ele><time>2026-05-02T09:16:36Z</time></trkpt><trkpt lat="43.40456614686395" lon="10.41757270776321"><ele>17.0</ele><time>2026-05-02T09:16:37Z</time></trkpt><trkpt lat="43.40455353714319" lon="10.417680175455482"><ele>17.5</ele><time>2026-05-02T09:16:38Z</time></trkpt><trkpt lat="43.4045400221349" lon="10.417787388832085"><ele>18.0</ele><time>2026-05-02T09:16:39Z</time></trkpt><trkpt lat="43.40453449684998" lon="10.417889373848768"><ele>17.833333333333332</ele><time>2026-05-02T09:16:40Z</time></trkpt><trkpt lat="43.40452293270981" lon="10.418000779307153"><ele>17.666666666666668</ele><time>2026-05-02T09:16:41Z</time></trkpt><trkpt lat="43.40451075383187" lon="10.418107509814938"><ele>17.5</ele><time>2026-05-02T09:16:42Z</time></trkpt><trkpt lat="43.40450171329903" lon="10.418216294293202"><ele>17.333333333333336</ele><time>2026-05-02T09:16:43Z</time></trkpt><trkpt lat="43.40449445461292" lon="10.418321880992005"><ele>17.166666666666668</ele><time>2026-05-02T09:16:44Z</time></trkpt><trkpt lat="43.404479413777786" lon="10.418425377345429"><ele>17.0</ele><time>2026-05-02T09:16:45Z</time></trkpt><trkpt lat="43.40446011783473" lon="10.41852759583825"><ele>16.999999999999996</ele><time>2026-05-02T09:16:46Z</time></trkpt><trkpt lat="43.40444942413122" lon="10.418628186014717"><ele>17.0</ele><time>2026-05-02T09:16:47Z</time></trkpt><trkpt lat="43.40443872894526" lon="10.418729454478765"><ele>17.0</ele><time>2026-05-02T09:16:48Z</time></trkpt><trkpt lat="43.404444292248556" lon="10.418829779567426"><ele>17.0</ele><time>2026-05-02T09:16:49Z</time></trkpt><trkpt lat="43.404431734811475" lon="10.418925013982118"><ele>17.0</ele><time>2026-05-02T09:16:50Z</time></trkpt><trkpt lat="43.404424357001325" lon="10.419018105776011"><ele>16.999999999999996</ele><time>2026-05-02T09:16:51Z</time></trkpt><trkpt lat="43.404410727137716" lon="10.419112074562227"><ele>17.0</ele><time>2026-05-02T09:16:52Z</time></trkpt><trkpt lat="43.40439608476025" lon="10.419202772378519"><ele>16.666666666666668</ele><time>2026-05-02T09:16:53Z</time></trkpt><trkpt lat="43.4043823276999" lon="10.419292846212116"><ele>16.333333333333336</ele><time>2026-05-02T09:16:54Z</time></trkpt><trkpt lat="43.40437456599337" lon="10.419382259621027"><ele>16.0</ele><time>2026-05-02T09:16:55Z</time></trkpt><trkpt lat="43.404368076503744" lon="10.419469500796657"><ele>15.666666666666668</ele><time>2026-05-02T09:16:56Z</time></trkpt><trkpt lat="43.4043578979513" lon="10.419561032826715"><ele>15.333333333333334</ele><time>2026-05-02T09:16:57Z</time></trkpt><trkpt lat="43.40433700358433" lon="10.419726677793403"><ele>15.0</ele><time>2026-05-02T09:16:59Z</time></trkpt><trkpt lat="43.404330153455945" lon="10.41982311247968"><ele>15.0</ele><time>2026-05-02T09:17:00Z</time></trkpt><trkpt lat="43.40431358397321" lon="10.419985760153887"><ele>15.0</ele><time>2026-05-02T09:17:02Z</time></trkpt><trkpt lat="43.404303046914194" lon="10.420155928895179"><ele>15.0</ele><time>2026-05-02T09:17:04Z</time></trkpt><trkpt lat="43.40429712601809" lon="10.420243574689348"><ele>15.0</ele><time>2026-05-02T09:17:05Z</time></trkpt><trkpt lat="43.40427280816405" lon="10.420323705533136"><ele>15.0</ele><time>2026-05-02T09:17:06Z</time></trkpt><trkpt lat="43.40426440635677" lon="10.420409758932314"><ele>15.0</ele><time>2026-05-02T09:17:07Z</time></trkpt><trkpt lat="43.40425571780662" lon="10.420498749234097"><ele>14.833333333333334</ele><time>2026-05-02T09:17:08Z</time></trkpt><trkpt lat="43.40423914709261" lon="10.42066910693985"><ele>14.666666666666668</ele><time>2026-05-02T09:17:10Z</time></trkpt><trkpt lat="43.40422847031428" lon="10.420756948079894"><ele>14.5</ele><time>2026-05-02T09:17:11Z</time></trkpt><trkpt lat="43.40422287872314" lon="10.420848734166327"><ele>14.333333333333334</ele><time>2026-05-02T09:17:12Z</time></trkpt><trkpt lat="43.404196511520574" lon="10.420930981126723"><ele>14.166666666666668</ele><time>2026-05-02T09:17:13Z</time></trkpt><trkpt lat="43.40416742298205" lon="10.42101421462355"><ele>14.0</ele><time>2026-05-02T09:17:14Z</time></trkpt><trkpt lat="43.4041382028197" lon="10.421100435130354"><ele>14.0</ele><time>2026-05-02T09:17:15Z</time></trkpt><trkpt lat="43.40410231091932" lon="10.421182304614396"><ele>14.0</ele><time>2026-05-02T09:17:16Z</time></trkpt><trkpt lat="43.404066217566275" lon="10.421264326751889"><ele>14.0</ele><time>2026-05-02T09:17:17Z</time></trkpt><trkpt lat="43.404020535533476" lon="10.421338525079673"><ele>14.0</ele><time>2026-05-02T09:17:18Z</time></trkpt><trkpt lat="43.40397070708055" lon="10.421407283724418"><ele>14.0</ele><time>2026-05-02T09:17:19Z</time></trkpt><trkpt lat="43.403925789371" lon="10.421473901855114"><ele>14.0</ele><time>2026-05-02T09:17:20Z</time></trkpt><trkpt lat="43.40386977233866" lon="10.421535598156117"><ele>14.0</ele><time>2026-05-02T09:17:21Z</time></trkpt><trkpt lat="43.40382120115835" lon="10.421597372412055"><ele>14.833333333333334</ele><time>2026-05-02T09:17:22Z</time></trkpt><trkpt lat="43.403725932465186" lon="10.421718127474714"><ele>15.666666666666668</ele><time>2026-05-02T09:17:24Z</time></trkpt><trkpt lat="43.40367836081909" lon="10.42177836880804"><ele>16.5</ele><time>2026-05-02T09:17:25Z</time></trkpt><trkpt lat="43.403630621089796" lon="10.42184330241497"><ele>17.333333333333332</ele><time>2026-05-02T09:17:26Z</time></trkpt><trkpt lat="43.403584370490954" lon="10.421908186399179"><ele>18.166666666666664</ele><time>2026-05-02T09:17:27Z</time></trkpt><trkpt lat="43.40353810764964" lon="10.421968017506037"><ele>19.0</ele><time>2026-05-02T09:17:28Z</time></trkpt><trkpt lat="43.403447902060094" lon="10.422086985605775"><ele>19.0</ele><time>2026-05-02T09:17:30Z</time></trkpt><trkpt lat="43.40336150537206" lon="10.422209898355323"><ele>19.0</ele><time>2026-05-02T09:17:32Z</time></trkpt><trkpt lat="43.40327171292472" lon="10.42232553379882"><ele>19.0</ele><time>2026-05-02T09:17:34Z</time></trkpt><trkpt lat="43.40322622773833" lon="10.422387583932526"><ele>19.0</ele><time>2026-05-02T09:17:35Z</time></trkpt><trkpt lat="43.40318283090783" lon="10.422451322741413"><ele>19.0</ele><time>2026-05-02T09:17:36Z</time></trkpt><trkpt lat="43.40309860994935" lon="10.422563894057946"><ele>19.0</ele><time>2026-05-02T09:17:38Z</time></trkpt><trkpt lat="43.40301568129989" lon="10.422682437921633"><ele>19.0</ele><time>2026-05-02T09:17:40Z</time></trkpt><trkpt lat="43.40293359796724" lon="10.422786440067147"><ele>19.0</ele><time>2026-05-02T09:17:42Z</time></trkpt><trkpt lat="43.402857424425385" lon="10.422888031721113"><ele>19.0</ele><time>2026-05-02T09:17:44Z</time></trkpt><trkpt lat="43.40277789478573" lon="10.422994099396025"><ele>19.0</ele><time>2026-05-02T09:17:46Z</time></trkpt><trkpt lat="43.40271170668091" lon="10.423082373684743"><ele>19.0</ele><time>2026-05-02T09:17:48Z</time></trkpt><trkpt lat="43.4028030528341" lon="10.423248220670512"><ele>19.0</ele><time>2026-05-02T09:17:50Z</time></trkpt><trkpt lat="43.40287753401488" lon="10.42333435395655"><ele>19.0</ele><time>2026-05-02T09:17:52Z</time></trkpt><trkpt lat="43.40295202451527" lon="10.423431188437736"><ele>19.0</ele><time>2026-05-02T09:17:54Z</time></trkpt><trkpt lat="43.40302107171381" lon="10.42353448156138"><ele>19.0</ele><time>2026-05-02T09:17:56Z</time></trkpt><trkpt lat="43.403101468637274" lon="10.423596779579782"><ele>19.0</ele><time>2026-05-02T09:17:58Z</time></trkpt><trkpt lat="43.403190456048804" lon="10.423512436079093"><ele>19.0</ele><time>2026-05-02T09:18:00Z</time></trkpt><trkpt lat="43.403255444418576" lon="10.423394445676996"><ele>19.0</ele><time>2026-05-02T09:18:02Z</time></trkpt><trkpt lat="43.40333664542905" lon="10.423285148454653"><ele>19.0</ele><time>2026-05-02T09:18:04Z</time></trkpt><trkpt lat="43.40340777921204" lon="10.423196046225266"><ele>19.0</ele><time>2026-05-02T09:18:06Z</time></trkpt><trkpt lat="43.403481136877986" lon="10.423109846316343"><ele>19.0</ele><time>2026-05-02T09:18:08Z</time></trkpt><trkpt lat="43.40354947173673" lon="10.42303628604018"><ele>19.0</ele><time>2026-05-02T09:18:10Z</time></trkpt><trkpt lat="43.40363853113915" lon="10.423181888980016"><ele>19.0</ele><time>2026-05-02T09:18:12Z</time></trkpt><trkpt lat="43.40367888976356" lon="10.423279915409296"><ele>19.0</ele><time>2026-05-02T09:18:14Z</time></trkpt><trkpt lat="43.40372341334154" lon="10.423359717855037"><ele>19.0</ele><time>2026-05-02T09:18:16Z</time></trkpt><trkpt lat="43.40376399433324" lon="10.423458120097678"><ele>19.0</ele><time>2026-05-02T09:18:18Z</time></trkpt><trkpt lat="43.40380165279313" lon="10.42354968863068"><ele>19.0</ele><time>2026-05-02T09:18:20Z</time></trkpt><trkpt lat="43.40384292691261" lon="10.42364939293566"><ele>19.0</ele><time>2026-05-02T09:18:22Z</time></trkpt><trkpt lat="43.403890907821" lon="10.423751788777754"><ele>19.0</ele><time>2026-05-02T09:18:24Z</time></trkpt><trkpt lat="43.40396362108184" lon="10.423892214700675"><ele>19.0</ele><time>2026-05-02T09:18:26Z</time></trkpt><trkpt lat="43.40400506024207" lon="10.423977179927443"><ele>19.0</ele><time>2026-05-02T09:18:27Z</time></trkpt><trkpt lat="43.404055249270726" lon="10.424065483293163"><ele>19.0</ele><time>2026-05-02T09:18:28Z</time></trkpt><trkpt lat="43.404113436407116" lon="10.424152998959727"><ele>19.0</ele><time>2026-05-02T09:18:29Z</time></trkpt><trkpt lat="43.404164052402656" lon="10.42424029431262"><ele>19.0</ele><time>2026-05-02T09:18:30Z</time></trkpt><trkpt lat="43.40422252328855" lon="10.424328708970663"><ele>19.0</ele><time>2026-05-02T09:18:31Z</time></trkpt><trkpt lat="43.40428429825931" lon="10.42440674949965"><ele>19.0</ele><time>2026-05-02T09:18:32Z</time></trkpt><trkpt lat="43.4043540879609" lon="10.424491080057246"><ele>19.0</ele><time>2026-05-02T09:18:33Z</time></trkpt><trkpt lat="43.404414336201384" lon="10.4245787282282"><ele>19.0</ele><time>2026-05-02T09:18:34Z</time></trkpt><trkpt lat="43.40448426376142" lon="10.424660248290568"><ele>19.0</ele><time>2026-05-02T09:18:35Z</time></trkpt><trkpt lat="43.40456054597455" lon="10.424731646403213"><ele>19.0</ele><time>2026-05-02T09:18:36Z</time></trkpt><trkpt lat="43.40464190499458" lon="10.424776136447093"><ele>19.0</ele><time>2026-05-02T09:18:37Z</time></trkpt><trkpt lat="43.40471286906951" lon="10.42479935298392"><ele>19.0</ele><time>2026-05-02T09:18:38Z</time></trkpt><trkpt lat="43.40477779038582" lon="10.424804182376475"><ele>19.0</ele><time>2026-05-02T09:18:39Z</time></trkpt><trkpt lat="43.40486978861463" lon="10.424856946288878"><ele>19.0</ele><time>2026-05-02T09:18:41Z</time></trkpt><trkpt lat="43.404968688258386" lon="10.424872954303167"><ele>19.0</ele><time>2026-05-02T09:18:43Z</time></trkpt><trkpt lat="43.405028389386715" lon="10.4247704074065"><ele>19.0</ele><time>2026-05-02T09:18:45Z</time></trkpt><trkpt lat="43.40505332209544" lon="10.424652852306782"><ele>19.333333333333332</ele><time>2026-05-02T09:18:47Z</time></trkpt><trkpt lat="43.40508377959319" lon="10.424539234645442"><ele>19.666666666666664</ele><time>2026-05-02T09:18:49Z</time></trkpt><trkpt lat="43.40512552256088" lon="10.424436472857456"><ele>20.0</ele><time>2026-05-02T09:18:51Z</time></trkpt><trkpt lat="43.40515395941784" lon="10.424331107896373"><ele>20.333333333333332</ele><time>2026-05-02T09:18:53Z</time></trkpt><trkpt lat="43.405182324837625" lon="10.424227222100402"><ele>20.666666666666668</ele><time>2026-05-02T09:18:55Z</time></trkpt><trkpt lat="43.40521582838076" lon="10.424121512879081"><ele>21.0</ele><time>2026-05-02T09:18:57Z</time></trkpt><trkpt lat="43.40524915803395" lon="10.424009044882768"><ele>21.0</ele><time>2026-05-02T09:18:59Z</time></trkpt><trkpt lat="43.40528048205884" lon="10.423900562149802"><ele>21.0</ele><time>2026-05-02T09:19:01Z</time></trkpt><trkpt lat="43.40530778769864" lon="10.423787955646858"><ele>21.0</ele><time>2026-05-02T09:19:03Z</time></trkpt><trkpt lat="43.40533944923182" lon="10.423675975976513"><ele>21.0</ele><time>2026-05-02T09:19:05Z</time></trkpt><trkpt lat="43.40536903462765" lon="10.42356313960024"><ele>21.0</ele><time>2026-05-02T09:19:07Z</time></trkpt><trkpt lat="43.40540326669948" lon="10.423455056848073"><ele>21.0</ele><time>2026-05-02T09:19:09Z</time></trkpt><trkpt lat="43.4054417274973" lon="10.423342322179554"><ele>21.333333333333332</ele><time>2026-05-02T09:19:11Z</time></trkpt><trkpt lat="43.40547462824492" lon="10.423229793986193"><ele>21.666666666666668</ele><time>2026-05-02T09:19:13Z</time></trkpt><trkpt lat="43.40550012800425" lon="10.423108949429391"><ele>22.0</ele><time>2026-05-02T09:19:15Z</time></trkpt><trkpt lat="43.40553175968013" lon="10.422994214253917"><ele>22.333333333333336</ele><time>2026-05-02T09:19:17Z</time></trkpt><trkpt lat="43.4055652159193" lon="10.422878870984926"><ele>22.666666666666668</ele><time>2026-05-02T09:19:19Z</time></trkpt><trkpt lat="43.40559934648596" lon="10.422767982274644"><ele>23.0</ele><time>2026-05-02T09:19:21Z</time></trkpt><trkpt lat="43.40563265623204" lon="10.42265348459632"><ele>23.166666666666668</ele><time>2026-05-02T09:19:23Z</time></trkpt><trkpt lat="43.405664085019254" lon="10.42254132872492"><ele>23.333333333333336</ele><time>2026-05-02T09:19:25Z</time></trkpt><trkpt lat="43.40569818794166" lon="10.42242443581074"><ele>23.5</ele><time>2026-05-02T09:19:27Z</time></trkpt><trkpt lat="43.40573019578772" lon="10.422311736881152"><ele>23.666666666666668</ele><time>2026-05-02T09:19:29Z</time></trkpt><trkpt lat="43.40576419124729" lon="10.422198664067885"><ele>23.833333333333332</ele><time>2026-05-02T09:19:31Z</time></trkpt><trkpt lat="43.4057938961718" lon="10.422085037043246"><ele>24.0</ele><time>2026-05-02T09:19:33Z</time></trkpt><trkpt lat="43.40583226036958" lon="10.421967643090351"><ele>24.0</ele><time>2026-05-02T09:19:35Z</time></trkpt><trkpt lat="43.405863178632515" lon="10.421859769494143"><ele>24.0</ele><time>2026-05-02T09:19:37Z</time></trkpt><trkpt lat="43.4058970562894" lon="10.42175212115868"><ele>24.0</ele><time>2026-05-02T09:19:39Z</time></trkpt><trkpt lat="43.40593022711288" lon="10.421644490395819"><ele>24.0</ele><time>2026-05-02T09:19:41Z</time></trkpt><trkpt lat="43.40596362579455" lon="10.421528962810365"><ele>24.0</ele><time>2026-05-02T09:19:43Z</time></trkpt><trkpt lat="43.40599286738258" lon="10.421414982236923"><ele>24.0</ele><time>2026-05-02T09:19:45Z</time></trkpt><trkpt lat="43.4060287337968" lon="10.421300332620941"><ele>24.333333333333332</ele><time>2026-05-02T09:19:47Z</time></trkpt><trkpt lat="43.406063372865376" lon="10.42118696280809"><ele>24.666666666666664</ele><time>2026-05-02T09:19:49Z</time></trkpt><trkpt lat="43.40609032381557" lon="10.421076337565328"><ele>25.0</ele><time>2026-05-02T09:19:51Z</time></trkpt><trkpt lat="43.40611182448781" lon="10.420959925725723"><ele>25.333333333333332</ele><time>2026-05-02T09:19:53Z</time></trkpt><trkpt lat="43.406141752205066" lon="10.420849305651572"><ele>25.666666666666664</ele><time>2026-05-02T09:19:55Z</time></trkpt><trkpt lat="43.40617088507288" lon="10.420739321845888"><ele>26.0</ele><time>2026-05-02T09:19:57Z</time></trkpt><trkpt lat="43.40617987410766" lon="10.420622566926369"><ele>26.0</ele><time>2026-05-02T09:19:59Z</time></trkpt><trkpt lat="43.40619161684515" lon="10.420498672688352"><ele>26.0</ele><time>2026-05-02T09:20:01Z</time></trkpt><trkpt lat="43.40620361704961" lon="10.42037304632694"><ele>26.0</ele><time>2026-05-02T09:20:03Z</time></trkpt><trkpt lat="43.40621454402043" lon="10.420243860341683"><ele>26.0</ele><time>2026-05-02T09:20:05Z</time></trkpt><trkpt lat="43.406228488453706" lon="10.420111137300024"><ele>26.0</ele><time>2026-05-02T09:20:07Z</time></trkpt><trkpt lat="43.40624231650987" lon="10.419976428167223"><ele>26.0</ele><time>2026-05-02T09:20:09Z</time></trkpt><trkpt lat="43.40626852293476" lon="10.419852854212186"><ele>26.0</ele><time>2026-05-02T09:20:11Z</time></trkpt><trkpt lat="43.406284745771174" lon="10.41972798826643"><ele>26.0</ele><time>2026-05-02T09:20:13Z</time></trkpt><trkpt lat="43.40630768057675" lon="10.41959222591034"><ele>26.0</ele><time>2026-05-02T09:20:15Z</time></trkpt><trkpt lat="43.40633716188965" lon="10.419467334066729"><ele>26.0</ele><time>2026-05-02T09:20:17Z</time></trkpt><trkpt lat="43.4063558769527" lon="10.419321146522849"><ele>26.8</ele><time>2026-05-02T09:20:19Z</time></trkpt><trkpt lat="43.406377446969195" lon="10.419184295641697"><ele>27.6</ele><time>2026-05-02T09:20:21Z</time></trkpt><trkpt lat="43.40639757925197" lon="10.419043397386499"><ele>28.4</ele><time>2026-05-02T09:20:23Z</time></trkpt><trkpt lat="43.40642442686717" lon="10.418906545477263"><ele>29.2</ele><time>2026-05-02T09:20:25Z</time></trkpt><trkpt lat="43.40644734859284" lon="10.418764535582401"><ele>30.0</ele><time>2026-05-02T09:20:27Z</time></trkpt><trkpt lat="43.40647000458634" lon="10.418625592068375"><ele>30.0</ele><time>2026-05-02T09:20:29Z</time></trkpt><trkpt lat="43.40649844968042" lon="10.418481601052246"><ele>30.0</ele><time>2026-05-02T09:20:31Z</time></trkpt><trkpt lat="43.40652650014844" lon="10.418349121451328"><ele>30.0</ele><time>2026-05-02T09:20:33Z</time></trkpt><trkpt lat="43.406554729391274" lon="10.418220619218866"><ele>30.0</ele><time>2026-05-02T09:20:35Z</time></trkpt><trkpt lat="43.406588782562345" lon="10.418095227806422"><ele>30.0</ele><time>2026-05-02T09:20:37Z</time></trkpt><trkpt lat="43.406622569924835" lon="10.417969776066117"><ele>30.2</ele><time>2026-05-02T09:20:39Z</time></trkpt><trkpt lat="43.40665620373199" lon="10.41785590536034"><ele>30.4</ele><time>2026-05-02T09:20:41Z</time></trkpt><trkpt lat="43.40669561107587" lon="10.417753348955088"><ele>30.6</ele><time>2026-05-02T09:20:43Z</time></trkpt><trkpt lat="43.406864578739686" lon="10.417784472292727"><ele>30.8</ele><time>2026-05-02T09:20:47Z</time></trkpt><trkpt lat="43.40692515502851" lon="10.41783296447703"><ele>31.0</ele><time>2026-05-02T09:20:49Z</time></trkpt><trkpt lat="43.406996006602704" lon="10.41787473411178"><ele>31.0</ele><time>2026-05-02T09:20:51Z</time></trkpt><trkpt lat="43.407069213985594" lon="10.417915110383754"><ele>31.000000000000004</ele><time>2026-05-02T09:20:53Z</time></trkpt><trkpt lat="43.40713818789671" lon="10.417967933992918"><ele>31.0</ele><time>2026-05-02T09:20:55Z</time></trkpt><trkpt lat="43.40720236374037" lon="10.418009210251036"><ele>31.0</ele><time>2026-05-02T09:20:57Z</time></trkpt><trkpt lat="43.40726650949544" lon="10.41805112116519"><ele>31.000000000000004</ele><time>2026-05-02T09:20:59Z</time></trkpt><trkpt lat="43.407329536502225" lon="10.41807597392937"><ele>31.0</ele><time>2026-05-02T09:21:01Z</time></trkpt><trkpt lat="43.407394789309066" lon="10.418100561689927"><ele>31.0</ele><time>2026-05-02T09:21:03Z</time></trkpt><trkpt lat="43.40749142704332" lon="10.418116224396641"><ele>32.833333333333336</ele><time>2026-05-02T09:21:06Z</time></trkpt><trkpt lat="43.40758252399573" lon="10.418142403552379"><ele>34.66666666666667</ele><time>2026-05-02T09:21:09Z</time></trkpt><trkpt lat="43.40765007496567" lon="10.418156014962786"><ele>36.5</ele><time>2026-05-02T09:21:11Z</time></trkpt><trkpt lat="43.40771928461664" lon="10.418152737485375"><ele>38.333333333333336</ele><time>2026-05-02T09:21:13Z</time></trkpt><trkpt lat="43.40781161070971" lon="10.418167271118067"><ele>40.166666666666664</ele><time>2026-05-02T09:21:16Z</time></trkpt><trkpt lat="43.40787880220461" lon="10.418172892731507"><ele>42.0</ele><time>2026-05-02T09:21:18Z</time></trkpt><trkpt lat="43.40797039781125" lon="10.418178235019518"><ele>44.833333333333336</ele><time>2026-05-02T09:21:21Z</time></trkpt><trkpt lat="43.408035702853276" lon="10.41817363774438"><ele>47.66666666666667</ele><time>2026-05-02T09:21:23Z</time></trkpt><trkpt lat="43.40812469956987" lon="10.41815421172037"><ele>50.5</ele><time>2026-05-02T09:21:26Z</time></trkpt><trkpt lat="43.40818732410385" lon="10.418136352924982"><ele>53.333333333333336</ele><time>2026-05-02T09:21:28Z</time></trkpt><trkpt lat="43.40826731917313" lon="10.418091838423857"><ele>56.16666666666667</ele><time>2026-05-02T09:21:31Z</time></trkpt><trkpt lat="43.408342048455594" lon="10.418031026023002"><ele>59.0</ele><time>2026-05-02T09:21:34Z</time></trkpt><trkpt lat="43.408409676384856" lon="10.41796192754654"><ele>59.333333333333336</ele><time>2026-05-02T09:21:37Z</time></trkpt><trkpt lat="43.408470946039024" lon="10.417879717828972"><ele>59.66666666666667</ele><time>2026-05-02T09:21:40Z</time></trkpt><trkpt lat="43.408529948298884" lon="10.417800529064701"><ele>60.0</ele><time>2026-05-02T09:21:43Z</time></trkpt><trkpt lat="43.40858725793715" lon="10.417715650898616"><ele>60.33333333333333</ele><time>2026-05-02T09:21:46Z</time></trkpt><trkpt lat="43.40864095805997" lon="10.417633782992555"><ele>60.666666666666664</ele><time>2026-05-02T09:21:49Z</time></trkpt><trkpt lat="43.408680620390214" lon="10.417561121157608"><ele>61.0</ele><time>2026-05-02T09:21:51Z</time></trkpt><trkpt lat="43.40873310717754" lon="10.41746005279255"><ele>60.99999999999999</ele><time>2026-05-02T09:21:54Z</time></trkpt><trkpt lat="43.40877418319771" lon="10.417391691103184"><ele>61.0</ele><time>2026-05-02T09:21:56Z</time></trkpt><trkpt lat="43.40882426837117" lon="10.417285988220518"><ele>61.0</ele><time>2026-05-02T09:21:59Z</time></trkpt><trkpt lat="43.408876340273494" lon="10.417195362264737"><ele>61.0</ele><time>2026-05-02T09:22:02Z</time></trkpt><trkpt lat="43.40892576566316" lon="10.417096758576818"><ele>60.99999999999999</ele><time>2026-05-02T09:22:05Z</time></trkpt><trkpt lat="43.40897889670643" lon="10.416992297782496"><ele>61.0</ele><time>2026-05-02T09:22:08Z</time></trkpt><trkpt lat="43.409026660098476" lon="10.41689128639659"><ele>62.99999999999999</ele><time>2026-05-02T09:22:11Z</time></trkpt><trkpt lat="43.40908637045902" lon="10.416802983456156"><ele>65.0</ele><time>2026-05-02T09:22:14Z</time></trkpt><trkpt lat="43.409139775894594" lon="10.416714404651136"><ele>67.0</ele><time>2026-05-02T09:22:17Z</time></trkpt><trkpt lat="43.40919784071745" lon="10.416622359570052"><ele>69.0</ele><time>2026-05-02T09:22:20Z</time></trkpt><trkpt lat="43.409246568539196" lon="10.416521940770462"><ele>71.0</ele><time>2026-05-02T09:22:23Z</time></trkpt><trkpt lat="43.40928910769448" lon="10.416424542567022"><ele>73.0</ele><time>2026-05-02T09:22:26Z</time></trkpt><trkpt lat="43.4093405751105" lon="10.4163330614603"><ele>73.16666666666666</ele><time>2026-05-02T09:22:29Z</time></trkpt><trkpt lat="43.4094087839046" lon="10.41623852247068"><ele>73.33333333333333</ele><time>2026-05-02T09:22:32Z</time></trkpt><trkpt lat="43.409441915337744" lon="10.416135238409657"><ele>73.5</ele><time>2026-05-02T09:22:35Z</time></trkpt><trkpt lat="43.409492001880935" lon="10.416056220293212"><ele>73.66666666666667</ele><time>2026-05-02T09:22:38Z</time></trkpt><trkpt lat="43.40954084405106" lon="10.41596242119989"><ele>73.83333333333334</ele><time>2026-05-02T09:22:41Z</time></trkpt><trkpt lat="43.409599194315035" lon="10.415874782852073"><ele>74.0</ele><time>2026-05-02T09:22:44Z</time></trkpt><trkpt lat="43.40964134989608" lon="10.415780645739392"><ele>74.66666666666667</ele><time>2026-05-02T09:22:47Z</time></trkpt><trkpt lat="43.40969295003637" lon="10.41567635387364"><ele>75.33333333333334</ele><time>2026-05-02T09:22:50Z</time></trkpt><trkpt lat="43.409744324451125" lon="10.415587096709135"><ele>76.0</ele><time>2026-05-02T09:22:53Z</time></trkpt><trkpt lat="43.40978263688983" lon="10.415509840733002"><ele>76.66666666666667</ele><time>2026-05-02T09:22:56Z</time></trkpt><trkpt lat="43.409771276251725" lon="10.415392381707296"><ele>77.33333333333333</ele><time>2026-05-02T09:22:59Z</time></trkpt><trkpt lat="43.40969299806975" lon="10.415292731695311"><ele>78.0</ele><time>2026-05-02T09:23:01Z</time></trkpt><trkpt lat="43.4095981617134" lon="10.415214138466615"><ele>78.0</ele><time>2026-05-02T09:23:03Z</time></trkpt><trkpt lat="43.409499900563276" lon="10.415090982953878"><ele>78.0</ele><time>2026-05-02T09:23:05Z</time></trkpt><trkpt lat="43.40944497916845" lon="10.415028189524953"><ele>78.0</ele><time>2026-05-02T09:23:06Z</time></trkpt><trkpt lat="43.40938267548939" lon="10.414982095535292"><ele>78.0</ele><time>2026-05-02T09:23:07Z</time></trkpt><trkpt lat="43.409315941759345" lon="10.41492670359153"><ele>78.0</ele><time>2026-05-02T09:23:08Z</time></trkpt><trkpt lat="43.409256703109705" lon="10.414861131987264"><ele>78.0</ele><time>2026-05-02T09:23:09Z</time></trkpt><trkpt lat="43.40919312772151" lon="10.414793018279203"><ele>78.0</ele><time>2026-05-02T09:23:10Z</time></trkpt><trkpt lat="43.40913390844205" lon="10.414720503884649"><ele>78.0</ele><time>2026-05-02T09:23:11Z</time></trkpt><trkpt lat="43.40907096895942" lon="10.414649571255577"><ele>78.0</ele><time>2026-05-02T09:23:12Z</time></trkpt><trkpt lat="43.40900246875329" lon="10.414580436945766"><ele>78.0</ele><time>2026-05-02T09:23:13Z</time></trkpt><trkpt lat="43.40893560864349" lon="10.414516191152645"><ele>78.0</ele><time>2026-05-02T09:23:14Z</time></trkpt><trkpt lat="43.4088586508464" lon="10.414455984225576"><ele>78.0</ele><time>2026-05-02T09:23:15Z</time></trkpt><trkpt lat="43.40881195570563" lon="10.414364327496555"><ele>77.57142857142857</ele><time>2026-05-02T09:23:16Z</time></trkpt><trkpt lat="43.40878553626479" lon="10.414273802920555"><ele>77.14285714285714</ele><time>2026-05-02T09:23:17Z</time></trkpt><trkpt lat="43.40876910843327" lon="10.414172621461354"><ele>76.71428571428571</ele><time>2026-05-02T09:23:18Z</time></trkpt><trkpt lat="43.408757858223005" lon="10.4140757514654"><ele>76.28571428571428</ele><time>2026-05-02T09:23:19Z</time></trkpt><trkpt lat="43.40874739789745" lon="10.413977517761543"><ele>75.85714285714286</ele><time>2026-05-02T09:23:20Z</time></trkpt><trkpt lat="43.4087402463629" lon="10.413885142529066"><ele>75.42857142857142</ele><time>2026-05-02T09:23:21Z</time></trkpt><trkpt lat="43.40873352562514" lon="10.413791158962537"><ele>75.0</ele><time>2026-05-02T09:23:22Z</time></trkpt><trkpt lat="43.40873451080458" lon="10.413701060438632"><ele>75.0</ele><time>2026-05-02T09:23:23Z</time></trkpt><trkpt lat="43.40872845913421" lon="10.41352555605841"><ele>75.0</ele><time>2026-05-02T09:23:25Z</time></trkpt><trkpt lat="43.40874106063542" lon="10.41336432499279"><ele>75.0</ele><time>2026-05-02T09:23:27Z</time></trkpt><trkpt lat="43.40877413714207" lon="10.413211333774726"><ele>75.0</ele><time>2026-05-02T09:23:29Z</time></trkpt><trkpt lat="43.40884954879735" lon="10.413073784712054"><ele>74.4</ele><time>2026-05-02T09:23:31Z</time></trkpt><trkpt lat="43.40894218401354" lon="10.412952898700688"><ele>73.8</ele><time>2026-05-02T09:23:33Z</time></trkpt><trkpt lat="43.40898682873939" lon="10.412883992693576"><ele>73.2</ele><time>2026-05-02T09:23:34Z</time></trkpt><trkpt lat="43.40906264657177" lon="10.412770883246706"><ele>72.6</ele><time>2026-05-02T09:23:36Z</time></trkpt><trkpt lat="43.40914306650519" lon="10.412677269176308"><ele>72.0</ele><time>2026-05-02T09:23:38Z</time></trkpt><trkpt lat="43.40918282624186" lon="10.412595074492598"><ele>72.0</ele><time>2026-05-02T09:23:40Z</time></trkpt><trkpt lat="43.409250334479474" lon="10.412552601405624"><ele>72.0</ele><time>2026-05-02T09:24:02Z</time></trkpt><trkpt lat="43.40922171684214" lon="10.412642922712287"><ele>72.0</ele><time>2026-05-02T09:24:13Z</time></trkpt><trkpt lat="43.40931242930152" lon="10.41256182418736"><ele>72.0</ele><time>2026-05-02T09:24:15Z</time></trkpt><trkpt lat="43.40944320494351" lon="10.4129008209416"><ele>72.0</ele><time>2026-05-02T09:24:24Z</time></trkpt></trkseg></trk></gpx>